<?xml version='1.0' encoding='UTF-8'?><gpx version="1.1" creator="JPX - https://github.com/jenetics/jpx" xmlns="http://www.topografix.com/GPX/1/1"><trk><trkseg><trkpt lat="43.5061066" lon="13.4807016"><ele>120.0</ele><time>2026-04-28T08:34:45.784Z</time></trkpt><trkpt lat="43.5060879" lon="13.4808169"><ele>120.0</ele><time>2026-04-28T08:34:48.823Z</time></trkpt><trkpt lat="43.5060807" lon="13.4809139"><ele>120.0</ele><time>2026-04-28T08:34:50.812Z</time></trkpt><trkpt lat="43.5060666" lon="13.4810494"><ele>120.0</ele><time>2026-04-28T08:34:52.79Z</time></trkpt><trkpt lat="43.5060459" lon="13.4812336"><ele>120.0</ele><time>2026-04-28T08:34:54.794Z</time></trkpt><trkpt lat="43.5060328" lon="13.4813549"><ele>119.6</ele><time>2026-04-28T08:34:55.787Z</time></trkpt><trkpt lat="43.5060156" lon="13.4814831"><ele>119.2</ele><time>2026-04-28T08:34:56.788Z</time></trkpt><trkpt lat="43.5059924" lon="13.4816202"><ele>118.80000000000001</ele><time>2026-04-28T08:34:57.795Z</time></trkpt><trkpt lat="43.5059762" lon="13.4817521"><ele>118.4</ele><time>2026-04-28T08:34:58.799Z</time></trkpt><trkpt lat="43.5059599" lon="13.4818749"><ele>118.0</ele><time>2026-04-28T08:34:59.814Z</time></trkpt><trkpt lat="43.5059482" lon="13.4819915"><ele>117.00000000000001</ele><time>2026-04-28T08:35:00.797Z</time></trkpt><trkpt lat="43.5059395" lon="13.48211"><ele>116.0</ele><time>2026-04-28T08:35:01.804Z</time></trkpt><trkpt lat="43.5059319" lon="13.4822299"><ele>115.0</ele><time>2026-04-28T08:35:02.802Z</time></trkpt><trkpt lat="43.5059268" lon="13.4823456"><ele>114.0</ele><time>2026-04-28T08:35:03.801Z</time></trkpt><trkpt lat="43.5059252" lon="13.482461"><ele>113.00000000000001</ele><time>2026-04-28T08:35:04.788Z</time></trkpt><trkpt lat="43.505923" lon="13.4825734"><ele>112.0</ele><time>2026-04-28T08:35:05.791Z</time></trkpt><trkpt lat="43.5059242" lon="13.4826726"><ele>112.00000000000001</ele><time>2026-04-28T08:35:06.8Z</time></trkpt><trkpt lat="43.5059223" lon="13.4827621"><ele>112.0</ele><time>2026-04-28T08:35:07.794Z</time></trkpt><trkpt lat="43.5059198" lon="13.4828985"><ele>112.0</ele><time>2026-04-28T08:35:09.785Z</time></trkpt><trkpt lat="43.5058575" lon="13.4829548"><ele>112.0</ele><time>2026-04-28T08:35:12.8Z</time></trkpt><trkpt lat="43.5057696" lon="13.4829503"><ele>112.00000000000001</ele><time>2026-04-28T08:35:14.783Z</time></trkpt><trkpt lat="43.5056535" lon="13.4829559"><ele>112.0</ele><time>2026-04-28T08:35:16.786Z</time></trkpt><trkpt lat="43.5055307" lon="13.4829193"><ele>112.00000000000001</ele><time>2026-04-28T08:35:18.786Z</time></trkpt><trkpt lat="43.5054661" lon="13.4828868"><ele>112.0</ele><time>2026-04-28T08:35:19.801Z</time></trkpt><trkpt lat="43.5054062" lon="13.4828465"><ele>112.0</ele><time>2026-04-28T08:35:20.793Z</time></trkpt><trkpt lat="43.5053414" lon="13.4828097"><ele>112.0</ele><time>2026-04-28T08:35:21.787Z</time></trkpt><trkpt lat="43.505281" lon="13.4827679"><ele>112.00000000000001</ele><time>2026-04-28T08:35:22.781Z</time></trkpt><trkpt lat="43.5051749" lon="13.482681"><ele>112.0</ele><time>2026-04-28T08:35:24.785Z</time></trkpt><trkpt lat="43.5051186" lon="13.4826247"><ele>111.85714285714286</ele><time>2026-04-28T08:35:25.799Z</time></trkpt><trkpt lat="43.5050647" lon="13.4825611"><ele>111.71428571428572</ele><time>2026-04-28T08:35:26.785Z</time></trkpt><trkpt lat="43.505017" lon="13.4824881"><ele>111.57142857142857</ele><time>2026-04-28T08:35:27.803Z</time></trkpt><trkpt lat="43.5049711" lon="13.4824094"><ele>111.42857142857143</ele><time>2026-04-28T08:35:28.791Z</time></trkpt><trkpt lat="43.5049238" lon="13.482319"><ele>111.28571428571429</ele><time>2026-04-28T08:35:29.791Z</time></trkpt><trkpt lat="43.5048787" lon="13.4822358"><ele>111.14285714285714</ele><time>2026-04-28T08:35:30.795Z</time></trkpt><trkpt lat="43.5048355" lon="13.4821633"><ele>111.0</ele><time>2026-04-28T08:35:31.79Z</time></trkpt><trkpt lat="43.5047905" lon="13.4820971"><ele>110.33333333333333</ele><time>2026-04-28T08:35:32.791Z</time></trkpt><trkpt lat="43.5047464" lon="13.482027"><ele>109.66666666666666</ele><time>2026-04-28T08:35:33.778Z</time></trkpt><trkpt lat="43.5046997" lon="13.4819654"><ele>109.0</ele><time>2026-04-28T08:35:34.802Z</time></trkpt><trkpt lat="43.5046153" lon="13.4818348"><ele>108.33333333333333</ele><time>2026-04-28T08:35:36.784Z</time></trkpt><trkpt lat="43.504572" lon="13.4817619"><ele>107.66666666666666</ele><time>2026-04-28T08:35:37.795Z</time></trkpt><trkpt lat="43.5045284" lon="13.481691"><ele>107.0</ele><time>2026-04-28T08:35:38.8Z</time></trkpt><trkpt lat="43.504491" lon="13.4816121"><ele>106.99999999999999</ele><time>2026-04-28T08:35:39.791Z</time></trkpt><trkpt lat="43.5044507" lon="13.4815385"><ele>107.0</ele><time>2026-04-28T08:35:40.796Z</time></trkpt><trkpt lat="43.5043909" lon="13.4813849"><ele>107.0</ele><time>2026-04-28T08:35:42.807Z</time></trkpt><trkpt lat="43.5043612" lon="13.4813003"><ele>107.0</ele><time>2026-04-28T08:35:43.791Z</time></trkpt><trkpt lat="43.5043319" lon="13.4812145"><ele>106.99999999999999</ele><time>2026-04-28T08:35:44.788Z</time></trkpt><trkpt lat="43.5043052" lon="13.4811293"><ele>107.0</ele><time>2026-04-28T08:35:45.807Z</time></trkpt><trkpt lat="43.5042766" lon="13.4810409"><ele>107.83333333333333</ele><time>2026-04-28T08:35:46.804Z</time></trkpt><trkpt lat="43.5042533" lon="13.4809522"><ele>108.66666666666666</ele><time>2026-04-28T08:35:47.789Z</time></trkpt><trkpt lat="43.5042337" lon="13.4808631"><ele>109.5</ele><time>2026-04-28T08:35:48.792Z</time></trkpt><trkpt lat="43.5042125" lon="13.4806926"><ele>110.33333333333334</ele><time>2026-04-28T08:35:50.787Z</time></trkpt><trkpt lat="43.5041968" lon="13.480559"><ele>111.16666666666667</ele><time>2026-04-28T08:35:52.791Z</time></trkpt><trkpt lat="43.5041871" lon="13.4804689"><ele>112.0</ele><time>2026-04-28T08:35:54.793Z</time></trkpt><trkpt lat="43.504177" lon="13.4803364"><ele>112.50000000000001</ele><time>2026-04-28T08:35:56.79Z</time></trkpt><trkpt lat="43.5041612" lon="13.4802175"><ele>113.0</ele><time>2026-04-28T08:35:58.788Z</time></trkpt><trkpt lat="43.5041452" lon="13.4801094"><ele>113.5</ele><time>2026-04-28T08:36:00.781Z</time></trkpt><trkpt lat="43.5040842" lon="13.4800274"><ele>114.0</ele><time>2026-04-28T08:36:02.781Z</time></trkpt><trkpt lat="43.5039947" lon="13.4800063"><ele>114.50000000000001</ele><time>2026-04-28T08:36:04.791Z</time></trkpt><trkpt lat="43.5039042" lon="13.4800319"><ele>115.0</ele><time>2026-04-28T08:36:06.779Z</time></trkpt><trkpt lat="43.5037982" lon="13.4800718"><ele>113.00000000000001</ele><time>2026-04-28T08:36:08.797Z</time></trkpt><trkpt lat="43.5036903" lon="13.4800975"><ele>111.0</ele><time>2026-04-28T08:36:10.784Z</time></trkpt><trkpt lat="43.5035633" lon="13.4801268"><ele>109.0</ele><time>2026-04-28T08:36:12.786Z</time></trkpt><trkpt lat="43.5034958" lon="13.4801363"><ele>107.0</ele><time>2026-04-28T08:36:13.791Z</time></trkpt><trkpt lat="43.5034253" lon="13.4801424"><ele>105.00000000000001</ele><time>2026-04-28T08:36:14.787Z</time></trkpt><trkpt lat="43.5033537" lon="13.4801476"><ele>103.0</ele><time>2026-04-28T08:36:15.783Z</time></trkpt><trkpt lat="43.5032823" lon="13.4801558"><ele>103.00000000000001</ele><time>2026-04-28T08:36:16.779Z</time></trkpt><trkpt lat="43.5032114" lon="13.4801679"><ele>103.0</ele><time>2026-04-28T08:36:17.797Z</time></trkpt><trkpt lat="43.5031374" lon="13.4801839"><ele>103.0</ele><time>2026-04-28T08:36:18.783Z</time></trkpt><trkpt lat="43.5030604" lon="13.4802045"><ele>103.0</ele><time>2026-04-28T08:36:19.787Z</time></trkpt><trkpt lat="43.5029807" lon="13.4802245"><ele>103.00000000000001</ele><time>2026-04-28T08:36:20.78Z</time></trkpt><trkpt lat="43.5028979" lon="13.4802435"><ele>103.0</ele><time>2026-04-28T08:36:21.786Z</time></trkpt><trkpt lat="43.5028158" lon="13.4802658"><ele>101.00000000000001</ele><time>2026-04-28T08:36:22.792Z</time></trkpt><trkpt lat="43.5027356" lon="13.4802867"><ele>99.0</ele><time>2026-04-28T08:36:23.795Z</time></trkpt><trkpt lat="43.502655" lon="13.4803058"><ele>97.0</ele><time>2026-04-28T08:36:24.796Z</time></trkpt><trkpt lat="43.5025717" lon="13.4803228"><ele>95.0</ele><time>2026-04-28T08:36:25.803Z</time></trkpt><trkpt lat="43.5024875" lon="13.4803401"><ele>93.0</ele><time>2026-04-28T08:36:26.804Z</time></trkpt><trkpt lat="43.502402" lon="13.4803596"><ele>91.0</ele><time>2026-04-28T08:36:27.78Z</time></trkpt><trkpt lat="43.5023165" lon="13.4803741"><ele>91.0</ele><time>2026-04-28T08:36:28.793Z</time></trkpt><trkpt lat="43.5022305" lon="13.4803896"><ele>91.0</ele><time>2026-04-28T08:36:29.807Z</time></trkpt><trkpt lat="43.5021446" lon="13.4804012"><ele>91.0</ele><time>2026-04-28T08:36:30.795Z</time></trkpt><trkpt lat="43.502057" lon="13.4804112"><ele>91.0</ele><time>2026-04-28T08:36:31.799Z</time></trkpt><trkpt lat="43.5019736" lon="13.4804206"><ele>91.0</ele><time>2026-04-28T08:36:32.81Z</time></trkpt><trkpt lat="43.5018902" lon="13.4804321"><ele>91.0</ele><time>2026-04-28T08:36:33.807Z</time></trkpt><trkpt lat="43.5018007" lon="13.4804429"><ele>88.5</ele><time>2026-04-28T08:36:34.808Z</time></trkpt><trkpt lat="43.5017148" lon="13.4804523"><ele>86.0</ele><time>2026-04-28T08:36:35.804Z</time></trkpt><trkpt lat="43.5016345" lon="13.4804637"><ele>83.5</ele><time>2026-04-28T08:36:36.793Z</time></trkpt><trkpt lat="43.5015525" lon="13.4804749"><ele>81.0</ele><time>2026-04-28T08:36:37.793Z</time></trkpt><trkpt lat="43.5014686" lon="13.4804884"><ele>78.5</ele><time>2026-04-28T08:36:38.788Z</time></trkpt><trkpt lat="43.5013832" lon="13.4805016"><ele>76.0</ele><time>2026-04-28T08:36:39.8Z</time></trkpt><trkpt lat="43.501297" lon="13.4805163"><ele>76.0</ele><time>2026-04-28T08:36:40.82Z</time></trkpt><trkpt lat="43.5012128" lon="13.48053"><ele>76.0</ele><time>2026-04-28T08:36:41.808Z</time></trkpt><trkpt lat="43.5011337" lon="13.4805302"><ele>76.0</ele><time>2026-04-28T08:36:42.782Z</time></trkpt><trkpt lat="43.5010549" lon="13.4805169"><ele>76.0</ele><time>2026-04-28T08:36:43.804Z</time></trkpt><trkpt lat="43.5009871" lon="13.4804748"><ele>76.0</ele><time>2026-04-28T08:36:44.808Z</time></trkpt><trkpt lat="43.5009325" lon="13.4804107"><ele>76.0</ele><time>2026-04-28T08:36:45.812Z</time></trkpt><trkpt lat="43.5008791" lon="13.4803475"><ele>76.0</ele><time>2026-04-28T08:36:46.805Z</time></trkpt><trkpt lat="43.5008243" lon="13.4802914"><ele>76.0</ele><time>2026-04-28T08:36:47.801Z</time></trkpt><trkpt lat="43.5007414" lon="13.4801929"><ele>76.0</ele><time>2026-04-28T08:36:49.801Z</time></trkpt><trkpt lat="43.5006766" lon="13.4801315"><ele>76.0</ele><time>2026-04-28T08:36:51.804Z</time></trkpt><trkpt lat="43.5006145" lon="13.480033"><ele>76.0</ele><time>2026-04-28T08:36:53.8Z</time></trkpt><trkpt lat="43.5005719" lon="13.4799506"><ele>76.0</ele><time>2026-04-28T08:36:54.792Z</time></trkpt><trkpt lat="43.5005272" lon="13.4798657"><ele>76.0</ele><time>2026-04-28T08:36:55.782Z</time></trkpt><trkpt lat="43.5004945" lon="13.4797769"><ele>76.0</ele><time>2026-04-28T08:36:56.79Z</time></trkpt><trkpt lat="43.5004598" lon="13.479666"><ele>76.0</ele><time>2026-04-28T08:36:58.8Z</time></trkpt><trkpt lat="43.5004006" lon="13.4796317"><ele>76.0</ele><time>2026-04-28T08:37:01.799Z</time></trkpt><trkpt lat="43.50029" lon="13.4796976"><ele>76.0</ele><time>2026-04-28T08:37:03.778Z</time></trkpt><trkpt lat="43.5002128" lon="13.479743"><ele>76.0</ele><time>2026-04-28T08:37:04.778Z</time></trkpt><trkpt lat="43.5001269" lon="13.4797867"><ele>74.0</ele><time>2026-04-28T08:37:05.784Z</time></trkpt><trkpt lat="43.5000452" lon="13.4798377"><ele>72.0</ele><time>2026-04-28T08:37:06.78Z</time></trkpt><trkpt lat="43.4999618" lon="13.4798922"><ele>70.0</ele><time>2026-04-28T08:37:07.79Z</time></trkpt><trkpt lat="43.4998789" lon="13.4799547"><ele>68.0</ele><time>2026-04-28T08:37:08.788Z</time></trkpt><trkpt lat="43.4997964" lon="13.4800224"><ele>66.0</ele><time>2026-04-28T08:37:09.786Z</time></trkpt><trkpt lat="43.4997133" lon="13.4800946"><ele>66.0</ele><time>2026-04-28T08:37:10.79Z</time></trkpt><trkpt lat="43.4996356" lon="13.4801688"><ele>66.0</ele><time>2026-04-28T08:37:11.792Z</time></trkpt><trkpt lat="43.499569" lon="13.4802399"><ele>66.0</ele><time>2026-04-28T08:37:12.79Z</time></trkpt><trkpt lat="43.4995154" lon="13.4802974"><ele>66.0</ele><time>2026-04-28T08:37:13.794Z</time></trkpt><trkpt lat="43.4994421" lon="13.480356"><ele>66.0</ele><time>2026-04-28T08:37:15.793Z</time></trkpt><trkpt lat="43.4993783" lon="13.48039"><ele>66.0</ele><time>2026-04-28T08:40:57.793Z</time></trkpt><trkpt lat="43.4993145" lon="13.4804316"><ele>64.83333333333333</ele><time>2026-04-28T08:40:59.794Z</time></trkpt><trkpt lat="43.4992516" lon="13.4804473"><ele>63.66666666666667</ele><time>2026-04-28T08:41:01.786Z</time></trkpt><trkpt lat="43.4991664" lon="13.4804414"><ele>62.5</ele><time>2026-04-28T08:41:03.802Z</time></trkpt><trkpt lat="43.4990508" lon="13.4804259"><ele>61.333333333333336</ele><time>2026-04-28T08:41:05.792Z</time></trkpt><trkpt lat="43.4989787" lon="13.4804343"><ele>60.16666666666667</ele><time>2026-04-28T08:41:06.777Z</time></trkpt><trkpt lat="43.4989018" lon="13.4804558"><ele>59.0</ele><time>2026-04-28T08:41:07.782Z</time></trkpt><trkpt lat="43.4988288" lon="13.4804944"><ele>58.6</ele><time>2026-04-28T08:41:08.796Z</time></trkpt><trkpt lat="43.4987498" lon="13.480534"><ele>58.2</ele><time>2026-04-28T08:41:09.796Z</time></trkpt><trkpt lat="43.4986659" lon="13.4805749"><ele>57.800000000000004</ele><time>2026-04-28T08:41:10.799Z</time></trkpt><trkpt lat="43.4985776" lon="13.4806137"><ele>57.400000000000006</ele><time>2026-04-28T08:41:11.79Z</time></trkpt><trkpt lat="43.4984848" lon="13.4806554"><ele>57.0</ele><time>2026-04-28T08:41:12.782Z</time></trkpt><trkpt lat="43.4983905" lon="13.4806915"><ele>57.0</ele><time>2026-04-28T08:41:13.782Z</time></trkpt><trkpt lat="43.498291" lon="13.4807182"><ele>57.0</ele><time>2026-04-28T08:41:14.781Z</time></trkpt><trkpt lat="43.4981938" lon="13.4807389"><ele>57.0</ele><time>2026-04-28T08:41:15.786Z</time></trkpt><trkpt lat="43.4980909" lon="13.4807491"><ele>57.0</ele><time>2026-04-28T08:41:16.785Z</time></trkpt><trkpt lat="43.4979831" lon="13.4807588"><ele>57.0</ele><time>2026-04-28T08:41:17.786Z</time></trkpt><trkpt lat="43.4978702" lon="13.4807685"><ele>57.5</ele><time>2026-04-28T08:41:18.79Z</time></trkpt><trkpt lat="43.4977557" lon="13.4807741"><ele>58.0</ele><time>2026-04-28T08:41:19.787Z</time></trkpt><trkpt lat="43.4976298" lon="13.4807792"><ele>58.5</ele><time>2026-04-28T08:41:20.794Z</time></trkpt><trkpt lat="43.4975065" lon="13.4807864"><ele>59.0</ele><time>2026-04-28T08:41:21.785Z</time></trkpt><trkpt lat="43.4973796" lon="13.4807873"><ele>59.0</ele><time>2026-04-28T08:41:22.769Z</time></trkpt><trkpt lat="43.4972524" lon="13.4807873"><ele>59.0</ele><time>2026-04-28T08:41:23.783Z</time></trkpt><trkpt lat="43.4971248" lon="13.4807895"><ele>59.0</ele><time>2026-04-28T08:41:24.787Z</time></trkpt><trkpt lat="43.496996" lon="13.4807899"><ele>59.0</ele><time>2026-04-28T08:41:25.794Z</time></trkpt><trkpt lat="43.4968648" lon="13.4807947"><ele>60.25</ele><time>2026-04-28T08:41:26.779Z</time></trkpt><trkpt lat="43.4967349" lon="13.4807972"><ele>61.5</ele><time>2026-04-28T08:41:27.783Z</time></trkpt><trkpt lat="43.4966051" lon="13.4807984"><ele>62.75</ele><time>2026-04-28T08:41:28.788Z</time></trkpt><trkpt lat="43.4964777" lon="13.4807939"><ele>64.0</ele><time>2026-04-28T08:41:29.783Z</time></trkpt><trkpt lat="43.4963504" lon="13.480787"><ele>66.4</ele><time>2026-04-28T08:41:30.789Z</time></trkpt><trkpt lat="43.496235" lon="13.4807803"><ele>68.80000000000001</ele><time>2026-04-28T08:41:31.784Z</time></trkpt><trkpt lat="43.4961273" lon="13.4807864"><ele>71.19999999999999</ele><time>2026-04-28T08:41:32.8Z</time></trkpt><trkpt lat="43.4960228" lon="13.4808062"><ele>73.6</ele><time>2026-04-28T08:41:33.782Z</time></trkpt><trkpt lat="43.4959227" lon="13.4808215"><ele>76.0</ele><time>2026-04-28T08:41:34.782Z</time></trkpt><trkpt lat="43.4958225" lon="13.4808298"><ele>76.0</ele><time>2026-04-28T08:41:35.775Z</time></trkpt><trkpt lat="43.4957213" lon="13.4808256"><ele>76.0</ele><time>2026-04-28T08:41:36.784Z</time></trkpt><trkpt lat="43.4956188" lon="13.480812"><ele>76.0</ele><time>2026-04-28T08:41:37.788Z</time></trkpt><trkpt lat="43.4955133" lon="13.4807928"><ele>76.0</ele><time>2026-04-28T08:41:38.776Z</time></trkpt><trkpt lat="43.4954097" lon="13.4807731"><ele>76.0</ele><time>2026-04-28T08:41:39.796Z</time></trkpt><trkpt lat="43.4953053" lon="13.4807517"><ele>78.6</ele><time>2026-04-28T08:41:40.784Z</time></trkpt><trkpt lat="43.4952011" lon="13.4807243"><ele>81.19999999999999</ele><time>2026-04-28T08:41:41.783Z</time></trkpt><trkpt lat="43.4950959" lon="13.4806832"><ele>83.80000000000001</ele><time>2026-04-28T08:41:42.796Z</time></trkpt><trkpt lat="43.4949858" lon="13.4806331"><ele>86.4</ele><time>2026-04-28T08:41:43.778Z</time></trkpt><trkpt lat="43.4948763" lon="13.4805917"><ele>89.0</ele><time>2026-04-28T08:41:44.779Z</time></trkpt><trkpt lat="43.4947662" lon="13.4805499"><ele>89.0</ele><time>2026-04-28T08:41:45.789Z</time></trkpt><trkpt lat="43.4946535" lon="13.4805147"><ele>89.0</ele><time>2026-04-28T08:41:46.786Z</time></trkpt><trkpt lat="43.4945418" lon="13.4804839"><ele>89.0</ele><time>2026-04-28T08:41:47.781Z</time></trkpt><trkpt lat="43.494427" lon="13.4804566"><ele>89.0</ele><time>2026-04-28T08:41:48.785Z</time></trkpt><trkpt lat="43.4943037" lon="13.4804268"><ele>91.5</ele><time>2026-04-28T08:41:49.78Z</time></trkpt><trkpt lat="43.4941837" lon="13.4803941"><ele>94.0</ele><time>2026-04-28T08:41:50.791Z</time></trkpt><trkpt lat="43.494065" lon="13.480354"><ele>96.5</ele><time>2026-04-28T08:41:51.773Z</time></trkpt><trkpt lat="43.4939576" lon="13.4803045"><ele>99.0</ele><time>2026-04-28T08:41:52.776Z</time></trkpt><trkpt lat="43.4938568" lon="13.4802493"><ele>99.0</ele><time>2026-04-28T08:41:53.794Z</time></trkpt><trkpt lat="43.4937591" lon="13.4801906"><ele>99.0</ele><time>2026-04-28T08:41:54.799Z</time></trkpt><trkpt lat="43.4936635" lon="13.4801354"><ele>99.0</ele><time>2026-04-28T08:41:55.793Z</time></trkpt><trkpt lat="43.4935658" lon="13.4800799"><ele>99.0</ele><time>2026-04-28T08:41:56.789Z</time></trkpt><trkpt lat="43.493463" lon="13.4800307"><ele>99.0</ele><time>2026-04-28T08:41:57.785Z</time></trkpt><trkpt lat="43.4933582" lon="13.4799909"><ele>103.0</ele><time>2026-04-28T08:41:58.789Z</time></trkpt><trkpt lat="43.4932519" lon="13.4799532"><ele>107.0</ele><time>2026-04-28T08:41:59.782Z</time></trkpt><trkpt lat="43.4931372" lon="13.4799265"><ele>111.0</ele><time>2026-04-28T08:42:00.79Z</time></trkpt><trkpt lat="43.4930232" lon="13.479896"><ele>115.0</ele><time>2026-04-28T08:42:01.768Z</time></trkpt><trkpt lat="43.492907" lon="13.4798654"><ele>118.5</ele><time>2026-04-28T08:42:02.784Z</time></trkpt><trkpt lat="43.4927898" lon="13.4798385"><ele>122.0</ele><time>2026-04-28T08:42:03.779Z</time></trkpt><trkpt lat="43.4926739" lon="13.4798028"><ele>125.5</ele><time>2026-04-28T08:42:04.776Z</time></trkpt><trkpt lat="43.4925587" lon="13.4797654"><ele>129.0</ele><time>2026-04-28T08:42:05.78Z</time></trkpt><trkpt lat="43.4924454" lon="13.4797238"><ele>129.0</ele><time>2026-04-28T08:42:06.793Z</time></trkpt><trkpt lat="43.492334" lon="13.4796728"><ele>129.0</ele><time>2026-04-28T08:42:07.802Z</time></trkpt><trkpt lat="43.4922263" lon="13.4796131"><ele>129.0</ele><time>2026-04-28T08:42:08.789Z</time></trkpt><trkpt lat="43.4921217" lon="13.4795476"><ele>129.0</ele><time>2026-04-28T08:42:09.789Z</time></trkpt><trkpt lat="43.4920123" lon="13.479477"><ele>133.25</ele><time>2026-04-28T08:42:10.79Z</time></trkpt><trkpt lat="43.4918987" lon="13.4794114"><ele>137.5</ele><time>2026-04-28T08:42:11.78Z</time></trkpt><trkpt lat="43.4917812" lon="13.4793499"><ele>141.75</ele><time>2026-04-28T08:42:12.802Z</time></trkpt><trkpt lat="43.4916699" lon="13.4792835"><ele>146.0</ele><time>2026-04-28T08:42:13.788Z</time></trkpt><trkpt lat="43.4915617" lon="13.4792165"><ele>146.0</ele><time>2026-04-28T08:42:14.782Z</time></trkpt><trkpt lat="43.4914505" lon="13.4791517"><ele>146.0</ele><time>2026-04-28T08:42:15.784Z</time></trkpt><trkpt lat="43.4913448" lon="13.4790786"><ele>146.0</ele><time>2026-04-28T08:42:16.788Z</time></trkpt><trkpt lat="43.491235" lon="13.4790133"><ele>146.0</ele><time>2026-04-28T08:42:17.788Z</time></trkpt><trkpt lat="43.49113" lon="13.4789506"><ele>149.75</ele><time>2026-04-28T08:42:18.778Z</time></trkpt><trkpt lat="43.4910201" lon="13.4789046"><ele>153.5</ele><time>2026-04-28T08:42:19.786Z</time></trkpt><trkpt lat="43.4909051" lon="13.4788669"><ele>157.25</ele><time>2026-04-28T08:42:20.789Z</time></trkpt><trkpt lat="43.490783" lon="13.4788353"><ele>161.0</ele><time>2026-04-28T08:42:21.789Z</time></trkpt><trkpt lat="43.4906499" lon="13.4788115"><ele>161.0</ele><time>2026-04-28T08:42:22.775Z</time></trkpt><trkpt lat="43.4905145" lon="13.4787947"><ele>161.0</ele><time>2026-04-28T08:42:23.786Z</time></trkpt><trkpt lat="43.4903852" lon="13.4787859"><ele>161.0</ele><time>2026-04-28T08:42:24.779Z</time></trkpt><trkpt lat="43.490256" lon="13.4787898"><ele>161.0</ele><time>2026-04-28T08:42:25.788Z</time></trkpt><trkpt lat="43.4901338" lon="13.4787828"><ele>164.25</ele><time>2026-04-28T08:42:26.78Z</time></trkpt><trkpt lat="43.4900095" lon="13.4787709"><ele>167.5</ele><time>2026-04-28T08:42:27.774Z</time></trkpt><trkpt lat="43.4898891" lon="13.4787625"><ele>170.75</ele><time>2026-04-28T08:42:28.793Z</time></trkpt><trkpt lat="43.4897826" lon="13.4787575"><ele>174.0</ele><time>2026-04-28T08:42:29.791Z</time></trkpt><trkpt lat="43.4896791" lon="13.4787514"><ele>176.33333333333334</ele><time>2026-04-28T08:42:30.787Z</time></trkpt><trkpt lat="43.4895795" lon="13.4787534"><ele>178.66666666666666</ele><time>2026-04-28T08:42:31.793Z</time></trkpt><trkpt lat="43.4894884" lon="13.4787589"><ele>181.0</ele><time>2026-04-28T08:42:32.793Z</time></trkpt><trkpt lat="43.4894055" lon="13.4787764"><ele>183.33333333333331</ele><time>2026-04-28T08:42:33.786Z</time></trkpt><trkpt lat="43.4893381" lon="13.4788153"><ele>185.66666666666666</ele><time>2026-04-28T08:42:34.781Z</time></trkpt><trkpt lat="43.4892797" lon="13.4788687"><ele>188.0</ele><time>2026-04-28T08:42:35.792Z</time></trkpt><trkpt lat="43.4892229" lon="13.478927"><ele>188.0</ele><time>2026-04-28T08:42:36.788Z</time></trkpt><trkpt lat="43.4891581" lon="13.4789947"><ele>188.0</ele><time>2026-04-28T08:42:37.798Z</time></trkpt><trkpt lat="43.489094" lon="13.4790624"><ele>188.0</ele><time>2026-04-28T08:42:38.772Z</time></trkpt><trkpt lat="43.489028" lon="13.4791252"><ele>188.0</ele><time>2026-04-28T08:42:39.787Z</time></trkpt><trkpt lat="43.4889518" lon="13.479184"><ele>188.0</ele><time>2026-04-28T08:42:40.795Z</time></trkpt><trkpt lat="43.4888743" lon="13.4792317"><ele>188.0</ele><time>2026-04-28T08:42:41.791Z</time></trkpt><trkpt lat="43.4887975" lon="13.4792531"><ele>190.57142857142856</ele><time>2026-04-28T08:42:42.804Z</time></trkpt><trkpt lat="43.488726" lon="13.4792679"><ele>193.14285714285714</ele><time>2026-04-28T08:42:43.793Z</time></trkpt><trkpt lat="43.4886527" lon="13.4792816"><ele>195.71428571428572</ele><time>2026-04-28T08:42:44.772Z</time></trkpt><trkpt lat="43.4885829" lon="13.4792996"><ele>198.28571428571428</ele><time>2026-04-28T08:42:45.79Z</time></trkpt><trkpt lat="43.4885176" lon="13.4793356"><ele>200.85714285714286</ele><time>2026-04-28T08:42:46.777Z</time></trkpt><trkpt lat="43.4884479" lon="13.4793572"><ele>203.42857142857142</ele><time>2026-04-28T08:42:47.776Z</time></trkpt><trkpt lat="43.4883754" lon="13.4793785"><ele>206.0</ele><time>2026-04-28T08:42:48.787Z</time></trkpt><trkpt lat="43.4882941" lon="13.4793805"><ele>206.0</ele><time>2026-04-28T08:42:49.781Z</time></trkpt><trkpt lat="43.488218" lon="13.4793953"><ele>206.0</ele><time>2026-04-28T08:42:50.775Z</time></trkpt><trkpt lat="43.4881506" lon="13.4794163"><ele>206.0</ele><time>2026-04-28T08:42:51.778Z</time></trkpt><trkpt lat="43.4880461" lon="13.4794051"><ele>206.0</ele><time>2026-04-28T08:42:53.809Z</time></trkpt><trkpt lat="43.4879726" lon="13.4793241"><ele>206.0</ele><time>2026-04-28T08:42:55.774Z</time></trkpt><trkpt lat="43.4879012" lon="13.4792123"><ele>207.33333333333334</ele><time>2026-04-28T08:42:57.773Z</time></trkpt><trkpt lat="43.4878552" lon="13.4790965"><ele>208.66666666666669</ele><time>2026-04-28T08:42:59.78Z</time></trkpt><trkpt lat="43.4878089" lon="13.4790056"><ele>210.0</ele><time>2026-04-28T08:43:01.789Z</time></trkpt><trkpt lat="43.4877494" lon="13.4789189"><ele>211.33333333333331</ele><time>2026-04-28T08:43:03.786Z</time></trkpt><trkpt lat="43.4876902" lon="13.4788287"><ele>212.66666666666666</ele><time>2026-04-28T08:43:09.788Z</time></trkpt><trkpt lat="43.4876257" lon="13.4787875"><ele>214.0</ele><time>2026-04-28T08:43:10.782Z</time></trkpt><trkpt lat="43.4875556" lon="13.4787395"><ele>213.99999999999997</ele><time>2026-04-28T08:43:11.794Z</time></trkpt><trkpt lat="43.4874746" lon="13.4787031"><ele>214.0</ele><time>2026-04-28T08:43:12.794Z</time></trkpt><trkpt lat="43.4873958" lon="13.4786658"><ele>214.0</ele><time>2026-04-28T08:43:13.778Z</time></trkpt><trkpt lat="43.4873104" lon="13.4786293"><ele>214.0</ele><time>2026-04-28T08:43:14.788Z</time></trkpt><trkpt lat="43.4872262" lon="13.4785885"><ele>213.99999999999997</ele><time>2026-04-28T08:43:15.8Z</time></trkpt><trkpt lat="43.4871467" lon="13.4785536"><ele>214.0</ele><time>2026-04-28T08:43:16.79Z</time></trkpt><trkpt lat="43.487068" lon="13.4785253"><ele>216.16666666666666</ele><time>2026-04-28T08:43:17.791Z</time></trkpt><trkpt lat="43.4869942" lon="13.4784917"><ele>218.33333333333331</ele><time>2026-04-28T08:43:18.784Z</time></trkpt><trkpt lat="43.4869183" lon="13.4784585"><ele>220.5</ele><time>2026-04-28T08:43:19.786Z</time></trkpt><trkpt lat="43.486839" lon="13.4784256"><ele>222.66666666666669</ele><time>2026-04-28T08:43:20.8Z</time></trkpt><trkpt lat="43.4867594" lon="13.4783844"><ele>224.83333333333334</ele><time>2026-04-28T08:43:21.784Z</time></trkpt><trkpt lat="43.4866828" lon="13.4783407"><ele>227.0</ele><time>2026-04-28T08:43:22.778Z</time></trkpt><trkpt lat="43.4866035" lon="13.4783084"><ele>227.00000000000003</ele><time>2026-04-28T08:43:23.784Z</time></trkpt><trkpt lat="43.486524" lon="13.4782725"><ele>227.0</ele><time>2026-04-28T08:43:24.79Z</time></trkpt><trkpt lat="43.486442" lon="13.4782427"><ele>227.0</ele><time>2026-04-28T08:43:25.803Z</time></trkpt><trkpt lat="43.4863591" lon="13.4782153"><ele>227.0</ele><time>2026-04-28T08:43:26.782Z</time></trkpt><trkpt lat="43.4862776" lon="13.4781978"><ele>227.00000000000003</ele><time>2026-04-28T08:43:27.783Z</time></trkpt><trkpt lat="43.4861945" lon="13.4781975"><ele>227.0</ele><time>2026-04-28T08:43:28.782Z</time></trkpt><trkpt lat="43.4861147" lon="13.4782122"><ele>228.50000000000003</ele><time>2026-04-28T08:43:29.775Z</time></trkpt><trkpt lat="43.4860363" lon="13.4782229"><ele>230.0</ele><time>2026-04-28T08:43:30.771Z</time></trkpt><trkpt lat="43.4859549" lon="13.4782338"><ele>231.5</ele><time>2026-04-28T08:43:31.791Z</time></trkpt><trkpt lat="43.4858783" lon="13.4782487"><ele>233.0</ele><time>2026-04-28T08:43:32.777Z</time></trkpt><trkpt lat="43.4857913" lon="13.4782707"><ele>234.50000000000003</ele><time>2026-04-28T08:43:33.78Z</time></trkpt><trkpt lat="43.4857022" lon="13.4782899"><ele>236.0</ele><time>2026-04-28T08:43:34.78Z</time></trkpt><trkpt lat="43.4856148" lon="13.4783079"><ele>236.00000000000003</ele><time>2026-04-28T08:43:35.774Z</time></trkpt><trkpt lat="43.4855307" lon="13.4783327"><ele>236.0</ele><time>2026-04-28T08:43:36.767Z</time></trkpt><trkpt lat="43.4854436" lon="13.478358"><ele>236.0</ele><time>2026-04-28T08:43:37.799Z</time></trkpt><trkpt lat="43.4853597" lon="13.4783794"><ele>236.0</ele><time>2026-04-28T08:43:38.782Z</time></trkpt><trkpt lat="43.4852803" lon="13.4783998"><ele>236.00000000000003</ele><time>2026-04-28T08:43:39.783Z</time></trkpt><trkpt lat="43.4852039" lon="13.4784249"><ele>236.0</ele><time>2026-04-28T08:43:40.789Z</time></trkpt><trkpt lat="43.4851277" lon="13.478459"><ele>234.16666666666669</ele><time>2026-04-28T08:43:41.792Z</time></trkpt><trkpt lat="43.4850463" lon="13.4784974"><ele>232.33333333333334</ele><time>2026-04-28T08:43:42.784Z</time></trkpt><trkpt lat="43.4849637" lon="13.4785406"><ele>230.5</ele><time>2026-04-28T08:43:43.789Z</time></trkpt><trkpt lat="43.4848916" lon="13.4785994"><ele>228.66666666666669</ele><time>2026-04-28T08:43:44.777Z</time></trkpt><trkpt lat="43.484828" lon="13.4786673"><ele>226.83333333333334</ele><time>2026-04-28T08:43:45.774Z</time></trkpt><trkpt lat="43.4847824" lon="13.4787551"><ele>225.0</ele><time>2026-04-28T08:43:46.772Z</time></trkpt><trkpt lat="43.4847464" lon="13.478862"><ele>228.83333333333334</ele><time>2026-04-28T08:43:47.785Z</time></trkpt><trkpt lat="43.484722" lon="13.4789729"><ele>232.66666666666669</ele><time>2026-04-28T08:43:48.785Z</time></trkpt><trkpt lat="43.484706" lon="13.4790867"><ele>236.5</ele><time>2026-04-28T08:43:49.785Z</time></trkpt><trkpt lat="43.4846889" lon="13.4791918"><ele>240.33333333333334</ele><time>2026-04-28T08:43:50.781Z</time></trkpt><trkpt lat="43.4846755" lon="13.479304"><ele>244.16666666666669</ele><time>2026-04-28T08:43:51.793Z</time></trkpt><trkpt lat="43.4846626" lon="13.4794217"><ele>248.0</ele><time>2026-04-28T08:43:52.775Z</time></trkpt><trkpt lat="43.4846496" lon="13.4795455"><ele>249.50000000000003</ele><time>2026-04-28T08:43:53.788Z</time></trkpt><trkpt lat="43.4846452" lon="13.4796624"><ele>251.0</ele><time>2026-04-28T08:43:54.786Z</time></trkpt><trkpt lat="43.4846381" lon="13.4797846"><ele>252.5</ele><time>2026-04-28T08:43:55.787Z</time></trkpt><trkpt lat="43.484633" lon="13.4799049"><ele>254.0</ele><time>2026-04-28T08:43:56.789Z</time></trkpt><trkpt lat="43.4846244" lon="13.4800298"><ele>255.50000000000003</ele><time>2026-04-28T08:43:57.786Z</time></trkpt><trkpt lat="43.4846203" lon="13.4801562"><ele>257.0</ele><time>2026-04-28T08:43:58.786Z</time></trkpt><trkpt lat="43.4846216" lon="13.4802838"><ele>257.0</ele><time>2026-04-28T08:43:59.784Z</time></trkpt><trkpt lat="43.4846287" lon="13.4804019"><ele>257.0</ele><time>2026-04-28T08:44:00.769Z</time></trkpt><trkpt lat="43.4846416" lon="13.4805124"><ele>257.0</ele><time>2026-04-28T08:44:01.79Z</time></trkpt><trkpt lat="43.4846543" lon="13.4806207"><ele>257.0</ele><time>2026-04-28T08:44:02.803Z</time></trkpt><trkpt lat="43.4846685" lon="13.4807294"><ele>257.0</ele><time>2026-04-28T08:44:03.786Z</time></trkpt><trkpt lat="43.484685" lon="13.4808363"><ele>257.0</ele><time>2026-04-28T08:44:04.794Z</time></trkpt><trkpt lat="43.4846995" lon="13.480935"><ele>256.83333333333337</ele><time>2026-04-28T08:44:05.79Z</time></trkpt><trkpt lat="43.4847236" lon="13.4810188"><ele>256.6666666666667</ele><time>2026-04-28T08:44:06.774Z</time></trkpt><trkpt lat="43.484765" lon="13.4810858"><ele>256.5</ele><time>2026-04-28T08:44:07.788Z</time></trkpt><trkpt lat="43.4848272" lon="13.4811123"><ele>256.3333333333333</ele><time>2026-04-28T08:44:08.78Z</time></trkpt><trkpt lat="43.4848986" lon="13.4811185"><ele>256.16666666666663</ele><time>2026-04-28T08:44:09.793Z</time></trkpt><trkpt lat="43.485029" lon="13.4811051"><ele>256.0</ele><time>2026-04-28T08:44:11.792Z</time></trkpt><trkpt lat="43.4851036" lon="13.4810979"><ele>255.99999999999997</ele><time>2026-04-28T08:44:12.783Z</time></trkpt><trkpt lat="43.4851728" lon="13.4811046"><ele>256.0</ele><time>2026-04-28T08:44:13.795Z</time></trkpt><trkpt lat="43.4852435" lon="13.4811226"><ele>256.0</ele><time>2026-04-28T08:44:14.78Z</time></trkpt><trkpt lat="43.485326" lon="13.4811397"><ele>256.0</ele><time>2026-04-28T08:44:15.801Z</time></trkpt><trkpt lat="43.4854101" lon="13.4811607"><ele>255.99999999999997</ele><time>2026-04-28T08:44:16.801Z</time></trkpt><trkpt lat="43.4854817" lon="13.4811964"><ele>256.0</ele><time>2026-04-28T08:44:17.788Z</time></trkpt><trkpt lat="43.4855541" lon="13.4812229"><ele>256.8333333333333</ele><time>2026-04-28T08:44:18.78Z</time></trkpt><trkpt lat="43.4856185" lon="13.48124"><ele>257.66666666666663</ele><time>2026-04-28T08:44:19.8Z</time></trkpt><trkpt lat="43.4857286" lon="13.4812894"><ele>258.5</ele><time>2026-04-28T08:44:21.785Z</time></trkpt><trkpt lat="43.4858095" lon="13.4813307"><ele>259.3333333333333</ele><time>2026-04-28T08:44:23.794Z</time></trkpt><trkpt lat="43.4858726" lon="13.4813915"><ele>260.1666666666667</ele><time>2026-04-28T08:44:25.79Z</time></trkpt><trkpt lat="43.4859036" lon="13.4814819"><ele>261.0</ele><time>2026-04-28T08:44:27.784Z</time></trkpt><trkpt lat="43.4859229" lon="13.4815987"><ele>261.0</ele><time>2026-04-28T08:44:29.778Z</time></trkpt><trkpt lat="43.4859353" lon="13.4817384"><ele>261.0</ele><time>2026-04-28T08:44:31.796Z</time></trkpt><trkpt lat="43.4859476" lon="13.4819007"><ele>261.0</ele><time>2026-04-28T08:44:33.789Z</time></trkpt><trkpt lat="43.4859633" lon="13.4820545"><ele>261.0</ele><time>2026-04-28T08:44:35.78Z</time></trkpt><trkpt lat="43.4859727" lon="13.4821941"><ele>261.0</ele><time>2026-04-28T08:44:37.779Z</time></trkpt><trkpt lat="43.4859478" lon="13.4823269"><ele>259.8</ele><time>2026-04-28T08:44:39.793Z</time></trkpt><trkpt lat="43.4858602" lon="13.4823948"><ele>258.6</ele><time>2026-04-28T08:44:41.798Z</time></trkpt><trkpt lat="43.4857564" lon="13.4824152"><ele>257.4</ele><time>2026-04-28T08:44:43.779Z</time></trkpt><trkpt lat="43.4856867" lon="13.4824985"><ele>256.2</ele><time>2026-04-28T08:44:45.779Z</time></trkpt><trkpt lat="43.4856619" lon="13.4826616"><ele>255.0</ele><time>2026-04-28T08:44:47.779Z</time></trkpt><trkpt lat="43.4856483" lon="13.4828315"><ele>255.0</ele><time>2026-04-28T08:44:49.786Z</time></trkpt><trkpt lat="43.4856468" lon="13.4829269"><ele>255.0</ele><time>2026-04-28T08:44:50.775Z</time></trkpt><trkpt lat="43.4856436" lon="13.4830274"><ele>255.0</ele><time>2026-04-28T08:44:51.794Z</time></trkpt><trkpt lat="43.4856413" lon="13.4831408"><ele>255.0</ele><time>2026-04-28T08:44:52.77Z</time></trkpt><trkpt lat="43.4856206" lon="13.483252"><ele>255.0</ele><time>2026-04-28T08:44:53.785Z</time></trkpt><trkpt lat="43.4855912" lon="13.4833557"><ele>255.0</ele><time>2026-04-28T08:44:54.777Z</time></trkpt><trkpt lat="43.4855577" lon="13.4834612"><ele>254.83333333333334</ele><time>2026-04-28T08:44:55.784Z</time></trkpt><trkpt lat="43.4855395" lon="13.4835636"><ele>254.66666666666669</ele><time>2026-04-28T08:44:56.785Z</time></trkpt><trkpt lat="43.4855231" lon="13.4836642"><ele>254.5</ele><time>2026-04-28T08:44:57.778Z</time></trkpt><trkpt lat="43.4855023" lon="13.4837666"><ele>254.33333333333334</ele><time>2026-04-28T08:44:58.782Z</time></trkpt><trkpt lat="43.4854746" lon="13.4838698"><ele>254.16666666666669</ele><time>2026-04-28T08:44:59.789Z</time></trkpt><trkpt lat="43.4854483" lon="13.4839739"><ele>254.0</ele><time>2026-04-28T08:45:00.797Z</time></trkpt><trkpt lat="43.4854221" lon="13.4840866"><ele>248.39999999999998</ele><time>2026-04-28T08:45:01.782Z</time></trkpt><trkpt lat="43.4853938" lon="13.4842013"><ele>242.79999999999998</ele><time>2026-04-28T08:45:02.786Z</time></trkpt><trkpt lat="43.4853639" lon="13.4843224"><ele>237.20000000000002</ele><time>2026-04-28T08:45:03.78Z</time></trkpt><trkpt lat="43.4853365" lon="13.4844538"><ele>231.60000000000002</ele><time>2026-04-28T08:45:04.788Z</time></trkpt><trkpt lat="43.4853066" lon="13.484594"><ele>226.0</ele><time>2026-04-28T08:45:05.788Z</time></trkpt><trkpt lat="43.4852819" lon="13.4847212"><ele>225.99999999999997</ele><time>2026-04-28T08:45:06.779Z</time></trkpt><trkpt lat="43.4852586" lon="13.4848436"><ele>226.0</ele><time>2026-04-28T08:45:07.79Z</time></trkpt><trkpt lat="43.4852323" lon="13.4849612"><ele>226.0</ele><time>2026-04-28T08:45:08.785Z</time></trkpt><trkpt lat="43.4852114" lon="13.4850756"><ele>226.0</ele><time>2026-04-28T08:45:09.782Z</time></trkpt><trkpt lat="43.4851888" lon="13.4851881"><ele>225.99999999999997</ele><time>2026-04-28T08:45:10.791Z</time></trkpt><trkpt lat="43.4851742" lon="13.485314"><ele>226.0</ele><time>2026-04-28T08:45:11.781Z</time></trkpt><trkpt lat="43.4851629" lon="13.4854509"><ele>227.8</ele><time>2026-04-28T08:45:12.785Z</time></trkpt><trkpt lat="43.4851536" lon="13.4855976"><ele>229.60000000000002</ele><time>2026-04-28T08:45:13.785Z</time></trkpt><trkpt lat="43.4851406" lon="13.4857486"><ele>231.4</ele><time>2026-04-28T08:45:14.78Z</time></trkpt><trkpt lat="43.4851225" lon="13.4858881"><ele>233.2</ele><time>2026-04-28T08:45:15.785Z</time></trkpt><trkpt lat="43.4851072" lon="13.4860252"><ele>235.0</ele><time>2026-04-28T08:45:16.794Z</time></trkpt><trkpt lat="43.4850903" lon="13.486168"><ele>235.6</ele><time>2026-04-28T08:45:17.79Z</time></trkpt><trkpt lat="43.4850736" lon="13.4863133"><ele>236.2</ele><time>2026-04-28T08:45:18.8Z</time></trkpt><trkpt lat="43.4850576" lon="13.4864598"><ele>236.8</ele><time>2026-04-28T08:45:19.782Z</time></trkpt><trkpt lat="43.4850413" lon="13.4866086"><ele>237.4</ele><time>2026-04-28T08:45:20.77Z</time></trkpt><trkpt lat="43.4850189" lon="13.4867595"><ele>238.0</ele><time>2026-04-28T08:45:21.784Z</time></trkpt><trkpt lat="43.4849961" lon="13.4869122"><ele>238.0</ele><time>2026-04-28T08:45:22.773Z</time></trkpt><trkpt lat="43.4849787" lon="13.4870606"><ele>238.0</ele><time>2026-04-28T08:45:23.773Z</time></trkpt><trkpt lat="43.4849615" lon="13.4872164"><ele>238.0</ele><time>2026-04-28T08:45:24.775Z</time></trkpt><trkpt lat="43.4849436" lon="13.4873672"><ele>238.0</ele><time>2026-04-28T08:45:25.782Z</time></trkpt><trkpt lat="43.4849256" lon="13.487513"><ele>238.0</ele><time>2026-04-28T08:45:26.782Z</time></trkpt><trkpt lat="43.4849078" lon="13.4876631"><ele>238.0</ele><time>2026-04-28T08:45:27.781Z</time></trkpt><trkpt lat="43.484885" lon="13.487817"><ele>238.0</ele><time>2026-04-28T08:45:28.786Z</time></trkpt><trkpt lat="43.4848641" lon="13.4879708"><ele>238.0</ele><time>2026-04-28T08:45:29.774Z</time></trkpt><trkpt lat="43.4848517" lon="13.4881249"><ele>238.0</ele><time>2026-04-28T08:45:30.787Z</time></trkpt><trkpt lat="43.4848316" lon="13.4882624"><ele>238.0</ele><time>2026-04-28T08:45:31.807Z</time></trkpt><trkpt lat="43.4848128" lon="13.4883937"><ele>238.0</ele><time>2026-04-28T08:45:32.801Z</time></trkpt><trkpt lat="43.4847934" lon="13.4885212"><ele>238.0</ele><time>2026-04-28T08:45:33.803Z</time></trkpt><trkpt lat="43.4847819" lon="13.4886478"><ele>238.0</ele><time>2026-04-28T08:45:34.788Z</time></trkpt><trkpt lat="43.4847708" lon="13.4887747"><ele>238.0</ele><time>2026-04-28T08:45:35.787Z</time></trkpt><trkpt lat="43.4847696" lon="13.4889053"><ele>238.0</ele><time>2026-04-28T08:45:36.784Z</time></trkpt><trkpt lat="43.4847956" lon="13.4890281"><ele>237.0</ele><time>2026-04-28T08:45:37.79Z</time></trkpt><trkpt lat="43.4848444" lon="13.4891374"><ele>236.0</ele><time>2026-04-28T08:45:38.794Z</time></trkpt><trkpt lat="43.4849112" lon="13.4892509"><ele>235.0</ele><time>2026-04-28T08:45:39.79Z</time></trkpt><trkpt lat="43.4849827" lon="13.4893687"><ele>234.0</ele><time>2026-04-28T08:45:40.777Z</time></trkpt><trkpt lat="43.4850463" lon="13.4894826"><ele>233.0</ele><time>2026-04-28T08:45:41.78Z</time></trkpt><trkpt lat="43.485115" lon="13.4895949"><ele>232.60000000000002</ele><time>2026-04-28T08:45:42.796Z</time></trkpt><trkpt lat="43.4851769" lon="13.489708"><ele>232.20000000000002</ele><time>2026-04-28T08:45:43.798Z</time></trkpt><trkpt lat="43.4852486" lon="13.4898001"><ele>231.8</ele><time>2026-04-28T08:45:44.788Z</time></trkpt><trkpt lat="43.4853203" lon="13.4898762"><ele>231.4</ele><time>2026-04-28T08:45:45.78Z</time></trkpt><trkpt lat="43.4853989" lon="13.4899369"><ele>231.0</ele><time>2026-04-28T08:45:46.79Z</time></trkpt><trkpt lat="43.4854835" lon="13.4899952"><ele>231.0</ele><time>2026-04-28T08:45:47.775Z</time></trkpt><trkpt lat="43.4855752" lon="13.4900414"><ele>231.0</ele><time>2026-04-28T08:45:48.785Z</time></trkpt><trkpt lat="43.4856678" lon="13.4900769"><ele>231.0</ele><time>2026-04-28T08:45:49.782Z</time></trkpt><trkpt lat="43.4857553" lon="13.4901073"><ele>231.0</ele><time>2026-04-28T08:45:50.777Z</time></trkpt><trkpt lat="43.4858419" lon="13.4901226"><ele>231.0</ele><time>2026-04-28T08:45:51.777Z</time></trkpt><trkpt lat="43.4859169" lon="13.4901505"><ele>231.0</ele><time>2026-04-28T08:45:52.781Z</time></trkpt><trkpt lat="43.4859848" lon="13.4901938"><ele>231.0</ele><time>2026-04-28T08:45:53.789Z</time></trkpt><trkpt lat="43.4860313" lon="13.4902651"><ele>231.0</ele><time>2026-04-28T08:45:54.787Z</time></trkpt><trkpt lat="43.4860607" lon="13.4903645"><ele>231.0</ele><time>2026-04-28T08:45:55.785Z</time></trkpt><trkpt lat="43.486065" lon="13.4904558"><ele>231.0</ele><time>2026-04-28T08:45:56.791Z</time></trkpt><trkpt lat="43.4860344" lon="13.4905401"><ele>231.0</ele><time>2026-04-28T08:45:57.8Z</time></trkpt><trkpt lat="43.4859864" lon="13.4906024"><ele>231.0</ele><time>2026-04-28T08:45:58.792Z</time></trkpt><trkpt lat="43.4859187" lon="13.4906576"><ele>231.0</ele><time>2026-04-28T08:45:59.795Z</time></trkpt><trkpt lat="43.4858416" lon="13.4906929"><ele>227.8</ele><time>2026-04-28T08:46:00.777Z</time></trkpt><trkpt lat="43.4857549" lon="13.4907068"><ele>224.60000000000002</ele><time>2026-04-28T08:46:01.789Z</time></trkpt><trkpt lat="43.4856642" lon="13.4906985"><ele>221.4</ele><time>2026-04-28T08:46:02.794Z</time></trkpt><trkpt lat="43.4855661" lon="13.4906675"><ele>218.2</ele><time>2026-04-28T08:46:03.779Z</time></trkpt><trkpt lat="43.4854712" lon="13.4906319"><ele>215.0</ele><time>2026-04-28T08:46:04.792Z</time></trkpt><trkpt lat="43.485366" lon="13.4905819"><ele>213.75</ele><time>2026-04-28T08:46:05.788Z</time></trkpt><trkpt lat="43.4852562" lon="13.4905359"><ele>212.5</ele><time>2026-04-28T08:46:06.792Z</time></trkpt><trkpt lat="43.485143" lon="13.4904766"><ele>211.25</ele><time>2026-04-28T08:46:07.79Z</time></trkpt><trkpt lat="43.4850474" lon="13.4903971"><ele>210.0</ele><time>2026-04-28T08:46:08.787Z</time></trkpt><trkpt lat="43.4849594" lon="13.4903061"><ele>209.66666666666666</ele><time>2026-04-28T08:46:09.798Z</time></trkpt><trkpt lat="43.4848801" lon="13.4902209"><ele>209.33333333333331</ele><time>2026-04-28T08:46:10.795Z</time></trkpt><trkpt lat="43.4848094" lon="13.4901287"><ele>209.0</ele><time>2026-04-28T08:46:11.795Z</time></trkpt><trkpt lat="43.4847458" lon="13.4900417"><ele>208.66666666666666</ele><time>2026-04-28T08:46:12.787Z</time></trkpt><trkpt lat="43.4846848" lon="13.4899691"><ele>208.33333333333331</ele><time>2026-04-28T08:46:13.809Z</time></trkpt><trkpt lat="43.4846332" lon="13.4899013"><ele>208.0</ele><time>2026-04-28T08:46:14.789Z</time></trkpt><trkpt lat="43.4845504" lon="13.4897938"><ele>207.99999999999997</ele><time>2026-04-28T08:46:16.786Z</time></trkpt><trkpt lat="43.4844626" lon="13.4897379"><ele>208.0</ele><time>2026-04-28T08:46:18.793Z</time></trkpt><trkpt lat="43.4843537" lon="13.4897724"><ele>208.0</ele><time>2026-04-28T08:46:20.784Z</time></trkpt><trkpt lat="43.484299" lon="13.489823"><ele>208.0</ele><time>2026-04-28T08:46:21.781Z</time></trkpt><trkpt lat="43.4842417" lon="13.4898741"><ele>207.99999999999997</ele><time>2026-04-28T08:46:22.796Z</time></trkpt><trkpt lat="43.4841762" lon="13.489936"><ele>208.0</ele><time>2026-04-28T08:46:23.798Z</time></trkpt><trkpt lat="43.4841146" lon="13.4899987"><ele>208.0</ele><time>2026-04-28T08:46:24.783Z</time></trkpt><trkpt lat="43.4840405" lon="13.4900622"><ele>208.0</ele><time>2026-04-28T08:46:25.803Z</time></trkpt><trkpt lat="43.4839588" lon="13.4901298"><ele>208.0</ele><time>2026-04-28T08:46:26.795Z</time></trkpt><trkpt lat="43.4838741" lon="13.4902015"><ele>208.0</ele><time>2026-04-28T08:46:27.776Z</time></trkpt><trkpt lat="43.4837877" lon="13.4902621"><ele>208.0</ele><time>2026-04-28T08:46:28.804Z</time></trkpt><trkpt lat="43.4837" lon="13.4903208"><ele>204.60000000000002</ele><time>2026-04-28T08:46:29.806Z</time></trkpt><trkpt lat="43.4836084" lon="13.490373"><ele>201.20000000000002</ele><time>2026-04-28T08:46:30.796Z</time></trkpt><trkpt lat="43.4835187" lon="13.490417"><ele>197.8</ele><time>2026-04-28T08:46:31.781Z</time></trkpt><trkpt lat="43.4834329" lon="13.4904531"><ele>194.4</ele><time>2026-04-28T08:46:32.777Z</time></trkpt><trkpt lat="43.4833455" lon="13.4904934"><ele>191.0</ele><time>2026-04-28T08:46:33.78Z</time></trkpt><trkpt lat="43.4832628" lon="13.4905366"><ele>190.66666666666666</ele><time>2026-04-28T08:46:34.786Z</time></trkpt><trkpt lat="43.4831814" lon="13.4905776"><ele>190.33333333333331</ele><time>2026-04-28T08:46:35.798Z</time></trkpt><trkpt lat="43.4831083" lon="13.4906099"><ele>190.0</ele><time>2026-04-28T08:46:36.79Z</time></trkpt><trkpt lat="43.4830376" lon="13.4906417"><ele>189.66666666666666</ele><time>2026-04-28T08:46:37.788Z</time></trkpt><trkpt lat="43.4829717" lon="13.4906715"><ele>189.33333333333334</ele><time>2026-04-28T08:46:38.792Z</time></trkpt><trkpt lat="43.4828854" lon="13.4907111"><ele>189.0</ele><time>2026-04-28T08:46:40.803Z</time></trkpt><trkpt lat="43.4828262" lon="13.4907517"><ele>185.2</ele><time>2026-04-28T08:46:45.8Z</time></trkpt><trkpt lat="43.4828048" lon="13.4908957"><ele>181.39999999999998</ele><time>2026-04-28T08:46:48.809Z</time></trkpt><trkpt lat="43.4828187" lon="13.4910406"><ele>177.6</ele><time>2026-04-28T08:46:50.787Z</time></trkpt><trkpt lat="43.4828158" lon="13.4911499"><ele>173.8</ele><time>2026-04-28T08:46:52.788Z</time></trkpt><trkpt lat="43.4827438" lon="13.4911047"><ele>170.0</ele><time>2026-04-28T08:46:55.802Z</time></trkpt><trkpt lat="43.4827196" lon="13.4909651"><ele>170.0</ele><time>2026-04-28T08:46:57.794Z</time></trkpt><trkpt lat="43.4826366" lon="13.4908558"><ele>170.0</ele><time>2026-04-28T08:46:59.806Z</time></trkpt><trkpt lat="43.4825714" lon="13.4908354"><ele>170.0</ele><time>2026-04-28T08:47:00.797Z</time></trkpt><trkpt lat="43.4825058" lon="13.4908472"><ele>170.0</ele><time>2026-04-28T08:47:01.809Z</time></trkpt><trkpt lat="43.4824361" lon="13.4908823"><ele>170.0</ele><time>2026-04-28T08:47:02.783Z</time></trkpt><trkpt lat="43.4823695" lon="13.4909363"><ele>170.0</ele><time>2026-04-28T08:47:03.777Z</time></trkpt><trkpt lat="43.4823033" lon="13.4909941"><ele>170.0</ele><time>2026-04-28T08:47:04.792Z</time></trkpt><trkpt lat="43.4822356" lon="13.4910565"><ele>170.0</ele><time>2026-04-28T08:47:05.785Z</time></trkpt><trkpt lat="43.4821717" lon="13.4911083"><ele>170.0</ele><time>2026-04-28T08:47:06.792Z</time></trkpt><trkpt lat="43.4821103" lon="13.4911446"><ele>170.0</ele><time>2026-04-28T08:47:07.784Z</time></trkpt><trkpt lat="43.4820381" lon="13.4911564"><ele>170.0</ele><time>2026-04-28T08:47:09.794Z</time></trkpt><trkpt lat="43.481961" lon="13.4911932"><ele>170.0</ele><time>2026-04-28T08:47:11.788Z</time></trkpt><trkpt lat="43.4818362" lon="13.4913312"><ele>166.0</ele><time>2026-04-28T08:47:13.777Z</time></trkpt><trkpt lat="43.4817493" lon="13.4914026"><ele>162.0</ele><time>2026-04-28T08:47:14.794Z</time></trkpt><trkpt lat="43.4816447" lon="13.4914772"><ele>158.0</ele><time>2026-04-28T08:47:15.793Z</time></trkpt><trkpt lat="43.4815405" lon="13.4915429"><ele>154.0</ele><time>2026-04-28T08:47:16.783Z</time></trkpt><trkpt lat="43.4814335" lon="13.4916147"><ele>154.0</ele><time>2026-04-28T08:47:17.789Z</time></trkpt><trkpt lat="43.4813381" lon="13.491692"><ele>154.0</ele><time>2026-04-28T08:47:18.783Z</time></trkpt><trkpt lat="43.481239" lon="13.4917569"><ele>154.0</ele><time>2026-04-28T08:47:19.784Z</time></trkpt><trkpt lat="43.4811308" lon="13.4918102"><ele>154.0</ele><time>2026-04-28T08:47:20.79Z</time></trkpt><trkpt lat="43.4810217" lon="13.4918488"><ele>154.0</ele><time>2026-04-28T08:47:21.78Z</time></trkpt><trkpt lat="43.4809052" lon="13.4918781"><ele>153.25</ele><time>2026-04-28T08:47:22.793Z</time></trkpt><trkpt lat="43.4807859" lon="13.4919018"><ele>152.5</ele><time>2026-04-28T08:47:23.793Z</time></trkpt><trkpt lat="43.4806652" lon="13.4919155"><ele>151.75</ele><time>2026-04-28T08:47:24.781Z</time></trkpt><trkpt lat="43.4805423" lon="13.4919237"><ele>151.0</ele><time>2026-04-28T08:47:25.783Z</time></trkpt><trkpt lat="43.4804237" lon="13.4919324"><ele>149.0</ele><time>2026-04-28T08:47:26.788Z</time></trkpt><trkpt lat="43.4802971" lon="13.4919439"><ele>147.0</ele><time>2026-04-28T08:47:27.781Z</time></trkpt><trkpt lat="43.4801758" lon="13.4919464"><ele>145.0</ele><time>2026-04-28T08:47:28.787Z</time></trkpt><trkpt lat="43.4800499" lon="13.4919423"><ele>143.0</ele><time>2026-04-28T08:47:29.783Z</time></trkpt><trkpt lat="43.4799204" lon="13.4919319"><ele>143.0</ele><time>2026-04-28T08:47:30.8Z</time></trkpt><trkpt lat="43.4797811" lon="13.4919162"><ele>143.0</ele><time>2026-04-28T08:47:31.784Z</time></trkpt><trkpt lat="43.4796449" lon="13.4918948"><ele>143.0</ele><time>2026-04-28T08:47:32.783Z</time></trkpt><trkpt lat="43.4795184" lon="13.4918633"><ele>143.0</ele><time>2026-04-28T08:47:33.795Z</time></trkpt><trkpt lat="43.4793972" lon="13.49184"><ele>141.25</ele><time>2026-04-28T08:47:34.779Z</time></trkpt><trkpt lat="43.4792761" lon="13.4918164"><ele>139.5</ele><time>2026-04-28T08:47:35.791Z</time></trkpt><trkpt lat="43.4791585" lon="13.4917999"><ele>137.75</ele><time>2026-04-28T08:47:36.789Z</time></trkpt><trkpt lat="43.4790375" lon="13.4917973"><ele>136.0</ele><time>2026-04-28T08:47:37.787Z</time></trkpt><trkpt lat="43.4789173" lon="13.4918007"><ele>136.0</ele><time>2026-04-28T08:47:38.789Z</time></trkpt><trkpt lat="43.4787929" lon="13.4918109"><ele>136.0</ele><time>2026-04-28T08:47:39.782Z</time></trkpt><trkpt lat="43.47867" lon="13.4918211"><ele>136.0</ele><time>2026-04-28T08:47:40.781Z</time></trkpt><trkpt lat="43.4785452" lon="13.4918137"><ele>136.0</ele><time>2026-04-28T08:47:41.791Z</time></trkpt><trkpt lat="43.4784246" lon="13.4917963"><ele>135.25</ele><time>2026-04-28T08:47:42.781Z</time></trkpt><trkpt lat="43.4783083" lon="13.4917754"><ele>134.5</ele><time>2026-04-28T08:47:43.792Z</time></trkpt><trkpt lat="43.4781888" lon="13.4917427"><ele>133.75</ele><time>2026-04-28T08:47:44.772Z</time></trkpt><trkpt lat="43.4780747" lon="13.4916939"><ele>133.0</ele><time>2026-04-28T08:47:45.782Z</time></trkpt><trkpt lat="43.4779568" lon="13.4916261"><ele>130.75</ele><time>2026-04-28T08:47:46.775Z</time></trkpt><trkpt lat="43.4778546" lon="13.4915353"><ele>128.5</ele><time>2026-04-28T08:47:47.784Z</time></trkpt><trkpt lat="43.4777569" lon="13.4914289"><ele>126.25</ele><time>2026-04-28T08:47:48.802Z</time></trkpt><trkpt lat="43.4776609" lon="13.4913161"><ele>124.0</ele><time>2026-04-28T08:47:49.786Z</time></trkpt><trkpt lat="43.4775679" lon="13.4911975"><ele>124.0</ele><time>2026-04-28T08:47:50.78Z</time></trkpt><trkpt lat="43.4774839" lon="13.4910791"><ele>124.0</ele><time>2026-04-28T08:47:51.774Z</time></trkpt><trkpt lat="43.4774008" lon="13.490971"><ele>124.0</ele><time>2026-04-28T08:47:52.78Z</time></trkpt><trkpt lat="43.4773073" lon="13.4908742"><ele>124.0</ele><time>2026-04-28T08:47:53.776Z</time></trkpt><trkpt lat="43.4772127" lon="13.490797"><ele>124.0</ele><time>2026-04-28T08:47:54.783Z</time></trkpt><trkpt lat="43.4771129" lon="13.4907369"><ele>124.0</ele><time>2026-04-28T08:47:55.783Z</time></trkpt><trkpt lat="43.4770092" lon="13.490693"><ele>124.0</ele><time>2026-04-28T08:47:56.771Z</time></trkpt><trkpt lat="43.4769144" lon="13.4906438"><ele>124.0</ele><time>2026-04-28T08:47:57.778Z</time></trkpt><trkpt lat="43.4768307" lon="13.4905921"><ele>124.0</ele><time>2026-04-28T08:47:58.776Z</time></trkpt><trkpt lat="43.4767694" lon="13.4905293"><ele>122.4</ele><time>2026-04-28T08:47:59.782Z</time></trkpt><trkpt lat="43.4767169" lon="13.4904718"><ele>120.80000000000001</ele><time>2026-04-28T08:48:00.792Z</time></trkpt><trkpt lat="43.4765853" lon="13.4904603"><ele>119.19999999999999</ele><time>2026-04-28T08:48:02.786Z</time></trkpt><trkpt lat="43.4764906" lon="13.4904662"><ele>117.6</ele><time>2026-04-28T08:48:03.781Z</time></trkpt><trkpt lat="43.476393" lon="13.4904466"><ele>116.0</ele><time>2026-04-28T08:48:04.783Z</time></trkpt><trkpt lat="43.4762804" lon="13.4904389"><ele>116.0</ele><time>2026-04-28T08:48:05.771Z</time></trkpt><trkpt lat="43.4761649" lon="13.4904257"><ele>116.0</ele><time>2026-04-28T08:48:06.768Z</time></trkpt><trkpt lat="43.4760451" lon="13.4904222"><ele>116.0</ele><time>2026-04-28T08:48:07.781Z</time></trkpt><trkpt lat="43.4759245" lon="13.4904212"><ele>116.0</ele><time>2026-04-28T08:48:08.778Z</time></trkpt><trkpt lat="43.4758034" lon="13.490419"><ele>116.0</ele><time>2026-04-28T08:48:09.774Z</time></trkpt><trkpt lat="43.4756818" lon="13.4904202"><ele>116.0</ele><time>2026-04-28T08:48:10.771Z</time></trkpt><trkpt lat="43.4755598" lon="13.4904254"><ele>116.0</ele><time>2026-04-28T08:48:11.773Z</time></trkpt><trkpt lat="43.4754393" lon="13.4904328"><ele>116.0</ele><time>2026-04-28T08:48:12.766Z</time></trkpt><trkpt lat="43.4753219" lon="13.4904423"><ele>114.4</ele><time>2026-04-28T08:48:13.779Z</time></trkpt><trkpt lat="43.4752118" lon="13.4904492"><ele>112.8</ele><time>2026-04-28T08:48:14.774Z</time></trkpt><trkpt lat="43.4751025" lon="13.4904536"><ele>111.20000000000002</ele><time>2026-04-28T08:48:15.768Z</time></trkpt><trkpt lat="43.4749954" lon="13.4904631"><ele>109.60000000000001</ele><time>2026-04-28T08:48:16.765Z</time></trkpt><trkpt lat="43.4748868" lon="13.4904767"><ele>108.0</ele><time>2026-04-28T08:48:17.779Z</time></trkpt><trkpt lat="43.4747782" lon="13.4904953"><ele>108.0</ele><time>2026-04-28T08:48:18.775Z</time></trkpt><trkpt lat="43.4746689" lon="13.4905117"><ele>108.0</ele><time>2026-04-28T08:48:19.795Z</time></trkpt><trkpt lat="43.4745561" lon="13.4905221"><ele>108.0</ele><time>2026-04-28T08:48:20.769Z</time></trkpt><trkpt lat="43.4744405" lon="13.4905295"><ele>108.0</ele><time>2026-04-28T08:48:21.777Z</time></trkpt><trkpt lat="43.4743229" lon="13.4905317"><ele>107.5</ele><time>2026-04-28T08:48:22.771Z</time></trkpt><trkpt lat="43.4741981" lon="13.4905272"><ele>107.0</ele><time>2026-04-28T08:48:23.782Z</time></trkpt><trkpt lat="43.4740749" lon="13.4905122"><ele>106.5</ele><time>2026-04-28T08:48:24.778Z</time></trkpt><trkpt lat="43.4739462" lon="13.4904922"><ele>106.0</ele><time>2026-04-28T08:48:25.778Z</time></trkpt><trkpt lat="43.4738217" lon="13.4904772"><ele>104.75</ele><time>2026-04-28T08:48:26.772Z</time></trkpt><trkpt lat="43.4737014" lon="13.4904634"><ele>103.5</ele><time>2026-04-28T08:48:27.788Z</time></trkpt><trkpt lat="43.473577" lon="13.4904507"><ele>102.25</ele><time>2026-04-28T08:48:28.782Z</time></trkpt><trkpt lat="43.4734567" lon="13.4904359"><ele>101.0</ele><time>2026-04-28T08:48:29.779Z</time></trkpt><trkpt lat="43.4733368" lon="13.4904185"><ele>101.0</ele><time>2026-04-28T08:48:30.782Z</time></trkpt><trkpt lat="43.4732148" lon="13.490403"><ele>101.0</ele><time>2026-04-28T08:48:31.779Z</time></trkpt><trkpt lat="43.4730931" lon="13.490393"><ele>101.0</ele><time>2026-04-28T08:48:32.789Z</time></trkpt><trkpt lat="43.4729711" lon="13.4903818"><ele>101.0</ele><time>2026-04-28T08:48:33.789Z</time></trkpt><trkpt lat="43.4728567" lon="13.4903691"><ele>99.8</ele><time>2026-04-28T08:48:34.772Z</time></trkpt><trkpt lat="43.4727491" lon="13.4903542"><ele>98.6</ele><time>2026-04-28T08:48:35.772Z</time></trkpt><trkpt lat="43.472651" lon="13.490326"><ele>97.4</ele><time>2026-04-28T08:48:36.77Z</time></trkpt><trkpt lat="43.4725626" lon="13.4902699"><ele>96.2</ele><time>2026-04-28T08:48:37.773Z</time></trkpt><trkpt lat="43.4724813" lon="13.4902111"><ele>95.0</ele><time>2026-04-28T08:48:38.781Z</time></trkpt><trkpt lat="43.472402" lon="13.490161"><ele>95.0</ele><time>2026-04-28T08:48:39.784Z</time></trkpt><trkpt lat="43.4723106" lon="13.4901595"><ele>95.0</ele><time>2026-04-28T08:48:40.78Z</time></trkpt><trkpt lat="43.4722196" lon="13.4901976"><ele>95.0</ele><time>2026-04-28T08:48:41.779Z</time></trkpt><trkpt lat="43.4721315" lon="13.4902723"><ele>95.0</ele><time>2026-04-28T08:48:42.781Z</time></trkpt><trkpt lat="43.4720372" lon="13.4903421"><ele>95.0</ele><time>2026-04-28T08:48:43.796Z</time></trkpt><trkpt lat="43.471923" lon="13.4903649"><ele>95.25</ele><time>2026-04-28T08:48:44.782Z</time></trkpt><trkpt lat="43.4718024" lon="13.4903735"><ele>95.5</ele><time>2026-04-28T08:48:45.774Z</time></trkpt><trkpt lat="43.4716733" lon="13.4903936"><ele>95.75</ele><time>2026-04-28T08:48:46.777Z</time></trkpt><trkpt lat="43.4715349" lon="13.4904245"><ele>96.0</ele><time>2026-04-28T08:48:47.777Z</time></trkpt><trkpt lat="43.4713934" lon="13.4904633"><ele>94.0</ele><time>2026-04-28T08:48:48.766Z</time></trkpt><trkpt lat="43.4712512" lon="13.4905102"><ele>92.0</ele><time>2026-04-28T08:48:49.779Z</time></trkpt><trkpt lat="43.4711057" lon="13.4905589"><ele>90.0</ele><time>2026-04-28T08:48:50.779Z</time></trkpt><trkpt lat="43.4709529" lon="13.4906126"><ele>90.0</ele><time>2026-04-28T08:48:51.787Z</time></trkpt><trkpt lat="43.4708055" lon="13.4906562"><ele>90.0</ele><time>2026-04-28T08:48:52.776Z</time></trkpt><trkpt lat="43.4706619" lon="13.4906945"><ele>90.0</ele><time>2026-04-28T08:48:53.788Z</time></trkpt><trkpt lat="43.4705138" lon="13.4907286"><ele>90.0</ele><time>2026-04-28T08:48:54.783Z</time></trkpt><trkpt lat="43.470366" lon="13.4907623"><ele>89.5</ele><time>2026-04-28T08:48:55.784Z</time></trkpt><trkpt lat="43.4702233" lon="13.4907927"><ele>89.0</ele><time>2026-04-28T08:48:56.766Z</time></trkpt><trkpt lat="43.4700852" lon="13.4908199"><ele>88.5</ele><time>2026-04-28T08:48:57.78Z</time></trkpt><trkpt lat="43.469946" lon="13.4908501"><ele>88.0</ele><time>2026-04-28T08:48:58.779Z</time></trkpt><trkpt lat="43.4698091" lon="13.4908783"><ele>88.0</ele><time>2026-04-28T08:48:59.775Z</time></trkpt><trkpt lat="43.4696716" lon="13.4909022"><ele>88.0</ele><time>2026-04-28T08:49:00.774Z</time></trkpt><trkpt lat="43.4695301" lon="13.4909266"><ele>88.0</ele><time>2026-04-28T08:49:01.779Z</time></trkpt><trkpt lat="43.469386" lon="13.4909537"><ele>88.0</ele><time>2026-04-28T08:49:02.769Z</time></trkpt><trkpt lat="43.4692388" lon="13.4909767"><ele>86.66666666666666</ele><time>2026-04-28T08:49:03.773Z</time></trkpt><trkpt lat="43.4690891" lon="13.4910002"><ele>85.33333333333333</ele><time>2026-04-28T08:49:04.764Z</time></trkpt><trkpt lat="43.4689389" lon="13.4910183"><ele>84.0</ele><time>2026-04-28T08:49:05.777Z</time></trkpt><trkpt lat="43.4687876" lon="13.4910368"><ele>82.33333333333333</ele><time>2026-04-28T08:49:06.769Z</time></trkpt><trkpt lat="43.4686363" lon="13.4910519"><ele>80.66666666666666</ele><time>2026-04-28T08:49:07.779Z</time></trkpt><trkpt lat="43.4684803" lon="13.4910708"><ele>79.0</ele><time>2026-04-28T08:49:08.768Z</time></trkpt><trkpt lat="43.4683284" lon="13.4910873"><ele>79.0</ele><time>2026-04-28T08:49:09.784Z</time></trkpt><trkpt lat="43.4681742" lon="13.4911114"><ele>79.0</ele><time>2026-04-28T08:49:10.769Z</time></trkpt><trkpt lat="43.4680218" lon="13.4911378"><ele>79.0</ele><time>2026-04-28T08:49:11.773Z</time></trkpt><trkpt lat="43.4678661" lon="13.4911627"><ele>76.66666666666666</ele><time>2026-04-28T08:49:12.771Z</time></trkpt><trkpt lat="43.4677112" lon="13.4911831"><ele>74.33333333333333</ele><time>2026-04-28T08:49:13.773Z</time></trkpt><trkpt lat="43.4675568" lon="13.4912041"><ele>72.0</ele><time>2026-04-28T08:49:14.762Z</time></trkpt><trkpt lat="43.4674024" lon="13.4912245"><ele>72.0</ele><time>2026-04-28T08:49:15.778Z</time></trkpt><trkpt lat="43.4672472" lon="13.4912396"><ele>72.0</ele><time>2026-04-28T08:49:16.763Z</time></trkpt><trkpt lat="43.4670911" lon="13.4912468"><ele>72.0</ele><time>2026-04-28T08:49:17.767Z</time></trkpt><trkpt lat="43.4669371" lon="13.4912531"><ele>71.5</ele><time>2026-04-28T08:49:18.776Z</time></trkpt><trkpt lat="43.4667841" lon="13.4912566"><ele>71.0</ele><time>2026-04-28T08:49:19.78Z</time></trkpt><trkpt lat="43.466641" lon="13.4912547"><ele>70.5</ele><time>2026-04-28T08:49:20.777Z</time></trkpt><trkpt lat="43.4665012" lon="13.4912605"><ele>70.0</ele><time>2026-04-28T08:49:21.777Z</time></trkpt><trkpt lat="43.4663595" lon="13.4912741"><ele>69.25</ele><time>2026-04-28T08:49:22.769Z</time></trkpt><trkpt lat="43.466217" lon="13.4913058"><ele>68.5</ele><time>2026-04-28T08:49:23.771Z</time></trkpt><trkpt lat="43.466074" lon="13.491362"><ele>67.75</ele><time>2026-04-28T08:49:24.771Z</time></trkpt><trkpt lat="43.4659353" lon="13.4914418"><ele>67.0</ele><time>2026-04-28T08:49:25.774Z</time></trkpt><trkpt lat="43.4657971" lon="13.4915375"><ele>67.0</ele><time>2026-04-28T08:49:26.773Z</time></trkpt><trkpt lat="43.4656641" lon="13.491638"><ele>67.0</ele><time>2026-04-28T08:49:27.777Z</time></trkpt><trkpt lat="43.4655339" lon="13.4917321"><ele>67.0</ele><time>2026-04-28T08:49:28.776Z</time></trkpt><trkpt lat="43.4654037" lon="13.4918213"><ele>67.0</ele><time>2026-04-28T08:49:29.781Z</time></trkpt><trkpt lat="43.4652705" lon="13.4919169"><ele>66.33333333333333</ele><time>2026-04-28T08:49:30.767Z</time></trkpt><trkpt lat="43.4651367" lon="13.492021"><ele>65.66666666666667</ele><time>2026-04-28T08:49:31.779Z</time></trkpt><trkpt lat="43.4649966" lon="13.4921171"><ele>65.0</ele><time>2026-04-28T08:49:32.776Z</time></trkpt><trkpt lat="43.4648615" lon="13.4922008"><ele>64.0</ele><time>2026-04-28T08:49:33.762Z</time></trkpt><trkpt lat="43.4647319" lon="13.4922906"><ele>63.0</ele><time>2026-04-28T08:49:34.778Z</time></trkpt><trkpt lat="43.4646122" lon="13.4923856"><ele>62.0</ele><time>2026-04-28T08:49:35.771Z</time></trkpt><trkpt lat="43.4644979" lon="13.4924728"><ele>61.0</ele><time>2026-04-28T08:49:36.775Z</time></trkpt><trkpt lat="43.4643765" lon="13.4925703"><ele>60.5</ele><time>2026-04-28T08:49:37.762Z</time></trkpt><trkpt lat="43.4642636" lon="13.492683"><ele>60.0</ele><time>2026-04-28T08:49:38.772Z</time></trkpt><trkpt lat="43.46416" lon="13.4928177"><ele>59.5</ele><time>2026-04-28T08:49:39.776Z</time></trkpt><trkpt lat="43.4640696" lon="13.492966"><ele>59.0</ele><time>2026-04-28T08:49:40.766Z</time></trkpt><trkpt lat="43.4639871" lon="13.4931131"><ele>57.75</ele><time>2026-04-28T08:49:41.773Z</time></trkpt><trkpt lat="43.4639016" lon="13.4932445"><ele>56.5</ele><time>2026-04-28T08:49:42.772Z</time></trkpt><trkpt lat="43.4638143" lon="13.4933591"><ele>55.25</ele><time>2026-04-28T08:49:43.774Z</time></trkpt><trkpt lat="43.4637205" lon="13.4934613"><ele>54.0</ele><time>2026-04-28T08:49:44.765Z</time></trkpt><trkpt lat="43.4636202" lon="13.4935539"><ele>54.0</ele><time>2026-04-28T08:49:45.781Z</time></trkpt><trkpt lat="43.4635107" lon="13.4936395"><ele>54.0</ele><time>2026-04-28T08:49:46.792Z</time></trkpt><trkpt lat="43.4634017" lon="13.4937089"><ele>54.0</ele><time>2026-04-28T08:49:47.779Z</time></trkpt><trkpt lat="43.463287" lon="13.4937781"><ele>54.0</ele><time>2026-04-28T08:49:48.774Z</time></trkpt><trkpt lat="43.4631708" lon="13.4938445"><ele>53.75</ele><time>2026-04-28T08:49:49.78Z</time></trkpt><trkpt lat="43.4630543" lon="13.4939152"><ele>53.5</ele><time>2026-04-28T08:49:50.779Z</time></trkpt><trkpt lat="43.4629371" lon="13.4939835"><ele>53.25</ele><time>2026-04-28T08:49:51.784Z</time></trkpt><trkpt lat="43.4628128" lon="13.4940533"><ele>53.0</ele><time>2026-04-28T08:49:52.782Z</time></trkpt><trkpt lat="43.4626883" lon="13.4941259"><ele>52.75</ele><time>2026-04-28T08:49:53.793Z</time></trkpt><trkpt lat="43.4625618" lon="13.4941969"><ele>52.5</ele><time>2026-04-28T08:49:54.783Z</time></trkpt><trkpt lat="43.4624356" lon="13.4942679"><ele>52.25</ele><time>2026-04-28T08:49:55.775Z</time></trkpt><trkpt lat="43.4623063" lon="13.4943405"><ele>52.0</ele><time>2026-04-28T08:49:56.788Z</time></trkpt><trkpt lat="43.4621857" lon="13.4944182"><ele>51.2</ele><time>2026-04-28T08:49:57.781Z</time></trkpt><trkpt lat="43.4620707" lon="13.4944941"><ele>50.400000000000006</ele><time>2026-04-28T08:49:58.778Z</time></trkpt><trkpt lat="43.4619656" lon="13.4945634"><ele>49.599999999999994</ele><time>2026-04-28T08:49:59.785Z</time></trkpt><trkpt lat="43.4618713" lon="13.4946208"><ele>48.8</ele><time>2026-04-28T08:50:00.781Z</time></trkpt><trkpt lat="43.4617865" lon="13.4946665"><ele>48.0</ele><time>2026-04-28T08:50:01.772Z</time></trkpt><trkpt lat="43.4617069" lon="13.4946923"><ele>48.0</ele><time>2026-04-28T08:50:02.777Z</time></trkpt><trkpt lat="43.4616333" lon="13.494709"><ele>48.0</ele><time>2026-04-28T08:50:03.786Z</time></trkpt><trkpt lat="43.4615596" lon="13.4947211"><ele>48.0</ele><time>2026-04-28T08:50:04.777Z</time></trkpt><trkpt lat="43.4614975" lon="13.4947592"><ele>48.0</ele><time>2026-04-28T08:50:05.781Z</time></trkpt><trkpt lat="43.4614368" lon="13.4948259"><ele>48.0</ele><time>2026-04-28T08:50:06.774Z</time></trkpt><trkpt lat="43.4613779" lon="13.4949121"><ele>48.0</ele><time>2026-04-28T08:50:07.777Z</time></trkpt><trkpt lat="43.4613174" lon="13.4950095"><ele>48.0</ele><time>2026-04-28T08:50:08.785Z</time></trkpt><trkpt lat="43.4612351" lon="13.4950794"><ele>48.0</ele><time>2026-04-28T08:50:09.789Z</time></trkpt><trkpt lat="43.4611496" lon="13.4951336"><ele>48.0</ele><time>2026-04-28T08:50:10.779Z</time></trkpt><trkpt lat="43.4610698" lon="13.4951908"><ele>48.0</ele><time>2026-04-28T08:50:11.77Z</time></trkpt><trkpt lat="43.4609962" lon="13.4952448"><ele>48.0</ele><time>2026-04-28T08:50:12.775Z</time></trkpt><trkpt lat="43.4609237" lon="13.4952962"><ele>48.0</ele><time>2026-04-28T08:50:13.774Z</time></trkpt><trkpt lat="43.4608517" lon="13.4953475"><ele>48.0</ele><time>2026-04-28T08:50:14.776Z</time></trkpt><trkpt lat="43.4607815" lon="13.4954037"><ele>48.0</ele><time>2026-04-28T08:50:15.772Z</time></trkpt><trkpt lat="43.4607114" lon="13.4954522"><ele>48.0</ele><time>2026-04-28T08:50:16.774Z</time></trkpt><trkpt lat="43.4606463" lon="13.4955008"><ele>48.0</ele><time>2026-04-28T08:50:17.77Z</time></trkpt><trkpt lat="43.4605837" lon="13.4955441"><ele>48.0</ele><time>2026-04-28T08:50:18.77Z</time></trkpt><trkpt lat="43.4605268" lon="13.4955896"><ele>48.0</ele><time>2026-04-28T08:50:19.789Z</time></trkpt><trkpt lat="43.4604147" lon="13.495666"><ele>47.833333333333336</ele><time>2026-04-28T08:50:21.777Z</time></trkpt><trkpt lat="43.4603515" lon="13.4957201"><ele>47.666666666666664</ele><time>2026-04-28T08:50:22.78Z</time></trkpt><trkpt lat="43.46028" lon="13.4957688"><ele>47.5</ele><time>2026-04-28T08:50:23.774Z</time></trkpt><trkpt lat="43.4602128" lon="13.4958227"><ele>47.33333333333333</ele><time>2026-04-28T08:50:24.775Z</time></trkpt><trkpt lat="43.4601543" lon="13.4958688"><ele>47.166666666666664</ele><time>2026-04-28T08:50:25.785Z</time></trkpt><trkpt lat="43.4600571" lon="13.4959643"><ele>47.0</ele><time>2026-04-28T08:50:27.789Z</time></trkpt><trkpt lat="43.4600185" lon="13.4960786"><ele>47.0</ele><time>2026-04-28T08:50:29.791Z</time></trkpt><trkpt lat="43.460027" lon="13.4961888"><ele>47.0</ele><time>2026-04-28T08:50:31.782Z</time></trkpt><trkpt lat="43.4600416" lon="13.4962733"><ele>47.0</ele><time>2026-04-28T08:50:35.786Z</time></trkpt><trkpt lat="43.4600545" lon="13.4964238"><ele>47.0</ele><time>2026-04-28T08:51:08.788Z</time></trkpt><trkpt lat="43.4600529" lon="13.4965301"><ele>47.0</ele><time>2026-04-28T08:51:09.781Z</time></trkpt><trkpt lat="43.4600534" lon="13.4966424"><ele>47.0</ele><time>2026-04-28T08:51:10.773Z</time></trkpt><trkpt lat="43.4600434" lon="13.496769"><ele>47.0</ele><time>2026-04-28T08:51:11.78Z</time></trkpt><trkpt lat="43.4600341" lon="13.4969006"><ele>47.0</ele><time>2026-04-28T08:51:12.779Z</time></trkpt><trkpt lat="43.46002" lon="13.4970394"><ele>47.0</ele><time>2026-04-28T08:51:13.803Z</time></trkpt><trkpt lat="43.4600115" lon="13.4971868"><ele>47.0</ele><time>2026-04-28T08:51:14.776Z</time></trkpt><trkpt lat="43.4600045" lon="13.497342"><ele>47.0</ele><time>2026-04-28T08:51:15.78Z</time></trkpt><trkpt lat="43.4599976" lon="13.4974963"><ele>46.2</ele><time>2026-04-28T08:51:16.787Z</time></trkpt><trkpt lat="43.4599934" lon="13.4976503"><ele>45.400000000000006</ele><time>2026-04-28T08:51:17.782Z</time></trkpt><trkpt lat="43.4599983" lon="13.4978067"><ele>44.599999999999994</ele><time>2026-04-28T08:51:18.779Z</time></trkpt><trkpt lat="43.4600081" lon="13.497958"><ele>43.8</ele><time>2026-04-28T08:51:19.78Z</time></trkpt><trkpt lat="43.4600159" lon="13.4981031"><ele>43.0</ele><time>2026-04-28T08:51:20.784Z</time></trkpt><trkpt lat="43.4600172" lon="13.4982381"><ele>43.0</ele><time>2026-04-28T08:51:21.792Z</time></trkpt><trkpt lat="43.4600213" lon="13.4983572"><ele>43.0</ele><time>2026-04-28T08:51:22.775Z</time></trkpt><trkpt lat="43.4600248" lon="13.4984696"><ele>43.0</ele><time>2026-04-28T08:51:23.778Z</time></trkpt><trkpt lat="43.4600321" lon="13.4985877"><ele>43.0</ele><time>2026-04-28T08:51:24.787Z</time></trkpt><trkpt lat="43.4600396" lon="13.4987118"><ele>43.0</ele><time>2026-04-28T08:51:25.783Z</time></trkpt><trkpt lat="43.4600476" lon="13.4988417"><ele>43.0</ele><time>2026-04-28T08:51:26.783Z</time></trkpt><trkpt lat="43.4600613" lon="13.4989725"><ele>42.833333333333336</ele><time>2026-04-28T08:51:27.784Z</time></trkpt><trkpt lat="43.4600687" lon="13.49911"><ele>42.66666666666667</ele><time>2026-04-28T08:51:28.786Z</time></trkpt><trkpt lat="43.4600769" lon="13.4992469"><ele>42.5</ele><time>2026-04-28T08:51:29.801Z</time></trkpt><trkpt lat="43.460082" lon="13.4993762"><ele>42.333333333333336</ele><time>2026-04-28T08:51:30.782Z</time></trkpt><trkpt lat="43.4600776" lon="13.4994856"><ele>42.166666666666664</ele><time>2026-04-28T08:51:31.771Z</time></trkpt><trkpt lat="43.4600736" lon="13.4995723"><ele>42.0</ele><time>2026-04-28T08:51:32.776Z</time></trkpt><trkpt lat="43.460044" lon="13.4997207"><ele>42.0</ele><time>2026-04-28T08:51:34.781Z</time></trkpt><trkpt lat="43.4600402" lon="13.499885"><ele>42.0</ele><time>2026-04-28T08:51:36.784Z</time></trkpt><trkpt lat="43.4600633" lon="13.499982"><ele>42.0</ele><time>2026-04-28T08:51:37.78Z</time></trkpt><trkpt lat="43.4600846" lon="13.5000899"><ele>42.0</ele><time>2026-04-28T08:51:38.782Z</time></trkpt><trkpt lat="43.4601054" lon="13.500205"><ele>42.0</ele><time>2026-04-28T08:51:39.79Z</time></trkpt><trkpt lat="43.4601191" lon="13.5003367"><ele>42.0</ele><time>2026-04-28T08:51:40.776Z</time></trkpt><trkpt lat="43.4601298" lon="13.5004726"><ele>42.0</ele><time>2026-04-28T08:51:41.783Z</time></trkpt><trkpt lat="43.4601371" lon="13.5006196"><ele>42.0</ele><time>2026-04-28T08:51:42.771Z</time></trkpt><trkpt lat="43.460141" lon="13.5007796"><ele>42.0</ele><time>2026-04-28T08:51:43.775Z</time></trkpt><trkpt lat="43.4601347" lon="13.5009473"><ele>42.0</ele><time>2026-04-28T08:51:44.781Z</time></trkpt><trkpt lat="43.4601226" lon="13.5011244"><ele>41.75</ele><time>2026-04-28T08:51:45.779Z</time></trkpt><trkpt lat="43.4601068" lon="13.5013085"><ele>41.5</ele><time>2026-04-28T08:51:46.777Z</time></trkpt><trkpt lat="43.460085" lon="13.5014962"><ele>41.25</ele><time>2026-04-28T08:51:47.766Z</time></trkpt><trkpt lat="43.4600651" lon="13.5016906"><ele>41.0</ele><time>2026-04-28T08:51:48.782Z</time></trkpt><trkpt lat="43.4600415" lon="13.5018865"><ele>41.0</ele><time>2026-04-28T08:51:49.782Z</time></trkpt><trkpt lat="43.460019" lon="13.5020873"><ele>41.0</ele><time>2026-04-28T08:51:50.768Z</time></trkpt><trkpt lat="43.4599954" lon="13.5022906"><ele>41.0</ele><time>2026-04-28T08:51:51.78Z</time></trkpt><trkpt lat="43.4599706" lon="13.5025042"><ele>41.0</ele><time>2026-04-28T08:51:52.766Z</time></trkpt><trkpt lat="43.4599383" lon="13.5027261"><ele>41.0</ele><time>2026-04-28T08:51:53.784Z</time></trkpt><trkpt lat="43.4598929" lon="13.5029483"><ele>41.0</ele><time>2026-04-28T08:51:54.768Z</time></trkpt><trkpt lat="43.4598324" lon="13.5031675"><ele>41.0</ele><time>2026-04-28T08:51:55.783Z</time></trkpt><trkpt lat="43.4597532" lon="13.5033791"><ele>41.0</ele><time>2026-04-28T08:51:56.771Z</time></trkpt><trkpt lat="43.4596724" lon="13.5035815"><ele>41.0</ele><time>2026-04-28T08:51:57.783Z</time></trkpt><trkpt lat="43.4595855" lon="13.5037778"><ele>40.666666666666664</ele><time>2026-04-28T08:51:58.776Z</time></trkpt><trkpt lat="43.4594901" lon="13.5039741"><ele>40.333333333333336</ele><time>2026-04-28T08:51:59.771Z</time></trkpt><trkpt lat="43.459387" lon="13.5041668"><ele>40.0</ele><time>2026-04-28T08:52:00.772Z</time></trkpt><trkpt lat="43.4592832" lon="13.5043626"><ele>40.0</ele><time>2026-04-28T08:52:01.774Z</time></trkpt><trkpt lat="43.4591745" lon="13.5045485"><ele>40.0</ele><time>2026-04-28T08:52:02.773Z</time></trkpt><trkpt lat="43.4590718" lon="13.5047376"><ele>40.0</ele><time>2026-04-28T08:52:03.778Z</time></trkpt><trkpt lat="43.4589643" lon="13.5049264"><ele>40.0</ele><time>2026-04-28T08:52:04.776Z</time></trkpt><trkpt lat="43.4588545" lon="13.5051159"><ele>40.0</ele><time>2026-04-28T08:52:05.771Z</time></trkpt><trkpt lat="43.4587559" lon="13.5053088"><ele>40.0</ele><time>2026-04-28T08:52:06.771Z</time></trkpt><trkpt lat="43.4586639" lon="13.5054985"><ele>40.0</ele><time>2026-04-28T08:52:07.776Z</time></trkpt><trkpt lat="43.4585772" lon="13.5056966"><ele>40.0</ele><time>2026-04-28T08:52:08.774Z</time></trkpt><trkpt lat="43.4585042" lon="13.5059058"><ele>40.0</ele><time>2026-04-28T08:52:09.78Z</time></trkpt><trkpt lat="43.4584312" lon="13.5061243"><ele>40.0</ele><time>2026-04-28T08:52:10.771Z</time></trkpt><trkpt lat="43.458357" lon="13.506354"><ele>40.0</ele><time>2026-04-28T08:52:11.783Z</time></trkpt><trkpt lat="43.4582855" lon="13.5065835"><ele>40.0</ele><time>2026-04-28T08:52:12.767Z</time></trkpt><trkpt lat="43.4582099" lon="13.5068147"><ele>40.0</ele><time>2026-04-28T08:52:13.773Z</time></trkpt><trkpt lat="43.4581378" lon="13.5070454"><ele>40.0</ele><time>2026-04-28T08:52:14.767Z</time></trkpt><trkpt lat="43.4580726" lon="13.5072759"><ele>40.0</ele><time>2026-04-28T08:52:15.781Z</time></trkpt><trkpt lat="43.4580158" lon="13.5075118"><ele>40.0</ele><time>2026-04-28T08:52:16.78Z</time></trkpt><trkpt lat="43.457969" lon="13.5077513"><ele>40.0</ele><time>2026-04-28T08:52:17.775Z</time></trkpt><trkpt lat="43.457929" lon="13.507991"><ele>40.0</ele><time>2026-04-28T08:52:18.768Z</time></trkpt><trkpt lat="43.4578893" lon="13.5082307"><ele>39.66666666666667</ele><time>2026-04-28T08:52:19.773Z</time></trkpt><trkpt lat="43.4578537" lon="13.5084747"><ele>39.333333333333336</ele><time>2026-04-28T08:52:20.776Z</time></trkpt><trkpt lat="43.4578172" lon="13.5087194"><ele>39.0</ele><time>2026-04-28T08:52:21.787Z</time></trkpt><trkpt lat="43.4577775" lon="13.5089659"><ele>38.333333333333336</ele><time>2026-04-28T08:52:22.771Z</time></trkpt><trkpt lat="43.4577413" lon="13.5092062"><ele>37.66666666666667</ele><time>2026-04-28T08:52:23.779Z</time></trkpt><trkpt lat="43.4577061" lon="13.5094435"><ele>37.0</ele><time>2026-04-28T08:52:24.779Z</time></trkpt><trkpt lat="43.4576722" lon="13.5096702"><ele>37.0</ele><time>2026-04-28T08:52:25.775Z</time></trkpt><trkpt lat="43.457638" lon="13.5099"><ele>37.0</ele><time>2026-04-28T08:52:26.778Z</time></trkpt><trkpt lat="43.4576046" lon="13.5101296"><ele>37.0</ele><time>2026-04-28T08:52:27.783Z</time></trkpt><trkpt lat="43.4575678" lon="13.5103504"><ele>37.0</ele><time>2026-04-28T08:52:28.776Z</time></trkpt><trkpt lat="43.4575372" lon="13.5105559"><ele>37.0</ele><time>2026-04-28T08:52:29.787Z</time></trkpt><trkpt lat="43.4575076" lon="13.5107476"><ele>37.0</ele><time>2026-04-28T08:52:30.796Z</time></trkpt><trkpt lat="43.4574808" lon="13.5109305"><ele>37.0</ele><time>2026-04-28T08:52:31.773Z</time></trkpt><trkpt lat="43.4574533" lon="13.5111024"><ele>37.2</ele><time>2026-04-28T08:52:32.771Z</time></trkpt><trkpt lat="43.4574297" lon="13.5112641"><ele>37.400000000000006</ele><time>2026-04-28T08:52:33.785Z</time></trkpt><trkpt lat="43.4574045" lon="13.511416"><ele>37.599999999999994</ele><time>2026-04-28T08:52:34.784Z</time></trkpt><trkpt lat="43.4573822" lon="13.5115627"><ele>37.8</ele><time>2026-04-28T08:52:35.785Z</time></trkpt><trkpt lat="43.4573616" lon="13.5116976"><ele>38.0</ele><time>2026-04-28T08:52:36.781Z</time></trkpt><trkpt lat="43.457351" lon="13.5118132"><ele>38.0</ele><time>2026-04-28T08:52:37.78Z</time></trkpt><trkpt lat="43.4573643" lon="13.5119132"><ele>38.0</ele><time>2026-04-28T08:52:38.769Z</time></trkpt><trkpt lat="43.4574171" lon="13.5119946"><ele>38.0</ele><time>2026-04-28T08:52:39.765Z</time></trkpt><trkpt lat="43.457485" lon="13.5120679"><ele>38.0</ele><time>2026-04-28T08:52:40.772Z</time></trkpt><trkpt lat="43.4575622" lon="13.512151"><ele>38.0</ele><time>2026-04-28T08:52:41.767Z</time></trkpt><trkpt lat="43.4576409" lon="13.512243"><ele>38.0</ele><time>2026-04-28T08:52:42.774Z</time></trkpt><trkpt lat="43.4577314" lon="13.5123491"><ele>38.0</ele><time>2026-04-28T08:52:43.775Z</time></trkpt><trkpt lat="43.4578297" lon="13.5124699"><ele>38.0</ele><time>2026-04-28T08:52:44.772Z</time></trkpt><trkpt lat="43.4579374" lon="13.512589"><ele>38.0</ele><time>2026-04-28T08:52:45.771Z</time></trkpt><trkpt lat="43.4580493" lon="13.5127218"><ele>38.0</ele><time>2026-04-28T08:52:46.775Z</time></trkpt><trkpt lat="43.4581629" lon="13.5128575"><ele>37.666666666666664</ele><time>2026-04-28T08:52:47.782Z</time></trkpt><trkpt lat="43.4582763" lon="13.5129952"><ele>37.333333333333336</ele><time>2026-04-28T08:52:48.776Z</time></trkpt><trkpt lat="43.4583883" lon="13.5131261"><ele>37.0</ele><time>2026-04-28T08:52:49.782Z</time></trkpt><trkpt lat="43.4585056" lon="13.5132675"><ele>37.0</ele><time>2026-04-28T08:52:50.783Z</time></trkpt><trkpt lat="43.4586303" lon="13.5134106"><ele>37.0</ele><time>2026-04-28T08:52:51.776Z</time></trkpt><trkpt lat="43.4587503" lon="13.5135518"><ele>37.0</ele><time>2026-04-28T08:52:52.762Z</time></trkpt><trkpt lat="43.4588682" lon="13.5136898"><ele>37.75</ele><time>2026-04-28T08:52:53.776Z</time></trkpt><trkpt lat="43.458983" lon="13.5138237"><ele>38.5</ele><time>2026-04-28T08:52:54.779Z</time></trkpt><trkpt lat="43.459093" lon="13.5139569"><ele>39.25</ele><time>2026-04-28T08:52:55.774Z</time></trkpt><trkpt lat="43.4591979" lon="13.5140949"><ele>40.0</ele><time>2026-04-28T08:52:56.782Z</time></trkpt><trkpt lat="43.4592918" lon="13.5142461"><ele>40.0</ele><time>2026-04-28T08:52:57.774Z</time></trkpt><trkpt lat="43.4593662" lon="13.5144105"><ele>40.0</ele><time>2026-04-28T08:52:58.77Z</time></trkpt><trkpt lat="43.4594243" lon="13.5145894"><ele>40.0</ele><time>2026-04-28T08:52:59.772Z</time></trkpt><trkpt lat="43.4594726" lon="13.5147788"><ele>40.0</ele><time>2026-04-28T08:53:00.775Z</time></trkpt><trkpt lat="43.4595121" lon="13.5149747"><ele>40.5</ele><time>2026-04-28T08:53:01.782Z</time></trkpt><trkpt lat="43.4595535" lon="13.5151644"><ele>41.0</ele><time>2026-04-28T08:53:02.773Z</time></trkpt><trkpt lat="43.4596004" lon="13.5153585"><ele>41.5</ele><time>2026-04-28T08:53:03.778Z</time></trkpt><trkpt lat="43.4596512" lon="13.5155532"><ele>42.0</ele><time>2026-04-28T08:53:04.768Z</time></trkpt><trkpt lat="43.4597073" lon="13.5157531"><ele>42.333333333333336</ele><time>2026-04-28T08:53:05.77Z</time></trkpt><trkpt lat="43.4597675" lon="13.5159524"><ele>42.66666666666667</ele><time>2026-04-28T08:53:06.782Z</time></trkpt><trkpt lat="43.4598297" lon="13.5161598"><ele>43.0</ele><time>2026-04-28T08:53:07.782Z</time></trkpt><trkpt lat="43.4598851" lon="13.5163747"><ele>43.0</ele><time>2026-04-28T08:53:08.778Z</time></trkpt><trkpt lat="43.4599459" lon="13.5165908"><ele>43.0</ele><time>2026-04-28T08:53:09.771Z</time></trkpt><trkpt lat="43.4600071" lon="13.5168032"><ele>43.0</ele><time>2026-04-28T08:53:10.772Z</time></trkpt><trkpt lat="43.4600682" lon="13.5170228"><ele>43.66666666666667</ele><time>2026-04-28T08:53:11.779Z</time></trkpt><trkpt lat="43.4601309" lon="13.5172423"><ele>44.333333333333336</ele><time>2026-04-28T08:53:12.781Z</time></trkpt><trkpt lat="43.4601971" lon="13.517458"><ele>45.0</ele><time>2026-04-28T08:53:13.77Z</time></trkpt><trkpt lat="43.4602706" lon="13.5176682"><ele>45.0</ele><time>2026-04-28T08:53:14.766Z</time></trkpt><trkpt lat="43.4603495" lon="13.5178807"><ele>45.0</ele><time>2026-04-28T08:53:15.782Z</time></trkpt><trkpt lat="43.4604303" lon="13.5180904"><ele>45.0</ele><time>2026-04-28T08:53:16.768Z</time></trkpt><trkpt lat="43.4605144" lon="13.518294"><ele>45.333333333333336</ele><time>2026-04-28T08:53:17.772Z</time></trkpt><trkpt lat="43.4606022" lon="13.5184973"><ele>45.66666666666667</ele><time>2026-04-28T08:53:18.775Z</time></trkpt><trkpt lat="43.4606929" lon="13.5186975"><ele>46.0</ele><time>2026-04-28T08:53:19.778Z</time></trkpt><trkpt lat="43.4607812" lon="13.5188958"><ele>46.333333333333336</ele><time>2026-04-28T08:53:20.776Z</time></trkpt><trkpt lat="43.4608761" lon="13.5190939"><ele>46.666666666666664</ele><time>2026-04-28T08:53:21.766Z</time></trkpt><trkpt lat="43.4609668" lon="13.5192802"><ele>47.0</ele><time>2026-04-28T08:53:22.774Z</time></trkpt><trkpt lat="43.4610485" lon="13.5194636"><ele>47.5</ele><time>2026-04-28T08:53:23.777Z</time></trkpt><trkpt lat="43.4611135" lon="13.519646"><ele>48.0</ele><time>2026-04-28T08:53:24.769Z</time></trkpt><trkpt lat="43.4611433" lon="13.5198425"><ele>48.5</ele><time>2026-04-28T08:53:25.775Z</time></trkpt><trkpt lat="43.4611287" lon="13.5200544"><ele>49.0</ele><time>2026-04-28T08:53:26.78Z</time></trkpt><trkpt lat="43.4611043" lon="13.5202676"><ele>50.0</ele><time>2026-04-28T08:53:27.775Z</time></trkpt><trkpt lat="43.4611011" lon="13.5204839"><ele>51.0</ele><time>2026-04-28T08:53:28.776Z</time></trkpt><trkpt lat="43.4611402" lon="13.5207033"><ele>52.0</ele><time>2026-04-28T08:53:29.773Z</time></trkpt><trkpt lat="43.4611977" lon="13.5209178"><ele>52.0</ele><time>2026-04-28T08:53:30.766Z</time></trkpt><trkpt lat="43.4612581" lon="13.5211281"><ele>52.0</ele><time>2026-04-28T08:53:31.785Z</time></trkpt><trkpt lat="43.46132" lon="13.521343"><ele>52.0</ele><time>2026-04-28T08:53:32.769Z</time></trkpt><trkpt lat="43.4613826" lon="13.5215604"><ele>55.33333333333333</ele><time>2026-04-28T08:53:33.784Z</time></trkpt><trkpt lat="43.4614405" lon="13.521775"><ele>58.66666666666667</ele><time>2026-04-28T08:53:34.767Z</time></trkpt><trkpt lat="43.4614726" lon="13.5219842"><ele>62.0</ele><time>2026-04-28T08:53:35.77Z</time></trkpt><trkpt lat="43.461477" lon="13.5221641"><ele>61.5</ele><time>2026-04-28T08:53:36.771Z</time></trkpt><trkpt lat="43.4614367" lon="13.5223222"><ele>61.0</ele><time>2026-04-28T08:53:37.769Z</time></trkpt><trkpt lat="43.4613672" lon="13.5224818"><ele>60.5</ele><time>2026-04-28T08:53:38.765Z</time></trkpt><trkpt lat="43.4612884" lon="13.5226211"><ele>60.0</ele><time>2026-04-28T08:53:39.771Z</time></trkpt><trkpt lat="43.4611976" lon="13.5227608"><ele>60.33333333333333</ele><time>2026-04-28T08:53:40.781Z</time></trkpt><trkpt lat="43.4610962" lon="13.5229169"><ele>60.666666666666664</ele><time>2026-04-28T08:53:41.776Z</time></trkpt><trkpt lat="43.4609824" lon="13.5230837"><ele>61.0</ele><time>2026-04-28T08:53:42.774Z</time></trkpt><trkpt lat="43.4608676" lon="13.5232555"><ele>61.0</ele><time>2026-04-28T08:53:43.791Z</time></trkpt><trkpt lat="43.4607522" lon="13.5234248"><ele>61.0</ele><time>2026-04-28T08:53:44.756Z</time></trkpt><trkpt lat="43.4606388" lon="13.5235991"><ele>61.0</ele><time>2026-04-28T08:53:45.78Z</time></trkpt><trkpt lat="43.4605301" lon="13.523777"><ele>59.33333333333333</ele><time>2026-04-28T08:53:46.771Z</time></trkpt><trkpt lat="43.4604285" lon="13.5239651"><ele>57.66666666666667</ele><time>2026-04-28T08:53:47.787Z</time></trkpt><trkpt lat="43.4603541" lon="13.5241695"><ele>56.0</ele><time>2026-04-28T08:53:48.769Z</time></trkpt><trkpt lat="43.4603009" lon="13.5244018"><ele>56.66666666666667</ele><time>2026-04-28T08:53:49.769Z</time></trkpt><trkpt lat="43.4602462" lon="13.524644"><ele>57.33333333333333</ele><time>2026-04-28T08:53:50.781Z</time></trkpt><trkpt lat="43.4602011" lon="13.5248895"><ele>58.0</ele><time>2026-04-28T08:53:51.777Z</time></trkpt><trkpt lat="43.4601511" lon="13.5251346"><ele>58.0</ele><time>2026-04-28T08:53:52.77Z</time></trkpt><trkpt lat="43.4601037" lon="13.5253836"><ele>58.0</ele><time>2026-04-28T08:53:53.78Z</time></trkpt><trkpt lat="43.4600562" lon="13.5256279"><ele>58.0</ele><time>2026-04-28T08:53:54.771Z</time></trkpt><trkpt lat="43.4600123" lon="13.5258692"><ele>58.0</ele><time>2026-04-28T08:53:55.774Z</time></trkpt><trkpt lat="43.4599719" lon="13.5261092"><ele>58.0</ele><time>2026-04-28T08:53:56.781Z</time></trkpt><trkpt lat="43.4599497" lon="13.5263503"><ele>58.0</ele><time>2026-04-28T08:53:57.774Z</time></trkpt><trkpt lat="43.4599427" lon="13.5265754"><ele>57.666666666666664</ele><time>2026-04-28T08:53:58.775Z</time></trkpt><trkpt lat="43.4599596" lon="13.526784"><ele>57.33333333333333</ele><time>2026-04-28T08:53:59.785Z</time></trkpt><trkpt lat="43.4599905" lon="13.5269965"><ele>57.0</ele><time>2026-04-28T08:54:00.779Z</time></trkpt><trkpt lat="43.4600335" lon="13.5271996"><ele>56.66666666666667</ele><time>2026-04-28T08:54:01.773Z</time></trkpt><trkpt lat="43.4600964" lon="13.527399"><ele>56.333333333333336</ele><time>2026-04-28T08:54:02.774Z</time></trkpt><trkpt lat="43.4601727" lon="13.5275955"><ele>56.0</ele><time>2026-04-28T08:54:03.777Z</time></trkpt><trkpt lat="43.4602652" lon="13.5277927"><ele>56.333333333333336</ele><time>2026-04-28T08:54:04.773Z</time></trkpt><trkpt lat="43.4603707" lon="13.5279884"><ele>56.66666666666667</ele><time>2026-04-28T08:54:05.768Z</time></trkpt><trkpt lat="43.4604804" lon="13.5281724"><ele>57.0</ele><time>2026-04-28T08:54:06.767Z</time></trkpt><trkpt lat="43.4605947" lon="13.5283535"><ele>59.0</ele><time>2026-04-28T08:54:07.785Z</time></trkpt><trkpt lat="43.4606956" lon="13.528548"><ele>61.0</ele><time>2026-04-28T08:54:08.774Z</time></trkpt><trkpt lat="43.4607816" lon="13.5287426"><ele>63.0</ele><time>2026-04-28T08:54:09.78Z</time></trkpt><trkpt lat="43.4608433" lon="13.5289187"><ele>63.0</ele><time>2026-04-28T08:54:10.774Z</time></trkpt><trkpt lat="43.4608953" lon="13.5290655"><ele>63.0</ele><time>2026-04-28T08:54:11.777Z</time></trkpt><trkpt lat="43.4609384" lon="13.5292103"><ele>63.0</ele><time>2026-04-28T08:54:12.778Z</time></trkpt><trkpt lat="43.4609803" lon="13.5293499"><ele>63.0</ele><time>2026-04-28T08:54:13.772Z</time></trkpt><trkpt lat="43.4610123" lon="13.529485"><ele>63.0</ele><time>2026-04-28T08:54:14.771Z</time></trkpt><trkpt lat="43.4610407" lon="13.5296384"><ele>62.75</ele><time>2026-04-28T08:54:15.774Z</time></trkpt><trkpt lat="43.4610451" lon="13.5298094"><ele>62.5</ele><time>2026-04-28T08:54:16.769Z</time></trkpt><trkpt lat="43.4610203" lon="13.5299873"><ele>62.25</ele><time>2026-04-28T08:54:17.784Z</time></trkpt><trkpt lat="43.4609759" lon="13.5301728"><ele>62.0</ele><time>2026-04-28T08:54:18.774Z</time></trkpt><trkpt lat="43.4609149" lon="13.5303676"><ele>62.0</ele><time>2026-04-28T08:54:19.778Z</time></trkpt><trkpt lat="43.460855" lon="13.5305654"><ele>62.0</ele><time>2026-04-28T08:54:20.788Z</time></trkpt><trkpt lat="43.4607955" lon="13.530761"><ele>62.0</ele><time>2026-04-28T08:54:21.785Z</time></trkpt><trkpt lat="43.4607305" lon="13.5309592"><ele>62.0</ele><time>2026-04-28T08:54:22.782Z</time></trkpt><trkpt lat="43.4606631" lon="13.5311553"><ele>62.0</ele><time>2026-04-28T08:54:23.779Z</time></trkpt><trkpt lat="43.4605958" lon="13.5313473"><ele>62.0</ele><time>2026-04-28T08:54:24.768Z</time></trkpt><trkpt lat="43.4605332" lon="13.5315332"><ele>64.0</ele><time>2026-04-28T08:54:25.768Z</time></trkpt><trkpt lat="43.4604825" lon="13.5317224"><ele>66.0</ele><time>2026-04-28T08:54:26.773Z</time></trkpt><trkpt lat="43.4604526" lon="13.5318985"><ele>68.0</ele><time>2026-04-28T08:54:27.775Z</time></trkpt><trkpt lat="43.4604409" lon="13.5320731"><ele>70.0</ele><time>2026-04-28T08:54:28.799Z</time></trkpt><trkpt lat="43.4604652" lon="13.5322411"><ele>71.75</ele><time>2026-04-28T08:54:29.765Z</time></trkpt><trkpt lat="43.4605105" lon="13.532389"><ele>73.5</ele><time>2026-04-28T08:54:30.798Z</time></trkpt><trkpt lat="43.4605885" lon="13.5325247"><ele>75.25</ele><time>2026-04-28T08:54:31.773Z</time></trkpt><trkpt lat="43.4606818" lon="13.5326461"><ele>77.0</ele><time>2026-04-28T08:54:32.797Z</time></trkpt><trkpt lat="43.4607704" lon="13.5327637"><ele>77.0</ele><time>2026-04-28T08:54:33.789Z</time></trkpt><trkpt lat="43.4608633" lon="13.5328804"><ele>77.0</ele><time>2026-04-28T08:54:34.774Z</time></trkpt><trkpt lat="43.4609605" lon="13.5330034"><ele>77.0</ele><time>2026-04-28T08:54:35.78Z</time></trkpt><trkpt lat="43.4610592" lon="13.5331313"><ele>77.0</ele><time>2026-04-28T08:54:36.786Z</time></trkpt><trkpt lat="43.4611517" lon="13.533258"><ele>77.8</ele><time>2026-04-28T08:54:37.792Z</time></trkpt><trkpt lat="43.461241" lon="13.5333758"><ele>78.6</ele><time>2026-04-28T08:54:38.774Z</time></trkpt><trkpt lat="43.4613169" lon="13.5334754"><ele>79.39999999999999</ele><time>2026-04-28T08:54:39.78Z</time></trkpt><trkpt lat="43.4613771" lon="13.5335602"><ele>80.2</ele><time>2026-04-28T08:54:40.781Z</time></trkpt><trkpt lat="43.4614293" lon="13.533638"><ele>81.0</ele><time>2026-04-28T08:54:41.784Z</time></trkpt><trkpt lat="43.4614856" lon="13.5337638"><ele>81.83333333333333</ele><time>2026-04-28T08:54:43.788Z</time></trkpt><trkpt lat="43.4614846" lon="13.5338835"><ele>82.66666666666667</ele><time>2026-04-28T08:54:47.779Z</time></trkpt><trkpt lat="43.4614138" lon="13.5340118"><ele>83.5</ele><time>2026-04-28T08:54:49.789Z</time></trkpt><trkpt lat="43.4613591" lon="13.5340615"><ele>84.33333333333334</ele><time>2026-04-28T08:54:50.778Z</time></trkpt><trkpt lat="43.4612873" lon="13.5341125"><ele>85.16666666666667</ele><time>2026-04-28T08:54:51.789Z</time></trkpt><trkpt lat="43.4612124" lon="13.5341845"><ele>86.0</ele><time>2026-04-28T08:54:52.778Z</time></trkpt><trkpt lat="43.4611314" lon="13.5342616"><ele>86.0</ele><time>2026-04-28T08:54:53.778Z</time></trkpt><trkpt lat="43.4610513" lon="13.5343498"><ele>86.0</ele><time>2026-04-28T08:54:54.773Z</time></trkpt><trkpt lat="43.4609719" lon="13.5344559"><ele>86.0</ele><time>2026-04-28T08:54:55.787Z</time></trkpt><trkpt lat="43.4608976" lon="13.5345768"><ele>86.0</ele><time>2026-04-28T08:54:56.766Z</time></trkpt><trkpt lat="43.4608128" lon="13.5347211"><ele>86.5</ele><time>2026-04-28T08:54:57.773Z</time></trkpt><trkpt lat="43.4607258" lon="13.5348655"><ele>87.0</ele><time>2026-04-28T08:54:58.769Z</time></trkpt><trkpt lat="43.4606345" lon="13.5350123"><ele>87.5</ele><time>2026-04-28T08:54:59.765Z</time></trkpt><trkpt lat="43.4605467" lon="13.535156"><ele>88.0</ele><time>2026-04-28T08:55:00.766Z</time></trkpt><trkpt lat="43.4604616" lon="13.5352979"><ele>86.0</ele><time>2026-04-28T08:55:01.767Z</time></trkpt><trkpt lat="43.4603797" lon="13.5354332"><ele>84.0</ele><time>2026-04-28T08:55:02.765Z</time></trkpt><trkpt lat="43.460299" lon="13.535563"><ele>82.0</ele><time>2026-04-28T08:55:03.774Z</time></trkpt><trkpt lat="43.4602181" lon="13.5356874"><ele>80.0</ele><time>2026-04-28T08:55:04.772Z</time></trkpt><trkpt lat="43.4601466" lon="13.5358248"><ele>80.0</ele><time>2026-04-28T08:55:05.772Z</time></trkpt><trkpt lat="43.4600784" lon="13.5359737"><ele>80.0</ele><time>2026-04-28T08:55:06.768Z</time></trkpt><trkpt lat="43.4600168" lon="13.5361203"><ele>80.0</ele><time>2026-04-28T08:55:07.788Z</time></trkpt><trkpt lat="43.4599537" lon="13.5362624"><ele>80.0</ele><time>2026-04-28T08:55:08.773Z</time></trkpt><trkpt lat="43.4598988" lon="13.5364012"><ele>80.2</ele><time>2026-04-28T08:55:09.779Z</time></trkpt><trkpt lat="43.4598459" lon="13.5365293"><ele>80.4</ele><time>2026-04-28T08:55:10.772Z</time></trkpt><trkpt lat="43.4597988" lon="13.5366512"><ele>80.6</ele><time>2026-04-28T08:55:11.781Z</time></trkpt><trkpt lat="43.459746" lon="13.5367734"><ele>80.8</ele><time>2026-04-28T08:55:12.781Z</time></trkpt><trkpt lat="43.4596937" lon="13.5369019"><ele>81.0</ele><time>2026-04-28T08:55:13.79Z</time></trkpt><trkpt lat="43.4596445" lon="13.5370272"><ele>80.2</ele><time>2026-04-28T08:55:14.783Z</time></trkpt><trkpt lat="43.4595913" lon="13.5371534"><ele>79.39999999999999</ele><time>2026-04-28T08:55:15.774Z</time></trkpt><trkpt lat="43.4595388" lon="13.5372877"><ele>78.6</ele><time>2026-04-28T08:55:16.79Z</time></trkpt><trkpt lat="43.4594875" lon="13.5374267"><ele>77.8</ele><time>2026-04-28T08:55:17.781Z</time></trkpt><trkpt lat="43.4594292" lon="13.5375619"><ele>77.0</ele><time>2026-04-28T08:55:18.774Z</time></trkpt><trkpt lat="43.4593714" lon="13.537695"><ele>77.0</ele><time>2026-04-28T08:55:19.795Z</time></trkpt><trkpt lat="43.4593191" lon="13.5378359"><ele>77.0</ele><time>2026-04-28T08:55:20.775Z</time></trkpt><trkpt lat="43.4592709" lon="13.5379882"><ele>77.0</ele><time>2026-04-28T08:55:21.796Z</time></trkpt><trkpt lat="43.4592263" lon="13.5381449"><ele>77.0</ele><time>2026-04-28T08:55:22.78Z</time></trkpt><trkpt lat="43.4591841" lon="13.5382999"><ele>77.25</ele><time>2026-04-28T08:55:23.777Z</time></trkpt><trkpt lat="43.4591406" lon="13.538456"><ele>77.5</ele><time>2026-04-28T08:55:24.786Z</time></trkpt><trkpt lat="43.4590948" lon="13.5386154"><ele>77.75</ele><time>2026-04-28T08:55:25.78Z</time></trkpt><trkpt lat="43.4590495" lon="13.5387735"><ele>78.0</ele><time>2026-04-28T08:55:26.771Z</time></trkpt><trkpt lat="43.4590054" lon="13.538935"><ele>78.6</ele><time>2026-04-28T08:55:27.77Z</time></trkpt><trkpt lat="43.458963" lon="13.539085"><ele>79.19999999999999</ele><time>2026-04-28T08:55:28.793Z</time></trkpt><trkpt lat="43.4589256" lon="13.5392159"><ele>79.8</ele><time>2026-04-28T08:55:29.778Z</time></trkpt><trkpt lat="43.4588771" lon="13.5393255"><ele>80.39999999999999</ele><time>2026-04-28T08:55:30.793Z</time></trkpt><trkpt lat="43.4588185" lon="13.5394028"><ele>81.0</ele><time>2026-04-28T08:55:31.781Z</time></trkpt><trkpt lat="43.4587532" lon="13.5394483"><ele>80.0</ele><time>2026-04-28T08:55:32.768Z</time></trkpt><trkpt lat="43.4586861" lon="13.5394982"><ele>79.0</ele><time>2026-04-28T08:55:33.781Z</time></trkpt><trkpt lat="43.4586336" lon="13.5395697"><ele>78.0</ele><time>2026-04-28T08:55:34.793Z</time></trkpt><trkpt lat="43.4586087" lon="13.5396736"><ele>77.0</ele><time>2026-04-28T08:55:35.783Z</time></trkpt><trkpt lat="43.4586002" lon="13.5397826"><ele>76.0</ele><time>2026-04-28T08:55:36.771Z</time></trkpt><trkpt lat="43.4585919" lon="13.5398809"><ele>75.0</ele><time>2026-04-28T08:55:37.766Z</time></trkpt><trkpt lat="43.4585441" lon="13.5400284"><ele>75.0</ele><time>2026-04-28T08:55:39.787Z</time></trkpt><trkpt lat="43.4584586" lon="13.5401478"><ele>75.0</ele><time>2026-04-28T08:55:41.784Z</time></trkpt><trkpt lat="43.4584073" lon="13.540213"><ele>75.0</ele><time>2026-04-28T08:55:42.774Z</time></trkpt><trkpt lat="43.4583553" lon="13.5402894"><ele>75.0</ele><time>2026-04-28T08:55:43.782Z</time></trkpt><trkpt lat="43.4583049" lon="13.5403721"><ele>75.0</ele><time>2026-04-28T08:55:44.777Z</time></trkpt><trkpt lat="43.4582632" lon="13.5404593"><ele>75.0</ele><time>2026-04-28T08:55:45.771Z</time></trkpt><trkpt lat="43.4582418" lon="13.5405491"><ele>75.4</ele><time>2026-04-28T08:55:46.787Z</time></trkpt><trkpt lat="43.4582936" lon="13.5406983"><ele>75.8</ele><time>2026-04-28T08:55:48.772Z</time></trkpt><trkpt lat="43.4583352" lon="13.5407771"><ele>76.2</ele><time>2026-04-28T08:55:49.779Z</time></trkpt><trkpt lat="43.4583906" lon="13.5408641"><ele>76.6</ele><time>2026-04-28T08:55:50.77Z</time></trkpt><trkpt lat="43.4584452" lon="13.5409637"><ele>77.0</ele><time>2026-04-28T08:55:51.773Z</time></trkpt><trkpt lat="43.4585094" lon="13.5410757"><ele>77.0</ele><time>2026-04-28T08:55:52.782Z</time></trkpt><trkpt lat="43.4585766" lon="13.5411969"><ele>77.0</ele><time>2026-04-28T08:55:53.785Z</time></trkpt><trkpt lat="43.4586455" lon="13.5413278"><ele>77.0</ele><time>2026-04-28T08:55:54.78Z</time></trkpt><trkpt lat="43.4587169" lon="13.5414671"><ele>77.0</ele><time>2026-04-28T08:55:55.783Z</time></trkpt><trkpt lat="43.4587746" lon="13.5416065"><ele>80.0</ele><time>2026-04-28T08:55:56.781Z</time></trkpt><trkpt lat="43.458826" lon="13.5417547"><ele>83.0</ele><time>2026-04-28T08:55:57.804Z</time></trkpt><trkpt lat="43.4588792" lon="13.5419147"><ele>86.0</ele><time>2026-04-28T08:55:58.788Z</time></trkpt><trkpt lat="43.4589373" lon="13.5420757"><ele>89.0</ele><time>2026-04-28T08:55:59.783Z</time></trkpt><trkpt lat="43.4589886" lon="13.5422483"><ele>89.25</ele><time>2026-04-28T08:56:00.794Z</time></trkpt><trkpt lat="43.4590344" lon="13.5424189"><ele>89.5</ele><time>2026-04-28T08:56:01.778Z</time></trkpt><trkpt lat="43.4590725" lon="13.5425983"><ele>89.75</ele><time>2026-04-28T08:56:02.771Z</time></trkpt><trkpt lat="43.4591052" lon="13.5427757"><ele>90.0</ele><time>2026-04-28T08:56:03.784Z</time></trkpt><trkpt lat="43.4591334" lon="13.5429423"><ele>89.5</ele><time>2026-04-28T08:56:04.784Z</time></trkpt><trkpt lat="43.4591549" lon="13.5431016"><ele>89.0</ele><time>2026-04-28T08:56:05.776Z</time></trkpt><trkpt lat="43.4591708" lon="13.5432611"><ele>88.5</ele><time>2026-04-28T08:56:06.775Z</time></trkpt><trkpt lat="43.4591852" lon="13.5434247"><ele>88.0</ele><time>2026-04-28T08:56:07.804Z</time></trkpt><trkpt lat="43.4591971" lon="13.5435948"><ele>88.5</ele><time>2026-04-28T08:56:08.769Z</time></trkpt><trkpt lat="43.459205" lon="13.5437749"><ele>89.0</ele><time>2026-04-28T08:56:09.803Z</time></trkpt><trkpt lat="43.4592107" lon="13.5439624"><ele>89.5</ele><time>2026-04-28T08:56:10.787Z</time></trkpt><trkpt lat="43.4592169" lon="13.5441585"><ele>90.0</ele><time>2026-04-28T08:56:11.779Z</time></trkpt><trkpt lat="43.4592279" lon="13.544357"><ele>91.75</ele><time>2026-04-28T08:56:12.764Z</time></trkpt><trkpt lat="43.4592381" lon="13.5445489"><ele>93.5</ele><time>2026-04-28T08:56:13.772Z</time></trkpt><trkpt lat="43.4592468" lon="13.5447344"><ele>95.25</ele><time>2026-04-28T08:56:14.773Z</time></trkpt><trkpt lat="43.4592566" lon="13.54492"><ele>97.0</ele><time>2026-04-28T08:56:15.77Z</time></trkpt><trkpt lat="43.459265" lon="13.5451119"><ele>97.0</ele><time>2026-04-28T08:56:16.769Z</time></trkpt><trkpt lat="43.459278" lon="13.5452991"><ele>97.0</ele><time>2026-04-28T08:56:17.78Z</time></trkpt><trkpt lat="43.4592948" lon="13.5454844"><ele>97.0</ele><time>2026-04-28T08:56:18.781Z</time></trkpt><trkpt lat="43.4593148" lon="13.5456685"><ele>97.0</ele><time>2026-04-28T08:56:19.775Z</time></trkpt><trkpt lat="43.4593307" lon="13.5458548"><ele>99.25</ele><time>2026-04-28T08:56:20.777Z</time></trkpt><trkpt lat="43.4593468" lon="13.5460376"><ele>101.5</ele><time>2026-04-28T08:56:21.77Z</time></trkpt><trkpt lat="43.4593669" lon="13.546215"><ele>103.75</ele><time>2026-04-28T08:56:22.766Z</time></trkpt><trkpt lat="43.4593918" lon="13.5463931"><ele>106.0</ele><time>2026-04-28T08:56:23.775Z</time></trkpt><trkpt lat="43.4594202" lon="13.5465644"><ele>107.0</ele><time>2026-04-28T08:56:24.776Z</time></trkpt><trkpt lat="43.4594561" lon="13.5467345"><ele>108.0</ele><time>2026-04-28T08:56:25.784Z</time></trkpt><trkpt lat="43.4595004" lon="13.5469007"><ele>109.0</ele><time>2026-04-28T08:56:26.772Z</time></trkpt><trkpt lat="43.4595511" lon="13.5470663"><ele>110.0</ele><time>2026-04-28T08:56:27.781Z</time></trkpt><trkpt lat="43.4596069" lon="13.5472386"><ele>114.75</ele><time>2026-04-28T08:56:28.764Z</time></trkpt><trkpt lat="43.4596652" lon="13.5474138"><ele>119.5</ele><time>2026-04-28T08:56:29.778Z</time></trkpt><trkpt lat="43.4597345" lon="13.5475898"><ele>124.25</ele><time>2026-04-28T08:56:30.778Z</time></trkpt><trkpt lat="43.4598079" lon="13.5477691"><ele>129.0</ele><time>2026-04-28T08:56:31.778Z</time></trkpt><trkpt lat="43.4598891" lon="13.5479466"><ele>129.66666666666666</ele><time>2026-04-28T08:56:32.774Z</time></trkpt><trkpt lat="43.4599788" lon="13.5481247"><ele>130.33333333333331</ele><time>2026-04-28T08:56:33.769Z</time></trkpt><trkpt lat="43.460074" lon="13.5482935"><ele>131.0</ele><time>2026-04-28T08:56:34.778Z</time></trkpt><trkpt lat="43.4601779" lon="13.5484643"><ele>131.0</ele><time>2026-04-28T08:56:35.777Z</time></trkpt><trkpt lat="43.4602808" lon="13.5486301"><ele>131.0</ele><time>2026-04-28T08:56:36.779Z</time></trkpt><trkpt lat="43.4603775" lon="13.548786"><ele>131.0</ele><time>2026-04-28T08:56:37.778Z</time></trkpt><trkpt lat="43.4604722" lon="13.5489334"><ele>134.25</ele><time>2026-04-28T08:56:38.78Z</time></trkpt><trkpt lat="43.4605648" lon="13.5490752"><ele>137.5</ele><time>2026-04-28T08:56:39.773Z</time></trkpt><trkpt lat="43.4606578" lon="13.5492181"><ele>140.75</ele><time>2026-04-28T08:56:40.773Z</time></trkpt><trkpt lat="43.4607468" lon="13.5493545"><ele>144.0</ele><time>2026-04-28T08:56:41.769Z</time></trkpt><trkpt lat="43.4608342" lon="13.5494987"><ele>143.5</ele><time>2026-04-28T08:56:42.766Z</time></trkpt><trkpt lat="43.4609213" lon="13.5496403"><ele>143.0</ele><time>2026-04-28T08:56:43.772Z</time></trkpt><trkpt lat="43.4610071" lon="13.5497749"><ele>142.5</ele><time>2026-04-28T08:56:44.766Z</time></trkpt><trkpt lat="43.4610871" lon="13.5499039"><ele>142.0</ele><time>2026-04-28T08:56:45.765Z</time></trkpt><trkpt lat="43.4611539" lon="13.5500386"><ele>142.0</ele><time>2026-04-28T08:56:46.774Z</time></trkpt><trkpt lat="43.4612117" lon="13.5502002"><ele>142.0</ele><time>2026-04-28T08:56:47.769Z</time></trkpt><trkpt lat="43.4612361" lon="13.5503789"><ele>142.0</ele><time>2026-04-28T08:56:48.769Z</time></trkpt><trkpt lat="43.4612295" lon="13.5505699"><ele>142.0</ele><time>2026-04-28T08:56:49.773Z</time></trkpt><trkpt lat="43.4612142" lon="13.5507445"><ele>142.0</ele><time>2026-04-28T08:56:50.775Z</time></trkpt><trkpt lat="43.4611906" lon="13.5509184"><ele>142.0</ele><time>2026-04-28T08:56:51.789Z</time></trkpt><trkpt lat="43.4611609" lon="13.5510943"><ele>142.0</ele><time>2026-04-28T08:56:52.783Z</time></trkpt><trkpt lat="43.4611407" lon="13.5512578"><ele>142.0</ele><time>2026-04-28T08:56:53.784Z</time></trkpt><trkpt lat="43.4611279" lon="13.5514044"><ele>142.83333333333334</ele><time>2026-04-28T08:56:54.797Z</time></trkpt><trkpt lat="43.4611189" lon="13.5515313"><ele>143.66666666666669</ele><time>2026-04-28T08:56:55.777Z</time></trkpt><trkpt lat="43.4611054" lon="13.5516308"><ele>144.5</ele><time>2026-04-28T08:56:56.775Z</time></trkpt><trkpt lat="43.4610942" lon="13.5518003"><ele>145.33333333333334</ele><time>2026-04-28T08:56:58.789Z</time></trkpt><trkpt lat="43.4610929" lon="13.55189"><ele>146.16666666666666</ele><time>2026-04-28T08:56:59.795Z</time></trkpt><trkpt lat="43.4610879" lon="13.5519786"><ele>147.0</ele><time>2026-04-28T08:57:00.77Z</time></trkpt><trkpt lat="43.4610864" lon="13.5521277"><ele>148.0</ele><time>2026-04-28T08:57:02.778Z</time></trkpt><trkpt lat="43.4610405" lon="13.5522462"><ele>149.0</ele><time>2026-04-28T08:57:04.771Z</time></trkpt><trkpt lat="43.4610159" lon="13.5523861"><ele>150.0</ele><time>2026-04-28T08:57:06.787Z</time></trkpt><trkpt lat="43.4610016" lon="13.5524715"><ele>151.0</ele><time>2026-04-28T08:57:07.775Z</time></trkpt><trkpt lat="43.460959" lon="13.5525679"><ele>152.0</ele><time>2026-04-28T08:57:08.777Z</time></trkpt><trkpt lat="43.4609204" lon="13.5526729"><ele>153.0</ele><time>2026-04-28T08:57:09.784Z</time></trkpt><trkpt lat="43.4608939" lon="13.5527974"><ele>152.6</ele><time>2026-04-28T08:57:10.784Z</time></trkpt><trkpt lat="43.4608697" lon="13.5529439"><ele>152.20000000000002</ele><time>2026-04-28T08:57:11.779Z</time></trkpt><trkpt lat="43.4608443" lon="13.5530846"><ele>151.8</ele><time>2026-04-28T08:57:12.77Z</time></trkpt><trkpt lat="43.4608188" lon="13.5532218"><ele>151.4</ele><time>2026-04-28T08:57:13.779Z</time></trkpt><trkpt lat="43.4607947" lon="13.5533546"><ele>151.0</ele><time>2026-04-28T08:57:14.77Z</time></trkpt><trkpt lat="43.4607799" lon="13.5534947"><ele>151.0</ele><time>2026-04-28T08:57:15.777Z</time></trkpt><trkpt lat="43.4607555" lon="13.5536315"><ele>151.0</ele><time>2026-04-28T08:57:16.768Z</time></trkpt><trkpt lat="43.460728" lon="13.553772"><ele>151.0</ele><time>2026-04-28T08:57:17.779Z</time></trkpt><trkpt lat="43.4606893" lon="13.5539114"><ele>151.0</ele><time>2026-04-28T08:57:18.775Z</time></trkpt><trkpt lat="43.4606487" lon="13.5540454"><ele>151.0</ele><time>2026-04-28T08:57:19.77Z</time></trkpt><trkpt lat="43.4606027" lon="13.5541766"><ele>148.6</ele><time>2026-04-28T08:57:20.776Z</time></trkpt><trkpt lat="43.4605497" lon="13.5543027"><ele>146.2</ele><time>2026-04-28T08:57:21.771Z</time></trkpt><trkpt lat="43.460504" lon="13.5544395"><ele>143.8</ele><time>2026-04-28T08:57:22.778Z</time></trkpt><trkpt lat="43.4604526" lon="13.5545813"><ele>141.4</ele><time>2026-04-28T08:57:23.769Z</time></trkpt><trkpt lat="43.4604066" lon="13.5547222"><ele>139.0</ele><time>2026-04-28T08:57:24.764Z</time></trkpt><trkpt lat="43.4603612" lon="13.5548726"><ele>137.25</ele><time>2026-04-28T08:57:25.77Z</time></trkpt><trkpt lat="43.4603249" lon="13.5550233"><ele>135.5</ele><time>2026-04-28T08:57:26.759Z</time></trkpt><trkpt lat="43.4602842" lon="13.5551744"><ele>133.75</ele><time>2026-04-28T08:57:27.772Z</time></trkpt><trkpt lat="43.4602418" lon="13.5553296"><ele>132.0</ele><time>2026-04-28T08:57:28.763Z</time></trkpt><trkpt lat="43.460199" lon="13.5554823"><ele>129.5</ele><time>2026-04-28T08:57:29.777Z</time></trkpt><trkpt lat="43.4601594" lon="13.5556393"><ele>127.0</ele><time>2026-04-28T08:57:30.763Z</time></trkpt><trkpt lat="43.4601151" lon="13.555794"><ele>124.5</ele><time>2026-04-28T08:57:31.769Z</time></trkpt><trkpt lat="43.4600708" lon="13.555954"><ele>122.0</ele><time>2026-04-28T08:57:32.771Z</time></trkpt><trkpt lat="43.4600245" lon="13.5561233"><ele>118.75</ele><time>2026-04-28T08:57:33.778Z</time></trkpt><trkpt lat="43.4599778" lon="13.5562936"><ele>115.5</ele><time>2026-04-28T08:57:34.766Z</time></trkpt><trkpt lat="43.4599237" lon="13.5564553"><ele>112.25</ele><time>2026-04-28T08:57:35.769Z</time></trkpt><trkpt lat="43.459867" lon="13.556616"><ele>109.0</ele><time>2026-04-28T08:57:36.768Z</time></trkpt><trkpt lat="43.4598013" lon="13.5567704"><ele>109.0</ele><time>2026-04-28T08:57:37.786Z</time></trkpt><trkpt lat="43.4597286" lon="13.5569197"><ele>109.0</ele><time>2026-04-28T08:57:38.768Z</time></trkpt><trkpt lat="43.4596551" lon="13.5570598"><ele>109.0</ele><time>2026-04-28T08:57:39.768Z</time></trkpt><trkpt lat="43.4595735" lon="13.5571965"><ele>109.0</ele><time>2026-04-28T08:57:40.774Z</time></trkpt><trkpt lat="43.4594862" lon="13.5573295"><ele>108.0</ele><time>2026-04-28T08:57:41.78Z</time></trkpt><trkpt lat="43.459394" lon="13.5574644"><ele>107.0</ele><time>2026-04-28T08:57:42.777Z</time></trkpt><trkpt lat="43.4592968" lon="13.5576019"><ele>106.0</ele><time>2026-04-28T08:57:43.783Z</time></trkpt><trkpt lat="43.4592039" lon="13.5577365"><ele>105.0</ele><time>2026-04-28T08:57:44.788Z</time></trkpt><trkpt lat="43.4591086" lon="13.5578634"><ele>103.75</ele><time>2026-04-28T08:57:45.779Z</time></trkpt><trkpt lat="43.4590174" lon="13.5579867"><ele>102.5</ele><time>2026-04-28T08:57:46.778Z</time></trkpt><trkpt lat="43.4589319" lon="13.5581013"><ele>101.25</ele><time>2026-04-28T08:57:47.775Z</time></trkpt><trkpt lat="43.4588511" lon="13.5582174"><ele>100.0</ele><time>2026-04-28T08:57:48.781Z</time></trkpt><trkpt lat="43.4587735" lon="13.5583253"><ele>100.0</ele><time>2026-04-28T08:57:49.77Z</time></trkpt><trkpt lat="43.4586994" lon="13.5584361"><ele>100.0</ele><time>2026-04-28T08:57:50.779Z</time></trkpt><trkpt lat="43.4586255" lon="13.5585482"><ele>100.0</ele><time>2026-04-28T08:57:51.775Z</time></trkpt><trkpt lat="43.4585481" lon="13.5586593"><ele>100.0</ele><time>2026-04-28T08:57:52.788Z</time></trkpt><trkpt lat="43.4584703" lon="13.5587696"><ele>100.0</ele><time>2026-04-28T08:57:53.771Z</time></trkpt><trkpt lat="43.458395" lon="13.5588799"><ele>100.0</ele><time>2026-04-28T08:57:54.778Z</time></trkpt><trkpt lat="43.4583204" lon="13.5589875"><ele>100.0</ele><time>2026-04-28T08:57:55.783Z</time></trkpt><trkpt lat="43.4582434" lon="13.5590947"><ele>100.0</ele><time>2026-04-28T08:57:56.782Z</time></trkpt><trkpt lat="43.458164" lon="13.5592045"><ele>100.0</ele><time>2026-04-28T08:57:57.793Z</time></trkpt><trkpt lat="43.4580795" lon="13.5593228"><ele>100.0</ele><time>2026-04-28T08:57:58.771Z</time></trkpt><trkpt lat="43.4579953" lon="13.5594399"><ele>100.0</ele><time>2026-04-28T08:57:59.773Z</time></trkpt><trkpt lat="43.4579138" lon="13.5595602"><ele>100.0</ele><time>2026-04-28T08:58:00.769Z</time></trkpt><trkpt lat="43.4578299" lon="13.5596801"><ele>100.0</ele><time>2026-04-28T08:58:01.767Z</time></trkpt><trkpt lat="43.4577461" lon="13.5597995"><ele>100.0</ele><time>2026-04-28T08:58:02.77Z</time></trkpt><trkpt lat="43.4576607" lon="13.5599175"><ele>100.0</ele><time>2026-04-28T08:58:03.782Z</time></trkpt><trkpt lat="43.457582" lon="13.5600355"><ele>100.0</ele><time>2026-04-28T08:58:04.782Z</time></trkpt><trkpt lat="43.4575014" lon="13.5601572"><ele>100.0</ele><time>2026-04-28T08:58:05.773Z</time></trkpt><trkpt lat="43.4574243" lon="13.5602901"><ele>99.75</ele><time>2026-04-28T08:58:06.774Z</time></trkpt><trkpt lat="43.4573567" lon="13.5604414"><ele>99.5</ele><time>2026-04-28T08:58:07.791Z</time></trkpt><trkpt lat="43.4573037" lon="13.5606127"><ele>99.25</ele><time>2026-04-28T08:58:08.771Z</time></trkpt><trkpt lat="43.4572573" lon="13.5607993"><ele>99.0</ele><time>2026-04-28T08:58:09.776Z</time></trkpt><trkpt lat="43.457216" lon="13.5610032"><ele>98.33333333333334</ele><time>2026-04-28T08:58:10.771Z</time></trkpt><trkpt lat="43.457171" lon="13.5612127"><ele>97.66666666666667</ele><time>2026-04-28T08:58:11.774Z</time></trkpt><trkpt lat="43.4571239" lon="13.5614247"><ele>97.0</ele><time>2026-04-28T08:58:12.765Z</time></trkpt><trkpt lat="43.4570705" lon="13.5616447"><ele>96.66666666666667</ele><time>2026-04-28T08:58:13.781Z</time></trkpt><trkpt lat="43.4570159" lon="13.5618739"><ele>96.33333333333334</ele><time>2026-04-28T08:58:14.779Z</time></trkpt><trkpt lat="43.456957" lon="13.5621086"><ele>96.0</ele><time>2026-04-28T08:58:15.775Z</time></trkpt><trkpt lat="43.4568997" lon="13.5623502"><ele>96.66666666666666</ele><time>2026-04-28T08:58:16.773Z</time></trkpt><trkpt lat="43.456843" lon="13.5625965"><ele>97.33333333333333</ele><time>2026-04-28T08:58:17.773Z</time></trkpt><trkpt lat="43.4567823" lon="13.5628429"><ele>98.0</ele><time>2026-04-28T08:58:18.774Z</time></trkpt><trkpt lat="43.4567271" lon="13.5630828"><ele>99.66666666666666</ele><time>2026-04-28T08:58:19.774Z</time></trkpt><trkpt lat="43.4566728" lon="13.5633075"><ele>101.33333333333334</ele><time>2026-04-28T08:58:20.786Z</time></trkpt><trkpt lat="43.4566227" lon="13.5635223"><ele>103.0</ele><time>2026-04-28T08:58:21.781Z</time></trkpt><trkpt lat="43.4565763" lon="13.5637264"><ele>103.0</ele><time>2026-04-28T08:58:22.776Z</time></trkpt><trkpt lat="43.4565333" lon="13.5639257"><ele>103.0</ele><time>2026-04-28T08:58:23.777Z</time></trkpt><trkpt lat="43.4564947" lon="13.5641313"><ele>103.0</ele><time>2026-04-28T08:58:24.78Z</time></trkpt><trkpt lat="43.4564637" lon="13.564337"><ele>103.0</ele><time>2026-04-28T08:58:25.775Z</time></trkpt><trkpt lat="43.4564328" lon="13.5645391"><ele>103.0</ele><time>2026-04-28T08:58:26.773Z</time></trkpt><trkpt lat="43.4564025" lon="13.564735"><ele>103.0</ele><time>2026-04-28T08:58:27.767Z</time></trkpt><trkpt lat="43.4563739" lon="13.5649314"><ele>103.0</ele><time>2026-04-28T08:58:28.768Z</time></trkpt><trkpt lat="43.4563464" lon="13.5651362"><ele>103.0</ele><time>2026-04-28T08:58:29.766Z</time></trkpt><trkpt lat="43.4563225" lon="13.5653493"><ele>103.0</ele><time>2026-04-28T08:58:30.783Z</time></trkpt><trkpt lat="43.4563025" lon="13.5655652"><ele>103.0</ele><time>2026-04-28T08:58:31.774Z</time></trkpt><trkpt lat="43.456282" lon="13.5657782"><ele>101.5</ele><time>2026-04-28T08:58:32.775Z</time></trkpt><trkpt lat="43.4562621" lon="13.5659778"><ele>100.0</ele><time>2026-04-28T08:58:33.766Z</time></trkpt><trkpt lat="43.4562446" lon="13.5661638"><ele>98.5</ele><time>2026-04-28T08:58:34.767Z</time></trkpt><trkpt lat="43.4562299" lon="13.5663514"><ele>97.0</ele><time>2026-04-28T08:58:35.781Z</time></trkpt><trkpt lat="43.4562174" lon="13.5665435"><ele>96.75</ele><time>2026-04-28T08:58:36.771Z</time></trkpt><trkpt lat="43.4562028" lon="13.5667404"><ele>96.5</ele><time>2026-04-28T08:58:37.78Z</time></trkpt><trkpt lat="43.4561884" lon="13.5669419"><ele>96.25</ele><time>2026-04-28T08:58:38.774Z</time></trkpt><trkpt lat="43.4561688" lon="13.567148"><ele>96.0</ele><time>2026-04-28T08:58:39.78Z</time></trkpt><trkpt lat="43.4561346" lon="13.5673569"><ele>95.0</ele><time>2026-04-28T08:58:40.765Z</time></trkpt><trkpt lat="43.4560936" lon="13.5675713"><ele>94.0</ele><time>2026-04-28T08:58:41.773Z</time></trkpt><trkpt lat="43.4560373" lon="13.5677846"><ele>93.0</ele><time>2026-04-28T08:58:42.776Z</time></trkpt><trkpt lat="43.4559693" lon="13.5679922"><ele>92.33333333333333</ele><time>2026-04-28T08:58:43.778Z</time></trkpt><trkpt lat="43.4558947" lon="13.5681941"><ele>91.66666666666666</ele><time>2026-04-28T08:58:44.773Z</time></trkpt><trkpt lat="43.4558196" lon="13.5683997"><ele>91.0</ele><time>2026-04-28T08:58:45.77Z</time></trkpt><trkpt lat="43.4557431" lon="13.5686083"><ele>89.66666666666666</ele><time>2026-04-28T08:58:46.769Z</time></trkpt><trkpt lat="43.4556735" lon="13.5688143"><ele>88.33333333333333</ele><time>2026-04-28T08:58:47.778Z</time></trkpt><trkpt lat="43.4556001" lon="13.5690218"><ele>87.0</ele><time>2026-04-28T08:58:48.783Z</time></trkpt><trkpt lat="43.455533" lon="13.5692141"><ele>87.0</ele><time>2026-04-28T08:58:49.774Z</time></trkpt><trkpt lat="43.4554693" lon="13.5694069"><ele>87.0</ele><time>2026-04-28T08:58:50.769Z</time></trkpt><trkpt lat="43.4553992" lon="13.5695965"><ele>87.0</ele><time>2026-04-28T08:58:51.777Z</time></trkpt><trkpt lat="43.4553293" lon="13.5697838"><ele>85.0</ele><time>2026-04-28T08:58:52.776Z</time></trkpt><trkpt lat="43.4552603" lon="13.5699676"><ele>83.0</ele><time>2026-04-28T08:58:53.775Z</time></trkpt><trkpt lat="43.4551891" lon="13.5701551"><ele>81.0</ele><time>2026-04-28T08:58:54.761Z</time></trkpt><trkpt lat="43.4551198" lon="13.570339"><ele>80.33333333333333</ele><time>2026-04-28T08:58:55.784Z</time></trkpt><trkpt lat="43.4550537" lon="13.5705266"><ele>79.66666666666666</ele><time>2026-04-28T08:58:56.756Z</time></trkpt><trkpt lat="43.4549843" lon="13.5707228"><ele>79.0</ele><time>2026-04-28T08:58:57.769Z</time></trkpt><trkpt lat="43.4549189" lon="13.570931"><ele>79.0</ele><time>2026-04-28T08:58:58.764Z</time></trkpt><trkpt lat="43.4548576" lon="13.5711321"><ele>79.0</ele><time>2026-04-28T08:58:59.776Z</time></trkpt><trkpt lat="43.454796" lon="13.5713491"><ele>79.0</ele><time>2026-04-28T08:59:00.774Z</time></trkpt><trkpt lat="43.4547332" lon="13.571568"><ele>77.0</ele><time>2026-04-28T08:59:01.761Z</time></trkpt><trkpt lat="43.4546742" lon="13.5717818"><ele>75.0</ele><time>2026-04-28T08:59:02.771Z</time></trkpt><trkpt lat="43.4546151" lon="13.5719912"><ele>73.0</ele><time>2026-04-28T08:59:03.773Z</time></trkpt><trkpt lat="43.454559" lon="13.5722034"><ele>71.0</ele><time>2026-04-28T08:59:04.778Z</time></trkpt><trkpt lat="43.4545009" lon="13.5724177"><ele>69.0</ele><time>2026-04-28T08:59:05.791Z</time></trkpt><trkpt lat="43.454442" lon="13.5726328"><ele>67.0</ele><time>2026-04-28T08:59:06.788Z</time></trkpt><trkpt lat="43.4543787" lon="13.572848"><ele>65.33333333333333</ele><time>2026-04-28T08:59:07.795Z</time></trkpt><trkpt lat="43.454314" lon="13.5730679"><ele>63.66666666666667</ele><time>2026-04-28T08:59:08.774Z</time></trkpt><trkpt lat="43.4542523" lon="13.5732893"><ele>62.0</ele><time>2026-04-28T08:59:09.786Z</time></trkpt><trkpt lat="43.4541875" lon="13.5735154"><ele>61.0</ele><time>2026-04-28T08:59:10.769Z</time></trkpt><trkpt lat="43.4541211" lon="13.5737423"><ele>60.0</ele><time>2026-04-28T08:59:11.771Z</time></trkpt><trkpt lat="43.4540584" lon="13.5739681"><ele>59.0</ele><time>2026-04-28T08:59:12.771Z</time></trkpt><trkpt lat="43.4539978" lon="13.574192"><ele>59.0</ele><time>2026-04-28T08:59:13.765Z</time></trkpt><trkpt lat="43.4539374" lon="13.574409"><ele>59.0</ele><time>2026-04-28T08:59:14.765Z</time></trkpt><trkpt lat="43.453876" lon="13.5746221"><ele>59.0</ele><time>2026-04-28T08:59:15.761Z</time></trkpt><trkpt lat="43.4538174" lon="13.5748302"><ele>55.66666666666667</ele><time>2026-04-28T08:59:16.772Z</time></trkpt><trkpt lat="43.4537626" lon="13.5750347"><ele>52.33333333333333</ele><time>2026-04-28T08:59:17.784Z</time></trkpt><trkpt lat="43.4536971" lon="13.5752357"><ele>49.0</ele><time>2026-04-28T08:59:18.773Z</time></trkpt><trkpt lat="43.4536418" lon="13.575434"><ele>46.666666666666664</ele><time>2026-04-28T08:59:19.773Z</time></trkpt><trkpt lat="43.4535869" lon="13.5756366"><ele>44.33333333333333</ele><time>2026-04-28T08:59:20.777Z</time></trkpt><trkpt lat="43.4535341" lon="13.5758423"><ele>42.0</ele><time>2026-04-28T08:59:21.787Z</time></trkpt><trkpt lat="43.4534793" lon="13.5760591"><ele>41.0</ele><time>2026-04-28T08:59:22.765Z</time></trkpt><trkpt lat="43.45342" lon="13.5762762"><ele>40.0</ele><time>2026-04-28T08:59:23.795Z</time></trkpt><trkpt lat="43.4533543" lon="13.5764976"><ele>39.0</ele><time>2026-04-28T08:59:24.772Z</time></trkpt><trkpt lat="43.4532899" lon="13.5767279"><ele>39.0</ele><time>2026-04-28T08:59:25.778Z</time></trkpt><trkpt lat="43.4532254" lon="13.5769552"><ele>39.0</ele><time>2026-04-28T08:59:26.783Z</time></trkpt><trkpt lat="43.4531592" lon="13.5771867"><ele>39.0</ele><time>2026-04-28T08:59:27.776Z</time></trkpt><trkpt lat="43.4530923" lon="13.5774094"><ele>38.333333333333336</ele><time>2026-04-28T08:59:28.781Z</time></trkpt><trkpt lat="43.4530344" lon="13.5776326"><ele>37.66666666666667</ele><time>2026-04-28T08:59:29.792Z</time></trkpt><trkpt lat="43.4529806" lon="13.5778589"><ele>37.0</ele><time>2026-04-28T08:59:30.786Z</time></trkpt><trkpt lat="43.4529395" lon="13.5780888"><ele>33.0</ele><time>2026-04-28T08:59:31.781Z</time></trkpt><trkpt lat="43.4529034" lon="13.5783238"><ele>29.0</ele><time>2026-04-28T08:59:32.765Z</time></trkpt><trkpt lat="43.4528743" lon="13.5785619"><ele>25.0</ele><time>2026-04-28T08:59:33.767Z</time></trkpt><trkpt lat="43.4528444" lon="13.5787908"><ele>23.666666666666668</ele><time>2026-04-28T08:59:34.779Z</time></trkpt><trkpt lat="43.4528128" lon="13.5790203"><ele>22.333333333333336</ele><time>2026-04-28T08:59:35.781Z</time></trkpt><trkpt lat="43.4527785" lon="13.5792383"><ele>21.0</ele><time>2026-04-28T08:59:36.77Z</time></trkpt><trkpt lat="43.4527478" lon="13.5794508"><ele>20.5</ele><time>2026-04-28T08:59:37.774Z</time></trkpt><trkpt lat="43.4527229" lon="13.5796523"><ele>20.0</ele><time>2026-04-28T08:59:38.774Z</time></trkpt><trkpt lat="43.4526985" lon="13.5798469"><ele>19.5</ele><time>2026-04-28T08:59:39.782Z</time></trkpt><trkpt lat="43.4526752" lon="13.5800244"><ele>19.0</ele><time>2026-04-28T08:59:40.807Z</time></trkpt><trkpt lat="43.4526502" lon="13.5801878"><ele>19.0</ele><time>2026-04-28T08:59:41.797Z</time></trkpt><trkpt lat="43.4526217" lon="13.5803306"><ele>19.0</ele><time>2026-04-28T08:59:42.777Z</time></trkpt><trkpt lat="43.4525799" lon="13.5804547"><ele>19.0</ele><time>2026-04-28T08:59:43.773Z</time></trkpt><trkpt lat="43.4525124" lon="13.5805551"><ele>19.0</ele><time>2026-04-28T08:59:44.78Z</time></trkpt><trkpt lat="43.452433" lon="13.5806282"><ele>19.0</ele><time>2026-04-28T08:59:45.786Z</time></trkpt><trkpt lat="43.4523571" lon="13.5807065"><ele>18.4</ele><time>2026-04-28T08:59:46.789Z</time></trkpt><trkpt lat="43.4523105" lon="13.58081"><ele>17.799999999999997</ele><time>2026-04-28T08:59:47.785Z</time></trkpt><trkpt lat="43.4522829" lon="13.580942"><ele>17.200000000000003</ele><time>2026-04-28T08:59:48.783Z</time></trkpt><trkpt lat="43.4522838" lon="13.5810916"><ele>16.6</ele><time>2026-04-28T08:59:49.783Z</time></trkpt><trkpt lat="43.4523075" lon="13.5812456"><ele>16.0</ele><time>2026-04-28T08:59:50.782Z</time></trkpt><trkpt lat="43.4523448" lon="13.5814005"><ele>15.75</ele><time>2026-04-28T08:59:51.786Z</time></trkpt><trkpt lat="43.4523868" lon="13.581553"><ele>15.5</ele><time>2026-04-28T08:59:52.78Z</time></trkpt><trkpt lat="43.452402" lon="13.5817126"><ele>15.25</ele><time>2026-04-28T08:59:53.774Z</time></trkpt><trkpt lat="43.4523912" lon="13.581879"><ele>15.0</ele><time>2026-04-28T08:59:54.769Z</time></trkpt><trkpt lat="43.4523715" lon="13.5820531"><ele>15.0</ele><time>2026-04-28T08:59:55.783Z</time></trkpt><trkpt lat="43.4523522" lon="13.5822275"><ele>15.0</ele><time>2026-04-28T08:59:56.776Z</time></trkpt><trkpt lat="43.4523351" lon="13.5824102"><ele>15.0</ele><time>2026-04-28T08:59:57.774Z</time></trkpt><trkpt lat="43.4523131" lon="13.5825925"><ele>15.0</ele><time>2026-04-28T08:59:58.775Z</time></trkpt><trkpt lat="43.4522869" lon="13.5827702"><ele>14.75</ele><time>2026-04-28T08:59:59.774Z</time></trkpt><trkpt lat="43.4522651" lon="13.5829409"><ele>14.5</ele><time>2026-04-28T09:00:00.771Z</time></trkpt><trkpt lat="43.452241" lon="13.5831129"><ele>14.25</ele><time>2026-04-28T09:00:01.783Z</time></trkpt><trkpt lat="43.4522179" lon="13.5832889"><ele>14.0</ele><time>2026-04-28T09:00:02.772Z</time></trkpt><trkpt lat="43.452199" lon="13.5834695"><ele>14.0</ele><time>2026-04-28T09:00:03.777Z</time></trkpt><trkpt lat="43.4521768" lon="13.5836487"><ele>14.0</ele><time>2026-04-28T09:00:04.768Z</time></trkpt><trkpt lat="43.4521534" lon="13.5838216"><ele>14.0</ele><time>2026-04-28T09:00:05.781Z</time></trkpt><trkpt lat="43.4521311" lon="13.5839963"><ele>14.0</ele><time>2026-04-28T09:00:06.772Z</time></trkpt><trkpt lat="43.4521097" lon="13.5841721"><ele>14.25</ele><time>2026-04-28T09:00:07.776Z</time></trkpt><trkpt lat="43.45209" lon="13.584341"><ele>14.5</ele><time>2026-04-28T09:00:08.771Z</time></trkpt><trkpt lat="43.4520668" lon="13.5845119"><ele>14.75</ele><time>2026-04-28T09:00:09.776Z</time></trkpt><trkpt lat="43.4520432" lon="13.5846862"><ele>15.0</ele><time>2026-04-28T09:00:10.773Z</time></trkpt><trkpt lat="43.4520215" lon="13.5848581"><ele>15.0</ele><time>2026-04-28T09:00:11.771Z</time></trkpt><trkpt lat="43.4519991" lon="13.585023"><ele>15.0</ele><time>2026-04-28T09:00:12.777Z</time></trkpt><trkpt lat="43.4519838" lon="13.5851814"><ele>15.0</ele><time>2026-04-28T09:00:13.787Z</time></trkpt><trkpt lat="43.4519659" lon="13.5853392"><ele>15.0</ele><time>2026-04-28T09:00:14.774Z</time></trkpt><trkpt lat="43.4519464" lon="13.5854815"><ele>15.0</ele><time>2026-04-28T09:00:15.785Z</time></trkpt><trkpt lat="43.4519247" lon="13.5856146"><ele>15.0</ele><time>2026-04-28T09:00:16.76Z</time></trkpt><trkpt lat="43.4519082" lon="13.5857448"><ele>15.0</ele><time>2026-04-28T09:00:17.763Z</time></trkpt><trkpt lat="43.4518908" lon="13.5858702"><ele>15.0</ele><time>2026-04-28T09:00:18.802Z</time></trkpt><trkpt lat="43.4518754" lon="13.5859995"><ele>15.0</ele><time>2026-04-28T09:00:19.788Z</time></trkpt><trkpt lat="43.4518572" lon="13.5861388"><ele>15.0</ele><time>2026-04-28T09:00:20.786Z</time></trkpt><trkpt lat="43.4518371" lon="13.5862867"><ele>15.0</ele><time>2026-04-28T09:00:21.797Z</time></trkpt><trkpt lat="43.4518119" lon="13.5864446"><ele>15.0</ele><time>2026-04-28T09:00:22.774Z</time></trkpt><trkpt lat="43.451794" lon="13.5866122"><ele>15.0</ele><time>2026-04-28T09:00:23.761Z</time></trkpt><trkpt lat="43.4517785" lon="13.5867843"><ele>15.0</ele><time>2026-04-28T09:00:24.786Z</time></trkpt><trkpt lat="43.4517738" lon="13.5869605"><ele>15.0</ele><time>2026-04-28T09:00:25.791Z</time></trkpt><trkpt lat="43.4517784" lon="13.5871307"><ele>15.0</ele><time>2026-04-28T09:00:26.794Z</time></trkpt><trkpt lat="43.4518058" lon="13.5872917"><ele>15.0</ele><time>2026-04-28T09:00:27.779Z</time></trkpt><trkpt lat="43.4518539" lon="13.5874447"><ele>15.0</ele><time>2026-04-28T09:00:28.78Z</time></trkpt><trkpt lat="43.4519075" lon="13.5875897"><ele>15.0</ele><time>2026-04-28T09:00:29.779Z</time></trkpt><trkpt lat="43.4519631" lon="13.587732"><ele>15.0</ele><time>2026-04-28T09:00:30.764Z</time></trkpt><trkpt lat="43.4520094" lon="13.5878652"><ele>15.0</ele><time>2026-04-28T09:00:31.777Z</time></trkpt><trkpt lat="43.4520476" lon="13.5879824"><ele>15.0</ele><time>2026-04-28T09:00:32.779Z</time></trkpt><trkpt lat="43.4520744" lon="13.5880785"><ele>14.666666666666666</ele><time>2026-04-28T09:00:33.783Z</time></trkpt><trkpt lat="43.4520963" lon="13.588233"><ele>14.333333333333332</ele><time>2026-04-28T09:00:35.782Z</time></trkpt><trkpt lat="43.4520808" lon="13.5883279"><ele>14.0</ele><time>2026-04-28T09:00:36.786Z</time></trkpt><trkpt lat="43.4520494" lon="13.5884257"><ele>13.666666666666666</ele><time>2026-04-28T09:00:37.798Z</time></trkpt><trkpt lat="43.4519955" lon="13.5885216"><ele>13.333333333333332</ele><time>2026-04-28T09:00:38.796Z</time></trkpt><trkpt lat="43.4519281" lon="13.5886158"><ele>13.0</ele><time>2026-04-28T09:00:39.782Z</time></trkpt><trkpt lat="43.4518475" lon="13.5887024"><ele>12.75</ele><time>2026-04-28T09:00:40.782Z</time></trkpt><trkpt lat="43.451756" lon="13.5887893"><ele>12.5</ele><time>2026-04-28T09:00:41.781Z</time></trkpt><trkpt lat="43.4516544" lon="13.5888737"><ele>12.25</ele><time>2026-04-28T09:00:42.766Z</time></trkpt><trkpt lat="43.4515498" lon="13.5889606"><ele>12.0</ele><time>2026-04-28T09:00:43.778Z</time></trkpt><trkpt lat="43.451441" lon="13.589054"><ele>12.0</ele><time>2026-04-28T09:00:44.778Z</time></trkpt><trkpt lat="43.4513272" lon="13.5891502"><ele>12.0</ele><time>2026-04-28T09:00:45.781Z</time></trkpt><trkpt lat="43.4512066" lon="13.5892485"><ele>12.0</ele><time>2026-04-28T09:00:46.776Z</time></trkpt><trkpt lat="43.4510932" lon="13.5893447"><ele>12.0</ele><time>2026-04-28T09:00:47.778Z</time></trkpt><trkpt lat="43.4509902" lon="13.5894323"><ele>12.2</ele><time>2026-04-28T09:00:48.786Z</time></trkpt><trkpt lat="43.4508907" lon="13.5895198"><ele>12.399999999999999</ele><time>2026-04-28T09:00:49.78Z</time></trkpt><trkpt lat="43.4507974" lon="13.5896055"><ele>12.600000000000001</ele><time>2026-04-28T09:00:50.781Z</time></trkpt><trkpt lat="43.4507091" lon="13.5896798"><ele>12.8</ele><time>2026-04-28T09:00:51.774Z</time></trkpt><trkpt lat="43.4506226" lon="13.5897566"><ele>13.0</ele><time>2026-04-28T09:00:52.769Z</time></trkpt><trkpt lat="43.450535" lon="13.5898317"><ele>13.600000000000001</ele><time>2026-04-28T09:00:53.768Z</time></trkpt><trkpt lat="43.4504513" lon="13.5899011"><ele>14.200000000000001</ele><time>2026-04-28T09:00:54.783Z</time></trkpt><trkpt lat="43.450364" lon="13.589983"><ele>14.8</ele><time>2026-04-28T09:00:55.773Z</time></trkpt><trkpt lat="43.4502734" lon="13.5900551"><ele>15.4</ele><time>2026-04-28T09:00:56.763Z</time></trkpt><trkpt lat="43.4501918" lon="13.5901244"><ele>16.0</ele><time>2026-04-28T09:00:57.786Z</time></trkpt><trkpt lat="43.4501158" lon="13.5901926"><ele>16.0</ele><time>2026-04-28T09:00:58.77Z</time></trkpt><trkpt lat="43.4500453" lon="13.5902594"><ele>16.0</ele><time>2026-04-28T09:00:59.78Z</time></trkpt><trkpt lat="43.4499742" lon="13.5903197"><ele>16.0</ele><time>2026-04-28T09:01:00.77Z</time></trkpt><trkpt lat="43.4499045" lon="13.5903867"><ele>16.0</ele><time>2026-04-28T09:01:01.778Z</time></trkpt><trkpt lat="43.4498205" lon="13.5904536"><ele>16.0</ele><time>2026-04-28T09:01:02.766Z</time></trkpt><trkpt lat="43.4497348" lon="13.5905274"><ele>16.2</ele><time>2026-04-28T09:01:03.777Z</time></trkpt><trkpt lat="43.449645" lon="13.5906048"><ele>16.400000000000002</ele><time>2026-04-28T09:01:04.769Z</time></trkpt><trkpt lat="43.4495578" lon="13.5906845"><ele>16.6</ele><time>2026-04-28T09:01:05.785Z</time></trkpt><trkpt lat="43.4494694" lon="13.5907623"><ele>16.8</ele><time>2026-04-28T09:01:06.778Z</time></trkpt><trkpt lat="43.4493761" lon="13.5908403"><ele>17.0</ele><time>2026-04-28T09:01:07.773Z</time></trkpt><trkpt lat="43.4492829" lon="13.590918"><ele>16.4</ele><time>2026-04-28T09:01:08.774Z</time></trkpt><trkpt lat="43.4491905" lon="13.5909966"><ele>15.799999999999999</ele><time>2026-04-28T09:01:09.776Z</time></trkpt><trkpt lat="43.4490986" lon="13.5910776"><ele>15.2</ele><time>2026-04-28T09:01:10.783Z</time></trkpt><trkpt lat="43.449006" lon="13.591163"><ele>14.6</ele><time>2026-04-28T09:01:11.78Z</time></trkpt><trkpt lat="43.4489081" lon="13.5912435"><ele>14.0</ele><time>2026-04-28T09:01:12.778Z</time></trkpt><trkpt lat="43.4488166" lon="13.5913195"><ele>14.2</ele><time>2026-04-28T09:01:13.783Z</time></trkpt><trkpt lat="43.4487279" lon="13.5914016"><ele>14.399999999999999</ele><time>2026-04-28T09:01:14.779Z</time></trkpt><trkpt lat="43.4486292" lon="13.5914868"><ele>14.6</ele><time>2026-04-28T09:01:15.776Z</time></trkpt><trkpt lat="43.4485361" lon="13.5915662"><ele>14.8</ele><time>2026-04-28T09:01:16.771Z</time></trkpt><trkpt lat="43.4484473" lon="13.5916441"><ele>15.0</ele><time>2026-04-28T09:01:17.787Z</time></trkpt><trkpt lat="43.4483629" lon="13.591719"><ele>15.0</ele><time>2026-04-28T09:01:18.778Z</time></trkpt><trkpt lat="43.4482789" lon="13.5917889"><ele>15.0</ele><time>2026-04-28T09:01:19.775Z</time></trkpt><trkpt lat="43.4481953" lon="13.5918607"><ele>15.0</ele><time>2026-04-28T09:01:20.786Z</time></trkpt><trkpt lat="43.448111" lon="13.5919301"><ele>15.0</ele><time>2026-04-28T09:01:21.777Z</time></trkpt><trkpt lat="43.4480257" lon="13.5920051"><ele>15.0</ele><time>2026-04-28T09:01:22.772Z</time></trkpt><trkpt lat="43.4479429" lon="13.5920796"><ele>14.8</ele><time>2026-04-28T09:01:23.778Z</time></trkpt><trkpt lat="43.4478525" lon="13.5921547"><ele>14.6</ele><time>2026-04-28T09:01:24.775Z</time></trkpt><trkpt lat="43.4477567" lon="13.592241"><ele>14.399999999999999</ele><time>2026-04-28T09:01:25.772Z</time></trkpt><trkpt lat="43.4476637" lon="13.59232"><ele>14.2</ele><time>2026-04-28T09:01:26.771Z</time></trkpt><trkpt lat="43.4475735" lon="13.5923972"><ele>14.0</ele><time>2026-04-28T09:01:27.782Z</time></trkpt><trkpt lat="43.4474886" lon="13.5924662"><ele>14.0</ele><time>2026-04-28T09:01:28.768Z</time></trkpt><trkpt lat="43.4474094" lon="13.5925358"><ele>13.999999999999998</ele><time>2026-04-28T09:01:29.777Z</time></trkpt><trkpt lat="43.4473287" lon="13.5925996"><ele>13.999999999999998</ele><time>2026-04-28T09:01:30.781Z</time></trkpt><trkpt lat="43.447247" lon="13.5926719"><ele>14.0</ele><time>2026-04-28T09:01:31.788Z</time></trkpt><trkpt lat="43.4471634" lon="13.592746"><ele>14.0</ele><time>2026-04-28T09:01:32.796Z</time></trkpt><trkpt lat="43.4470756" lon="13.5928228"><ele>14.0</ele><time>2026-04-28T09:01:33.774Z</time></trkpt><trkpt lat="43.4469858" lon="13.5928993"><ele>13.999999999999998</ele><time>2026-04-28T09:01:34.769Z</time></trkpt><trkpt lat="43.4468934" lon="13.5929782"><ele>13.999999999999998</ele><time>2026-04-28T09:01:35.78Z</time></trkpt><trkpt lat="43.4468119" lon="13.593049"><ele>14.0</ele><time>2026-04-28T09:01:36.778Z</time></trkpt><trkpt lat="43.4467392" lon="13.5931152"><ele>14.0</ele><time>2026-04-28T09:01:37.784Z</time></trkpt><trkpt lat="43.4466632" lon="13.5931785"><ele>14.0</ele><time>2026-04-28T09:01:38.779Z</time></trkpt><trkpt lat="43.4465953" lon="13.5932316"><ele>13.999999999999998</ele><time>2026-04-28T09:01:39.772Z</time></trkpt><trkpt lat="43.446493" lon="13.5933319"><ele>13.999999999999998</ele><time>2026-04-28T09:01:41.783Z</time></trkpt><trkpt lat="43.446427" lon="13.593394"><ele>14.0</ele><time>2026-04-28T09:01:42.764Z</time></trkpt><trkpt lat="43.4463455" lon="13.5934703"><ele>14.0</ele><time>2026-04-28T09:01:43.79Z</time></trkpt><trkpt lat="43.4462518" lon="13.5935458"><ele>14.25</ele><time>2026-04-28T09:01:44.772Z</time></trkpt><trkpt lat="43.4461545" lon="13.593633"><ele>14.5</ele><time>2026-04-28T09:01:45.782Z</time></trkpt><trkpt lat="43.4460596" lon="13.593727"><ele>14.75</ele><time>2026-04-28T09:01:46.769Z</time></trkpt><trkpt lat="43.4459513" lon="13.5938192"><ele>15.0</ele><time>2026-04-28T09:01:47.791Z</time></trkpt><trkpt lat="43.4458384" lon="13.5939101"><ele>15.0</ele><time>2026-04-28T09:01:48.769Z</time></trkpt><trkpt lat="43.4457258" lon="13.5940082"><ele>15.0</ele><time>2026-04-28T09:01:49.783Z</time></trkpt><trkpt lat="43.4456165" lon="13.5941058"><ele>15.0</ele><time>2026-04-28T09:01:50.771Z</time></trkpt><trkpt lat="43.4455067" lon="13.5942034"><ele>15.0</ele><time>2026-04-28T09:01:51.77Z</time></trkpt><trkpt lat="43.4453958" lon="13.5943115"><ele>15.0</ele><time>2026-04-28T09:01:52.768Z</time></trkpt><trkpt lat="43.4452857" lon="13.5944316"><ele>15.0</ele><time>2026-04-28T09:01:53.78Z</time></trkpt><trkpt lat="43.4451929" lon="13.5945673"><ele>15.0</ele><time>2026-04-28T09:01:54.775Z</time></trkpt><trkpt lat="43.4451115" lon="13.5947196"><ele>15.0</ele><time>2026-04-28T09:01:55.771Z</time></trkpt><trkpt lat="43.445046" lon="13.5948807"><ele>14.75</ele><time>2026-04-28T09:01:56.767Z</time></trkpt><trkpt lat="43.4449897" lon="13.5950392"><ele>14.5</ele><time>2026-04-28T09:01:57.771Z</time></trkpt><trkpt lat="43.4449387" lon="13.595191"><ele>14.25</ele><time>2026-04-28T09:01:58.771Z</time></trkpt><trkpt lat="43.444898" lon="13.5953443"><ele>14.0</ele><time>2026-04-28T09:01:59.774Z</time></trkpt><trkpt lat="43.444866" lon="13.5955033"><ele>14.0</ele><time>2026-04-28T09:02:00.765Z</time></trkpt><trkpt lat="43.4448405" lon="13.595669"><ele>14.0</ele><time>2026-04-28T09:02:01.785Z</time></trkpt><trkpt lat="43.4448173" lon="13.5958364"><ele>14.0</ele><time>2026-04-28T09:02:02.766Z</time></trkpt><trkpt lat="43.444794" lon="13.5960098"><ele>14.0</ele><time>2026-04-28T09:02:03.785Z</time></trkpt><trkpt lat="43.4447667" lon="13.5961815"><ele>14.25</ele><time>2026-04-28T09:02:04.775Z</time></trkpt><trkpt lat="43.4447372" lon="13.5963529"><ele>14.5</ele><time>2026-04-28T09:02:05.771Z</time></trkpt><trkpt lat="43.4447105" lon="13.5965183"><ele>14.75</ele><time>2026-04-28T09:02:06.776Z</time></trkpt><trkpt lat="43.4446777" lon="13.596686"><ele>15.0</ele><time>2026-04-28T09:02:07.777Z</time></trkpt><trkpt lat="43.4446479" lon="13.5968474"><ele>15.25</ele><time>2026-04-28T09:02:08.788Z</time></trkpt><trkpt lat="43.4446171" lon="13.5970109"><ele>15.5</ele><time>2026-04-28T09:02:09.795Z</time></trkpt><trkpt lat="43.4445878" lon="13.5971804"><ele>15.75</ele><time>2026-04-28T09:02:10.775Z</time></trkpt><trkpt lat="43.4445605" lon="13.5973515"><ele>16.0</ele><time>2026-04-28T09:02:11.775Z</time></trkpt><trkpt lat="43.4445221" lon="13.5975198"><ele>16.0</ele><time>2026-04-28T09:02:12.801Z</time></trkpt><trkpt lat="43.4444871" lon="13.5976942"><ele>16.0</ele><time>2026-04-28T09:02:13.777Z</time></trkpt><trkpt lat="43.4444556" lon="13.5978658"><ele>16.0</ele><time>2026-04-28T09:02:14.781Z</time></trkpt><trkpt lat="43.4444227" lon="13.5980346"><ele>16.0</ele><time>2026-04-28T09:02:15.791Z</time></trkpt><trkpt lat="43.4443988" lon="13.598194"><ele>16.0</ele><time>2026-04-28T09:02:16.782Z</time></trkpt><trkpt lat="43.4443777" lon="13.5983411"><ele>16.0</ele><time>2026-04-28T09:02:17.78Z</time></trkpt><trkpt lat="43.4443489" lon="13.598485"><ele>16.0</ele><time>2026-04-28T09:02:18.781Z</time></trkpt><trkpt lat="43.4443186" lon="13.598627"><ele>16.0</ele><time>2026-04-28T09:02:19.78Z</time></trkpt><trkpt lat="43.4442911" lon="13.5987744"><ele>16.0</ele><time>2026-04-28T09:02:20.774Z</time></trkpt><trkpt lat="43.4442596" lon="13.5989274"><ele>16.0</ele><time>2026-04-28T09:02:21.784Z</time></trkpt><trkpt lat="43.4442282" lon="13.5990868"><ele>16.0</ele><time>2026-04-28T09:02:22.778Z</time></trkpt><trkpt lat="43.4441983" lon="13.5992408"><ele>16.0</ele><time>2026-04-28T09:02:23.783Z</time></trkpt><trkpt lat="43.444177" lon="13.5993871"><ele>16.0</ele><time>2026-04-28T09:02:24.774Z</time></trkpt><trkpt lat="43.4441565" lon="13.5995248"><ele>16.0</ele><time>2026-04-28T09:02:25.781Z</time></trkpt><trkpt lat="43.4441386" lon="13.5996478"><ele>15.999999999999998</ele><time>2026-04-28T09:02:26.789Z</time></trkpt><trkpt lat="43.4441166" lon="13.5997574"><ele>16.0</ele><time>2026-04-28T09:02:27.781Z</time></trkpt><trkpt lat="43.444099" lon="13.5998558"><ele>16.0</ele><time>2026-04-28T09:02:28.785Z</time></trkpt><trkpt lat="43.4440832" lon="13.5999506"><ele>16.0</ele><time>2026-04-28T09:02:29.774Z</time></trkpt><trkpt lat="43.4440662" lon="13.6000402"><ele>15.999999999999998</ele><time>2026-04-28T09:02:30.78Z</time></trkpt><trkpt lat="43.4440377" lon="13.6001921"><ele>16.0</ele><time>2026-04-28T09:02:32.779Z</time></trkpt><trkpt lat="43.4440253" lon="13.6003275"><ele>15.8</ele><time>2026-04-28T09:02:34.777Z</time></trkpt><trkpt lat="43.4439977" lon="13.6004713"><ele>15.600000000000001</ele><time>2026-04-28T09:02:36.773Z</time></trkpt><trkpt lat="43.4439675" lon="13.6006365"><ele>15.4</ele><time>2026-04-28T09:02:38.782Z</time></trkpt><trkpt lat="43.4439473" lon="13.6007193"><ele>15.2</ele><time>2026-04-28T09:02:39.781Z</time></trkpt><trkpt lat="43.4439108" lon="13.6008809"><ele>15.0</ele><time>2026-04-28T09:02:41.778Z</time></trkpt><trkpt lat="43.4438919" lon="13.6010537"><ele>15.0</ele><time>2026-04-28T09:02:43.774Z</time></trkpt><trkpt lat="43.4438766" lon="13.6011485"><ele>15.0</ele><time>2026-04-28T09:02:44.782Z</time></trkpt><trkpt lat="43.4438613" lon="13.6012465"><ele>15.0</ele><time>2026-04-28T09:02:45.764Z</time></trkpt><trkpt lat="43.4438382" lon="13.601345"><ele>15.0</ele><time>2026-04-28T09:02:46.769Z</time></trkpt><trkpt lat="43.4438208" lon="13.6014465"><ele>15.0</ele><time>2026-04-28T09:02:47.775Z</time></trkpt><trkpt lat="43.4437988" lon="13.6015519"><ele>15.0</ele><time>2026-04-28T09:02:48.775Z</time></trkpt><trkpt lat="43.4437798" lon="13.6016544"><ele>15.4</ele><time>2026-04-28T09:02:49.782Z</time></trkpt><trkpt lat="43.4437558" lon="13.6017626"><ele>15.8</ele><time>2026-04-28T09:02:50.776Z</time></trkpt><trkpt lat="43.4437329" lon="13.6018807"><ele>16.2</ele><time>2026-04-28T09:02:51.77Z</time></trkpt><trkpt lat="43.4437064" lon="13.6020086"><ele>16.6</ele><time>2026-04-28T09:02:52.762Z</time></trkpt><trkpt lat="43.4436813" lon="13.6021458"><ele>17.0</ele><time>2026-04-28T09:02:53.775Z</time></trkpt><trkpt lat="43.4436492" lon="13.6022899"><ele>17.0</ele><time>2026-04-28T09:02:54.782Z</time></trkpt><trkpt lat="43.4436199" lon="13.602447"><ele>17.0</ele><time>2026-04-28T09:02:55.773Z</time></trkpt><trkpt lat="43.4435892" lon="13.602611"><ele>17.0</ele><time>2026-04-28T09:02:56.775Z</time></trkpt><trkpt lat="43.443556" lon="13.6027825"><ele>17.0</ele><time>2026-04-28T09:02:57.782Z</time></trkpt><trkpt lat="43.4435242" lon="13.6029617"><ele>17.0</ele><time>2026-04-28T09:02:58.78Z</time></trkpt><trkpt lat="43.4434943" lon="13.6031451"><ele>17.0</ele><time>2026-04-28T09:02:59.777Z</time></trkpt><trkpt lat="43.4434617" lon="13.6033322"><ele>17.0</ele><time>2026-04-28T09:03:00.777Z</time></trkpt><trkpt lat="43.4434277" lon="13.6035199"><ele>17.0</ele><time>2026-04-28T09:03:01.774Z</time></trkpt><trkpt lat="43.4433957" lon="13.6036908"><ele>17.75</ele><time>2026-04-28T09:03:02.771Z</time></trkpt><trkpt lat="43.4433626" lon="13.6038571"><ele>18.5</ele><time>2026-04-28T09:03:03.769Z</time></trkpt><trkpt lat="43.4433327" lon="13.6040246"><ele>19.25</ele><time>2026-04-28T09:03:04.772Z</time></trkpt><trkpt lat="43.4432986" lon="13.6041866"><ele>20.0</ele><time>2026-04-28T09:03:05.78Z</time></trkpt><trkpt lat="43.4432741" lon="13.6043432"><ele>20.0</ele><time>2026-04-28T09:03:06.774Z</time></trkpt><trkpt lat="43.4432468" lon="13.6044892"><ele>20.0</ele><time>2026-04-28T09:03:07.771Z</time></trkpt><trkpt lat="43.4432228" lon="13.6046354"><ele>20.0</ele><time>2026-04-28T09:03:08.77Z</time></trkpt><trkpt lat="43.4432095" lon="13.6047903"><ele>20.0</ele><time>2026-04-28T09:03:09.786Z</time></trkpt><trkpt lat="43.4432011" lon="13.6049467"><ele>20.0</ele><time>2026-04-28T09:03:10.781Z</time></trkpt><trkpt lat="43.4431946" lon="13.6051073"><ele>21.25</ele><time>2026-04-28T09:03:11.777Z</time></trkpt><trkpt lat="43.4431888" lon="13.6052637"><ele>22.5</ele><time>2026-04-28T09:03:12.774Z</time></trkpt><trkpt lat="43.4431813" lon="13.6054221"><ele>23.75</ele><time>2026-04-28T09:03:13.774Z</time></trkpt><trkpt lat="43.4431718" lon="13.6055776"><ele>25.0</ele><time>2026-04-28T09:03:14.763Z</time></trkpt><trkpt lat="43.4431655" lon="13.6057346"><ele>26.5</ele><time>2026-04-28T09:03:15.77Z</time></trkpt><trkpt lat="43.4431673" lon="13.6059018"><ele>28.0</ele><time>2026-04-28T09:03:16.781Z</time></trkpt><trkpt lat="43.4431696" lon="13.6060708"><ele>29.5</ele><time>2026-04-28T09:03:17.774Z</time></trkpt><trkpt lat="43.4431787" lon="13.6062479"><ele>31.0</ele><time>2026-04-28T09:03:18.774Z</time></trkpt><trkpt lat="43.4432006" lon="13.6064353"><ele>32.75</ele><time>2026-04-28T09:03:19.77Z</time></trkpt><trkpt lat="43.4432264" lon="13.6066205"><ele>34.5</ele><time>2026-04-28T09:03:20.771Z</time></trkpt><trkpt lat="43.4432542" lon="13.6068136"><ele>36.25</ele><time>2026-04-28T09:03:21.777Z</time></trkpt><trkpt lat="43.4432823" lon="13.6069976"><ele>38.0</ele><time>2026-04-28T09:03:22.764Z</time></trkpt><trkpt lat="43.4433114" lon="13.6071739"><ele>40.0</ele><time>2026-04-28T09:03:23.777Z</time></trkpt><trkpt lat="43.443344" lon="13.607337"><ele>42.0</ele><time>2026-04-28T09:03:24.79Z</time></trkpt><trkpt lat="43.4433764" lon="13.6074917"><ele>44.0</ele><time>2026-04-28T09:03:25.778Z</time></trkpt><trkpt lat="43.4434098" lon="13.6076291"><ele>46.0</ele><time>2026-04-28T09:03:26.772Z</time></trkpt><trkpt lat="43.4434329" lon="13.6077507"><ele>48.0</ele><time>2026-04-28T09:03:27.77Z</time></trkpt><trkpt lat="43.4434536" lon="13.6078646"><ele>48.0</ele><time>2026-04-28T09:03:28.767Z</time></trkpt><trkpt lat="43.4434383" lon="13.6079529"><ele>48.0</ele><time>2026-04-28T09:03:29.777Z</time></trkpt><trkpt lat="43.4433435" lon="13.607931"><ele>48.0</ele><time>2026-04-28T09:03:31.783Z</time></trkpt><trkpt lat="43.443298" lon="13.6078546"><ele>48.0</ele><time>2026-04-28T09:03:32.78Z</time></trkpt><trkpt lat="43.4432416" lon="13.6077348"><ele>48.0</ele><time>2026-04-28T09:03:33.772Z</time></trkpt><trkpt lat="43.4431684" lon="13.6076129"><ele>48.0</ele><time>2026-04-28T09:03:34.76Z</time></trkpt><trkpt lat="43.4430821" lon="13.6074799"><ele>48.0</ele><time>2026-04-28T09:03:35.78Z</time></trkpt><trkpt lat="43.4429881" lon="13.6073343"><ele>48.0</ele><time>2026-04-28T09:03:36.767Z</time></trkpt><trkpt lat="43.4428925" lon="13.6071857"><ele>48.0</ele><time>2026-04-28T09:03:37.776Z</time></trkpt><trkpt lat="43.4427952" lon="13.6070364"><ele>50.75</ele><time>2026-04-28T09:03:38.774Z</time></trkpt><trkpt lat="43.442698" lon="13.6068835"><ele>53.5</ele><time>2026-04-28T09:03:39.787Z</time></trkpt><trkpt lat="43.4426012" lon="13.6067314"><ele>56.25</ele><time>2026-04-28T09:03:40.781Z</time></trkpt><trkpt lat="43.4425056" lon="13.6065799"><ele>59.0</ele><time>2026-04-28T09:03:41.781Z</time></trkpt><trkpt lat="43.4424131" lon="13.6064282"><ele>59.0</ele><time>2026-04-28T09:03:42.775Z</time></trkpt><trkpt lat="43.4423274" lon="13.6062777"><ele>59.0</ele><time>2026-04-28T09:03:43.775Z</time></trkpt><trkpt lat="43.4422458" lon="13.606136"><ele>59.0</ele><time>2026-04-28T09:03:44.788Z</time></trkpt><trkpt lat="43.4421622" lon="13.6059974"><ele>59.0</ele><time>2026-04-28T09:03:45.788Z</time></trkpt><trkpt lat="43.4420814" lon="13.6058585"><ele>62.25</ele><time>2026-04-28T09:03:46.77Z</time></trkpt><trkpt lat="43.4419994" lon="13.6057194"><ele>65.5</ele><time>2026-04-28T09:03:47.767Z</time></trkpt><trkpt lat="43.441914" lon="13.6055748"><ele>68.75</ele><time>2026-04-28T09:03:48.774Z</time></trkpt><trkpt lat="43.4418237" lon="13.6054371"><ele>72.0</ele><time>2026-04-28T09:03:49.777Z</time></trkpt><trkpt lat="43.4417448" lon="13.6053036"><ele>72.0</ele><time>2026-04-28T09:03:50.769Z</time></trkpt><trkpt lat="43.4416731" lon="13.6051834"><ele>72.0</ele><time>2026-04-28T09:03:51.781Z</time></trkpt><trkpt lat="43.4416091" lon="13.6050806"><ele>72.0</ele><time>2026-04-28T09:03:52.774Z</time></trkpt><trkpt lat="43.4415513" lon="13.6049953"><ele>72.0</ele><time>2026-04-28T09:03:53.78Z</time></trkpt><trkpt lat="43.4415032" lon="13.6049371"><ele>72.0</ele><time>2026-04-28T09:03:54.782Z</time></trkpt><trkpt lat="43.4414407" lon="13.6048856"><ele>72.0</ele><time>2026-04-28T09:03:56.786Z</time></trkpt><trkpt lat="43.4413869" lon="13.6047982"><ele>72.0</ele><time>2026-04-28T09:04:10.765Z</time></trkpt><trkpt lat="43.4413819" lon="13.6046187"><ele>72.0</ele><time>2026-04-28T09:04:12.764Z</time></trkpt><trkpt lat="43.4413841" lon="13.6045083"><ele>72.0</ele><time>2026-04-28T09:04:13.781Z</time></trkpt><trkpt lat="43.4413755" lon="13.6043717"><ele>72.0</ele><time>2026-04-28T09:04:14.776Z</time></trkpt><trkpt lat="43.4413522" lon="13.6042202"><ele>72.0</ele><time>2026-04-28T09:04:15.784Z</time></trkpt><trkpt lat="43.441301" lon="13.6040991"><ele>73.0</ele><time>2026-04-28T09:04:16.766Z</time></trkpt><trkpt lat="43.4412411" lon="13.6040033"><ele>74.0</ele><time>2026-04-28T09:04:17.775Z</time></trkpt><trkpt lat="43.4411486" lon="13.6039504"><ele>75.0</ele><time>2026-04-28T09:04:18.765Z</time></trkpt><trkpt lat="43.4410538" lon="13.6039257"><ele>76.0</ele><time>2026-04-28T09:04:19.785Z</time></trkpt><trkpt lat="43.4409537" lon="13.6039183"><ele>77.0</ele><time>2026-04-28T09:04:20.784Z</time></trkpt><trkpt lat="43.4408537" lon="13.6039226"><ele>77.0</ele><time>2026-04-28T09:04:21.773Z</time></trkpt><trkpt lat="43.4407584" lon="13.6039463"><ele>77.0</ele><time>2026-04-28T09:04:22.773Z</time></trkpt><trkpt lat="43.4406675" lon="13.6039841"><ele>77.0</ele><time>2026-04-28T09:04:23.775Z</time></trkpt><trkpt lat="43.4405835" lon="13.6040315"><ele>77.0</ele><time>2026-04-28T09:04:24.788Z</time></trkpt><trkpt lat="43.4405024" lon="13.60408"><ele>77.0</ele><time>2026-04-28T09:04:25.784Z</time></trkpt><trkpt lat="43.4404229" lon="13.6041396"><ele>79.33333333333334</ele><time>2026-04-28T09:04:26.792Z</time></trkpt><trkpt lat="43.4403438" lon="13.6042017"><ele>81.66666666666667</ele><time>2026-04-28T09:04:27.79Z</time></trkpt><trkpt lat="43.4402719" lon="13.6042588"><ele>84.0</ele><time>2026-04-28T09:04:28.771Z</time></trkpt><trkpt lat="43.4402152" lon="13.6043113"><ele>86.33333333333333</ele><time>2026-04-28T09:04:29.779Z</time></trkpt><trkpt lat="43.4401616" lon="13.6043666"><ele>88.66666666666666</ele><time>2026-04-28T09:04:30.772Z</time></trkpt><trkpt lat="43.4401049" lon="13.6044268"><ele>91.0</ele><time>2026-04-28T09:04:31.781Z</time></trkpt><trkpt lat="43.4400483" lon="13.6044858"><ele>92.0</ele><time>2026-04-28T09:04:32.779Z</time></trkpt><trkpt lat="43.4399836" lon="13.6045501"><ele>93.0</ele><time>2026-04-28T09:04:33.785Z</time></trkpt><trkpt lat="43.439921" lon="13.6046121"><ele>94.0</ele><time>2026-04-28T09:04:34.772Z</time></trkpt><trkpt lat="43.4398557" lon="13.6046806"><ele>95.0</ele><time>2026-04-28T09:04:35.78Z</time></trkpt><trkpt lat="43.4397912" lon="13.6047438"><ele>96.00000000000001</ele><time>2026-04-28T09:04:36.781Z</time></trkpt><trkpt lat="43.4397263" lon="13.6048103"><ele>97.0</ele><time>2026-04-28T09:04:37.783Z</time></trkpt><trkpt lat="43.4396647" lon="13.6048747"><ele>99.16666666666667</ele><time>2026-04-28T09:04:38.782Z</time></trkpt><trkpt lat="43.4396024" lon="13.60494"><ele>101.33333333333334</ele><time>2026-04-28T09:04:39.775Z</time></trkpt><trkpt lat="43.4395343" lon="13.6049997"><ele>103.5</ele><time>2026-04-28T09:04:40.764Z</time></trkpt><trkpt lat="43.439471" lon="13.6050591"><ele>105.66666666666666</ele><time>2026-04-28T09:04:41.778Z</time></trkpt><trkpt lat="43.4394045" lon="13.6051217"><ele>107.83333333333333</ele><time>2026-04-28T09:04:42.779Z</time></trkpt><trkpt lat="43.4393411" lon="13.6051758"><ele>110.0</ele><time>2026-04-28T09:04:43.79Z</time></trkpt><trkpt lat="43.4392642" lon="13.6052489"><ele>111.49999999999999</ele><time>2026-04-28T09:04:45.822Z</time></trkpt><trkpt lat="43.4392145" lon="13.6053466"><ele>113.0</ele><time>2026-04-28T09:04:47.782Z</time></trkpt><trkpt lat="43.4392285" lon="13.6054494"><ele>114.5</ele><time>2026-04-28T09:04:49.767Z</time></trkpt><trkpt lat="43.4392651" lon="13.6055764"><ele>116.0</ele><time>2026-04-28T09:04:51.771Z</time></trkpt><trkpt lat="43.4392334" lon="13.6056834"><ele>117.49999999999999</ele><time>2026-04-28T09:04:53.77Z</time></trkpt><trkpt lat="43.4391786" lon="13.6057863"><ele>119.0</ele><time>2026-04-28T09:04:55.79Z</time></trkpt><trkpt lat="43.4391011" lon="13.6057847"><ele>118.99999999999999</ele><time>2026-04-28T09:04:57.779Z</time></trkpt><trkpt lat="43.4390362" lon="13.6057385"><ele>119.0</ele><time>2026-04-28T09:04:59.777Z</time></trkpt><trkpt lat="43.4389701" lon="13.6057175"><ele>119.0</ele><time>2026-04-28T09:05:04.764Z</time></trkpt><trkpt lat="43.4389226" lon="13.6058155"><ele>119.0</ele><time>2026-04-28T09:05:06.788Z</time></trkpt><trkpt lat="43.4388621" lon="13.605964"><ele>118.99999999999999</ele><time>2026-04-28T09:05:08.768Z</time></trkpt><trkpt lat="43.4388285" lon="13.6060433"><ele>119.0</ele><time>2026-04-28T09:05:10.77Z</time></trkpt><trkpt lat="43.438772" lon="13.6060822"><ele>120.2</ele><time>2026-04-28T09:05:14.775Z</time></trkpt><trkpt lat="43.4386775" lon="13.6060112"><ele>121.4</ele><time>2026-04-28T09:05:16.783Z</time></trkpt><trkpt lat="43.43857" lon="13.6059206"><ele>122.6</ele><time>2026-04-28T09:05:18.766Z</time></trkpt><trkpt lat="43.4385123" lon="13.6058656"><ele>123.8</ele><time>2026-04-28T09:05:19.773Z</time></trkpt><trkpt lat="43.4384517" lon="13.6058137"><ele>125.0</ele><time>2026-04-28T09:05:20.761Z</time></trkpt><trkpt lat="43.438383" lon="13.6057589"><ele>125.0</ele><time>2026-04-28T09:05:21.763Z</time></trkpt><trkpt lat="43.4383088" lon="13.6056881"><ele>125.0</ele><time>2026-04-28T09:05:22.764Z</time></trkpt><trkpt lat="43.438233" lon="13.6056092"><ele>125.0</ele><time>2026-04-28T09:05:23.771Z</time></trkpt><trkpt lat="43.4381539" lon="13.6055276"><ele>125.0</ele><time>2026-04-28T09:05:24.77Z</time></trkpt><trkpt lat="43.4380748" lon="13.605449"><ele>125.0</ele><time>2026-04-28T09:05:25.773Z</time></trkpt><trkpt lat="43.4379969" lon="13.605373"><ele>126.99999999999999</ele><time>2026-04-28T09:05:26.768Z</time></trkpt><trkpt lat="43.4379297" lon="13.6052984"><ele>129.0</ele><time>2026-04-28T09:05:27.77Z</time></trkpt><trkpt lat="43.4378552" lon="13.6052369"><ele>131.0</ele><time>2026-04-28T09:05:28.771Z</time></trkpt><trkpt lat="43.4377838" lon="13.6051755"><ele>133.0</ele><time>2026-04-28T09:05:29.765Z</time></trkpt><trkpt lat="43.437715" lon="13.6051083"><ele>135.0</ele><time>2026-04-28T09:05:30.77Z</time></trkpt><trkpt lat="43.4376434" lon="13.6050347"><ele>137.0</ele><time>2026-04-28T09:05:31.776Z</time></trkpt><trkpt lat="43.4375749" lon="13.6049617"><ele>137.0</ele><time>2026-04-28T09:05:32.772Z</time></trkpt><trkpt lat="43.4374995" lon="13.6048901"><ele>137.0</ele><time>2026-04-28T09:05:33.775Z</time></trkpt><trkpt lat="43.4374234" lon="13.6048141"><ele>137.0</ele><time>2026-04-28T09:05:34.766Z</time></trkpt><trkpt lat="43.4373468" lon="13.6047445"><ele>137.0</ele><time>2026-04-28T09:05:35.777Z</time></trkpt><trkpt lat="43.4372747" lon="13.6046746"><ele>137.0</ele><time>2026-04-28T09:05:36.785Z</time></trkpt><trkpt lat="43.4372093" lon="13.6046027"><ele>137.0</ele><time>2026-04-28T09:05:37.773Z</time></trkpt><trkpt lat="43.4371419" lon="13.6045337"><ele>139.66666666666666</ele><time>2026-04-28T09:05:38.777Z</time></trkpt><trkpt lat="43.4370743" lon="13.6044584"><ele>142.33333333333331</ele><time>2026-04-28T09:05:39.775Z</time></trkpt><trkpt lat="43.4370052" lon="13.6043868"><ele>145.0</ele><time>2026-04-28T09:05:40.772Z</time></trkpt><trkpt lat="43.4369383" lon="13.6043175"><ele>147.66666666666666</ele><time>2026-04-28T09:05:41.78Z</time></trkpt><trkpt lat="43.436873" lon="13.6042496"><ele>150.33333333333334</ele><time>2026-04-28T09:05:42.778Z</time></trkpt><trkpt lat="43.4368069" lon="13.6041848"><ele>153.0</ele><time>2026-04-28T09:05:43.777Z</time></trkpt><trkpt lat="43.4367436" lon="13.6041192"><ele>153.0</ele><time>2026-04-28T09:05:44.782Z</time></trkpt><trkpt lat="43.4366766" lon="13.6040585"><ele>153.0</ele><time>2026-04-28T09:05:45.771Z</time></trkpt><trkpt lat="43.4366086" lon="13.6039919"><ele>153.0</ele><time>2026-04-28T09:05:46.773Z</time></trkpt><trkpt lat="43.4365379" lon="13.6039218"><ele>153.0</ele><time>2026-04-28T09:05:47.77Z</time></trkpt><trkpt lat="43.4364659" lon="13.6038468"><ele>153.0</ele><time>2026-04-28T09:05:48.78Z</time></trkpt><trkpt lat="43.4363945" lon="13.6037734"><ele>153.0</ele><time>2026-04-28T09:05:49.769Z</time></trkpt><trkpt lat="43.4363247" lon="13.6037048"><ele>154.33333333333334</ele><time>2026-04-28T09:05:50.765Z</time></trkpt><trkpt lat="43.4362573" lon="13.603635"><ele>155.66666666666666</ele><time>2026-04-28T09:05:51.773Z</time></trkpt><trkpt lat="43.4361898" lon="13.6035631"><ele>157.0</ele><time>2026-04-28T09:05:52.771Z</time></trkpt><trkpt lat="43.4361237" lon="13.6034898"><ele>158.33333333333331</ele><time>2026-04-28T09:05:53.78Z</time></trkpt><trkpt lat="43.4360532" lon="13.6034113"><ele>159.66666666666666</ele><time>2026-04-28T09:05:54.772Z</time></trkpt><trkpt lat="43.435979" lon="13.6033299"><ele>161.0</ele><time>2026-04-28T09:05:55.781Z</time></trkpt><trkpt lat="43.4359001" lon="13.6032476"><ele>161.0</ele><time>2026-04-28T09:05:56.759Z</time></trkpt><trkpt lat="43.4358137" lon="13.6031542"><ele>161.0</ele><time>2026-04-28T09:05:57.772Z</time></trkpt><trkpt lat="43.4357208" lon="13.6030651"><ele>161.0</ele><time>2026-04-28T09:05:58.772Z</time></trkpt><trkpt lat="43.4356257" lon="13.6029704"><ele>161.0</ele><time>2026-04-28T09:05:59.773Z</time></trkpt><trkpt lat="43.4355365" lon="13.6028762"><ele>160.8</ele><time>2026-04-28T09:06:00.766Z</time></trkpt><trkpt lat="43.4354444" lon="13.6027852"><ele>160.60000000000002</ele><time>2026-04-28T09:06:01.78Z</time></trkpt><trkpt lat="43.4353518" lon="13.6026994"><ele>160.4</ele><time>2026-04-28T09:06:02.767Z</time></trkpt><trkpt lat="43.4352552" lon="13.6026186"><ele>160.2</ele><time>2026-04-28T09:06:03.77Z</time></trkpt><trkpt lat="43.4351686" lon="13.602538"><ele>160.0</ele><time>2026-04-28T09:06:04.762Z</time></trkpt><trkpt lat="43.4350851" lon="13.602456"><ele>160.0</ele><time>2026-04-28T09:06:05.797Z</time></trkpt><trkpt lat="43.4349993" lon="13.6023655"><ele>160.0</ele><time>2026-04-28T09:06:06.765Z</time></trkpt><trkpt lat="43.4349131" lon="13.6022838"><ele>160.0</ele><time>2026-04-28T09:06:07.784Z</time></trkpt><trkpt lat="43.4348234" lon="13.6021919"><ele>160.0</ele><time>2026-04-28T09:06:08.768Z</time></trkpt><trkpt lat="43.4347335" lon="13.6020899"><ele>160.0</ele><time>2026-04-28T09:06:09.78Z</time></trkpt><trkpt lat="43.4346426" lon="13.6019863"><ele>157.75</ele><time>2026-04-28T09:06:10.787Z</time></trkpt><trkpt lat="43.434551" lon="13.6018844"><ele>155.5</ele><time>2026-04-28T09:06:11.775Z</time></trkpt><trkpt lat="43.4344492" lon="13.601785"><ele>153.25</ele><time>2026-04-28T09:06:12.77Z</time></trkpt><trkpt lat="43.4343427" lon="13.6016872"><ele>151.0</ele><time>2026-04-28T09:06:13.775Z</time></trkpt><trkpt lat="43.4342236" lon="13.6015972"><ele>151.0</ele><time>2026-04-28T09:06:14.775Z</time></trkpt><trkpt lat="43.434104" lon="13.6015071"><ele>151.0</ele><time>2026-04-28T09:06:15.785Z</time></trkpt><trkpt lat="43.4339855" lon="13.6014144"><ele>151.0</ele><time>2026-04-28T09:06:16.78Z</time></trkpt><trkpt lat="43.4338704" lon="13.6013295"><ele>151.0</ele><time>2026-04-28T09:06:17.771Z</time></trkpt><trkpt lat="43.4337555" lon="13.6012444"><ele>147.75</ele><time>2026-04-28T09:06:18.776Z</time></trkpt><trkpt lat="43.4336486" lon="13.601163"><ele>144.5</ele><time>2026-04-28T09:06:19.777Z</time></trkpt><trkpt lat="43.4335398" lon="13.6010808"><ele>141.25</ele><time>2026-04-28T09:06:20.767Z</time></trkpt><trkpt lat="43.4334344" lon="13.6009943"><ele>138.0</ele><time>2026-04-28T09:06:21.791Z</time></trkpt><trkpt lat="43.4333289" lon="13.6009076"><ele>138.0</ele><time>2026-04-28T09:06:22.767Z</time></trkpt><trkpt lat="43.4332236" lon="13.6008306"><ele>138.0</ele><time>2026-04-28T09:06:23.766Z</time></trkpt><trkpt lat="43.4331171" lon="13.6007569"><ele>138.0</ele><time>2026-04-28T09:06:24.777Z</time></trkpt><trkpt lat="43.4330096" lon="13.6006761"><ele>138.0</ele><time>2026-04-28T09:06:25.77Z</time></trkpt><trkpt lat="43.4328945" lon="13.6005866"><ele>138.0</ele><time>2026-04-28T09:06:26.776Z</time></trkpt><trkpt lat="43.4327843" lon="13.6004939"><ele>138.0</ele><time>2026-04-28T09:06:27.769Z</time></trkpt><trkpt lat="43.4326688" lon="13.6003949"><ele>138.0</ele><time>2026-04-28T09:06:28.757Z</time></trkpt><trkpt lat="43.4325492" lon="13.6002901"><ele>138.0</ele><time>2026-04-28T09:06:29.768Z</time></trkpt><trkpt lat="43.4324256" lon="13.6001874"><ele>138.5</ele><time>2026-04-28T09:06:30.78Z</time></trkpt><trkpt lat="43.4323087" lon="13.6000966"><ele>139.0</ele><time>2026-04-28T09:06:31.778Z</time></trkpt><trkpt lat="43.4321964" lon="13.60001"><ele>139.5</ele><time>2026-04-28T09:06:32.768Z</time></trkpt><trkpt lat="43.432085" lon="13.5999232"><ele>140.0</ele><time>2026-04-28T09:06:33.773Z</time></trkpt><trkpt lat="43.4319725" lon="13.5998354"><ele>141.25</ele><time>2026-04-28T09:06:34.773Z</time></trkpt><trkpt lat="43.4318575" lon="13.5997451"><ele>142.5</ele><time>2026-04-28T09:06:35.777Z</time></trkpt><trkpt lat="43.4317423" lon="13.599651"><ele>143.75</ele><time>2026-04-28T09:06:36.765Z</time></trkpt><trkpt lat="43.4316307" lon="13.5995552"><ele>145.0</ele><time>2026-04-28T09:06:37.772Z</time></trkpt><trkpt lat="43.4315161" lon="13.5994618"><ele>145.25</ele><time>2026-04-28T09:06:38.77Z</time></trkpt><trkpt lat="43.4314028" lon="13.5993729"><ele>145.5</ele><time>2026-04-28T09:06:39.772Z</time></trkpt><trkpt lat="43.4312899" lon="13.5992822"><ele>145.75</ele><time>2026-04-28T09:06:40.781Z</time></trkpt><trkpt lat="43.4311799" lon="13.5991962"><ele>146.0</ele><time>2026-04-28T09:06:41.788Z</time></trkpt><trkpt lat="43.4310633" lon="13.5991198"><ele>150.0</ele><time>2026-04-28T09:06:42.755Z</time></trkpt><trkpt lat="43.4309408" lon="13.5990616"><ele>154.0</ele><time>2026-04-28T09:06:43.783Z</time></trkpt><trkpt lat="43.4308188" lon="13.599016"><ele>158.0</ele><time>2026-04-28T09:06:44.785Z</time></trkpt><trkpt lat="43.430703" lon="13.5989746"><ele>162.0</ele><time>2026-04-28T09:06:45.779Z</time></trkpt><trkpt lat="43.4305881" lon="13.5989356"><ele>161.75</ele><time>2026-04-28T09:06:46.785Z</time></trkpt><trkpt lat="43.4304709" lon="13.5988958"><ele>161.5</ele><time>2026-04-28T09:06:47.777Z</time></trkpt><trkpt lat="43.4303588" lon="13.5988435"><ele>161.25</ele><time>2026-04-28T09:06:48.766Z</time></trkpt><trkpt lat="43.4302584" lon="13.5987628"><ele>161.0</ele><time>2026-04-28T09:06:49.784Z</time></trkpt><trkpt lat="43.4301731" lon="13.5986471"><ele>158.5</ele><time>2026-04-28T09:06:50.783Z</time></trkpt><trkpt lat="43.4301074" lon="13.5984962"><ele>156.0</ele><time>2026-04-28T09:06:51.781Z</time></trkpt><trkpt lat="43.4300579" lon="13.598341"><ele>153.5</ele><time>2026-04-28T09:06:52.762Z</time></trkpt><trkpt lat="43.4300098" lon="13.5981867"><ele>151.0</ele><time>2026-04-28T09:06:53.778Z</time></trkpt><trkpt lat="43.4299627" lon="13.5980354"><ele>151.0</ele><time>2026-04-28T09:06:54.782Z</time></trkpt><trkpt lat="43.4299143" lon="13.597887"><ele>151.0</ele><time>2026-04-28T09:06:55.784Z</time></trkpt><trkpt lat="43.4298587" lon="13.5977446"><ele>151.0</ele><time>2026-04-28T09:06:56.775Z</time></trkpt><trkpt lat="43.429809" lon="13.5975998"><ele>151.0</ele><time>2026-04-28T09:06:57.77Z</time></trkpt><trkpt lat="43.4297537" lon="13.5974507"><ele>149.25</ele><time>2026-04-28T09:06:58.771Z</time></trkpt><trkpt lat="43.4296976" lon="13.5973028"><ele>147.5</ele><time>2026-04-28T09:06:59.766Z</time></trkpt><trkpt lat="43.4296371" lon="13.5971584"><ele>145.75</ele><time>2026-04-28T09:07:00.758Z</time></trkpt><trkpt lat="43.4295671" lon="13.5970083"><ele>144.0</ele><time>2026-04-28T09:07:01.776Z</time></trkpt><trkpt lat="43.4294889" lon="13.5968442"><ele>140.25</ele><time>2026-04-28T09:07:02.76Z</time></trkpt><trkpt lat="43.4294049" lon="13.5966717"><ele>136.5</ele><time>2026-04-28T09:07:03.777Z</time></trkpt><trkpt lat="43.4293207" lon="13.5965016"><ele>132.75</ele><time>2026-04-28T09:07:04.77Z</time></trkpt><trkpt lat="43.4292381" lon="13.5963334"><ele>129.0</ele><time>2026-04-28T09:07:05.782Z</time></trkpt><trkpt lat="43.4291539" lon="13.5961675"><ele>128.75</ele><time>2026-04-28T09:07:06.767Z</time></trkpt><trkpt lat="43.4290717" lon="13.5960055"><ele>128.5</ele><time>2026-04-28T09:07:07.773Z</time></trkpt><trkpt lat="43.428997" lon="13.5958427"><ele>128.25</ele><time>2026-04-28T09:07:08.769Z</time></trkpt><trkpt lat="43.4289299" lon="13.595682"><ele>128.0</ele><time>2026-04-28T09:07:09.766Z</time></trkpt><trkpt lat="43.4288727" lon="13.5955183"><ele>128.0</ele><time>2026-04-28T09:07:10.769Z</time></trkpt><trkpt lat="43.4288153" lon="13.5953476"><ele>128.0</ele><time>2026-04-28T09:07:11.778Z</time></trkpt><trkpt lat="43.428763" lon="13.5951685"><ele>128.0</ele><time>2026-04-28T09:07:12.77Z</time></trkpt><trkpt lat="43.428713" lon="13.5949888"><ele>128.0</ele><time>2026-04-28T09:07:13.774Z</time></trkpt><trkpt lat="43.4286663" lon="13.5948056"><ele>125.25</ele><time>2026-04-28T09:07:14.761Z</time></trkpt><trkpt lat="43.4286161" lon="13.5946202"><ele>122.5</ele><time>2026-04-28T09:07:15.769Z</time></trkpt><trkpt lat="43.4285604" lon="13.5944264"><ele>119.75</ele><time>2026-04-28T09:07:16.776Z</time></trkpt><trkpt lat="43.4285072" lon="13.5942304"><ele>117.0</ele><time>2026-04-28T09:07:17.778Z</time></trkpt><trkpt lat="43.4284517" lon="13.5940412"><ele>116.0</ele><time>2026-04-28T09:07:18.767Z</time></trkpt><trkpt lat="43.4283991" lon="13.5938556"><ele>115.0</ele><time>2026-04-28T09:07:19.778Z</time></trkpt><trkpt lat="43.4283442" lon="13.593678"><ele>114.0</ele><time>2026-04-28T09:07:20.775Z</time></trkpt><trkpt lat="43.4282925" lon="13.5935003"><ele>113.0</ele><time>2026-04-28T09:07:21.771Z</time></trkpt><trkpt lat="43.4282416" lon="13.5933261"><ele>111.75</ele><time>2026-04-28T09:07:22.77Z</time></trkpt><trkpt lat="43.4281899" lon="13.5931419"><ele>110.5</ele><time>2026-04-28T09:07:23.764Z</time></trkpt><trkpt lat="43.4281368" lon="13.5929547"><ele>109.25</ele><time>2026-04-28T09:07:24.765Z</time></trkpt><trkpt lat="43.4280775" lon="13.5927676"><ele>108.0</ele><time>2026-04-28T09:07:25.767Z</time></trkpt><trkpt lat="43.4280252" lon="13.5925763"><ele>108.0</ele><time>2026-04-28T09:07:26.776Z</time></trkpt><trkpt lat="43.4279799" lon="13.5923741"><ele>108.0</ele><time>2026-04-28T09:07:27.776Z</time></trkpt><trkpt lat="43.427939" lon="13.5921617"><ele>108.0</ele><time>2026-04-28T09:07:28.773Z</time></trkpt><trkpt lat="43.4278997" lon="13.5919276"><ele>103.66666666666667</ele><time>2026-04-28T09:07:29.778Z</time></trkpt><trkpt lat="43.4278574" lon="13.5916856"><ele>99.33333333333334</ele><time>2026-04-28T09:07:30.766Z</time></trkpt><trkpt lat="43.4278195" lon="13.5914489"><ele>95.0</ele><time>2026-04-28T09:07:31.766Z</time></trkpt><trkpt lat="43.4277797" lon="13.5912166"><ele>94.33333333333334</ele><time>2026-04-28T09:07:32.761Z</time></trkpt><trkpt lat="43.427745" lon="13.5909859"><ele>93.66666666666667</ele><time>2026-04-28T09:07:33.777Z</time></trkpt><trkpt lat="43.4277086" lon="13.5907613"><ele>93.0</ele><time>2026-04-28T09:07:34.768Z</time></trkpt><trkpt lat="43.4276768" lon="13.5905434"><ele>92.0</ele><time>2026-04-28T09:07:35.763Z</time></trkpt><trkpt lat="43.4276422" lon="13.5903325"><ele>91.0</ele><time>2026-04-28T09:07:36.77Z</time></trkpt><trkpt lat="43.4276068" lon="13.5901181"><ele>90.0</ele><time>2026-04-28T09:07:37.776Z</time></trkpt><trkpt lat="43.4275668" lon="13.5898998"><ele>90.0</ele><time>2026-04-28T09:07:38.76Z</time></trkpt><trkpt lat="43.4275332" lon="13.5896756"><ele>90.0</ele><time>2026-04-28T09:07:39.77Z</time></trkpt><trkpt lat="43.4274976" lon="13.5894475"><ele>90.0</ele><time>2026-04-28T09:07:40.768Z</time></trkpt><trkpt lat="43.4274609" lon="13.5892191"><ele>89.0</ele><time>2026-04-28T09:07:41.77Z</time></trkpt><trkpt lat="43.427424" lon="13.5889939"><ele>88.0</ele><time>2026-04-28T09:07:42.766Z</time></trkpt><trkpt lat="43.4273879" lon="13.5887658"><ele>87.0</ele><time>2026-04-28T09:07:43.764Z</time></trkpt><trkpt lat="43.4273551" lon="13.5885434"><ele>87.0</ele><time>2026-04-28T09:07:44.768Z</time></trkpt><trkpt lat="43.4273217" lon="13.5883253"><ele>87.0</ele><time>2026-04-28T09:07:45.767Z</time></trkpt><trkpt lat="43.4272882" lon="13.5881219"><ele>87.0</ele><time>2026-04-28T09:07:46.762Z</time></trkpt><trkpt lat="43.4272556" lon="13.5879254"><ele>86.5</ele><time>2026-04-28T09:07:47.788Z</time></trkpt><trkpt lat="43.4272261" lon="13.587738"><ele>86.0</ele><time>2026-04-28T09:07:48.768Z</time></trkpt><trkpt lat="43.4271904" lon="13.5875666"><ele>85.5</ele><time>2026-04-28T09:07:49.769Z</time></trkpt><trkpt lat="43.427151" lon="13.5873986"><ele>85.0</ele><time>2026-04-28T09:07:50.77Z</time></trkpt><trkpt lat="43.4270953" lon="13.5872312"><ele>84.75</ele><time>2026-04-28T09:07:51.768Z</time></trkpt><trkpt lat="43.4270386" lon="13.5870603"><ele>84.5</ele><time>2026-04-28T09:07:52.771Z</time></trkpt><trkpt lat="43.4269782" lon="13.5868897"><ele>84.25</ele><time>2026-04-28T09:07:53.785Z</time></trkpt><trkpt lat="43.426914" lon="13.5867153"><ele>84.0</ele><time>2026-04-28T09:07:54.774Z</time></trkpt><trkpt lat="43.4268498" lon="13.5865449"><ele>83.25</ele><time>2026-04-28T09:07:55.774Z</time></trkpt><trkpt lat="43.4267867" lon="13.5863751"><ele>82.5</ele><time>2026-04-28T09:07:56.766Z</time></trkpt><trkpt lat="43.4267293" lon="13.58621"><ele>81.75</ele><time>2026-04-28T09:07:57.78Z</time></trkpt><trkpt lat="43.4266708" lon="13.5860608"><ele>81.0</ele><time>2026-04-28T09:07:58.763Z</time></trkpt><trkpt lat="43.4266041" lon="13.5859129"><ele>79.5</ele><time>2026-04-28T09:07:59.775Z</time></trkpt><trkpt lat="43.4265303" lon="13.5857814"><ele>78.0</ele><time>2026-04-28T09:08:00.771Z</time></trkpt><trkpt lat="43.4264381" lon="13.5856603"><ele>76.5</ele><time>2026-04-28T09:08:01.784Z</time></trkpt><trkpt lat="43.4263424" lon="13.5855353"><ele>75.0</ele><time>2026-04-28T09:08:02.761Z</time></trkpt><trkpt lat="43.4262308" lon="13.5854117"><ele>73.0</ele><time>2026-04-28T09:08:03.781Z</time></trkpt><trkpt lat="43.4261184" lon="13.5852868"><ele>71.0</ele><time>2026-04-28T09:08:04.776Z</time></trkpt><trkpt lat="43.4259936" lon="13.5851588"><ele>69.0</ele><time>2026-04-28T09:08:05.777Z</time></trkpt><trkpt lat="43.4258761" lon="13.5850365"><ele>67.0</ele><time>2026-04-28T09:08:06.763Z</time></trkpt><trkpt lat="43.4257582" lon="13.58492"><ele>67.0</ele><time>2026-04-28T09:08:07.775Z</time></trkpt><trkpt lat="43.4256498" lon="13.5847991"><ele>67.0</ele><time>2026-04-28T09:08:08.768Z</time></trkpt><trkpt lat="43.4255471" lon="13.5846892"><ele>67.0</ele><time>2026-04-28T09:08:09.785Z</time></trkpt><trkpt lat="43.4254523" lon="13.5845846"><ele>67.0</ele><time>2026-04-28T09:08:10.777Z</time></trkpt><trkpt lat="43.4253602" lon="13.5844944"><ele>66.0</ele><time>2026-04-28T09:08:11.777Z</time></trkpt><trkpt lat="43.4252835" lon="13.5844207"><ele>65.0</ele><time>2026-04-28T09:08:12.766Z</time></trkpt><trkpt lat="43.4252025" lon="13.5843581"><ele>64.0</ele><time>2026-04-28T09:08:13.767Z</time></trkpt><trkpt lat="43.4251226" lon="13.5842837"><ele>63.0</ele><time>2026-04-28T09:08:14.772Z</time></trkpt><trkpt lat="43.4250438" lon="13.5841832"><ele>62.0</ele><time>2026-04-28T09:08:15.77Z</time></trkpt><trkpt lat="43.4249532" lon="13.5840665"><ele>62.0</ele><time>2026-04-28T09:08:16.769Z</time></trkpt><trkpt lat="43.4248578" lon="13.5839444"><ele>62.0</ele><time>2026-04-28T09:08:17.778Z</time></trkpt><trkpt lat="43.4247554" lon="13.5838151"><ele>62.0</ele><time>2026-04-28T09:08:18.776Z</time></trkpt><trkpt lat="43.424649" lon="13.5836775"><ele>62.0</ele><time>2026-04-28T09:08:19.77Z</time></trkpt><trkpt lat="43.4245385" lon="13.5835296"><ele>63.0</ele><time>2026-04-28T09:08:20.774Z</time></trkpt><trkpt lat="43.4244212" lon="13.583364"><ele>64.0</ele><time>2026-04-28T09:08:21.762Z</time></trkpt><trkpt lat="43.4242931" lon="13.5831873"><ele>65.0</ele><time>2026-04-28T09:08:22.764Z</time></trkpt><trkpt lat="43.4241607" lon="13.5830058"><ele>65.0</ele><time>2026-04-28T09:08:23.776Z</time></trkpt><trkpt lat="43.4240228" lon="13.5828115"><ele>65.0</ele><time>2026-04-28T09:08:24.767Z</time></trkpt><trkpt lat="43.4238809" lon="13.5826151"><ele>65.0</ele><time>2026-04-28T09:08:25.777Z</time></trkpt><trkpt lat="43.4237353" lon="13.5824097"><ele>66.66666666666667</ele><time>2026-04-28T09:08:26.772Z</time></trkpt><trkpt lat="43.4235974" lon="13.5822025"><ele>68.33333333333333</ele><time>2026-04-28T09:08:27.769Z</time></trkpt><trkpt lat="43.4234527" lon="13.5820036"><ele>70.0</ele><time>2026-04-28T09:08:28.776Z</time></trkpt><trkpt lat="43.4233126" lon="13.5818186"><ele>70.0</ele><time>2026-04-28T09:08:29.777Z</time></trkpt><trkpt lat="43.423173" lon="13.5816447"><ele>70.0</ele><time>2026-04-28T09:08:30.774Z</time></trkpt><trkpt lat="43.4230228" lon="13.5814947"><ele>70.0</ele><time>2026-04-28T09:08:31.775Z</time></trkpt><trkpt lat="43.4228658" lon="13.5813718"><ele>72.66666666666666</ele><time>2026-04-28T09:08:32.78Z</time></trkpt><trkpt lat="43.4226989" lon="13.5812689"><ele>75.33333333333333</ele><time>2026-04-28T09:08:33.777Z</time></trkpt><trkpt lat="43.4225363" lon="13.5811846"><ele>78.0</ele><time>2026-04-28T09:08:34.773Z</time></trkpt><trkpt lat="43.4223708" lon="13.5811228"><ele>78.0</ele><time>2026-04-28T09:08:35.77Z</time></trkpt><trkpt lat="43.4222028" lon="13.581105"><ele>78.0</ele><time>2026-04-28T09:08:36.773Z</time></trkpt><trkpt lat="43.4220421" lon="13.5811416"><ele>78.0</ele><time>2026-04-28T09:08:37.785Z</time></trkpt><trkpt lat="43.4218763" lon="13.5812096"><ele>83.0</ele><time>2026-04-28T09:08:38.769Z</time></trkpt><trkpt lat="43.4217124" lon="13.5812948"><ele>88.0</ele><time>2026-04-28T09:08:39.771Z</time></trkpt><trkpt lat="43.4215464" lon="13.581393"><ele>93.0</ele><time>2026-04-28T09:08:40.767Z</time></trkpt><trkpt lat="43.4213752" lon="13.5815182"><ele>92.66666666666667</ele><time>2026-04-28T09:08:41.793Z</time></trkpt><trkpt lat="43.4212144" lon="13.5816597"><ele>92.33333333333334</ele><time>2026-04-28T09:08:42.766Z</time></trkpt><trkpt lat="43.4210724" lon="13.5818328"><ele>92.0</ele><time>2026-04-28T09:08:43.764Z</time></trkpt><trkpt lat="43.4209483" lon="13.5820325"><ele>96.0</ele><time>2026-04-28T09:08:44.769Z</time></trkpt><trkpt lat="43.4208413" lon="13.5822391"><ele>100.0</ele><time>2026-04-28T09:08:45.782Z</time></trkpt><trkpt lat="43.4207532" lon="13.5824431"><ele>104.0</ele><time>2026-04-28T09:08:46.776Z</time></trkpt><trkpt lat="43.4206739" lon="13.5826339"><ele>104.0</ele><time>2026-04-28T09:08:47.774Z</time></trkpt><trkpt lat="43.4205935" lon="13.5828157"><ele>104.0</ele><time>2026-04-28T09:08:48.754Z</time></trkpt><trkpt lat="43.4205166" lon="13.5829946"><ele>104.0</ele><time>2026-04-28T09:08:49.777Z</time></trkpt><trkpt lat="43.4204287" lon="13.5831508"><ele>104.0</ele><time>2026-04-28T09:08:50.772Z</time></trkpt><trkpt lat="43.4203286" lon="13.5832732"><ele>106.25</ele><time>2026-04-28T09:08:51.77Z</time></trkpt><trkpt lat="43.4201899" lon="13.5833468"><ele>108.5</ele><time>2026-04-28T09:08:52.787Z</time></trkpt><trkpt lat="43.420036" lon="13.5833483"><ele>110.75</ele><time>2026-04-28T09:08:53.786Z</time></trkpt><trkpt lat="43.4199019" lon="13.5832832"><ele>113.0</ele><time>2026-04-28T09:08:54.777Z</time></trkpt><trkpt lat="43.4197793" lon="13.5831674"><ele>114.0</ele><time>2026-04-28T09:08:55.78Z</time></trkpt><trkpt lat="43.4196464" lon="13.5830373"><ele>115.0</ele><time>2026-04-28T09:08:56.773Z</time></trkpt><trkpt lat="43.4195036" lon="13.5828907"><ele>116.0</ele><time>2026-04-28T09:08:57.79Z</time></trkpt><trkpt lat="43.419349" lon="13.5827462"><ele>116.0</ele><time>2026-04-28T09:08:58.763Z</time></trkpt><trkpt lat="43.4191971" lon="13.5826013"><ele>116.0</ele><time>2026-04-28T09:08:59.768Z</time></trkpt><trkpt lat="43.4190545" lon="13.582455"><ele>116.0</ele><time>2026-04-28T09:09:00.771Z</time></trkpt><trkpt lat="43.4189281" lon="13.5822994"><ele>116.0</ele><time>2026-04-28T09:09:01.774Z</time></trkpt><trkpt lat="43.4188206" lon="13.5821198"><ele>116.0</ele><time>2026-04-28T09:09:02.77Z</time></trkpt><trkpt lat="43.4187288" lon="13.5819155"><ele>116.0</ele><time>2026-04-28T09:09:03.766Z</time></trkpt><trkpt lat="43.4186465" lon="13.5816984"><ele>119.33333333333333</ele><time>2026-04-28T09:09:04.77Z</time></trkpt><trkpt lat="43.4185628" lon="13.5814874"><ele>122.66666666666666</ele><time>2026-04-28T09:09:05.765Z</time></trkpt><trkpt lat="43.4184699" lon="13.5812716"><ele>126.0</ele><time>2026-04-28T09:09:06.772Z</time></trkpt><trkpt lat="43.4183749" lon="13.5810547"><ele>126.0</ele><time>2026-04-28T09:09:07.774Z</time></trkpt><trkpt lat="43.4182825" lon="13.5808365"><ele>126.0</ele><time>2026-04-28T09:09:08.773Z</time></trkpt><trkpt lat="43.4181925" lon="13.5806169"><ele>126.0</ele><time>2026-04-28T09:09:09.78Z</time></trkpt><trkpt lat="43.4180889" lon="13.580399"><ele>127.66666666666666</ele><time>2026-04-28T09:09:10.773Z</time></trkpt><trkpt lat="43.417983" lon="13.5801752"><ele>129.33333333333331</ele><time>2026-04-28T09:09:11.773Z</time></trkpt><trkpt lat="43.4178708" lon="13.5799459"><ele>131.0</ele><time>2026-04-28T09:09:12.767Z</time></trkpt><trkpt lat="43.4177538" lon="13.579724"><ele>132.66666666666666</ele><time>2026-04-28T09:09:13.771Z</time></trkpt><trkpt lat="43.4176219" lon="13.5795151"><ele>134.33333333333334</ele><time>2026-04-28T09:09:14.768Z</time></trkpt><trkpt lat="43.4174765" lon="13.5793103"><ele>136.0</ele><time>2026-04-28T09:09:15.776Z</time></trkpt><trkpt lat="43.4173245" lon="13.5791157"><ele>136.0</ele><time>2026-04-28T09:09:16.774Z</time></trkpt><trkpt lat="43.417173" lon="13.5789224"><ele>136.0</ele><time>2026-04-28T09:09:17.782Z</time></trkpt><trkpt lat="43.4170234" lon="13.5787301"><ele>136.0</ele><time>2026-04-28T09:09:18.772Z</time></trkpt><trkpt lat="43.4168792" lon="13.5785497"><ele>137.0</ele><time>2026-04-28T09:09:19.78Z</time></trkpt><trkpt lat="43.4167425" lon="13.5783869"><ele>138.0</ele><time>2026-04-28T09:09:20.766Z</time></trkpt><trkpt lat="43.4166148" lon="13.5782284"><ele>139.0</ele><time>2026-04-28T09:09:21.773Z</time></trkpt><trkpt lat="43.4164926" lon="13.5780679"><ele>139.0</ele><time>2026-04-28T09:09:22.766Z</time></trkpt><trkpt lat="43.4163696" lon="13.5779081"><ele>139.0</ele><time>2026-04-28T09:09:23.781Z</time></trkpt><trkpt lat="43.4162545" lon="13.5777525"><ele>139.0</ele><time>2026-04-28T09:09:24.772Z</time></trkpt><trkpt lat="43.4161474" lon="13.5775886"><ele>140.0</ele><time>2026-04-28T09:09:25.772Z</time></trkpt><trkpt lat="43.4160409" lon="13.5774155"><ele>141.0</ele><time>2026-04-28T09:09:26.776Z</time></trkpt><trkpt lat="43.4159314" lon="13.5772391"><ele>142.0</ele><time>2026-04-28T09:09:27.778Z</time></trkpt><trkpt lat="43.4158227" lon="13.5770591"><ele>142.0</ele><time>2026-04-28T09:09:28.8Z</time></trkpt><trkpt lat="43.4157172" lon="13.5768774"><ele>142.0</ele><time>2026-04-28T09:09:29.788Z</time></trkpt><trkpt lat="43.4156216" lon="13.5767105"><ele>142.0</ele><time>2026-04-28T09:09:30.771Z</time></trkpt><trkpt lat="43.4155302" lon="13.5765496"><ele>140.5</ele><time>2026-04-28T09:09:31.776Z</time></trkpt><trkpt lat="43.4154424" lon="13.5764006"><ele>139.0</ele><time>2026-04-28T09:09:32.772Z</time></trkpt><trkpt lat="43.415352" lon="13.576259"><ele>137.5</ele><time>2026-04-28T09:09:33.772Z</time></trkpt><trkpt lat="43.415263" lon="13.5761195"><ele>136.0</ele><time>2026-04-28T09:09:34.774Z</time></trkpt><trkpt lat="43.4151787" lon="13.5759736"><ele>136.0</ele><time>2026-04-28T09:09:35.784Z</time></trkpt><trkpt lat="43.4150997" lon="13.5758338"><ele>136.0</ele><time>2026-04-28T09:09:36.772Z</time></trkpt><trkpt lat="43.4150182" lon="13.5756944"><ele>136.0</ele><time>2026-04-28T09:09:37.782Z</time></trkpt><trkpt lat="43.4149335" lon="13.5755467"><ele>136.0</ele><time>2026-04-28T09:09:38.78Z</time></trkpt><trkpt lat="43.4148459" lon="13.5753948"><ele>136.75</ele><time>2026-04-28T09:09:39.781Z</time></trkpt><trkpt lat="43.4147578" lon="13.5752435"><ele>137.5</ele><time>2026-04-28T09:09:40.774Z</time></trkpt><trkpt lat="43.4146727" lon="13.5750939"><ele>138.25</ele><time>2026-04-28T09:09:41.778Z</time></trkpt><trkpt lat="43.4145837" lon="13.5749405"><ele>139.0</ele><time>2026-04-28T09:09:42.778Z</time></trkpt><trkpt lat="43.4145021" lon="13.5747963"><ele>139.0</ele><time>2026-04-28T09:09:43.779Z</time></trkpt><trkpt lat="43.4144208" lon="13.5746523"><ele>139.0</ele><time>2026-04-28T09:09:44.776Z</time></trkpt><trkpt lat="43.4143351" lon="13.5745036"><ele>139.0</ele><time>2026-04-28T09:09:45.776Z</time></trkpt><trkpt lat="43.4142505" lon="13.5743478"><ele>139.0</ele><time>2026-04-28T09:09:46.776Z</time></trkpt><trkpt lat="43.4141611" lon="13.5741877"><ele>139.75</ele><time>2026-04-28T09:09:47.766Z</time></trkpt><trkpt lat="43.4140726" lon="13.5740277"><ele>140.5</ele><time>2026-04-28T09:09:48.766Z</time></trkpt><trkpt lat="43.4139801" lon="13.5738635"><ele>141.25</ele><time>2026-04-28T09:09:49.775Z</time></trkpt><trkpt lat="43.4138887" lon="13.5736986"><ele>142.0</ele><time>2026-04-28T09:09:50.777Z</time></trkpt><trkpt lat="43.4137926" lon="13.5735419"><ele>143.0</ele><time>2026-04-28T09:09:51.772Z</time></trkpt><trkpt lat="43.4137005" lon="13.5733895"><ele>144.0</ele><time>2026-04-28T09:09:52.773Z</time></trkpt><trkpt lat="43.4136075" lon="13.5732418"><ele>145.0</ele><time>2026-04-28T09:09:53.773Z</time></trkpt><trkpt lat="43.413517" lon="13.5730898"><ele>146.0</ele><time>2026-04-28T09:09:54.767Z</time></trkpt><trkpt lat="43.413425" lon="13.5729389"><ele>146.5</ele><time>2026-04-28T09:09:55.771Z</time></trkpt><trkpt lat="43.4133387" lon="13.5727983"><ele>147.0</ele><time>2026-04-28T09:09:56.769Z</time></trkpt><trkpt lat="43.4132473" lon="13.5726575"><ele>147.5</ele><time>2026-04-28T09:09:57.779Z</time></trkpt><trkpt lat="43.4131536" lon="13.5725157"><ele>148.0</ele><time>2026-04-28T09:09:58.781Z</time></trkpt><trkpt lat="43.4130604" lon="13.5723756"><ele>148.75</ele><time>2026-04-28T09:09:59.772Z</time></trkpt><trkpt lat="43.4129628" lon="13.5722264"><ele>149.5</ele><time>2026-04-28T09:10:00.779Z</time></trkpt><trkpt lat="43.4128642" lon="13.5720813"><ele>150.25</ele><time>2026-04-28T09:10:01.776Z</time></trkpt><trkpt lat="43.4127664" lon="13.5719395"><ele>151.0</ele><time>2026-04-28T09:10:02.763Z</time></trkpt><trkpt lat="43.4126638" lon="13.5718046"><ele>151.5</ele><time>2026-04-28T09:10:03.778Z</time></trkpt><trkpt lat="43.4125592" lon="13.5716747"><ele>152.0</ele><time>2026-04-28T09:10:04.77Z</time></trkpt><trkpt lat="43.4124485" lon="13.571547"><ele>152.5</ele><time>2026-04-28T09:10:05.776Z</time></trkpt><trkpt lat="43.4123391" lon="13.5714215"><ele>153.0</ele><time>2026-04-28T09:10:06.769Z</time></trkpt><trkpt lat="43.4122254" lon="13.571302"><ele>153.5</ele><time>2026-04-28T09:10:07.787Z</time></trkpt><trkpt lat="43.4121075" lon="13.571181"><ele>154.0</ele><time>2026-04-28T09:10:08.79Z</time></trkpt><trkpt lat="43.411984" lon="13.5710633"><ele>154.5</ele><time>2026-04-28T09:10:09.802Z</time></trkpt><trkpt lat="43.4118661" lon="13.5709488"><ele>155.0</ele><time>2026-04-28T09:10:10.774Z</time></trkpt><trkpt lat="43.4117625" lon="13.570841"><ele>155.0</ele><time>2026-04-28T09:10:11.777Z</time></trkpt><trkpt lat="43.4116689" lon="13.5707508"><ele>155.0</ele><time>2026-04-28T09:10:12.772Z</time></trkpt><trkpt lat="43.4115821" lon="13.5706623"><ele>155.0</ele><time>2026-04-28T09:10:13.779Z</time></trkpt><trkpt lat="43.411494" lon="13.5705743"><ele>155.0</ele><time>2026-04-28T09:10:14.778Z</time></trkpt><trkpt lat="43.4114014" lon="13.5704861"><ele>155.0</ele><time>2026-04-28T09:10:15.78Z</time></trkpt><trkpt lat="43.4113058" lon="13.5703971"><ele>156.25</ele><time>2026-04-28T09:10:16.774Z</time></trkpt><trkpt lat="43.4112063" lon="13.5703097"><ele>157.5</ele><time>2026-04-28T09:10:17.776Z</time></trkpt><trkpt lat="43.4111087" lon="13.5702168"><ele>158.75</ele><time>2026-04-28T09:10:18.771Z</time></trkpt><trkpt lat="43.4110102" lon="13.5701251"><ele>160.0</ele><time>2026-04-28T09:10:19.79Z</time></trkpt><trkpt lat="43.410909" lon="13.5700425"><ele>160.0</ele><time>2026-04-28T09:10:20.775Z</time></trkpt><trkpt lat="43.4108091" lon="13.5699711"><ele>160.0</ele><time>2026-04-28T09:10:21.79Z</time></trkpt><trkpt lat="43.4107083" lon="13.569915"><ele>160.0</ele><time>2026-04-28T09:10:22.77Z</time></trkpt><trkpt lat="43.4106082" lon="13.5698635"><ele>160.0</ele><time>2026-04-28T09:10:23.79Z</time></trkpt><trkpt lat="43.4105073" lon="13.5698106"><ele>160.0</ele><time>2026-04-28T09:10:24.778Z</time></trkpt><trkpt lat="43.4104159" lon="13.5697395"><ele>160.8</ele><time>2026-04-28T09:10:25.777Z</time></trkpt><trkpt lat="43.4103346" lon="13.5696529"><ele>161.6</ele><time>2026-04-28T09:10:26.782Z</time></trkpt><trkpt lat="43.4102658" lon="13.5695457"><ele>162.39999999999998</ele><time>2026-04-28T09:10:27.787Z</time></trkpt><trkpt lat="43.4102019" lon="13.5694274"><ele>163.2</ele><time>2026-04-28T09:10:28.784Z</time></trkpt><trkpt lat="43.4101419" lon="13.569312"><ele>164.0</ele><time>2026-04-28T09:10:29.776Z</time></trkpt><trkpt lat="43.4100796" lon="13.5691988"><ele>165.6</ele><time>2026-04-28T09:10:30.774Z</time></trkpt><trkpt lat="43.4100218" lon="13.5690787"><ele>167.2</ele><time>2026-04-28T09:10:31.779Z</time></trkpt><trkpt lat="43.4099611" lon="13.5689584"><ele>168.79999999999998</ele><time>2026-04-28T09:10:32.766Z</time></trkpt><trkpt lat="43.4098992" lon="13.5688396"><ele>170.39999999999998</ele><time>2026-04-28T09:10:33.773Z</time></trkpt><trkpt lat="43.4098355" lon="13.5687208"><ele>172.0</ele><time>2026-04-28T09:10:34.772Z</time></trkpt><trkpt lat="43.4097709" lon="13.568603"><ele>173.2</ele><time>2026-04-28T09:10:35.773Z</time></trkpt><trkpt lat="43.4097036" lon="13.5684829"><ele>174.39999999999998</ele><time>2026-04-28T09:10:36.784Z</time></trkpt><trkpt lat="43.4096348" lon="13.5683607"><ele>175.60000000000002</ele><time>2026-04-28T09:10:37.766Z</time></trkpt><trkpt lat="43.4095644" lon="13.5682427"><ele>176.8</ele><time>2026-04-28T09:10:38.773Z</time></trkpt><trkpt lat="43.4094929" lon="13.568132"><ele>178.0</ele><time>2026-04-28T09:10:39.781Z</time></trkpt><trkpt lat="43.4094197" lon="13.5680268"><ele>178.60000000000002</ele><time>2026-04-28T09:10:40.772Z</time></trkpt><trkpt lat="43.4093457" lon="13.5679257"><ele>179.20000000000002</ele><time>2026-04-28T09:10:41.76Z</time></trkpt><trkpt lat="43.4092708" lon="13.5678193"><ele>179.8</ele><time>2026-04-28T09:10:42.769Z</time></trkpt><trkpt lat="43.4091919" lon="13.5677162"><ele>180.4</ele><time>2026-04-28T09:10:43.773Z</time></trkpt><trkpt lat="43.4091066" lon="13.5676057"><ele>181.0</ele><time>2026-04-28T09:10:44.773Z</time></trkpt><trkpt lat="43.4090186" lon="13.5674906"><ele>182.0</ele><time>2026-04-28T09:10:45.777Z</time></trkpt><trkpt lat="43.4089327" lon="13.5673691"><ele>183.0</ele><time>2026-04-28T09:10:46.772Z</time></trkpt><trkpt lat="43.4088444" lon="13.5672497"><ele>184.0</ele><time>2026-04-28T09:10:47.772Z</time></trkpt><trkpt lat="43.4087538" lon="13.5671323"><ele>185.0</ele><time>2026-04-28T09:10:48.753Z</time></trkpt><trkpt lat="43.4086641" lon="13.5670104"><ele>188.0</ele><time>2026-04-28T09:10:49.782Z</time></trkpt><trkpt lat="43.4085695" lon="13.5668878"><ele>191.0</ele><time>2026-04-28T09:10:50.77Z</time></trkpt><trkpt lat="43.4084756" lon="13.5667663"><ele>194.0</ele><time>2026-04-28T09:10:51.78Z</time></trkpt><trkpt lat="43.4083778" lon="13.5666533"><ele>197.0</ele><time>2026-04-28T09:10:52.771Z</time></trkpt><trkpt lat="43.4082778" lon="13.5665544"><ele>197.0</ele><time>2026-04-28T09:10:53.775Z</time></trkpt><trkpt lat="43.4081763" lon="13.5664573"><ele>197.0</ele><time>2026-04-28T09:10:54.775Z</time></trkpt><trkpt lat="43.4080687" lon="13.5663667"><ele>197.0</ele><time>2026-04-28T09:10:55.807Z</time></trkpt><trkpt lat="43.4079621" lon="13.5662712"><ele>197.0</ele><time>2026-04-28T09:10:56.783Z</time></trkpt><trkpt lat="43.4078615" lon="13.5661765"><ele>198.6</ele><time>2026-04-28T09:10:57.783Z</time></trkpt><trkpt lat="43.4077646" lon="13.5660856"><ele>200.2</ele><time>2026-04-28T09:10:58.78Z</time></trkpt><trkpt lat="43.4076713" lon="13.5660027"><ele>201.8</ele><time>2026-04-28T09:10:59.78Z</time></trkpt><trkpt lat="43.4075801" lon="13.5659256"><ele>203.4</ele><time>2026-04-28T09:11:00.765Z</time></trkpt><trkpt lat="43.4074838" lon="13.5658412"><ele>205.0</ele><time>2026-04-28T09:11:01.776Z</time></trkpt><trkpt lat="43.407385" lon="13.5657609"><ele>205.0</ele><time>2026-04-28T09:11:02.768Z</time></trkpt><trkpt lat="43.4072848" lon="13.5656722"><ele>205.0</ele><time>2026-04-28T09:11:03.777Z</time></trkpt><trkpt lat="43.4071776" lon="13.5655789"><ele>205.0</ele><time>2026-04-28T09:11:04.765Z</time></trkpt><trkpt lat="43.407069" lon="13.5654798"><ele>205.0</ele><time>2026-04-28T09:11:05.765Z</time></trkpt><trkpt lat="43.4069568" lon="13.5653868"><ele>207.0</ele><time>2026-04-28T09:11:06.773Z</time></trkpt><trkpt lat="43.4068404" lon="13.5652911"><ele>209.0</ele><time>2026-04-28T09:11:07.779Z</time></trkpt><trkpt lat="43.4067204" lon="13.5651967"><ele>211.0</ele><time>2026-04-28T09:11:08.767Z</time></trkpt><trkpt lat="43.4066003" lon="13.5650982"><ele>213.0</ele><time>2026-04-28T09:11:09.772Z</time></trkpt><trkpt lat="43.40648" lon="13.5650001"><ele>213.0</ele><time>2026-04-28T09:11:10.776Z</time></trkpt><trkpt lat="43.4063568" lon="13.5649"><ele>213.0</ele><time>2026-04-28T09:11:11.77Z</time></trkpt><trkpt lat="43.4062306" lon="13.5648011"><ele>213.0</ele><time>2026-04-28T09:11:12.777Z</time></trkpt><trkpt lat="43.406107" lon="13.5646985"><ele>213.0</ele><time>2026-04-28T09:11:13.774Z</time></trkpt><trkpt lat="43.4059843" lon="13.5645927"><ele>216.25</ele><time>2026-04-28T09:11:14.765Z</time></trkpt><trkpt lat="43.4058673" lon="13.5644939"><ele>219.5</ele><time>2026-04-28T09:11:15.778Z</time></trkpt><trkpt lat="43.4057597" lon="13.5644077"><ele>222.75</ele><time>2026-04-28T09:11:16.769Z</time></trkpt><trkpt lat="43.4056591" lon="13.5643249"><ele>226.0</ele><time>2026-04-28T09:11:17.779Z</time></trkpt><trkpt lat="43.4055577" lon="13.5642408"><ele>226.20000000000002</ele><time>2026-04-28T09:11:18.773Z</time></trkpt><trkpt lat="43.4054614" lon="13.564149"><ele>226.40000000000003</ele><time>2026-04-28T09:11:19.772Z</time></trkpt><trkpt lat="43.4053681" lon="13.5640638"><ele>226.6</ele><time>2026-04-28T09:11:20.779Z</time></trkpt><trkpt lat="43.4052915" lon="13.5639716"><ele>226.8</ele><time>2026-04-28T09:11:21.776Z</time></trkpt><trkpt lat="43.4052207" lon="13.5638649"><ele>227.0</ele><time>2026-04-28T09:11:22.765Z</time></trkpt><trkpt lat="43.4051584" lon="13.5637456"><ele>227.8</ele><time>2026-04-28T09:11:23.773Z</time></trkpt><trkpt lat="43.4051121" lon="13.5636073"><ele>228.6</ele><time>2026-04-28T09:11:24.773Z</time></trkpt><trkpt lat="43.4050889" lon="13.56346"><ele>229.40000000000003</ele><time>2026-04-28T09:11:25.776Z</time></trkpt><trkpt lat="43.4050793" lon="13.5633039"><ele>230.20000000000002</ele><time>2026-04-28T09:11:26.769Z</time></trkpt><trkpt lat="43.4050737" lon="13.5631559"><ele>231.0</ele><time>2026-04-28T09:11:27.779Z</time></trkpt><trkpt lat="43.4050802" lon="13.5630095"><ele>231.0</ele><time>2026-04-28T09:11:28.767Z</time></trkpt><trkpt lat="43.4050925" lon="13.5628658"><ele>231.00000000000003</ele><time>2026-04-28T09:11:29.777Z</time></trkpt><trkpt lat="43.4051052" lon="13.5627281"><ele>231.00000000000003</ele><time>2026-04-28T09:11:30.78Z</time></trkpt><trkpt lat="43.4051201" lon="13.562586"><ele>231.0</ele><time>2026-04-28T09:11:31.777Z</time></trkpt><trkpt lat="43.4051365" lon="13.5624443"><ele>231.0</ele><time>2026-04-28T09:11:32.769Z</time></trkpt><trkpt lat="43.405146" lon="13.5623052"><ele>231.60000000000002</ele><time>2026-04-28T09:11:33.771Z</time></trkpt><trkpt lat="43.4051432" lon="13.5621627"><ele>232.20000000000002</ele><time>2026-04-28T09:11:34.774Z</time></trkpt><trkpt lat="43.4051288" lon="13.5620196"><ele>232.79999999999998</ele><time>2026-04-28T09:11:35.778Z</time></trkpt><trkpt lat="43.4051056" lon="13.5618798"><ele>233.39999999999998</ele><time>2026-04-28T09:11:36.765Z</time></trkpt><trkpt lat="43.405078" lon="13.5617587"><ele>234.0</ele><time>2026-04-28T09:11:37.773Z</time></trkpt><trkpt lat="43.4050612" lon="13.5616462"><ele>234.0</ele><time>2026-04-28T09:11:38.772Z</time></trkpt><trkpt lat="43.4050619" lon="13.5615367"><ele>234.0</ele><time>2026-04-28T09:11:39.782Z</time></trkpt><trkpt lat="43.4050758" lon="13.561437"><ele>234.0</ele><time>2026-04-28T09:11:40.77Z</time></trkpt><trkpt lat="43.4050817" lon="13.5613327"><ele>234.0</ele><time>2026-04-28T09:11:41.779Z</time></trkpt><trkpt lat="43.4050504" lon="13.5612551"><ele>234.0</ele><time>2026-04-28T09:11:42.782Z</time></trkpt><trkpt lat="43.4049874" lon="13.5612029"><ele>234.0</ele><time>2026-04-28T09:11:43.776Z</time></trkpt><trkpt lat="43.4049134" lon="13.5611366"><ele>234.0</ele><time>2026-04-28T09:11:44.759Z</time></trkpt><trkpt lat="43.4048618" lon="13.5610206"><ele>233.99999999999997</ele><time>2026-04-28T09:11:45.784Z</time></trkpt><trkpt lat="43.4048175" lon="13.5608827"><ele>233.99999999999997</ele><time>2026-04-28T09:11:46.768Z</time></trkpt><trkpt lat="43.4047807" lon="13.5607515"><ele>234.0</ele><time>2026-04-28T09:11:47.774Z</time></trkpt><trkpt lat="43.4047407" lon="13.5606206"><ele>234.0</ele><time>2026-04-28T09:11:48.776Z</time></trkpt><trkpt lat="43.4046952" lon="13.56049"><ele>234.2</ele><time>2026-04-28T09:11:49.769Z</time></trkpt><trkpt lat="43.4046478" lon="13.5603529"><ele>234.39999999999998</ele><time>2026-04-28T09:11:50.765Z</time></trkpt><trkpt lat="43.4045969" lon="13.5602165"><ele>234.6</ele><time>2026-04-28T09:11:51.777Z</time></trkpt><trkpt lat="43.4045501" lon="13.5600838"><ele>234.8</ele><time>2026-04-28T09:11:52.767Z</time></trkpt><trkpt lat="43.4044965" lon="13.5599548"><ele>235.0</ele><time>2026-04-28T09:11:53.775Z</time></trkpt><trkpt lat="43.4044376" lon="13.5598311"><ele>235.0</ele><time>2026-04-28T09:11:54.761Z</time></trkpt><trkpt lat="43.4043744" lon="13.5597016"><ele>235.0</ele><time>2026-04-28T09:11:55.769Z</time></trkpt><trkpt lat="43.4043106" lon="13.559582"><ele>235.0</ele><time>2026-04-28T09:11:56.774Z</time></trkpt><trkpt lat="43.4042402" lon="13.5594649"><ele>235.0</ele><time>2026-04-28T09:11:57.779Z</time></trkpt><trkpt lat="43.4041648" lon="13.5593473"><ele>235.0</ele><time>2026-04-28T09:11:58.771Z</time></trkpt><trkpt lat="43.4040932" lon="13.5592395"><ele>234.8</ele><time>2026-04-28T09:11:59.783Z</time></trkpt><trkpt lat="43.4040183" lon="13.5591319"><ele>234.6</ele><time>2026-04-28T09:12:00.766Z</time></trkpt><trkpt lat="43.4039475" lon="13.5590236"><ele>234.39999999999998</ele><time>2026-04-28T09:12:01.769Z</time></trkpt><trkpt lat="43.4038778" lon="13.5589177"><ele>234.2</ele><time>2026-04-28T09:12:02.77Z</time></trkpt><trkpt lat="43.40381" lon="13.5588164"><ele>234.0</ele><time>2026-04-28T09:12:03.78Z</time></trkpt><trkpt lat="43.4037431" lon="13.5587203"><ele>235.79999999999998</ele><time>2026-04-28T09:12:04.765Z</time></trkpt><trkpt lat="43.4036748" lon="13.5586237"><ele>237.59999999999997</ele><time>2026-04-28T09:12:05.764Z</time></trkpt><trkpt lat="43.4036126" lon="13.5585237"><ele>239.4</ele><time>2026-04-28T09:12:06.773Z</time></trkpt><trkpt lat="43.4035468" lon="13.5584294"><ele>241.2</ele><time>2026-04-28T09:12:07.775Z</time></trkpt><trkpt lat="43.4034885" lon="13.5583375"><ele>243.0</ele><time>2026-04-28T09:12:08.765Z</time></trkpt><trkpt lat="43.4034367" lon="13.5582499"><ele>243.0</ele><time>2026-04-28T09:12:09.773Z</time></trkpt><trkpt lat="43.4033909" lon="13.5581707"><ele>243.0</ele><time>2026-04-28T09:12:10.78Z</time></trkpt><trkpt lat="43.4033487" lon="13.5580865"><ele>243.0</ele><time>2026-04-28T09:12:11.779Z</time></trkpt><trkpt lat="43.4033047" lon="13.5579957"><ele>243.0</ele><time>2026-04-28T09:12:12.761Z</time></trkpt><trkpt lat="43.4032608" lon="13.5579003"><ele>243.0</ele><time>2026-04-28T09:12:13.768Z</time></trkpt><trkpt lat="43.4032153" lon="13.5578077"><ele>243.0</ele><time>2026-04-28T09:12:14.765Z</time></trkpt><trkpt lat="43.4031753" lon="13.5577135"><ele>244.16666666666666</ele><time>2026-04-28T09:12:15.776Z</time></trkpt><trkpt lat="43.4031362" lon="13.5576187"><ele>245.33333333333331</ele><time>2026-04-28T09:12:16.771Z</time></trkpt><trkpt lat="43.4031058" lon="13.5575206"><ele>246.5</ele><time>2026-04-28T09:12:17.778Z</time></trkpt><trkpt lat="43.4030831" lon="13.5574173"><ele>247.66666666666666</ele><time>2026-04-28T09:12:18.78Z</time></trkpt><trkpt lat="43.4030722" lon="13.5573136"><ele>248.83333333333331</ele><time>2026-04-28T09:12:19.767Z</time></trkpt><trkpt lat="43.403065" lon="13.5572061"><ele>250.0</ele><time>2026-04-28T09:12:20.766Z</time></trkpt><trkpt lat="43.4030608" lon="13.5571013"><ele>250.28571428571428</ele><time>2026-04-28T09:12:21.768Z</time></trkpt><trkpt lat="43.403052" lon="13.5570039"><ele>250.57142857142858</ele><time>2026-04-28T09:12:22.777Z</time></trkpt><trkpt lat="43.4030425" lon="13.5569127"><ele>250.85714285714286</ele><time>2026-04-28T09:12:23.796Z</time></trkpt><trkpt lat="43.4030355" lon="13.5568234"><ele>251.14285714285714</ele><time>2026-04-28T09:12:24.76Z</time></trkpt><trkpt lat="43.4030262" lon="13.5567314"><ele>251.42857142857144</ele><time>2026-04-28T09:12:25.782Z</time></trkpt><trkpt lat="43.4030172" lon="13.5566365"><ele>251.71428571428572</ele><time>2026-04-28T09:12:26.763Z</time></trkpt><trkpt lat="43.40301" lon="13.556542"><ele>252.0</ele><time>2026-04-28T09:12:27.781Z</time></trkpt><trkpt lat="43.4030089" lon="13.5564405"><ele>252.0</ele><time>2026-04-28T09:12:28.771Z</time></trkpt><trkpt lat="43.4030043" lon="13.556346"><ele>252.0</ele><time>2026-04-28T09:12:29.769Z</time></trkpt><trkpt lat="43.403004" lon="13.5562449"><ele>252.0</ele><time>2026-04-28T09:12:30.773Z</time></trkpt><trkpt lat="43.4029961" lon="13.5561378"><ele>252.0</ele><time>2026-04-28T09:12:31.768Z</time></trkpt><trkpt lat="43.4029804" lon="13.5560243"><ele>252.0</ele><time>2026-04-28T09:12:32.771Z</time></trkpt><trkpt lat="43.4029597" lon="13.5559062"><ele>252.0</ele><time>2026-04-28T09:12:33.765Z</time></trkpt><trkpt lat="43.4029314" lon="13.5557886"><ele>253.39999999999998</ele><time>2026-04-28T09:12:34.781Z</time></trkpt><trkpt lat="43.4028982" lon="13.5556695"><ele>254.79999999999998</ele><time>2026-04-28T09:12:35.78Z</time></trkpt><trkpt lat="43.4028618" lon="13.555551"><ele>256.2</ele><time>2026-04-28T09:12:36.763Z</time></trkpt><trkpt lat="43.4028297" lon="13.5554348"><ele>257.59999999999997</ele><time>2026-04-28T09:12:37.789Z</time></trkpt><trkpt lat="43.4027978" lon="13.5553207"><ele>259.0</ele><time>2026-04-28T09:12:38.77Z</time></trkpt><trkpt lat="43.4027626" lon="13.5552027"><ele>260.3333333333333</ele><time>2026-04-28T09:12:39.768Z</time></trkpt><trkpt lat="43.4027268" lon="13.5550945"><ele>261.66666666666663</ele><time>2026-04-28T09:12:40.768Z</time></trkpt><trkpt lat="43.4026893" lon="13.5549872"><ele>263.0</ele><time>2026-04-28T09:12:41.778Z</time></trkpt><trkpt lat="43.40265" lon="13.5548841"><ele>264.3333333333333</ele><time>2026-04-28T09:12:42.783Z</time></trkpt><trkpt lat="43.4026108" lon="13.5547816"><ele>265.6666666666667</ele><time>2026-04-28T09:12:43.783Z</time></trkpt><trkpt lat="43.4025664" lon="13.5546774"><ele>267.0</ele><time>2026-04-28T09:12:44.788Z</time></trkpt><trkpt lat="43.4025233" lon="13.5545729"><ele>268.28571428571433</ele><time>2026-04-28T09:12:45.773Z</time></trkpt><trkpt lat="43.4024844" lon="13.5544745"><ele>269.57142857142856</ele><time>2026-04-28T09:12:46.774Z</time></trkpt><trkpt lat="43.4024523" lon="13.5543863"><ele>270.8571428571429</ele><time>2026-04-28T09:12:47.777Z</time></trkpt><trkpt lat="43.4024187" lon="13.5543007"><ele>272.14285714285717</ele><time>2026-04-28T09:12:48.772Z</time></trkpt><trkpt lat="43.4023846" lon="13.5542185"><ele>273.42857142857144</ele><time>2026-04-28T09:12:49.784Z</time></trkpt><trkpt lat="43.4023497" lon="13.5541298"><ele>274.7142857142857</ele><time>2026-04-28T09:12:50.77Z</time></trkpt><trkpt lat="43.4023217" lon="13.5540337"><ele>276.0</ele><time>2026-04-28T09:12:51.785Z</time></trkpt><trkpt lat="43.4023019" lon="13.5539294"><ele>276.0</ele><time>2026-04-28T09:12:52.774Z</time></trkpt><trkpt lat="43.4023081" lon="13.5538175"><ele>276.0</ele><time>2026-04-28T09:12:53.79Z</time></trkpt><trkpt lat="43.4023339" lon="13.5537033"><ele>276.0</ele><time>2026-04-28T09:12:54.777Z</time></trkpt><trkpt lat="43.4023693" lon="13.5535957"><ele>276.0</ele><time>2026-04-28T09:12:55.769Z</time></trkpt><trkpt lat="43.4023906" lon="13.553491"><ele>276.0</ele><time>2026-04-28T09:12:56.771Z</time></trkpt><trkpt lat="43.4024141" lon="13.5533944"><ele>276.0</ele><time>2026-04-28T09:12:57.776Z</time></trkpt><trkpt lat="43.4024351" lon="13.5532975"><ele>276.7142857142857</ele><time>2026-04-28T09:12:58.764Z</time></trkpt><trkpt lat="43.4024494" lon="13.5532026"><ele>277.42857142857144</ele><time>2026-04-28T09:12:59.779Z</time></trkpt><trkpt lat="43.4024581" lon="13.5531085"><ele>278.14285714285717</ele><time>2026-04-28T09:13:00.766Z</time></trkpt><trkpt lat="43.4024678" lon="13.553012"><ele>278.8571428571429</ele><time>2026-04-28T09:13:01.759Z</time></trkpt><trkpt lat="43.4024876" lon="13.5529176"><ele>279.57142857142856</ele><time>2026-04-28T09:13:02.778Z</time></trkpt><trkpt lat="43.4025031" lon="13.5528174"><ele>280.28571428571433</ele><time>2026-04-28T09:13:03.772Z</time></trkpt><trkpt lat="43.4025144" lon="13.5527145"><ele>281.0</ele><time>2026-04-28T09:13:04.763Z</time></trkpt><trkpt lat="43.402525" lon="13.552602"><ele>282.0</ele><time>2026-04-28T09:13:05.783Z</time></trkpt><trkpt lat="43.4025369" lon="13.5524772"><ele>283.0</ele><time>2026-04-28T09:13:06.764Z</time></trkpt><trkpt lat="43.4025522" lon="13.5523431"><ele>284.0</ele><time>2026-04-28T09:13:07.76Z</time></trkpt><trkpt lat="43.4025711" lon="13.5522003"><ele>285.0</ele><time>2026-04-28T09:13:08.755Z</time></trkpt><trkpt lat="43.4026001" lon="13.5520563"><ele>286.0</ele><time>2026-04-28T09:13:09.766Z</time></trkpt><trkpt lat="43.4026279" lon="13.551918"><ele>287.16666666666663</ele><time>2026-04-28T09:13:10.757Z</time></trkpt><trkpt lat="43.4026548" lon="13.5517909"><ele>288.3333333333333</ele><time>2026-04-28T09:13:11.781Z</time></trkpt><trkpt lat="43.4026792" lon="13.5516727"><ele>289.5</ele><time>2026-04-28T09:13:12.772Z</time></trkpt><trkpt lat="43.4026996" lon="13.5515688"><ele>290.6666666666667</ele><time>2026-04-28T09:13:13.779Z</time></trkpt><trkpt lat="43.40272" lon="13.5514775"><ele>291.83333333333337</ele><time>2026-04-28T09:13:14.77Z</time></trkpt><trkpt lat="43.4027397" lon="13.5513916"><ele>293.0</ele><time>2026-04-28T09:13:15.769Z</time></trkpt><trkpt lat="43.4027733" lon="13.551237"><ele>293.8</ele><time>2026-04-28T09:13:17.78Z</time></trkpt><trkpt lat="43.4028009" lon="13.5510914"><ele>294.6</ele><time>2026-04-28T09:13:19.769Z</time></trkpt><trkpt lat="43.4028436" lon="13.5509117"><ele>295.4</ele><time>2026-04-28T09:13:21.765Z</time></trkpt><trkpt lat="43.4028689" lon="13.5508092"><ele>296.2</ele><time>2026-04-28T09:13:22.761Z</time></trkpt><trkpt lat="43.4028915" lon="13.5507204"><ele>297.0</ele><time>2026-04-28T09:13:23.768Z</time></trkpt><trkpt lat="43.4029344" lon="13.5505751"><ele>297.0</ele><time>2026-04-28T09:13:25.764Z</time></trkpt><trkpt lat="43.402992" lon="13.5504091"><ele>297.0</ele><time>2026-04-28T09:13:27.773Z</time></trkpt><trkpt lat="43.4030273" lon="13.5503164"><ele>297.0</ele><time>2026-04-28T09:13:28.769Z</time></trkpt><trkpt lat="43.4030653" lon="13.550225"><ele>297.0</ele><time>2026-04-28T09:13:29.76Z</time></trkpt><trkpt lat="43.4031025" lon="13.5501246"><ele>297.0</ele><time>2026-04-28T09:13:30.767Z</time></trkpt><trkpt lat="43.4031415" lon="13.5500281"><ele>297.0</ele><time>2026-04-28T09:13:31.77Z</time></trkpt><trkpt lat="43.4031861" lon="13.5499315"><ele>296.57142857142856</ele><time>2026-04-28T09:13:32.755Z</time></trkpt><trkpt lat="43.4032279" lon="13.5498526"><ele>296.14285714285717</ele><time>2026-04-28T09:13:33.768Z</time></trkpt><trkpt lat="43.4032747" lon="13.5497822"><ele>295.7142857142857</ele><time>2026-04-28T09:13:34.766Z</time></trkpt><trkpt lat="43.4033258" lon="13.5497123"><ele>295.2857142857143</ele><time>2026-04-28T09:13:35.761Z</time></trkpt><trkpt lat="43.4033765" lon="13.5496604"><ele>294.8571428571429</ele><time>2026-04-28T09:13:36.762Z</time></trkpt><trkpt lat="43.4034298" lon="13.549606"><ele>294.42857142857144</ele><time>2026-04-28T09:13:38.769Z</time></trkpt><trkpt lat="43.4034979" lon="13.5495301"><ele>294.0</ele><time>2026-04-28T09:13:44.774Z</time></trkpt><trkpt lat="43.4035574" lon="13.5494454"><ele>294.0</ele><time>2026-04-28T09:13:46.765Z</time></trkpt><trkpt lat="43.4036488" lon="13.5493581"><ele>294.0</ele><time>2026-04-28T09:13:48.76Z</time></trkpt><trkpt lat="43.4037058" lon="13.5493097"><ele>294.0</ele><time>2026-04-28T09:13:49.761Z</time></trkpt><trkpt lat="43.4037636" lon="13.54926"><ele>294.0</ele><time>2026-04-28T09:13:50.755Z</time></trkpt><trkpt lat="43.4038246" lon="13.5492031"><ele>294.0</ele><time>2026-04-28T09:13:51.771Z</time></trkpt><trkpt lat="43.4038861" lon="13.5491439"><ele>294.0</ele><time>2026-04-28T09:13:52.765Z</time></trkpt><trkpt lat="43.4039559" lon="13.5490852"><ele>292.42857142857144</ele><time>2026-04-28T09:13:53.758Z</time></trkpt><trkpt lat="43.4040234" lon="13.5490334"><ele>290.8571428571429</ele><time>2026-04-28T09:13:54.763Z</time></trkpt><trkpt lat="43.4040874" lon="13.5489868"><ele>289.2857142857143</ele><time>2026-04-28T09:13:55.763Z</time></trkpt><trkpt lat="43.4041446" lon="13.5489481"><ele>287.7142857142857</ele><time>2026-04-28T09:13:56.759Z</time></trkpt><trkpt lat="43.4041989" lon="13.5489008"><ele>286.14285714285717</ele><time>2026-04-28T09:13:57.762Z</time></trkpt><trkpt lat="43.4042597" lon="13.548851"><ele>284.57142857142856</ele><time>2026-04-28T09:13:58.764Z</time></trkpt><trkpt lat="43.4043255" lon="13.5488072"><ele>283.0</ele><time>2026-04-28T09:13:59.772Z</time></trkpt><trkpt lat="43.4043945" lon="13.5487554"><ele>282.66666666666663</ele><time>2026-04-28T09:14:00.76Z</time></trkpt><trkpt lat="43.4044648" lon="13.5486973"><ele>282.3333333333333</ele><time>2026-04-28T09:14:01.771Z</time></trkpt><trkpt lat="43.4045323" lon="13.5486393"><ele>282.0</ele><time>2026-04-28T09:14:02.765Z</time></trkpt><trkpt lat="43.4046061" lon="13.5485779"><ele>281.6666666666667</ele><time>2026-04-28T09:14:03.771Z</time></trkpt><trkpt lat="43.4046769" lon="13.5485176"><ele>281.33333333333337</ele><time>2026-04-28T09:14:04.767Z</time></trkpt><trkpt lat="43.4047524" lon="13.5484493"><ele>281.0</ele><time>2026-04-28T09:14:05.774Z</time></trkpt><trkpt lat="43.4048297" lon="13.548384"><ele>281.0</ele><time>2026-04-28T09:14:06.773Z</time></trkpt><trkpt lat="43.4049083" lon="13.5483158"><ele>281.0</ele><time>2026-04-28T09:14:07.776Z</time></trkpt><trkpt lat="43.4049836" lon="13.5482555"><ele>281.0</ele><time>2026-04-28T09:14:08.774Z</time></trkpt><trkpt lat="43.4050571" lon="13.5482"><ele>281.0</ele><time>2026-04-28T09:14:09.774Z</time></trkpt><trkpt lat="43.4051345" lon="13.548151"><ele>281.0</ele><time>2026-04-28T09:14:10.777Z</time></trkpt><trkpt lat="43.4052164" lon="13.5481163"><ele>281.0</ele><time>2026-04-28T09:14:11.776Z</time></trkpt><trkpt lat="43.4053" lon="13.5480826"><ele>281.0</ele><time>2026-04-28T09:14:12.765Z</time></trkpt><trkpt lat="43.4053901" lon="13.5480516"><ele>281.0</ele><time>2026-04-28T09:14:13.764Z</time></trkpt><trkpt lat="43.4054781" lon="13.5480161"><ele>281.0</ele><time>2026-04-28T09:14:14.762Z</time></trkpt><trkpt lat="43.405566" lon="13.5479725"><ele>281.0</ele><time>2026-04-28T09:14:15.778Z</time></trkpt><trkpt lat="43.4056523" lon="13.5479325"><ele>281.0</ele><time>2026-04-28T09:14:16.778Z</time></trkpt><trkpt lat="43.4057396" lon="13.547892"><ele>282.2</ele><time>2026-04-28T09:14:17.77Z</time></trkpt><trkpt lat="43.4058245" lon="13.5478447"><ele>283.40000000000003</ele><time>2026-04-28T09:14:18.772Z</time></trkpt><trkpt lat="43.4059157" lon="13.5477995"><ele>284.6</ele><time>2026-04-28T09:14:19.769Z</time></trkpt><trkpt lat="43.4060046" lon="13.5477528"><ele>285.8</ele><time>2026-04-28T09:14:20.761Z</time></trkpt><trkpt lat="43.4060918" lon="13.5477085"><ele>287.0</ele><time>2026-04-28T09:14:21.772Z</time></trkpt><trkpt lat="43.4061786" lon="13.5476673"><ele>287.0</ele><time>2026-04-28T09:14:22.788Z</time></trkpt><trkpt lat="43.4062654" lon="13.5476244"><ele>287.0</ele><time>2026-04-28T09:14:23.775Z</time></trkpt><trkpt lat="43.4063517" lon="13.5475789"><ele>287.0</ele><time>2026-04-28T09:14:24.77Z</time></trkpt><trkpt lat="43.406435" lon="13.5475369"><ele>287.0</ele><time>2026-04-28T09:14:25.774Z</time></trkpt><trkpt lat="43.4065124" lon="13.5474901"><ele>287.0</ele><time>2026-04-28T09:14:26.767Z</time></trkpt><trkpt lat="43.4065805" lon="13.5474562"><ele>287.0</ele><time>2026-04-28T09:14:27.767Z</time></trkpt><trkpt lat="43.406678" lon="13.547388"><ele>287.0</ele><time>2026-04-28T09:14:29.789Z</time></trkpt><trkpt lat="43.4066813" lon="13.547282"><ele>287.0</ele><time>2026-04-28T09:14:31.767Z</time></trkpt><trkpt lat="43.4065899" lon="13.5472172"><ele>287.0</ele><time>2026-04-28T09:14:33.769Z</time></trkpt><trkpt lat="43.4065326" lon="13.5471783"><ele>287.0</ele><time>2026-04-28T09:14:34.776Z</time></trkpt><trkpt lat="43.4064687" lon="13.5471342"><ele>287.0</ele><time>2026-04-28T09:14:35.769Z</time></trkpt><trkpt lat="43.406392" lon="13.5470978"><ele>287.0</ele><time>2026-04-28T09:14:36.762Z</time></trkpt><trkpt lat="43.4063028" lon="13.5470799"><ele>287.0</ele><time>2026-04-28T09:14:37.762Z</time></trkpt><trkpt lat="43.406213" lon="13.5470872"><ele>287.0</ele><time>2026-04-28T09:14:38.775Z</time></trkpt><trkpt lat="43.4061307" lon="13.547095"><ele>287.0</ele><time>2026-04-28T09:14:39.769Z</time></trkpt><trkpt lat="43.4060452" lon="13.5471003"><ele>287.0</ele><time>2026-04-28T09:14:40.778Z</time></trkpt><trkpt lat="43.4059586" lon="13.5471088"><ele>287.0</ele><time>2026-04-28T09:14:41.762Z</time></trkpt><trkpt lat="43.4058802" lon="13.5471343"><ele>287.0</ele><time>2026-04-28T09:14:42.76Z</time></trkpt><trkpt lat="43.4058082" lon="13.5471439"><ele>287.0</ele><time>2026-04-28T09:14:43.767Z</time></trkpt><trkpt lat="43.4056955" lon="13.5471654"><ele>287.0</ele><time>2026-04-28T09:14:45.765Z</time></trkpt><trkpt lat="43.405589" lon="13.5471967"><ele>287.0</ele><time>2026-04-28T09:14:47.76Z</time></trkpt><trkpt lat="43.4055051" lon="13.5472293"><ele>287.0</ele><time>2026-04-28T09:14:49.766Z</time></trkpt><trkpt lat="43.4054146" lon="13.5472741"><ele>287.0</ele><time>2026-04-28T09:14:51.772Z</time></trkpt><trkpt lat="43.4053123" lon="13.5473282"><ele>286.6666666666667</ele><time>2026-04-28T09:14:53.771Z</time></trkpt><trkpt lat="43.4052282" lon="13.5473768"><ele>286.33333333333337</ele><time>2026-04-28T09:14:55.766Z</time></trkpt><trkpt lat="43.405149" lon="13.5474159"><ele>286.0</ele><time>2026-04-28T09:14:58.772Z</time></trkpt><trkpt lat="43.4050881" lon="13.5474428"><ele>285.6666666666667</ele><time>2026-04-28T09:15:01.77Z</time></trkpt><trkpt lat="43.4049978" lon="13.5474928"><ele>285.3333333333333</ele><time>2026-04-28T09:15:03.779Z</time></trkpt><trkpt lat="43.4049014" lon="13.5475402"><ele>285.0</ele><time>2026-04-28T09:15:05.775Z</time></trkpt><trkpt lat="43.4047942" lon="13.5475838"><ele>285.0</ele><time>2026-04-28T09:15:07.77Z</time></trkpt><trkpt lat="43.404702" lon="13.5476247"><ele>285.0</ele><time>2026-04-28T09:15:09.769Z</time></trkpt><trkpt lat="43.4045996" lon="13.5476666"><ele>285.0</ele><time>2026-04-28T09:15:11.781Z</time></trkpt><trkpt lat="43.4045018" lon="13.5477112"><ele>285.0</ele><time>2026-04-28T09:15:13.769Z</time></trkpt><trkpt lat="43.4044173" lon="13.5477386"><ele>285.0</ele><time>2026-04-28T09:15:15.773Z</time></trkpt><trkpt lat="43.4043438" lon="13.5477659"><ele>285.0</ele><time>2026-04-28T09:15:17.779Z</time></trkpt><trkpt lat="43.4042594" lon="13.5478005"><ele>285.0</ele><time>2026-04-28T09:15:19.77Z</time></trkpt><trkpt lat="43.4041747" lon="13.547835"><ele>285.0</ele><time>2026-04-28T09:15:21.769Z</time></trkpt><trkpt lat="43.4040974" lon="13.5478817"><ele>285.0</ele><time>2026-04-28T09:15:23.781Z</time></trkpt><trkpt lat="43.4040278" lon="13.5479488"><ele>285.0</ele><time>2026-04-28T09:15:26.777Z</time></trkpt><trkpt lat="43.4039447" lon="13.5480127"><ele>285.0</ele><time>2026-04-28T09:15:29.781Z</time></trkpt><trkpt lat="43.4038847" lon="13.5480583"><ele>286.0</ele><time>2026-04-28T09:15:32.771Z</time></trkpt><trkpt lat="43.4038226" lon="13.548097"><ele>287.0</ele><time>2026-04-28T09:15:35.788Z</time></trkpt><trkpt lat="43.4037476" lon="13.5481482"><ele>288.0</ele><time>2026-04-28T09:15:38.771Z</time></trkpt><trkpt lat="43.4037105" lon="13.5482293"><ele>289.0</ele><time>2026-04-28T09:15:43.775Z</time></trkpt><trkpt lat="43.4036566" lon="13.5482771"><ele>290.0</ele><time>2026-04-28T09:15:46.781Z</time></trkpt><trkpt lat="43.4035811" lon="13.5483252"><ele>291.0</ele><time>2026-04-28T09:15:49.775Z</time></trkpt><trkpt lat="43.403515" lon="13.5483567"><ele>292.0</ele><time>2026-04-28T09:15:57.769Z</time></trkpt><trkpt lat="43.4035965" lon="13.5483635"><ele>292.0</ele><time>2026-04-28T09:17:25.759Z</time></trkpt><trkpt lat="43.403534" lon="13.548351"><ele>292.0</ele><time>2026-04-28T09:18:06.803Z</time></trkpt><trkpt lat="43.4034566" lon="13.5483404"><ele>292.0</ele><time>2026-04-28T09:18:50.775Z</time></trkpt><trkpt lat="43.4035425" lon="13.5483381"><ele>292.0</ele><time>2026-04-28T09:21:24.764Z</time></trkpt><trkpt lat="43.4036159" lon="13.5482838"><ele>292.0</ele><time>2026-04-28T09:21:27.792Z</time></trkpt><trkpt lat="43.4036842" lon="13.5482052"><ele>292.0</ele><time>2026-04-28T09:21:30.793Z</time></trkpt><trkpt lat="43.4034436" lon="13.5484762"><ele>292.0</ele><time>2026-04-28T09:21:32.821Z</time></trkpt><trkpt lat="43.4032895" lon="13.54867"><ele>292.0</ele><time>2026-04-28T09:21:33.811Z</time></trkpt><trkpt lat="43.4032466" lon="13.5487453"><ele>292.0</ele><time>2026-04-28T09:21:34.768Z</time></trkpt><trkpt lat="43.4031958" lon="13.5488136"><ele>292.0</ele><time>2026-04-28T09:21:36.781Z</time></trkpt><trkpt lat="43.4032246" lon="13.5489541"><ele>292.3333333333333</ele><time>2026-04-28T09:21:39.784Z</time></trkpt><trkpt lat="43.4032657" lon="13.5490334"><ele>292.66666666666663</ele><time>2026-04-28T09:21:40.786Z</time></trkpt><trkpt lat="43.4033058" lon="13.5491305"><ele>293.0</ele><time>2026-04-28T09:21:41.788Z</time></trkpt><trkpt lat="43.4033453" lon="13.5492123"><ele>293.3333333333333</ele><time>2026-04-28T09:21:42.795Z</time></trkpt><trkpt lat="43.4034092" lon="13.5493459"><ele>293.6666666666667</ele><time>2026-04-28T09:21:44.765Z</time></trkpt><trkpt lat="43.403476" lon="13.5494496"><ele>294.0</ele><time>2026-04-28T09:21:46.787Z</time></trkpt><trkpt lat="43.4035768" lon="13.5494564"><ele>294.0</ele><time>2026-04-28T09:21:49.774Z</time></trkpt><trkpt lat="43.403638" lon="13.5494215"><ele>294.0</ele><time>2026-04-28T09:21:50.771Z</time></trkpt><trkpt lat="43.4036966" lon="13.5493825"><ele>294.0</ele><time>2026-04-28T09:21:51.803Z</time></trkpt><trkpt lat="43.4037631" lon="13.5493326"><ele>294.0</ele><time>2026-04-28T09:21:52.77Z</time></trkpt><trkpt lat="43.4038222" lon="13.5492783"><ele>294.0</ele><time>2026-04-28T09:21:53.79Z</time></trkpt><trkpt lat="43.4038788" lon="13.5492224"><ele>294.0</ele><time>2026-04-28T09:21:54.782Z</time></trkpt><trkpt lat="43.4039341" lon="13.5491706"><ele>294.0</ele><time>2026-04-28T09:21:55.81Z</time></trkpt><trkpt lat="43.404022" lon="13.5490828"><ele>291.8</ele><time>2026-04-28T09:21:57.793Z</time></trkpt><trkpt lat="43.4040992" lon="13.5490128"><ele>289.59999999999997</ele><time>2026-04-28T09:21:59.79Z</time></trkpt><trkpt lat="43.4041755" lon="13.548944"><ele>287.4</ele><time>2026-04-28T09:22:01.798Z</time></trkpt><trkpt lat="43.4042715" lon="13.5488648"><ele>285.2</ele><time>2026-04-28T09:22:03.79Z</time></trkpt><trkpt lat="43.4043829" lon="13.5487689"><ele>283.0</ele><time>2026-04-28T09:22:05.816Z</time></trkpt><trkpt lat="43.4044492" lon="13.5487166"><ele>282.7142857142857</ele><time>2026-04-28T09:22:06.804Z</time></trkpt><trkpt lat="43.4045136" lon="13.5486608"><ele>282.42857142857144</ele><time>2026-04-28T09:22:07.813Z</time></trkpt><trkpt lat="43.404581" lon="13.5486039"><ele>282.14285714285717</ele><time>2026-04-28T09:22:08.782Z</time></trkpt><trkpt lat="43.4046386" lon="13.5485515"><ele>281.8571428571429</ele><time>2026-04-28T09:22:09.812Z</time></trkpt><trkpt lat="43.4046991" lon="13.5484984"><ele>281.57142857142856</ele><time>2026-04-28T09:22:10.795Z</time></trkpt><trkpt lat="43.4047596" lon="13.5484403"><ele>281.28571428571433</ele><time>2026-04-28T09:22:11.809Z</time></trkpt><trkpt lat="43.4048226" lon="13.5483837"><ele>281.0</ele><time>2026-04-28T09:22:12.804Z</time></trkpt><trkpt lat="43.4048903" lon="13.5483261"><ele>281.0</ele><time>2026-04-28T09:22:13.806Z</time></trkpt><trkpt lat="43.4049493" lon="13.5482681"><ele>281.0</ele><time>2026-04-28T09:22:14.791Z</time></trkpt><trkpt lat="43.4050038" lon="13.5482128"><ele>281.0</ele><time>2026-04-28T09:22:15.812Z</time></trkpt><trkpt lat="43.4050561" lon="13.5481605"><ele>281.0</ele><time>2026-04-28T09:22:16.824Z</time></trkpt><trkpt lat="43.4051659" lon="13.5481029"><ele>281.0</ele><time>2026-04-28T09:22:18.775Z</time></trkpt><trkpt lat="43.4052824" lon="13.5480593"><ele>281.0</ele><time>2026-04-28T09:22:20.798Z</time></trkpt><trkpt lat="43.4053527" lon="13.5480377"><ele>281.0</ele><time>2026-04-28T09:22:21.808Z</time></trkpt><trkpt lat="43.4054264" lon="13.5480146"><ele>281.0</ele><time>2026-04-28T09:22:22.816Z</time></trkpt><trkpt lat="43.4054994" lon="13.5479934"><ele>281.0</ele><time>2026-04-28T09:22:23.808Z</time></trkpt><trkpt lat="43.4055771" lon="13.5479632"><ele>281.0</ele><time>2026-04-28T09:22:24.824Z</time></trkpt><trkpt lat="43.4056641" lon="13.5479213"><ele>281.0</ele><time>2026-04-28T09:22:25.804Z</time></trkpt><trkpt lat="43.4057546" lon="13.5478801"><ele>281.0</ele><time>2026-04-28T09:22:26.802Z</time></trkpt><trkpt lat="43.405842" lon="13.5478405"><ele>281.8571428571429</ele><time>2026-04-28T09:22:27.827Z</time></trkpt><trkpt lat="43.4059177" lon="13.5477996"><ele>282.7142857142857</ele><time>2026-04-28T09:22:28.758Z</time></trkpt><trkpt lat="43.405979" lon="13.5477656"><ele>283.57142857142856</ele><time>2026-04-28T09:22:29.802Z</time></trkpt><trkpt lat="43.406038" lon="13.5477349"><ele>284.42857142857144</ele><time>2026-04-28T09:22:30.8Z</time></trkpt><trkpt lat="43.4061007" lon="13.5477059"><ele>285.2857142857143</ele><time>2026-04-28T09:22:31.804Z</time></trkpt><trkpt lat="43.4061677" lon="13.5476724"><ele>286.14285714285717</ele><time>2026-04-28T09:22:32.768Z</time></trkpt><trkpt lat="43.4062366" lon="13.5476336"><ele>287.0</ele><time>2026-04-28T09:22:33.812Z</time></trkpt><trkpt lat="43.4063101" lon="13.5475959"><ele>285.6</ele><time>2026-04-28T09:22:34.835Z</time></trkpt><trkpt lat="43.406372" lon="13.5475565"><ele>284.2</ele><time>2026-04-28T09:22:35.804Z</time></trkpt><trkpt lat="43.4064759" lon="13.5475019"><ele>282.8</ele><time>2026-04-28T09:22:37.786Z</time></trkpt><trkpt lat="43.4065697" lon="13.5474677"><ele>281.4</ele><time>2026-04-28T09:22:39.791Z</time></trkpt><trkpt lat="43.4066734" lon="13.547403"><ele>280.0</ele><time>2026-04-28T09:22:41.796Z</time></trkpt><trkpt lat="43.4067197" lon="13.54732"><ele>280.0</ele><time>2026-04-28T09:22:43.819Z</time></trkpt><trkpt lat="43.4066209" lon="13.5472167"><ele>280.0</ele><time>2026-04-28T09:22:45.795Z</time></trkpt><trkpt lat="43.4065493" lon="13.5471745"><ele>280.0</ele><time>2026-04-28T09:22:46.782Z</time></trkpt><trkpt lat="43.4064812" lon="13.5471449"><ele>280.0</ele><time>2026-04-28T09:22:47.787Z</time></trkpt><trkpt lat="43.4063871" lon="13.5470935"><ele>280.0</ele><time>2026-04-28T09:22:49.788Z</time></trkpt><trkpt lat="43.4062617" lon="13.5470887"><ele>281.16666666666663</ele><time>2026-04-28T09:22:51.787Z</time></trkpt><trkpt lat="43.4061965" lon="13.5470969"><ele>282.3333333333333</ele><time>2026-04-28T09:22:52.781Z</time></trkpt><trkpt lat="43.4061255" lon="13.5471041"><ele>283.5</ele><time>2026-04-28T09:22:53.812Z</time></trkpt><trkpt lat="43.4060133" lon="13.5471171"><ele>284.6666666666667</ele><time>2026-04-28T09:22:55.8Z</time></trkpt><trkpt lat="43.405921" lon="13.5471405"><ele>285.83333333333337</ele><time>2026-04-28T09:22:57.904Z</time></trkpt><trkpt lat="43.4058502" lon="13.5471609"><ele>287.0</ele><time>2026-04-28T09:22:59.811Z</time></trkpt><trkpt lat="43.4057715" lon="13.5471682"><ele>287.0</ele><time>2026-04-28T09:23:02.786Z</time></trkpt><trkpt lat="43.4057046" lon="13.5471748"><ele>287.0</ele><time>2026-04-28T09:23:15.761Z</time></trkpt><trkpt lat="43.4056482" lon="13.5471345"><ele>287.0</ele><time>2026-04-28T09:24:32.741Z</time></trkpt><trkpt lat="43.4056185" lon="13.5472223"><ele>287.0</ele><time>2026-04-28T09:24:38.761Z</time></trkpt><trkpt lat="43.4055624" lon="13.5471668"><ele>287.0</ele><time>2026-04-28T09:24:47.757Z</time></trkpt><trkpt lat="43.4055715" lon="13.5470682"><ele>287.0</ele><time>2026-04-28T09:24:55.763Z</time></trkpt><trkpt lat="43.4056043" lon="13.5469838"><ele>287.0</ele><time>2026-04-28T09:25:03.779Z</time></trkpt><trkpt lat="43.4056147" lon="13.5468743"><ele>287.0</ele><time>2026-04-28T09:25:08.767Z</time></trkpt><trkpt lat="43.4056202" lon="13.5467769"><ele>287.0</ele><time>2026-04-28T09:25:14.781Z</time></trkpt><trkpt lat="43.4056397" lon="13.5466599"><ele>287.0</ele><time>2026-04-28T09:25:20.784Z</time></trkpt><trkpt lat="43.4056715" lon="13.546585"><ele>287.0</ele><time>2026-04-28T09:25:22.779Z</time></trkpt><trkpt lat="43.4055839" lon="13.5467446"><ele>287.0</ele><time>2026-04-28T09:25:40.662Z</time></trkpt><trkpt lat="43.4053645" lon="13.5468546"><ele>282.75</ele><time>2026-04-28T09:26:18.76Z</time></trkpt><trkpt lat="43.4052975" lon="13.5468692"><ele>278.5</ele><time>2026-04-28T09:26:26.74Z</time></trkpt><trkpt lat="43.4052163" lon="13.5468459"><ele>274.25</ele><time>2026-04-28T09:26:30.759Z</time></trkpt><trkpt lat="43.4051516" lon="13.546824"><ele>270.0</ele><time>2026-04-28T09:26:32.753Z</time></trkpt><trkpt lat="43.4054103" lon="13.5467649"><ele>275.6666666666667</ele><time>2026-04-28T09:26:42.4Z</time></trkpt><trkpt lat="43.4055838" lon="13.5467449"><ele>281.33333333333337</ele><time>2026-04-28T09:27:13.285Z</time></trkpt><trkpt lat="43.4056967" lon="13.5470692"><ele>287.0</ele><time>2026-04-28T09:28:53.751Z</time></trkpt><trkpt lat="43.4057624" lon="13.5472425"><ele>287.0</ele><time>2026-04-28T09:28:54.754Z</time></trkpt><trkpt lat="43.4058052" lon="13.5473659"><ele>287.0</ele><time>2026-04-28T09:28:55.75Z</time></trkpt><trkpt lat="43.4058642" lon="13.5475257"><ele>287.0</ele><time>2026-04-28T09:28:57.74Z</time></trkpt><trkpt lat="43.4055845" lon="13.5467524"><ele>281.0</ele><time>2026-04-28T09:29:09.883Z</time></trkpt><trkpt lat="43.405115" lon="13.5483206"><ele>281.0</ele><time>2026-04-28T09:34:14.742Z</time></trkpt><trkpt lat="43.4051584" lon="13.5482094"><ele>281.0</ele><time>2026-04-28T09:34:15.734Z</time></trkpt><trkpt lat="43.405226" lon="13.5480328"><ele>281.0</ele><time>2026-04-28T09:34:16.746Z</time></trkpt><trkpt lat="43.4052501" lon="13.5478732"><ele>281.0</ele><time>2026-04-28T09:34:17.749Z</time></trkpt><trkpt lat="43.4052973" lon="13.547738"><ele>283.0</ele><time>2026-04-28T09:34:19.737Z</time></trkpt><trkpt lat="43.4053433" lon="13.5476157"><ele>285.0</ele><time>2026-04-28T09:34:21.75Z</time></trkpt><trkpt lat="43.4055839" lon="13.5467481"><ele>285.3333333333333</ele><time>2026-04-28T09:34:39.121Z</time></trkpt><trkpt lat="43.4056713" lon="13.5467932"><ele>285.6666666666667</ele><time>2026-04-28T09:35:19.756Z</time></trkpt><trkpt lat="43.4056354" lon="13.546951"><ele>286.0</ele><time>2026-04-28T09:35:21.762Z</time></trkpt><trkpt lat="43.4056124" lon="13.5470467"><ele>286.33333333333337</ele><time>2026-04-28T09:35:22.758Z</time></trkpt><trkpt lat="43.4056156" lon="13.5471401"><ele>286.6666666666667</ele><time>2026-04-28T09:35:23.762Z</time></trkpt><trkpt lat="43.4056183" lon="13.5472287"><ele>287.0</ele><time>2026-04-28T09:35:24.74Z</time></trkpt><trkpt lat="43.405591" lon="13.5473097"><ele>287.0</ele><time>2026-04-28T09:35:26.743Z</time></trkpt><trkpt lat="43.4055377" lon="13.5472086"><ele>287.0</ele><time>2026-04-28T09:35:30.755Z</time></trkpt><trkpt lat="43.4055839" lon="13.5467444"><ele>287.0</ele><time>2026-04-28T09:35:56.908Z</time></trkpt><trkpt lat="43.4057679" lon="13.5468655"><ele>287.0</ele><time>2026-04-28T09:36:05.744Z</time></trkpt><trkpt lat="43.4058451" lon="13.5469079"><ele>287.0</ele><time>2026-04-28T09:36:12.753Z</time></trkpt><trkpt lat="43.4055667" lon="13.5467996"><ele>287.0</ele><time>2026-04-28T09:36:21.237Z</time></trkpt><trkpt lat="43.4054283" lon="13.5467956"><ele>281.33333333333337</ele><time>2026-04-28T09:37:36.757Z</time></trkpt><trkpt lat="43.4052678" lon="13.5466968"><ele>275.6666666666667</ele><time>2026-04-28T09:37:37.758Z</time></trkpt><trkpt lat="43.4051077" lon="13.5466021"><ele>270.0</ele><time>2026-04-28T09:37:38.748Z</time></trkpt><trkpt lat="43.4049517" lon="13.5465118"><ele>270.0</ele><time>2026-04-28T09:37:39.777Z</time></trkpt><trkpt lat="43.4052562" lon="13.5465168"><ele>270.0</ele><time>2026-04-28T09:37:53.602Z</time></trkpt><trkpt lat="43.4055325" lon="13.5466663"><ele>275.6666666666667</ele><time>2026-04-28T09:38:00.101Z</time></trkpt><trkpt lat="43.4055971" lon="13.5467188"><ele>281.33333333333337</ele><time>2026-04-28T09:38:06.588Z</time></trkpt><trkpt lat="43.4059362" lon="13.5465961"><ele>287.0</ele><time>2026-04-28T09:39:35.765Z</time></trkpt><trkpt lat="43.4055844" lon="13.5467446"><ele>287.0</ele><time>2026-04-28T09:40:03.525Z</time></trkpt><trkpt lat="43.4059282" lon="13.5469538"><ele>287.0</ele><time>2026-04-28T09:41:06.756Z</time></trkpt><trkpt lat="43.4055687" lon="13.5467295"><ele>287.0</ele><time>2026-04-28T09:41:34.414Z</time></trkpt><trkpt lat="43.405821" lon="13.5470095"><ele>287.0</ele><time>2026-04-28T09:41:53.752Z</time></trkpt><trkpt lat="43.4056643" lon="13.5470787"><ele>287.0</ele><time>2026-04-28T09:42:11.763Z</time></trkpt><trkpt lat="43.4056415" lon="13.5471941"><ele>287.0</ele><time>2026-04-28T09:42:21.758Z</time></trkpt><trkpt lat="43.4056104" lon="13.546876"><ele>287.0</ele><time>2026-04-28T09:42:32.729Z</time></trkpt><trkpt lat="43.4055886" lon="13.5467531"><ele>287.0</ele><time>2026-04-28T09:42:39.231Z</time></trkpt><trkpt lat="43.4056669" lon="13.5467333"><ele>287.0</ele><time>2026-04-28T09:43:10.756Z</time></trkpt><trkpt lat="43.4057105" lon="13.5468104"><ele>287.0</ele><time>2026-04-28T09:43:14.768Z</time></trkpt><trkpt lat="43.4055852" lon="13.5467404"><ele>287.0</ele><time>2026-04-28T09:43:42.574Z</time></trkpt><trkpt lat="43.4056645" lon="13.5467406"><ele>287.0</ele><time>2026-04-28T09:56:01.777Z</time></trkpt><trkpt lat="43.405718" lon="13.5467907"><ele>287.0</ele><time>2026-04-28T09:56:04.768Z</time></trkpt><trkpt lat="43.4057625" lon="13.5468688"><ele>287.0</ele><time>2026-04-28T09:56:12.783Z</time></trkpt><trkpt lat="43.4057034" lon="13.5467686"><ele>287.0</ele><time>2026-04-28T09:56:20.755Z</time></trkpt><trkpt lat="43.4056535" lon="13.5466532"><ele>287.0</ele><time>2026-04-28T09:56:22.757Z</time></trkpt><trkpt lat="43.4056069" lon="13.5465143"><ele>287.0</ele><time>2026-04-28T09:56:24.757Z</time></trkpt><trkpt lat="43.4055593" lon="13.5463836"><ele>287.0</ele><time>2026-04-28T09:56:26.747Z</time></trkpt><trkpt lat="43.4055058" lon="13.5462582"><ele>287.0</ele><time>2026-04-28T09:56:28.748Z</time></trkpt><trkpt lat="43.4054408" lon="13.5461457"><ele>277.8</ele><time>2026-04-28T09:56:30.748Z</time></trkpt><trkpt lat="43.4053622" lon="13.5460573"><ele>268.6</ele><time>2026-04-28T09:56:32.742Z</time></trkpt><trkpt lat="43.405276" lon="13.5459774"><ele>259.40000000000003</ele><time>2026-04-28T09:56:34.743Z</time></trkpt><trkpt lat="43.4051936" lon="13.5459409"><ele>250.20000000000002</ele><time>2026-04-28T09:56:36.754Z</time></trkpt><trkpt lat="43.4051066" lon="13.5459531"><ele>241.0</ele><time>2026-04-28T09:56:39.763Z</time></trkpt><trkpt lat="43.4050178" lon="13.5459899"><ele>240.99999999999997</ele><time>2026-04-28T09:56:41.758Z</time></trkpt><trkpt lat="43.4049124" lon="13.5460402"><ele>241.0</ele><time>2026-04-28T09:56:43.748Z</time></trkpt><trkpt lat="43.4047951" lon="13.5461018"><ele>241.0</ele><time>2026-04-28T09:56:45.764Z</time></trkpt><trkpt lat="43.4047289" lon="13.5461121"><ele>241.0</ele><time>2026-04-28T09:56:46.751Z</time></trkpt><trkpt lat="43.4046629" lon="13.5461054"><ele>240.99999999999997</ele><time>2026-04-28T09:56:47.748Z</time></trkpt><trkpt lat="43.4045938" lon="13.5460699"><ele>241.0</ele><time>2026-04-28T09:56:48.748Z</time></trkpt><trkpt lat="43.4045207" lon="13.5460241"><ele>239.85714285714286</ele><time>2026-04-28T09:56:49.759Z</time></trkpt><trkpt lat="43.4044557" lon="13.54599"><ele>238.71428571428572</ele><time>2026-04-28T09:56:50.756Z</time></trkpt><trkpt lat="43.4043883" lon="13.5459301"><ele>237.57142857142858</ele><time>2026-04-28T09:56:51.761Z</time></trkpt><trkpt lat="43.4043313" lon="13.5458819"><ele>236.42857142857144</ele><time>2026-04-28T09:56:52.728Z</time></trkpt><trkpt lat="43.4042694" lon="13.5458245"><ele>235.28571428571428</ele><time>2026-04-28T09:56:53.771Z</time></trkpt><trkpt lat="43.404213" lon="13.5457661"><ele>234.14285714285717</ele><time>2026-04-28T09:56:54.732Z</time></trkpt><trkpt lat="43.4041547" lon="13.5457"><ele>233.0</ele><time>2026-04-28T09:56:55.753Z</time></trkpt><trkpt lat="43.4040864" lon="13.5456269"><ele>233.00000000000003</ele><time>2026-04-28T09:56:56.755Z</time></trkpt><trkpt lat="43.4040227" lon="13.5455482"><ele>233.0</ele><time>2026-04-28T09:56:57.762Z</time></trkpt><trkpt lat="43.4039578" lon="13.5454667"><ele>233.0</ele><time>2026-04-28T09:56:58.754Z</time></trkpt><trkpt lat="43.4039028" lon="13.545385"><ele>233.0</ele><time>2026-04-28T09:56:59.753Z</time></trkpt><trkpt lat="43.4038581" lon="13.5453057"><ele>233.00000000000003</ele><time>2026-04-28T09:57:00.771Z</time></trkpt><trkpt lat="43.4038285" lon="13.5452018"><ele>233.0</ele><time>2026-04-28T09:57:02.75Z</time></trkpt><trkpt lat="43.404125" lon="13.5451715"><ele>233.0</ele><time>2026-04-28T09:57:14.762Z</time></trkpt><trkpt lat="43.40416" lon="13.5452548"><ele>233.0</ele><time>2026-04-28T09:57:19.757Z</time></trkpt><trkpt lat="43.4041538" lon="13.5453805"><ele>233.0</ele><time>2026-04-28T09:57:21.749Z</time></trkpt><trkpt lat="43.4041708" lon="13.5455471"><ele>233.0</ele><time>2026-04-28T09:57:23.753Z</time></trkpt><trkpt lat="43.4042183" lon="13.545709"><ele>233.0</ele><time>2026-04-28T09:57:25.749Z</time></trkpt><trkpt lat="43.4042707" lon="13.5458536"><ele>233.00000000000003</ele><time>2026-04-28T09:57:27.772Z</time></trkpt><trkpt lat="43.4043219" lon="13.5459282"><ele>233.0</ele><time>2026-04-28T09:57:28.746Z</time></trkpt><trkpt lat="43.4043814" lon="13.54602"><ele>233.0</ele><time>2026-04-28T09:57:30.749Z</time></trkpt><trkpt lat="43.4044347" lon="13.5460935"><ele>233.0</ele><time>2026-04-28T09:57:33.752Z</time></trkpt><trkpt lat="43.4044968" lon="13.5461079"><ele>233.00000000000003</ele><time>2026-04-28T09:57:38.75Z</time></trkpt><trkpt lat="43.4045344" lon="13.546032"><ele>233.0</ele><time>2026-04-28T09:57:40.75Z</time></trkpt><trkpt lat="43.4045217" lon="13.5458607"><ele>233.0</ele><time>2026-04-28T09:57:42.733Z</time></trkpt><trkpt lat="43.4045034" lon="13.5457763"><ele>233.0</ele><time>2026-04-28T09:57:43.761Z</time></trkpt><trkpt lat="43.4044771" lon="13.5456645"><ele>233.0</ele><time>2026-04-28T09:57:45.753Z</time></trkpt><trkpt lat="43.4044553" lon="13.5455763"><ele>233.0</ele><time>2026-04-28T09:57:47.733Z</time></trkpt><trkpt lat="43.4044364" lon="13.545484"><ele>233.0</ele><time>2026-04-28T09:57:50.755Z</time></trkpt><trkpt lat="43.4050571" lon="13.5462137"><ele>251.5</ele><time>2026-04-28T09:58:06.645Z</time></trkpt><trkpt lat="43.4053939" lon="13.5466035"><ele>270.0</ele><time>2026-04-28T09:58:13.14Z</time></trkpt><trkpt lat="43.4055931" lon="13.5467788"><ele>273.4</ele><time>2026-04-28T09:58:19.618Z</time></trkpt><trkpt lat="43.4056504" lon="13.5468242"><ele>276.8</ele><time>2026-04-28T09:58:26.107Z</time></trkpt><trkpt lat="43.4055934" lon="13.5470348"><ele>280.2</ele><time>2026-04-28T10:03:54.733Z</time></trkpt><trkpt lat="43.4056052" lon="13.547173"><ele>283.6</ele><time>2026-04-28T10:03:56.749Z</time></trkpt><trkpt lat="43.405568" lon="13.5470853"><ele>287.0</ele><time>2026-04-28T10:04:05.736Z</time></trkpt><trkpt lat="43.4055827" lon="13.5469983"><ele>287.0</ele><time>2026-04-28T10:04:09.744Z</time></trkpt><trkpt lat="43.4056062" lon="13.5469076"><ele>287.0</ele><time>2026-04-28T10:04:22.748Z</time></trkpt><trkpt lat="43.4056292" lon="13.5468239"><ele>287.0</ele><time>2026-04-28T10:04:36.773Z</time></trkpt><trkpt lat="43.4056016" lon="13.5467417"><ele>287.0</ele><time>2026-04-28T10:04:43.767Z</time></trkpt><trkpt lat="43.4056674" lon="13.5467483"><ele>287.0</ele><time>2026-04-28T10:05:01.763Z</time></trkpt><trkpt lat="43.405621" lon="13.5466752"><ele>287.0</ele><time>2026-04-28T10:05:22.746Z</time></trkpt><trkpt lat="43.4056813" lon="13.5467465"><ele>287.0</ele><time>2026-04-28T10:05:41.757Z</time></trkpt><trkpt lat="43.4057444" lon="13.5467999"><ele>287.0</ele><time>2026-04-28T10:05:43.78Z</time></trkpt><trkpt lat="43.4058179" lon="13.5468728"><ele>287.0</ele><time>2026-04-28T10:05:45.76Z</time></trkpt><trkpt lat="43.4059032" lon="13.5469552"><ele>287.0</ele><time>2026-04-28T10:05:47.756Z</time></trkpt><trkpt lat="43.4060099" lon="13.5470677"><ele>287.0</ele><time>2026-04-28T10:05:49.756Z</time></trkpt><trkpt lat="43.4060482" lon="13.54714"><ele>287.0</ele><time>2026-04-28T10:05:50.747Z</time></trkpt><trkpt lat="43.4061051" lon="13.5472222"><ele>287.0</ele><time>2026-04-28T10:05:52.324Z</time></trkpt><trkpt lat="43.4058621" lon="13.5468453"><ele>287.0</ele><time>2026-04-28T10:05:56.797Z</time></trkpt><trkpt lat="43.4058216" lon="13.5467654"><ele>287.0</ele><time>2026-04-28T10:05:57.809Z</time></trkpt><trkpt lat="43.4058824" lon="13.5467283"><ele>287.0</ele><time>2026-04-28T10:06:02.739Z</time></trkpt><trkpt lat="43.4059512" lon="13.5467019"><ele>287.0</ele><time>2026-04-28T10:06:08.751Z</time></trkpt><trkpt lat="43.4060117" lon="13.5467285"><ele>287.0</ele><time>2026-04-28T10:06:14.766Z</time></trkpt><trkpt lat="43.4060144" lon="13.5466252"><ele>287.0</ele><time>2026-04-28T10:06:20.77Z</time></trkpt><trkpt lat="43.4060277" lon="13.5465363"><ele>287.0</ele><time>2026-04-28T10:06:25.767Z</time></trkpt><trkpt lat="43.406077" lon="13.5464752"><ele>287.0</ele><time>2026-04-28T10:06:30.761Z</time></trkpt><trkpt lat="43.4061042" lon="13.5463862"><ele>287.0</ele><time>2026-04-28T10:06:37.777Z</time></trkpt><trkpt lat="43.4061233" lon="13.5462954"><ele>287.42857142857144</ele><time>2026-04-28T10:06:47.747Z</time></trkpt><trkpt lat="43.4061324" lon="13.5462081"><ele>287.8571428571429</ele><time>2026-04-28T10:06:59.777Z</time></trkpt><trkpt lat="43.4061853" lon="13.5461461"><ele>288.2857142857143</ele><time>2026-04-28T10:07:09.743Z</time></trkpt><trkpt lat="43.4062515" lon="13.5461521"><ele>288.7142857142857</ele><time>2026-04-28T10:07:14.749Z</time></trkpt><trkpt lat="43.4063144" lon="13.5461135"><ele>289.14285714285717</ele><time>2026-04-28T10:07:23.763Z</time></trkpt><trkpt lat="43.4063701" lon="13.5461562"><ele>289.57142857142856</ele><time>2026-04-28T10:07:32.773Z</time></trkpt><trkpt lat="43.4064194" lon="13.5460935"><ele>290.0</ele><time>2026-04-28T10:07:40.766Z</time></trkpt><trkpt lat="43.4064746" lon="13.5460435"><ele>290.0</ele><time>2026-04-28T10:07:47.782Z</time></trkpt><trkpt lat="43.406544" lon="13.5460238"><ele>290.0</ele><time>2026-04-28T10:07:58.759Z</time></trkpt><trkpt lat="43.4065982" lon="13.5459459"><ele>290.0</ele><time>2026-04-28T10:08:01.768Z</time></trkpt><trkpt lat="43.4066265" lon="13.5458629"><ele>290.0</ele><time>2026-04-28T10:08:03.772Z</time></trkpt><trkpt lat="43.4066374" lon="13.5457734"><ele>290.0</ele><time>2026-04-28T10:08:07.765Z</time></trkpt><trkpt lat="43.4064274" lon="13.545619"><ele>276.5</ele><time>2026-04-28T10:08:32.733Z</time></trkpt><trkpt lat="43.406143" lon="13.545342"><ele>263.0</ele><time>2026-04-28T10:08:34.733Z</time></trkpt><trkpt lat="43.4059406" lon="13.5451483"><ele>263.0</ele><time>2026-04-28T10:08:35.73Z</time></trkpt><trkpt lat="43.4057688" lon="13.5449841"><ele>263.0</ele><time>2026-04-28T10:08:36.74Z</time></trkpt><trkpt lat="43.405579" lon="13.5448048"><ele>263.0</ele><time>2026-04-28T10:08:37.759Z</time></trkpt><trkpt lat="43.4065039" lon="13.5459844"><ele>274.0</ele><time>2026-04-28T10:09:08.084Z</time></trkpt><trkpt lat="43.4076898" lon="13.5471125"><ele>274.0</ele><time>2026-04-28T10:09:57.752Z</time></trkpt><trkpt lat="43.407741" lon="13.5471746"><ele>274.0</ele><time>2026-04-28T10:09:58.78Z</time></trkpt><trkpt lat="43.4076869" lon="13.5471004"><ele>274.0</ele><time>2026-04-28T10:10:02.749Z</time></trkpt><trkpt lat="43.4076201" lon="13.5470209"><ele>274.0</ele><time>2026-04-28T10:10:04.748Z</time></trkpt><trkpt lat="43.4075671" lon="13.5469677"><ele>274.0</ele><time>2026-04-28T10:10:06.765Z</time></trkpt><trkpt lat="43.4075117" lon="13.5469198"><ele>274.0</ele><time>2026-04-28T10:10:11.741Z</time></trkpt><trkpt lat="43.4074256" lon="13.5468369"><ele>275.0</ele><time>2026-04-28T10:10:13.737Z</time></trkpt><trkpt lat="43.4073405" lon="13.5467604"><ele>276.0</ele><time>2026-04-28T10:10:15.772Z</time></trkpt><trkpt lat="43.407265" lon="13.546703"><ele>277.0</ele><time>2026-04-28T10:10:17.758Z</time></trkpt><trkpt lat="43.4071825" lon="13.5466432"><ele>278.0</ele><time>2026-04-28T10:10:19.765Z</time></trkpt><trkpt lat="43.4071275" lon="13.5465969"><ele>279.0</ele><time>2026-04-28T10:10:20.756Z</time></trkpt><trkpt lat="43.4070383" lon="13.5465231"><ele>280.85714285714283</ele><time>2026-04-28T10:10:22.763Z</time></trkpt><trkpt lat="43.4069661" lon="13.5464511"><ele>282.7142857142857</ele><time>2026-04-28T10:10:24.759Z</time></trkpt><trkpt lat="43.4069082" lon="13.5464123"><ele>284.57142857142856</ele><time>2026-04-28T10:10:28.742Z</time></trkpt><trkpt lat="43.4068311" lon="13.5463851"><ele>286.42857142857144</ele><time>2026-04-28T10:10:34.766Z</time></trkpt><trkpt lat="43.4067667" lon="13.5463857"><ele>288.2857142857143</ele><time>2026-04-28T10:10:41.739Z</time></trkpt><trkpt lat="43.4066925" lon="13.5463716"><ele>290.1428571428571</ele><time>2026-04-28T10:11:00.753Z</time></trkpt><trkpt lat="43.4066319" lon="13.5463115"><ele>292.0</ele><time>2026-04-28T10:11:04.755Z</time></trkpt><trkpt lat="43.4065894" lon="13.5462444"><ele>292.0</ele><time>2026-04-28T10:11:15.75Z</time></trkpt><trkpt lat="43.4066698" lon="13.5463056"><ele>292.0</ele><time>2026-04-28T10:11:44.764Z</time></trkpt><trkpt lat="43.4067261" lon="13.5463627"><ele>292.0</ele><time>2026-04-28T10:11:54.738Z</time></trkpt><trkpt lat="43.4066686" lon="13.5462771"><ele>292.0</ele><time>2026-04-28T10:12:17.754Z</time></trkpt><trkpt lat="43.4066142" lon="13.5462145"><ele>292.0</ele><time>2026-04-28T10:12:21.763Z</time></trkpt><trkpt lat="43.4065592" lon="13.5461569"><ele>292.0</ele><time>2026-04-28T10:12:27.767Z</time></trkpt><trkpt lat="43.406495" lon="13.5461677"><ele>291.7142857142857</ele><time>2026-04-28T10:13:22.767Z</time></trkpt><trkpt lat="43.4064711" lon="13.5460844"><ele>291.42857142857144</ele><time>2026-04-28T10:13:47.751Z</time></trkpt><trkpt lat="43.406452" lon="13.5459825"><ele>291.14285714285717</ele><time>2026-04-28T10:13:51.761Z</time></trkpt><trkpt lat="43.4063975" lon="13.5459112"><ele>290.8571428571429</ele><time>2026-04-28T10:13:54.73Z</time></trkpt><trkpt lat="43.4063473" lon="13.5458309"><ele>290.5714285714286</ele><time>2026-04-28T10:13:58.76Z</time></trkpt><trkpt lat="43.4062699" lon="13.5457919"><ele>290.2857142857143</ele><time>2026-04-28T10:14:10.748Z</time></trkpt><trkpt lat="43.4062052" lon="13.5457741"><ele>290.0</ele><time>2026-04-28T10:14:12.738Z</time></trkpt><trkpt lat="43.4061254" lon="13.545743"><ele>287.0</ele><time>2026-04-28T10:14:15.763Z</time></trkpt><trkpt lat="43.4060631" lon="13.5457121"><ele>284.0</ele><time>2026-04-28T10:14:17.763Z</time></trkpt><trkpt lat="43.4060021" lon="13.5456702"><ele>281.0</ele><time>2026-04-28T10:14:19.774Z</time></trkpt><trkpt lat="43.4059456" lon="13.5456292"><ele>278.0</ele><time>2026-04-28T10:14:22.761Z</time></trkpt><trkpt lat="43.4060328" lon="13.5457059"><ele>275.0</ele><time>2026-04-28T10:14:31.753Z</time></trkpt><trkpt lat="43.4061166" lon="13.5457679"><ele>272.0</ele><time>2026-04-28T10:14:34.761Z</time></trkpt><trkpt lat="43.4061646" lon="13.5458478"><ele>272.0</ele><time>2026-04-28T10:14:59.759Z</time></trkpt><trkpt lat="43.4061648" lon="13.545953"><ele>272.0</ele><time>2026-04-28T10:15:02.764Z</time></trkpt><trkpt lat="43.4062564" lon="13.5460069"><ele>272.0</ele><time>2026-04-28T10:15:05.772Z</time></trkpt><trkpt lat="43.4063472" lon="13.5460495"><ele>272.0</ele><time>2026-04-28T10:15:07.737Z</time></trkpt><trkpt lat="43.4064261" lon="13.5459682"><ele>272.0</ele><time>2026-04-28T10:16:09.761Z</time></trkpt><trkpt lat="43.4063849" lon="13.5460444"><ele>272.0</ele><time>2026-04-28T10:17:07.736Z</time></trkpt><trkpt lat="43.4064574" lon="13.5460621"><ele>275.0</ele><time>2026-04-28T10:17:14.732Z</time></trkpt><trkpt lat="43.4065144" lon="13.5461532"><ele>278.0</ele><time>2026-04-28T10:17:18.735Z</time></trkpt><trkpt lat="43.4065682" lon="13.5462275"><ele>281.0</ele><time>2026-04-28T10:17:21.746Z</time></trkpt><trkpt lat="43.4065262" lon="13.546153"><ele>284.0</ele><time>2026-04-28T10:17:33.756Z</time></trkpt><trkpt lat="43.4064786" lon="13.5460592"><ele>287.0</ele><time>2026-04-28T10:17:36.746Z</time></trkpt><trkpt lat="43.4064127" lon="13.5459956"><ele>290.0</ele><time>2026-04-28T10:17:55.747Z</time></trkpt><trkpt lat="43.4063666" lon="13.5459244"><ele>290.0</ele><time>2026-04-28T10:18:19.745Z</time></trkpt><trkpt lat="43.4064402" lon="13.5459339"><ele>290.0</ele><time>2026-04-28T10:20:12.752Z</time></trkpt><trkpt lat="43.4064833" lon="13.5460045"><ele>290.0</ele><time>2026-04-28T10:20:37.758Z</time></trkpt><trkpt lat="43.4064256" lon="13.5459472"><ele>290.0</ele><time>2026-04-28T10:21:50.761Z</time></trkpt><trkpt lat="43.4063503" lon="13.5459482"><ele>290.0</ele><time>2026-04-28T10:23:14.764Z</time></trkpt><trkpt lat="43.4063823" lon="13.5460308"><ele>290.0</ele><time>2026-04-28T10:24:59.762Z</time></trkpt><trkpt lat="43.4063736" lon="13.5461318"><ele>290.0</ele><time>2026-04-28T10:25:04.766Z</time></trkpt><trkpt lat="43.4063449" lon="13.5462099"><ele>289.57142857142856</ele><time>2026-04-28T10:25:10.771Z</time></trkpt><trkpt lat="43.4062892" lon="13.5461605"><ele>289.14285714285717</ele><time>2026-04-28T10:25:13.77Z</time></trkpt><trkpt lat="43.4062254" lon="13.5461696"><ele>288.7142857142857</ele><time>2026-04-28T10:25:16.764Z</time></trkpt><trkpt lat="43.4061599" lon="13.5461986"><ele>288.2857142857143</ele><time>2026-04-28T10:25:22.748Z</time></trkpt><trkpt lat="43.4060944" lon="13.5462179"><ele>287.8571428571429</ele><time>2026-04-28T10:25:29.824Z</time></trkpt><trkpt lat="43.4060277" lon="13.5462444"><ele>287.42857142857144</ele><time>2026-04-28T10:25:36.77Z</time></trkpt><trkpt lat="43.4059692" lon="13.5462805"><ele>287.0</ele><time>2026-04-28T10:25:42.687Z</time></trkpt><trkpt lat="43.4059206" lon="13.5463389"><ele>287.0</ele><time>2026-04-28T10:25:47.762Z</time></trkpt><trkpt lat="43.4058625" lon="13.5464076"><ele>287.0</ele><time>2026-04-28T10:25:53.838Z</time></trkpt><trkpt lat="43.4058086" lon="13.546466"><ele>287.0</ele><time>2026-04-28T10:25:59.751Z</time></trkpt><trkpt lat="43.4057637" lon="13.5465273"><ele>287.0</ele><time>2026-04-28T10:26:03.702Z</time></trkpt><trkpt lat="43.4057257" lon="13.5466044"><ele>287.0</ele><time>2026-04-28T10:26:08.755Z</time></trkpt><trkpt lat="43.4056787" lon="13.5466772"><ele>287.0</ele><time>2026-04-28T10:26:14.742Z</time></trkpt><trkpt lat="43.4056231" lon="13.5467309"><ele>287.0</ele><time>2026-04-28T10:26:18.777Z</time></trkpt><trkpt lat="43.4055912" lon="13.5468085"><ele>287.0</ele><time>2026-04-28T10:26:25.764Z</time></trkpt><trkpt lat="43.4055535" lon="13.5470166"><ele>287.0</ele><time>2026-04-28T10:27:46.769Z</time></trkpt><trkpt lat="43.4055707" lon="13.5471023"><ele>287.0</ele><time>2026-04-28T10:27:50.769Z</time></trkpt><trkpt lat="43.4056461" lon="13.547094"><ele>287.0</ele><time>2026-04-28T10:27:56.7Z</time></trkpt><trkpt lat="43.4057085" lon="13.5470771"><ele>287.0</ele><time>2026-04-28T10:28:01.747Z</time></trkpt><trkpt lat="43.4056816" lon="13.5471783"><ele>287.0</ele><time>2026-04-28T10:32:24.761Z</time></trkpt><trkpt lat="43.4056173" lon="13.5471653"><ele>287.0</ele><time>2026-04-28T10:32:28.757Z</time></trkpt><trkpt lat="43.4056119" lon="13.5470685"><ele>287.0</ele><time>2026-04-28T10:32:36.76Z</time></trkpt><trkpt lat="43.4056396" lon="13.5469593"><ele>287.0</ele><time>2026-04-28T10:32:40.764Z</time></trkpt><trkpt lat="43.4056623" lon="13.546842"><ele>287.0</ele><time>2026-04-28T10:32:43.751Z</time></trkpt><trkpt lat="43.4056841" lon="13.5467395"><ele>287.0</ele><time>2026-04-28T10:32:45.768Z</time></trkpt><trkpt lat="43.4057116" lon="13.5466421"><ele>287.0</ele><time>2026-04-28T10:32:47.774Z</time></trkpt><trkpt lat="43.4057479" lon="13.5465583"><ele>287.0</ele><time>2026-04-28T10:32:49.764Z</time></trkpt><trkpt lat="43.4058104" lon="13.5464916"><ele>287.0</ele><time>2026-04-28T10:32:51.765Z</time></trkpt><trkpt lat="43.4058744" lon="13.5464255"><ele>287.0</ele><time>2026-04-28T10:32:53.755Z</time></trkpt><trkpt lat="43.4059512" lon="13.5463561"><ele>287.0</ele><time>2026-04-28T10:32:55.758Z</time></trkpt><trkpt lat="43.4060235" lon="13.5463235"><ele>287.0</ele><time>2026-04-28T10:32:57.764Z</time></trkpt><trkpt lat="43.4061042" lon="13.5463043"><ele>287.0</ele><time>2026-04-28T10:32:59.774Z</time></trkpt><trkpt lat="43.4061998" lon="13.5462831"><ele>287.0</ele><time>2026-04-28T10:33:01.755Z</time></trkpt><trkpt lat="43.4062834" lon="13.5462408"><ele>287.0</ele><time>2026-04-28T10:33:03.75Z</time></trkpt><trkpt lat="43.4063693" lon="13.5461692"><ele>287.0</ele><time>2026-04-28T10:33:05.752Z</time></trkpt><trkpt lat="43.4064272" lon="13.5460605"><ele>287.0</ele><time>2026-04-28T10:33:07.771Z</time></trkpt><trkpt lat="43.4064658" lon="13.5459587"><ele>287.0</ele><time>2026-04-28T10:33:09.77Z</time></trkpt><trkpt lat="43.4064944" lon="13.5458353"><ele>287.0</ele><time>2026-04-28T10:33:11.757Z</time></trkpt><trkpt lat="43.4065053" lon="13.5457216"><ele>287.0</ele><time>2026-04-28T10:33:13.748Z</time></trkpt><trkpt lat="43.4065121" lon="13.5455914"><ele>287.0</ele><time>2026-04-28T10:33:15.745Z</time></trkpt><trkpt lat="43.4065393" lon="13.5454781"><ele>287.0</ele><time>2026-04-28T10:33:17.758Z</time></trkpt><trkpt lat="43.4065232" lon="13.5453772"><ele>287.0</ele><time>2026-04-28T10:33:19.745Z</time></trkpt><trkpt lat="43.4065046" lon="13.5452453"><ele>287.0</ele><time>2026-04-28T10:33:21.749Z</time></trkpt><trkpt lat="43.4064777" lon="13.5451045"><ele>287.0</ele><time>2026-04-28T10:33:23.752Z</time></trkpt><trkpt lat="43.4064377" lon="13.5449595"><ele>287.0</ele><time>2026-04-28T10:33:25.762Z</time></trkpt><trkpt lat="43.4064177" lon="13.5448063"><ele>287.0</ele><time>2026-04-28T10:33:27.749Z</time></trkpt><trkpt lat="43.4063988" lon="13.5446619"><ele>287.0</ele><time>2026-04-28T10:33:29.753Z</time></trkpt><trkpt lat="43.4063838" lon="13.544557"><ele>287.0</ele><time>2026-04-28T10:33:31.753Z</time></trkpt><trkpt lat="43.4063542" lon="13.5444487"><ele>286.2</ele><time>2026-04-28T10:33:34.758Z</time></trkpt><trkpt lat="43.4063306" lon="13.5443629"><ele>285.4</ele><time>2026-04-28T10:33:41.751Z</time></trkpt><trkpt lat="43.4063029" lon="13.5442204"><ele>284.6</ele><time>2026-04-28T10:33:44.754Z</time></trkpt><trkpt lat="43.4063066" lon="13.5440817"><ele>283.8</ele><time>2026-04-28T10:33:46.743Z</time></trkpt><trkpt lat="43.4062978" lon="13.5439495"><ele>283.0</ele><time>2026-04-28T10:33:48.764Z</time></trkpt><trkpt lat="43.4062924" lon="13.5438154"><ele>282.5</ele><time>2026-04-28T10:33:50.766Z</time></trkpt><trkpt lat="43.4062858" lon="13.5436855"><ele>282.0</ele><time>2026-04-28T10:33:52.747Z</time></trkpt><trkpt lat="43.4062801" lon="13.5435937"><ele>281.5</ele><time>2026-04-28T10:33:54.747Z</time></trkpt><trkpt lat="43.4063011" lon="13.5434674"><ele>281.0</ele><time>2026-04-28T10:34:13.751Z</time></trkpt><trkpt lat="43.4063174" lon="13.5433361"><ele>280.5</ele><time>2026-04-28T10:34:15.759Z</time></trkpt><trkpt lat="43.4063289" lon="13.5432358"><ele>280.0</ele><time>2026-04-28T10:34:17.754Z</time></trkpt><trkpt lat="43.4063343" lon="13.5431365"><ele>279.2</ele><time>2026-04-28T10:34:20.746Z</time></trkpt><trkpt lat="43.4063047" lon="13.5432474"><ele>278.4</ele><time>2026-04-28T10:34:40.74Z</time></trkpt><trkpt lat="43.406314" lon="13.54339"><ele>277.6</ele><time>2026-04-28T10:34:42.756Z</time></trkpt><trkpt lat="43.406313" lon="13.5435221"><ele>276.8</ele><time>2026-04-28T10:34:44.745Z</time></trkpt><trkpt lat="43.4063117" lon="13.543648"><ele>276.0</ele><time>2026-04-28T10:34:46.743Z</time></trkpt><trkpt lat="43.4063065" lon="13.5437753"><ele>274.8333333333333</ele><time>2026-04-28T10:34:49.755Z</time></trkpt><trkpt lat="43.40632" lon="13.5438943"><ele>273.6666666666667</ele><time>2026-04-28T10:34:51.752Z</time></trkpt><trkpt lat="43.4063298" lon="13.5440136"><ele>272.5</ele><time>2026-04-28T10:34:53.753Z</time></trkpt><trkpt lat="43.4063372" lon="13.5441282"><ele>271.33333333333337</ele><time>2026-04-28T10:34:55.752Z</time></trkpt><trkpt lat="43.4063509" lon="13.5442303"><ele>270.1666666666667</ele><time>2026-04-28T10:34:59.763Z</time></trkpt><trkpt lat="43.4062966" lon="13.5441712"><ele>269.0</ele><time>2026-04-28T10:35:05.762Z</time></trkpt><trkpt lat="43.4062608" lon="13.5440872"><ele>269.0</ele><time>2026-04-28T10:35:07.761Z</time></trkpt><trkpt lat="43.4062079" lon="13.5439897"><ele>269.0</ele><time>2026-04-28T10:35:10.757Z</time></trkpt><trkpt lat="43.4061469" lon="13.5439018"><ele>269.0</ele><time>2026-04-28T10:35:45.753Z</time></trkpt><trkpt lat="43.406096" lon="13.5437697"><ele>269.0</ele><time>2026-04-28T10:35:47.753Z</time></trkpt><trkpt lat="43.4060586" lon="13.5436834"><ele>269.0</ele><time>2026-04-28T10:35:48.76Z</time></trkpt><trkpt lat="43.4060154" lon="13.543591"><ele>269.0</ele><time>2026-04-28T10:35:49.764Z</time></trkpt><trkpt lat="43.4059753" lon="13.5434903"><ele>270.4</ele><time>2026-04-28T10:35:50.765Z</time></trkpt><trkpt lat="43.4059432" lon="13.5433793"><ele>271.79999999999995</ele><time>2026-04-28T10:35:51.766Z</time></trkpt><trkpt lat="43.4059162" lon="13.5432598"><ele>273.20000000000005</ele><time>2026-04-28T10:35:52.76Z</time></trkpt><trkpt lat="43.4058938" lon="13.543131"><ele>274.6</ele><time>2026-04-28T10:35:53.768Z</time></trkpt><trkpt lat="43.4058769" lon="13.5429992"><ele>276.0</ele><time>2026-04-28T10:35:54.753Z</time></trkpt><trkpt lat="43.4058562" lon="13.5428617"><ele>276.0</ele><time>2026-04-28T10:35:55.763Z</time></trkpt><trkpt lat="43.4058371" lon="13.5427239"><ele>276.0</ele><time>2026-04-28T10:35:56.754Z</time></trkpt><trkpt lat="43.4058216" lon="13.5425903"><ele>276.0</ele><time>2026-04-28T10:35:57.767Z</time></trkpt><trkpt lat="43.405806" lon="13.5424573"><ele>276.0</ele><time>2026-04-28T10:35:58.749Z</time></trkpt><trkpt lat="43.4057922" lon="13.5423291"><ele>276.0</ele><time>2026-04-28T10:35:59.759Z</time></trkpt><trkpt lat="43.405781" lon="13.5422035"><ele>276.0</ele><time>2026-04-28T10:36:00.773Z</time></trkpt><trkpt lat="43.4057744" lon="13.5420785"><ele>276.0</ele><time>2026-04-28T10:36:01.763Z</time></trkpt><trkpt lat="43.4057701" lon="13.5419614"><ele>276.0</ele><time>2026-04-28T10:36:02.757Z</time></trkpt><trkpt lat="43.4057748" lon="13.5418422"><ele>276.0</ele><time>2026-04-28T10:36:03.769Z</time></trkpt><trkpt lat="43.4057875" lon="13.5417277"><ele>276.0</ele><time>2026-04-28T10:36:04.765Z</time></trkpt><trkpt lat="43.4058018" lon="13.5416138"><ele>276.0</ele><time>2026-04-28T10:36:05.751Z</time></trkpt><trkpt lat="43.40582" lon="13.5415003"><ele>275.40000000000003</ele><time>2026-04-28T10:36:06.759Z</time></trkpt><trkpt lat="43.4058398" lon="13.5413878"><ele>274.8</ele><time>2026-04-28T10:36:07.763Z</time></trkpt><trkpt lat="43.4058727" lon="13.5412701"><ele>274.20000000000005</ele><time>2026-04-28T10:36:08.764Z</time></trkpt><trkpt lat="43.4059235" lon="13.541159"><ele>273.6</ele><time>2026-04-28T10:36:09.759Z</time></trkpt><trkpt lat="43.4059856" lon="13.5410614"><ele>273.0</ele><time>2026-04-28T10:36:10.748Z</time></trkpt><trkpt lat="43.4060563" lon="13.5409855"><ele>271.3333333333333</ele><time>2026-04-28T10:36:11.757Z</time></trkpt><trkpt lat="43.4061277" lon="13.5409229"><ele>269.6666666666667</ele><time>2026-04-28T10:36:12.749Z</time></trkpt><trkpt lat="43.4062052" lon="13.5408782"><ele>268.0</ele><time>2026-04-28T10:36:13.754Z</time></trkpt><trkpt lat="43.4062699" lon="13.5408456"><ele>266.33333333333337</ele><time>2026-04-28T10:36:14.75Z</time></trkpt><trkpt lat="43.4063847" lon="13.5408083"><ele>264.6666666666667</ele><time>2026-04-28T10:36:16.771Z</time></trkpt><trkpt lat="43.4064596" lon="13.5408209"><ele>263.0</ele><time>2026-04-28T10:36:17.763Z</time></trkpt><trkpt lat="43.4065426" lon="13.5408457"><ele>263.0</ele><time>2026-04-28T10:36:18.761Z</time></trkpt><trkpt lat="43.4066236" lon="13.5408718"><ele>263.0</ele><time>2026-04-28T10:36:19.763Z</time></trkpt><trkpt lat="43.4067205" lon="13.5409002"><ele>263.0</ele><time>2026-04-28T10:36:20.774Z</time></trkpt><trkpt lat="43.4068238" lon="13.5409274"><ele>263.0</ele><time>2026-04-28T10:36:21.753Z</time></trkpt><trkpt lat="43.4069273" lon="13.5409552"><ele>263.0</ele><time>2026-04-28T10:36:22.785Z</time></trkpt><trkpt lat="43.4070186" lon="13.540978"><ele>263.0</ele><time>2026-04-28T10:36:23.781Z</time></trkpt><trkpt lat="43.4071038" lon="13.541027"><ele>263.0</ele><time>2026-04-28T10:36:24.756Z</time></trkpt><trkpt lat="43.4071739" lon="13.5411066"><ele>263.0</ele><time>2026-04-28T10:36:25.771Z</time></trkpt><trkpt lat="43.4072254" lon="13.5412258"><ele>263.0</ele><time>2026-04-28T10:36:26.755Z</time></trkpt><trkpt lat="43.4072493" lon="13.5413559"><ele>263.0</ele><time>2026-04-28T10:36:27.757Z</time></trkpt><trkpt lat="43.4072677" lon="13.5414866"><ele>261.5</ele><time>2026-04-28T10:36:28.749Z</time></trkpt><trkpt lat="43.4072825" lon="13.5416148"><ele>260.0</ele><time>2026-04-28T10:36:29.785Z</time></trkpt><trkpt lat="43.4072842" lon="13.5417357"><ele>258.5</ele><time>2026-04-28T10:36:30.764Z</time></trkpt><trkpt lat="43.4072688" lon="13.5418517"><ele>257.0</ele><time>2026-04-28T10:36:31.754Z</time></trkpt><trkpt lat="43.4072436" lon="13.5419645"><ele>255.50000000000003</ele><time>2026-04-28T10:36:32.765Z</time></trkpt><trkpt lat="43.4072117" lon="13.5420799"><ele>254.0</ele><time>2026-04-28T10:36:33.776Z</time></trkpt><trkpt lat="43.4071783" lon="13.5422007"><ele>259.8</ele><time>2026-04-28T10:36:34.766Z</time></trkpt><trkpt lat="43.4071459" lon="13.5423218"><ele>265.59999999999997</ele><time>2026-04-28T10:36:35.767Z</time></trkpt><trkpt lat="43.4071141" lon="13.5424444"><ele>271.4</ele><time>2026-04-28T10:36:36.768Z</time></trkpt><trkpt lat="43.4070833" lon="13.5425665"><ele>277.2</ele><time>2026-04-28T10:36:37.77Z</time></trkpt><trkpt lat="43.4070542" lon="13.5426891"><ele>283.0</ele><time>2026-04-28T10:36:38.774Z</time></trkpt><trkpt lat="43.4070222" lon="13.542814"><ele>282.4</ele><time>2026-04-28T10:36:39.766Z</time></trkpt><trkpt lat="43.4069885" lon="13.5429375"><ele>281.8</ele><time>2026-04-28T10:36:40.749Z</time></trkpt><trkpt lat="43.4069578" lon="13.5430647"><ele>281.2</ele><time>2026-04-28T10:36:41.766Z</time></trkpt><trkpt lat="43.4069284" lon="13.5432004"><ele>280.6</ele><time>2026-04-28T10:36:42.756Z</time></trkpt><trkpt lat="43.4068898" lon="13.5433414"><ele>280.0</ele><time>2026-04-28T10:36:43.762Z</time></trkpt><trkpt lat="43.4068537" lon="13.5434794"><ele>280.0</ele><time>2026-04-28T10:36:44.758Z</time></trkpt><trkpt lat="43.4068249" lon="13.5436224"><ele>280.0</ele><time>2026-04-28T10:36:45.752Z</time></trkpt><trkpt lat="43.4068047" lon="13.5437576"><ele>280.0</ele><time>2026-04-28T10:36:46.751Z</time></trkpt><trkpt lat="43.4068009" lon="13.5438964"><ele>280.0</ele><time>2026-04-28T10:36:47.77Z</time></trkpt><trkpt lat="43.406812" lon="13.5440439"><ele>280.0</ele><time>2026-04-28T10:36:48.755Z</time></trkpt><trkpt lat="43.4068222" lon="13.5441926"><ele>280.75</ele><time>2026-04-28T10:36:49.768Z</time></trkpt><trkpt lat="43.4068343" lon="13.5443417"><ele>281.5</ele><time>2026-04-28T10:36:50.753Z</time></trkpt><trkpt lat="43.4068462" lon="13.5444975"><ele>282.25</ele><time>2026-04-28T10:36:51.754Z</time></trkpt><trkpt lat="43.4068588" lon="13.5446581"><ele>283.0</ele><time>2026-04-28T10:36:52.752Z</time></trkpt><trkpt lat="43.4068752" lon="13.5448217"><ele>284.0</ele><time>2026-04-28T10:36:53.755Z</time></trkpt><trkpt lat="43.4068916" lon="13.5449881"><ele>285.0</ele><time>2026-04-28T10:36:54.75Z</time></trkpt><trkpt lat="43.4069155" lon="13.5451585"><ele>286.0</ele><time>2026-04-28T10:36:55.773Z</time></trkpt><trkpt lat="43.4069491" lon="13.5453246"><ele>287.0</ele><time>2026-04-28T10:36:56.758Z</time></trkpt><trkpt lat="43.4069869" lon="13.5454904"><ele>287.75</ele><time>2026-04-28T10:36:57.756Z</time></trkpt><trkpt lat="43.4070289" lon="13.5456543"><ele>288.5</ele><time>2026-04-28T10:36:58.754Z</time></trkpt><trkpt lat="43.4070832" lon="13.545809"><ele>289.25</ele><time>2026-04-28T10:36:59.755Z</time></trkpt><trkpt lat="43.4071487" lon="13.5459508"><ele>290.0</ele><time>2026-04-28T10:37:00.763Z</time></trkpt><trkpt lat="43.4072168" lon="13.5460848"><ele>287.25</ele><time>2026-04-28T10:37:01.759Z</time></trkpt><trkpt lat="43.4073053" lon="13.5462085"><ele>284.5</ele><time>2026-04-28T10:37:02.762Z</time></trkpt><trkpt lat="43.4073726" lon="13.546338"><ele>281.75</ele><time>2026-04-28T10:37:03.775Z</time></trkpt><trkpt lat="43.4074321" lon="13.5464651"><ele>279.0</ele><time>2026-04-28T10:37:04.757Z</time></trkpt><trkpt lat="43.4074807" lon="13.5465991"><ele>279.0</ele><time>2026-04-28T10:37:05.771Z</time></trkpt><trkpt lat="43.4075132" lon="13.5467261"><ele>279.0</ele><time>2026-04-28T10:37:06.753Z</time></trkpt><trkpt lat="43.4075296" lon="13.5468562"><ele>279.0</ele><time>2026-04-28T10:37:07.774Z</time></trkpt><trkpt lat="43.4075246" lon="13.5469741"><ele>279.0</ele><time>2026-04-28T10:37:08.758Z</time></trkpt><trkpt lat="43.407499" lon="13.5470799"><ele>279.0</ele><time>2026-04-28T10:37:09.767Z</time></trkpt><trkpt lat="43.4074306" lon="13.5471748"><ele>279.2</ele><time>2026-04-28T10:37:10.748Z</time></trkpt><trkpt lat="43.4073588" lon="13.5472404"><ele>279.4</ele><time>2026-04-28T10:37:11.756Z</time></trkpt><trkpt lat="43.4072702" lon="13.5472629"><ele>279.6</ele><time>2026-04-28T10:37:12.772Z</time></trkpt><trkpt lat="43.4071678" lon="13.5472786"><ele>279.8</ele><time>2026-04-28T10:37:13.753Z</time></trkpt><trkpt lat="43.4070636" lon="13.5473027"><ele>280.0</ele><time>2026-04-28T10:37:14.766Z</time></trkpt><trkpt lat="43.406961" lon="13.5473331"><ele>280.0</ele><time>2026-04-28T10:37:15.769Z</time></trkpt><trkpt lat="43.4068604" lon="13.5473557"><ele>280.0</ele><time>2026-04-28T10:37:16.761Z</time></trkpt><trkpt lat="43.4067642" lon="13.5473885"><ele>280.0</ele><time>2026-04-28T10:37:17.776Z</time></trkpt><trkpt lat="43.4066699" lon="13.547428"><ele>280.0</ele><time>2026-04-28T10:37:18.754Z</time></trkpt><trkpt lat="43.40657" lon="13.5474759"><ele>280.0</ele><time>2026-04-28T10:37:19.76Z</time></trkpt><trkpt lat="43.4064689" lon="13.5475274"><ele>280.0</ele><time>2026-04-28T10:37:20.747Z</time></trkpt><trkpt lat="43.4063596" lon="13.5475806"><ele>280.0</ele><time>2026-04-28T10:37:21.763Z</time></trkpt><trkpt lat="43.4062515" lon="13.547629"><ele>280.0</ele><time>2026-04-28T10:37:22.773Z</time></trkpt><trkpt lat="43.4061442" lon="13.547676"><ele>280.0</ele><time>2026-04-28T10:37:23.768Z</time></trkpt><trkpt lat="43.4060402" lon="13.547723"><ele>278.8</ele><time>2026-04-28T10:37:24.764Z</time></trkpt><trkpt lat="43.4059478" lon="13.5477703"><ele>277.6</ele><time>2026-04-28T10:37:25.774Z</time></trkpt><trkpt lat="43.405862" lon="13.547816"><ele>276.4</ele><time>2026-04-28T10:37:26.753Z</time></trkpt><trkpt lat="43.4057791" lon="13.5478533"><ele>275.2</ele><time>2026-04-28T10:37:27.769Z</time></trkpt><trkpt lat="43.4056935" lon="13.5478912"><ele>274.0</ele><time>2026-04-28T10:37:28.75Z</time></trkpt><trkpt lat="43.4056098" lon="13.5479273"><ele>274.0</ele><time>2026-04-28T10:37:29.757Z</time></trkpt><trkpt lat="43.4055236" lon="13.5479672"><ele>274.0</ele><time>2026-04-28T10:37:30.783Z</time></trkpt><trkpt lat="43.4054367" lon="13.5480055"><ele>274.0</ele><time>2026-04-28T10:37:31.776Z</time></trkpt><trkpt lat="43.4053534" lon="13.5480392"><ele>274.0</ele><time>2026-04-28T10:37:32.752Z</time></trkpt><trkpt lat="43.4052813" lon="13.5480683"><ele>274.0</ele><time>2026-04-28T10:37:33.775Z</time></trkpt><trkpt lat="43.4051872" lon="13.5481163"><ele>274.0</ele><time>2026-04-28T10:37:35.765Z</time></trkpt><trkpt lat="43.4052162" lon="13.5482447"><ele>274.0</ele><time>2026-04-28T10:37:38.751Z</time></trkpt><trkpt lat="43.4053256" lon="13.5482677"><ele>274.0</ele><time>2026-04-28T10:37:40.756Z</time></trkpt><trkpt lat="43.4053932" lon="13.5482589"><ele>274.0</ele><time>2026-04-28T10:37:41.767Z</time></trkpt><trkpt lat="43.4054759" lon="13.5482522"><ele>274.0</ele><time>2026-04-28T10:37:42.782Z</time></trkpt><trkpt lat="43.4055683" lon="13.5482604"><ele>274.0</ele><time>2026-04-28T10:37:43.775Z</time></trkpt><trkpt lat="43.4056585" lon="13.5482592"><ele>274.0</ele><time>2026-04-28T10:37:44.776Z</time></trkpt><trkpt lat="43.4057517" lon="13.5482539"><ele>274.0</ele><time>2026-04-28T10:37:45.789Z</time></trkpt><trkpt lat="43.4058387" lon="13.5482559"><ele>274.0</ele><time>2026-04-28T10:37:46.755Z</time></trkpt><trkpt lat="43.4059305" lon="13.5482603"><ele>274.0</ele><time>2026-04-28T10:37:47.77Z</time></trkpt><trkpt lat="43.4060151" lon="13.5482706"><ele>274.0</ele><time>2026-04-28T10:37:48.759Z</time></trkpt><trkpt lat="43.4060873" lon="13.5482783"><ele>274.0</ele><time>2026-04-28T10:37:49.757Z</time></trkpt><trkpt lat="43.4061516" lon="13.5482925"><ele>274.0</ele><time>2026-04-28T10:37:50.774Z</time></trkpt><trkpt lat="43.4062182" lon="13.5483005"><ele>274.0</ele><time>2026-04-28T10:37:51.774Z</time></trkpt><trkpt lat="43.4062851" lon="13.548311"><ele>274.0</ele><time>2026-04-28T10:37:52.769Z</time></trkpt><trkpt lat="43.4063599" lon="13.5483163"><ele>274.0</ele><time>2026-04-28T10:37:53.775Z</time></trkpt><trkpt lat="43.4064472" lon="13.5483222"><ele>274.0</ele><time>2026-04-28T10:37:54.767Z</time></trkpt><trkpt lat="43.4065436" lon="13.5483182"><ele>274.0</ele><time>2026-04-28T10:37:55.781Z</time></trkpt><trkpt lat="43.4066402" lon="13.5483208"><ele>274.0</ele><time>2026-04-28T10:37:56.764Z</time></trkpt><trkpt lat="43.4067415" lon="13.5483239"><ele>273.3333333333333</ele><time>2026-04-28T10:37:57.761Z</time></trkpt><trkpt lat="43.4068478" lon="13.5483287"><ele>272.66666666666663</ele><time>2026-04-28T10:37:58.785Z</time></trkpt><trkpt lat="43.4069468" lon="13.5483274"><ele>272.0</ele><time>2026-04-28T10:37:59.759Z</time></trkpt><trkpt lat="43.4070405" lon="13.5483298"><ele>271.3333333333333</ele><time>2026-04-28T10:38:00.759Z</time></trkpt><trkpt lat="43.4071236" lon="13.5483349"><ele>270.6666666666667</ele><time>2026-04-28T10:38:01.758Z</time></trkpt><trkpt lat="43.4071879" lon="13.5483402"><ele>270.0</ele><time>2026-04-28T10:38:02.782Z</time></trkpt><trkpt lat="43.4072545" lon="13.5483506"><ele>269.5</ele><time>2026-04-28T10:38:04.76Z</time></trkpt><trkpt lat="43.4073205" lon="13.5483521"><ele>269.0</ele><time>2026-04-28T10:38:09.77Z</time></trkpt><trkpt lat="43.4073995" lon="13.5483548"><ele>268.5</ele><time>2026-04-28T10:38:11.768Z</time></trkpt><trkpt lat="43.407522" lon="13.5483694"><ele>268.0</ele><time>2026-04-28T10:38:13.764Z</time></trkpt><trkpt lat="43.4075877" lon="13.548381"><ele>267.5</ele><time>2026-04-28T10:38:14.758Z</time></trkpt><trkpt lat="43.4076584" lon="13.5484038"><ele>267.0</ele><time>2026-04-28T10:38:15.785Z</time></trkpt><trkpt lat="43.4077167" lon="13.5484539"><ele>267.0</ele><time>2026-04-28T10:38:16.766Z</time></trkpt><trkpt lat="43.4077625" lon="13.5485333"><ele>267.0</ele><time>2026-04-28T10:38:17.773Z</time></trkpt><trkpt lat="43.4077963" lon="13.548621"><ele>267.0</ele><time>2026-04-28T10:38:18.757Z</time></trkpt><trkpt lat="43.4078284" lon="13.5487146"><ele>267.0</ele><time>2026-04-28T10:38:19.769Z</time></trkpt><trkpt lat="43.4078644" lon="13.5488113"><ele>267.0</ele><time>2026-04-28T10:38:20.756Z</time></trkpt><trkpt lat="43.4079057" lon="13.5489087"><ele>267.0</ele><time>2026-04-28T10:38:21.769Z</time></trkpt><trkpt lat="43.407945" lon="13.5490035"><ele>265.5</ele><time>2026-04-28T10:38:22.793Z</time></trkpt><trkpt lat="43.4079838" lon="13.5490983"><ele>264.0</ele><time>2026-04-28T10:38:23.765Z</time></trkpt><trkpt lat="43.408028" lon="13.5491978"><ele>262.5</ele><time>2026-04-28T10:38:24.766Z</time></trkpt><trkpt lat="43.4080732" lon="13.5492934"><ele>261.0</ele><time>2026-04-28T10:38:25.765Z</time></trkpt><trkpt lat="43.408121" lon="13.5493869"><ele>259.5</ele><time>2026-04-28T10:38:26.773Z</time></trkpt><trkpt lat="43.4081778" lon="13.5494865"><ele>258.0</ele><time>2026-04-28T10:38:27.762Z</time></trkpt><trkpt lat="43.4082313" lon="13.5495833"><ele>256.2</ele><time>2026-04-28T10:38:28.772Z</time></trkpt><trkpt lat="43.4082807" lon="13.5496821"><ele>254.4</ele><time>2026-04-28T10:38:29.768Z</time></trkpt><trkpt lat="43.4083265" lon="13.549787"><ele>252.59999999999997</ele><time>2026-04-28T10:38:30.765Z</time></trkpt><trkpt lat="43.4083782" lon="13.5498901"><ele>250.79999999999998</ele><time>2026-04-28T10:38:31.774Z</time></trkpt><trkpt lat="43.4084325" lon="13.5499957"><ele>249.0</ele><time>2026-04-28T10:38:32.775Z</time></trkpt><trkpt lat="43.4084898" lon="13.5501074"><ele>249.0</ele><time>2026-04-28T10:38:33.766Z</time></trkpt><trkpt lat="43.4085398" lon="13.55022"><ele>248.99999999999997</ele><time>2026-04-28T10:38:34.785Z</time></trkpt><trkpt lat="43.4085941" lon="13.5503329"><ele>248.99999999999997</ele><time>2026-04-28T10:38:35.761Z</time></trkpt><trkpt lat="43.4086479" lon="13.5504396"><ele>249.0</ele><time>2026-04-28T10:38:36.762Z</time></trkpt><trkpt lat="43.4087003" lon="13.5505462"><ele>249.0</ele><time>2026-04-28T10:38:37.771Z</time></trkpt><trkpt lat="43.4087573" lon="13.5506549"><ele>247.39999999999998</ele><time>2026-04-28T10:38:38.778Z</time></trkpt><trkpt lat="43.4088117" lon="13.5507629"><ele>245.79999999999998</ele><time>2026-04-28T10:38:39.78Z</time></trkpt><trkpt lat="43.4088689" lon="13.5508673"><ele>244.20000000000002</ele><time>2026-04-28T10:38:40.772Z</time></trkpt><trkpt lat="43.4089308" lon="13.5509634"><ele>242.60000000000002</ele><time>2026-04-28T10:38:41.775Z</time></trkpt><trkpt lat="43.4089936" lon="13.551058"><ele>241.0</ele><time>2026-04-28T10:38:42.761Z</time></trkpt><trkpt lat="43.409065" lon="13.5511431"><ele>238.60000000000002</ele><time>2026-04-28T10:38:43.782Z</time></trkpt><trkpt lat="43.4091426" lon="13.5512323"><ele>236.20000000000002</ele><time>2026-04-28T10:38:44.767Z</time></trkpt><trkpt lat="43.4092243" lon="13.5513203"><ele>233.79999999999998</ele><time>2026-04-28T10:38:45.749Z</time></trkpt><trkpt lat="43.4093041" lon="13.5514125"><ele>231.39999999999998</ele><time>2026-04-28T10:38:46.756Z</time></trkpt><trkpt lat="43.409391" lon="13.5515063"><ele>229.0</ele><time>2026-04-28T10:38:47.766Z</time></trkpt><trkpt lat="43.4094811" lon="13.5515983"><ele>229.0</ele><time>2026-04-28T10:38:48.772Z</time></trkpt><trkpt lat="43.409577" lon="13.5517004"><ele>229.0</ele><time>2026-04-28T10:38:49.772Z</time></trkpt><trkpt lat="43.4096753" lon="13.5518053"><ele>229.0</ele><time>2026-04-28T10:38:50.761Z</time></trkpt><trkpt lat="43.409772" lon="13.5519043"><ele>229.0</ele><time>2026-04-28T10:38:51.762Z</time></trkpt><trkpt lat="43.4098679" lon="13.5520059"><ele>227.6</ele><time>2026-04-28T10:38:52.765Z</time></trkpt><trkpt lat="43.4099577" lon="13.552102"><ele>226.2</ele><time>2026-04-28T10:38:53.77Z</time></trkpt><trkpt lat="43.4100434" lon="13.5521933"><ele>224.79999999999998</ele><time>2026-04-28T10:38:54.767Z</time></trkpt><trkpt lat="43.410131" lon="13.5522862"><ele>223.39999999999998</ele><time>2026-04-28T10:38:55.769Z</time></trkpt><trkpt lat="43.4102206" lon="13.5523761"><ele>222.0</ele><time>2026-04-28T10:38:56.759Z</time></trkpt><trkpt lat="43.410312" lon="13.5524759"><ele>222.0</ele><time>2026-04-28T10:38:57.752Z</time></trkpt><trkpt lat="43.410408" lon="13.5525761"><ele>222.0</ele><time>2026-04-28T10:38:58.752Z</time></trkpt><trkpt lat="43.4105019" lon="13.5526813"><ele>222.0</ele><time>2026-04-28T10:38:59.78Z</time></trkpt><trkpt lat="43.4105919" lon="13.5527779"><ele>222.0</ele><time>2026-04-28T10:39:00.754Z</time></trkpt><trkpt lat="43.4106797" lon="13.5528748"><ele>220.6</ele><time>2026-04-28T10:39:01.769Z</time></trkpt><trkpt lat="43.4107615" lon="13.5529737"><ele>219.2</ele><time>2026-04-28T10:39:02.773Z</time></trkpt><trkpt lat="43.4108345" lon="13.5530758"><ele>217.8</ele><time>2026-04-28T10:39:03.779Z</time></trkpt><trkpt lat="43.4109045" lon="13.55318"><ele>216.4</ele><time>2026-04-28T10:39:04.785Z</time></trkpt><trkpt lat="43.4109703" lon="13.5532859"><ele>215.0</ele><time>2026-04-28T10:39:05.78Z</time></trkpt><trkpt lat="43.4110364" lon="13.5533938"><ele>215.0</ele><time>2026-04-28T10:39:06.773Z</time></trkpt><trkpt lat="43.4111027" lon="13.5535027"><ele>215.0</ele><time>2026-04-28T10:39:07.773Z</time></trkpt><trkpt lat="43.4111705" lon="13.553619"><ele>215.0</ele><time>2026-04-28T10:39:08.771Z</time></trkpt><trkpt lat="43.4112388" lon="13.5537429"><ele>215.0</ele><time>2026-04-28T10:39:09.776Z</time></trkpt><trkpt lat="43.4113061" lon="13.5538761"><ele>215.0</ele><time>2026-04-28T10:39:10.768Z</time></trkpt><trkpt lat="43.411368" lon="13.5540123"><ele>212.2</ele><time>2026-04-28T10:39:11.778Z</time></trkpt><trkpt lat="43.4114307" lon="13.5541522"><ele>209.4</ele><time>2026-04-28T10:39:12.759Z</time></trkpt><trkpt lat="43.4114931" lon="13.5542905"><ele>206.60000000000002</ele><time>2026-04-28T10:39:13.788Z</time></trkpt><trkpt lat="43.4115422" lon="13.5544197"><ele>203.8</ele><time>2026-04-28T10:39:14.761Z</time></trkpt><trkpt lat="43.4115843" lon="13.5545376"><ele>201.0</ele><time>2026-04-28T10:39:15.766Z</time></trkpt><trkpt lat="43.4116151" lon="13.5546467"><ele>200.5</ele><time>2026-04-28T10:39:16.764Z</time></trkpt><trkpt lat="43.4116369" lon="13.5547572"><ele>200.0</ele><time>2026-04-28T10:39:17.797Z</time></trkpt><trkpt lat="43.4116353" lon="13.554868"><ele>199.5</ele><time>2026-04-28T10:39:18.763Z</time></trkpt><trkpt lat="43.411605" lon="13.5549752"><ele>199.0</ele><time>2026-04-28T10:39:19.77Z</time></trkpt><trkpt lat="43.4115815" lon="13.5550739"><ele>198.5</ele><time>2026-04-28T10:39:20.789Z</time></trkpt><trkpt lat="43.411606" lon="13.5551624"><ele>198.0</ele><time>2026-04-28T10:39:21.771Z</time></trkpt><trkpt lat="43.4116627" lon="13.5552265"><ele>198.0</ele><time>2026-04-28T10:39:22.798Z</time></trkpt><trkpt lat="43.4117319" lon="13.5552773"><ele>198.0</ele><time>2026-04-28T10:39:23.782Z</time></trkpt><trkpt lat="43.4118081" lon="13.5553447"><ele>198.0</ele><time>2026-04-28T10:39:25.764Z</time></trkpt><trkpt lat="43.4118839" lon="13.5554325"><ele>198.0</ele><time>2026-04-28T10:39:30.778Z</time></trkpt><trkpt lat="43.4119277" lon="13.5555037"><ele>198.0</ele><time>2026-04-28T10:39:31.775Z</time></trkpt><trkpt lat="43.4119778" lon="13.5555784"><ele>198.0</ele><time>2026-04-28T10:39:32.78Z</time></trkpt><trkpt lat="43.4120381" lon="13.5556601"><ele>197.33333333333334</ele><time>2026-04-28T10:39:33.778Z</time></trkpt><trkpt lat="43.4121013" lon="13.5557404"><ele>196.66666666666669</ele><time>2026-04-28T10:39:34.774Z</time></trkpt><trkpt lat="43.4121698" lon="13.555826"><ele>196.0</ele><time>2026-04-28T10:39:35.762Z</time></trkpt><trkpt lat="43.412236" lon="13.5559141"><ele>195.33333333333334</ele><time>2026-04-28T10:39:36.785Z</time></trkpt><trkpt lat="43.4123021" lon="13.5559912"><ele>194.66666666666669</ele><time>2026-04-28T10:39:37.778Z</time></trkpt><trkpt lat="43.4123664" lon="13.5560613"><ele>194.0</ele><time>2026-04-28T10:39:38.787Z</time></trkpt><trkpt lat="43.4124297" lon="13.5561326"><ele>192.79999999999998</ele><time>2026-04-28T10:39:39.792Z</time></trkpt><trkpt lat="43.4124989" lon="13.5562062"><ele>191.6</ele><time>2026-04-28T10:39:40.769Z</time></trkpt><trkpt lat="43.4125744" lon="13.55629"><ele>190.4</ele><time>2026-04-28T10:39:41.779Z</time></trkpt><trkpt lat="43.4126538" lon="13.5563775"><ele>189.2</ele><time>2026-04-28T10:39:42.771Z</time></trkpt><trkpt lat="43.4127336" lon="13.5564636"><ele>188.0</ele><time>2026-04-28T10:39:43.768Z</time></trkpt><trkpt lat="43.4128082" lon="13.5565335"><ele>188.0</ele><time>2026-04-28T10:39:44.764Z</time></trkpt><trkpt lat="43.4128738" lon="13.5565941"><ele>188.0</ele><time>2026-04-28T10:39:45.763Z</time></trkpt><trkpt lat="43.4129315" lon="13.5566443"><ele>188.0</ele><time>2026-04-28T10:39:46.765Z</time></trkpt><trkpt lat="43.4129977" lon="13.5566419"><ele>188.0</ele><time>2026-04-28T10:39:48.76Z</time></trkpt><trkpt lat="43.41297" lon="13.5565577"><ele>188.0</ele><time>2026-04-28T10:39:52.771Z</time></trkpt><trkpt lat="43.412888" lon="13.5565711"><ele>188.0</ele><time>2026-04-28T10:39:56.768Z</time></trkpt><trkpt lat="43.4128152" lon="13.5564858"><ele>188.0</ele><time>2026-04-28T10:39:58.767Z</time></trkpt><trkpt lat="43.4127168" lon="13.556389"><ele>188.0</ele><time>2026-04-28T10:40:00.772Z</time></trkpt><trkpt lat="43.4126521" lon="13.5563212"><ele>188.0</ele><time>2026-04-28T10:40:01.766Z</time></trkpt><trkpt lat="43.4125776" lon="13.5562356"><ele>188.0</ele><time>2026-04-28T10:40:02.784Z</time></trkpt><trkpt lat="43.4125047" lon="13.5561511"><ele>188.0</ele><time>2026-04-28T10:40:03.762Z</time></trkpt><trkpt lat="43.4124297" lon="13.5560674"><ele>188.5</ele><time>2026-04-28T10:40:04.773Z</time></trkpt><trkpt lat="43.4123523" lon="13.5559809"><ele>189.0</ele><time>2026-04-28T10:40:05.773Z</time></trkpt><trkpt lat="43.412276" lon="13.5558974"><ele>189.5</ele><time>2026-04-28T10:40:06.764Z</time></trkpt><trkpt lat="43.4122087" lon="13.5558127"><ele>190.0</ele><time>2026-04-28T10:40:07.771Z</time></trkpt><trkpt lat="43.4121479" lon="13.5557417"><ele>190.5</ele><time>2026-04-28T10:40:08.768Z</time></trkpt><trkpt lat="43.4120955" lon="13.5556736"><ele>191.0</ele><time>2026-04-28T10:40:09.785Z</time></trkpt><trkpt lat="43.4120438" lon="13.555602"><ele>191.0</ele><time>2026-04-28T10:40:10.753Z</time></trkpt><trkpt lat="43.4119934" lon="13.555542"><ele>191.0</ele><time>2026-04-28T10:40:11.773Z</time></trkpt><trkpt lat="43.4119181" lon="13.5554312"><ele>191.0</ele><time>2026-04-28T10:40:13.752Z</time></trkpt><trkpt lat="43.4119251" lon="13.5553145"><ele>191.0</ele><time>2026-04-28T10:40:15.769Z</time></trkpt><trkpt lat="43.4120164" lon="13.5552642"><ele>191.0</ele><time>2026-04-28T10:40:17.767Z</time></trkpt><trkpt lat="43.4121305" lon="13.5552184"><ele>190.66666666666666</ele><time>2026-04-28T10:40:19.772Z</time></trkpt><trkpt lat="43.4122509" lon="13.5551819"><ele>190.33333333333331</ele><time>2026-04-28T10:40:21.77Z</time></trkpt><trkpt lat="43.4123167" lon="13.5551637"><ele>190.0</ele><time>2026-04-28T10:40:22.763Z</time></trkpt><trkpt lat="43.4123788" lon="13.5551476"><ele>189.66666666666666</ele><time>2026-04-28T10:40:23.758Z</time></trkpt><trkpt lat="43.4124468" lon="13.5551359"><ele>189.33333333333334</ele><time>2026-04-28T10:40:24.753Z</time></trkpt><trkpt lat="43.412514" lon="13.5551241"><ele>189.0</ele><time>2026-04-28T10:40:25.756Z</time></trkpt><trkpt lat="43.4125788" lon="13.5551137"><ele>189.0</ele><time>2026-04-28T10:40:26.767Z</time></trkpt><trkpt lat="43.4126589" lon="13.5551097"><ele>189.0</ele><time>2026-04-28T10:40:27.774Z</time></trkpt><trkpt lat="43.4127387" lon="13.555115"><ele>189.0</ele><time>2026-04-28T10:40:28.769Z</time></trkpt><trkpt lat="43.4128185" lon="13.5551208"><ele>189.0</ele><time>2026-04-28T10:40:29.765Z</time></trkpt><trkpt lat="43.4128932" lon="13.5551317"><ele>189.0</ele><time>2026-04-28T10:40:30.772Z</time></trkpt><trkpt lat="43.4129698" lon="13.5551455"><ele>189.0</ele><time>2026-04-28T10:40:31.777Z</time></trkpt><trkpt lat="43.4130545" lon="13.5551562"><ele>187.16666666666666</ele><time>2026-04-28T10:40:32.767Z</time></trkpt><trkpt lat="43.4131394" lon="13.5551665"><ele>185.33333333333334</ele><time>2026-04-28T10:40:33.779Z</time></trkpt><trkpt lat="43.4132295" lon="13.5551819"><ele>183.5</ele><time>2026-04-28T10:40:34.76Z</time></trkpt><trkpt lat="43.4133195" lon="13.5551877"><ele>181.66666666666669</ele><time>2026-04-28T10:40:35.769Z</time></trkpt><trkpt lat="43.4134126" lon="13.5551832"><ele>179.83333333333334</ele><time>2026-04-28T10:40:36.763Z</time></trkpt><trkpt lat="43.4135012" lon="13.5551731"><ele>178.0</ele><time>2026-04-28T10:40:37.762Z</time></trkpt><trkpt lat="43.4135885" lon="13.5551659"><ele>178.0</ele><time>2026-04-28T10:40:38.755Z</time></trkpt><trkpt lat="43.4136733" lon="13.5551665"><ele>178.0</ele><time>2026-04-28T10:40:39.766Z</time></trkpt><trkpt lat="43.4137564" lon="13.5551691"><ele>178.0</ele><time>2026-04-28T10:40:40.763Z</time></trkpt><trkpt lat="43.413842" lon="13.5551859"><ele>178.0</ele><time>2026-04-28T10:40:41.766Z</time></trkpt><trkpt lat="43.4139143" lon="13.5552159"><ele>178.0</ele><time>2026-04-28T10:40:42.763Z</time></trkpt><trkpt lat="43.4139798" lon="13.5552517"><ele>178.0</ele><time>2026-04-28T10:40:43.754Z</time></trkpt><trkpt lat="43.4140817" lon="13.5552663"><ele>176.16666666666669</ele><time>2026-04-28T10:40:45.765Z</time></trkpt><trkpt lat="43.4141536" lon="13.5551896"><ele>174.33333333333334</ele><time>2026-04-28T10:40:47.76Z</time></trkpt><trkpt lat="43.4141652" lon="13.5550328"><ele>172.5</ele><time>2026-04-28T10:40:49.776Z</time></trkpt><trkpt lat="43.41417" lon="13.5549379"><ele>170.66666666666666</ele><time>2026-04-28T10:40:50.77Z</time></trkpt><trkpt lat="43.4141789" lon="13.5548405"><ele>168.83333333333331</ele><time>2026-04-28T10:40:51.77Z</time></trkpt><trkpt lat="43.4141836" lon="13.5547344"><ele>167.0</ele><time>2026-04-28T10:40:52.765Z</time></trkpt><trkpt lat="43.4141948" lon="13.5546245"><ele>165.0</ele><time>2026-04-28T10:40:53.771Z</time></trkpt><trkpt lat="43.4141948" lon="13.5545193"><ele>163.0</ele><time>2026-04-28T10:40:54.771Z</time></trkpt><trkpt lat="43.4141845" lon="13.5544178"><ele>161.0</ele><time>2026-04-28T10:40:55.758Z</time></trkpt><trkpt lat="43.4141743" lon="13.5543079"><ele>159.0</ele><time>2026-04-28T10:40:56.769Z</time></trkpt><trkpt lat="43.4141624" lon="13.5541894"><ele>157.0</ele><time>2026-04-28T10:40:57.77Z</time></trkpt><trkpt lat="43.4141592" lon="13.5540781"><ele>155.0</ele><time>2026-04-28T10:40:58.774Z</time></trkpt><trkpt lat="43.4141567" lon="13.5539728"><ele>155.0</ele><time>2026-04-28T10:40:59.78Z</time></trkpt><trkpt lat="43.4141583" lon="13.5538704"><ele>155.0</ele><time>2026-04-28T10:41:00.755Z</time></trkpt><trkpt lat="43.4141531" lon="13.5537758"><ele>155.0</ele><time>2026-04-28T10:41:01.776Z</time></trkpt><trkpt lat="43.4141463" lon="13.5536805"><ele>155.0</ele><time>2026-04-28T10:41:02.767Z</time></trkpt><trkpt lat="43.4141333" lon="13.5535871"><ele>155.0</ele><time>2026-04-28T10:41:03.773Z</time></trkpt><trkpt lat="43.4141051" lon="13.5534905"><ele>155.0</ele><time>2026-04-28T10:41:04.771Z</time></trkpt><trkpt lat="43.4140739" lon="13.5533946"><ele>155.0</ele><time>2026-04-28T10:41:05.778Z</time></trkpt><trkpt lat="43.4140367" lon="13.5532954"><ele>152.5</ele><time>2026-04-28T10:41:06.755Z</time></trkpt><trkpt lat="43.4139992" lon="13.5531918"><ele>150.0</ele><time>2026-04-28T10:41:07.765Z</time></trkpt><trkpt lat="43.413957" lon="13.5530886"><ele>147.5</ele><time>2026-04-28T10:41:08.757Z</time></trkpt><trkpt lat="43.4139224" lon="13.5529832"><ele>145.0</ele><time>2026-04-28T10:41:09.781Z</time></trkpt><trkpt lat="43.4138837" lon="13.5528823"><ele>142.5</ele><time>2026-04-28T10:41:10.763Z</time></trkpt><trkpt lat="43.4138411" lon="13.5527826"><ele>140.0</ele><time>2026-04-28T10:41:11.77Z</time></trkpt><trkpt lat="43.4137978" lon="13.552704"><ele>139.0</ele><time>2026-04-28T10:41:12.763Z</time></trkpt><trkpt lat="43.413728" lon="13.5525868"><ele>138.0</ele><time>2026-04-28T10:41:14.765Z</time></trkpt><trkpt lat="43.4136462" lon="13.552492"><ele>137.0</ele><time>2026-04-28T10:41:16.756Z</time></trkpt><trkpt lat="43.4135561" lon="13.5524035"><ele>136.0</ele><time>2026-04-28T10:41:18.753Z</time></trkpt><trkpt lat="43.4134554" lon="13.5523202"><ele>135.0</ele><time>2026-04-28T10:41:20.767Z</time></trkpt><trkpt lat="43.4133852" lon="13.552264"><ele>135.0</ele><time>2026-04-28T10:41:22.764Z</time></trkpt><trkpt lat="43.4133977" lon="13.5521657"><ele>135.0</ele><time>2026-04-28T10:41:26.762Z</time></trkpt><trkpt lat="43.4134602" lon="13.552221"><ele>135.0</ele><time>2026-04-28T10:41:29.781Z</time></trkpt><trkpt lat="43.4135119" lon="13.5522858"><ele>135.0</ele><time>2026-04-28T10:41:31.748Z</time></trkpt><trkpt lat="43.4135948" lon="13.5523585"><ele>135.0</ele><time>2026-04-28T10:41:33.777Z</time></trkpt><trkpt lat="43.4136925" lon="13.5524407"><ele>135.0</ele><time>2026-04-28T10:41:35.771Z</time></trkpt><trkpt lat="43.4137892" lon="13.5525543"><ele>133.42857142857142</ele><time>2026-04-28T10:41:37.752Z</time></trkpt><trkpt lat="43.4138449" lon="13.5526096"><ele>131.85714285714283</ele><time>2026-04-28T10:41:38.757Z</time></trkpt><trkpt lat="43.413909" lon="13.5526568"><ele>130.28571428571428</ele><time>2026-04-28T10:41:39.763Z</time></trkpt><trkpt lat="43.4139786" lon="13.5526919"><ele>128.71428571428572</ele><time>2026-04-28T10:41:40.755Z</time></trkpt><trkpt lat="43.414051" lon="13.5527101"><ele>127.14285714285715</ele><time>2026-04-28T10:41:41.758Z</time></trkpt><trkpt lat="43.4141287" lon="13.5527215"><ele>125.57142857142858</ele><time>2026-04-28T10:41:42.768Z</time></trkpt><trkpt lat="43.4142094" lon="13.5527295"><ele>124.0</ele><time>2026-04-28T10:41:43.763Z</time></trkpt><trkpt lat="43.4142909" lon="13.5527395"><ele>124.00000000000001</ele><time>2026-04-28T10:41:44.759Z</time></trkpt><trkpt lat="43.4143804" lon="13.5527589"><ele>124.0</ele><time>2026-04-28T10:41:45.778Z</time></trkpt><trkpt lat="43.4144693" lon="13.5527838"><ele>124.0</ele><time>2026-04-28T10:41:46.759Z</time></trkpt><trkpt lat="43.4145573" lon="13.5528064"><ele>124.0</ele><time>2026-04-28T10:41:47.791Z</time></trkpt><trkpt lat="43.4146458" lon="13.5528371"><ele>124.00000000000001</ele><time>2026-04-28T10:41:48.755Z</time></trkpt><trkpt lat="43.4147267" lon="13.5528731"><ele>124.0</ele><time>2026-04-28T10:41:49.785Z</time></trkpt><trkpt lat="43.4148021" lon="13.5529136"><ele>124.0</ele><time>2026-04-28T10:41:50.757Z</time></trkpt><trkpt lat="43.4148715" lon="13.5529551"><ele>124.00000000000001</ele><time>2026-04-28T10:41:51.771Z</time></trkpt><trkpt lat="43.4149358" lon="13.5530026"><ele>124.0</ele><time>2026-04-28T10:41:52.78Z</time></trkpt><trkpt lat="43.4149938" lon="13.5530579"><ele>124.0</ele><time>2026-04-28T10:41:53.766Z</time></trkpt><trkpt lat="43.4150516" lon="13.5531169"><ele>124.00000000000001</ele><time>2026-04-28T10:41:54.771Z</time></trkpt><trkpt lat="43.415109" lon="13.5531761"><ele>124.0</ele><time>2026-04-28T10:41:55.765Z</time></trkpt><trkpt lat="43.4151708" lon="13.5532303"><ele>124.0</ele><time>2026-04-28T10:41:56.759Z</time></trkpt><trkpt lat="43.4152348" lon="13.5532733"><ele>124.0</ele><time>2026-04-28T10:41:57.779Z</time></trkpt><trkpt lat="43.415304" lon="13.5533198"><ele>124.00000000000001</ele><time>2026-04-28T10:41:58.77Z</time></trkpt><trkpt lat="43.415372" lon="13.5533516"><ele>124.0</ele><time>2026-04-28T10:41:59.773Z</time></trkpt><trkpt lat="43.4154428" lon="13.5533699"><ele>124.0</ele><time>2026-04-28T10:42:00.789Z</time></trkpt><trkpt lat="43.4155198" lon="13.553374"><ele>124.00000000000001</ele><time>2026-04-28T10:42:01.767Z</time></trkpt><trkpt lat="43.4155934" lon="13.55336"><ele>124.0</ele><time>2026-04-28T10:42:02.771Z</time></trkpt><trkpt lat="43.4156659" lon="13.553325"><ele>124.0</ele><time>2026-04-28T10:42:03.78Z</time></trkpt><trkpt lat="43.4157298" lon="13.5532731"><ele>125.0</ele><time>2026-04-28T10:42:04.761Z</time></trkpt><trkpt lat="43.4157862" lon="13.5532115"><ele>126.0</ele><time>2026-04-28T10:42:05.772Z</time></trkpt><trkpt lat="43.4158325" lon="13.5531473"><ele>127.0</ele><time>2026-04-28T10:42:06.774Z</time></trkpt><trkpt lat="43.4158986" lon="13.5530114"><ele>128.0</ele><time>2026-04-28T10:42:08.774Z</time></trkpt><trkpt lat="43.4159635" lon="13.5529102"><ele>129.0</ele><time>2026-04-28T10:42:10.782Z</time></trkpt><trkpt lat="43.4160402" lon="13.5528172"><ele>129.0</ele><time>2026-04-28T10:42:12.77Z</time></trkpt><trkpt lat="43.4161365" lon="13.5527714"><ele>129.0</ele><time>2026-04-28T10:42:14.776Z</time></trkpt><trkpt lat="43.416262" lon="13.5527833"><ele>129.0</ele><time>2026-04-28T10:42:16.736Z</time></trkpt><trkpt lat="43.4163334" lon="13.55283"><ele>129.0</ele><time>2026-04-28T10:42:17.748Z</time></trkpt><trkpt lat="43.4163937" lon="13.5528933"><ele>129.0</ele><time>2026-04-28T10:42:18.753Z</time></trkpt><trkpt lat="43.4164503" lon="13.5529692"><ele>129.0</ele><time>2026-04-28T10:42:19.766Z</time></trkpt><trkpt lat="43.4165084" lon="13.5530519"><ele>129.0</ele><time>2026-04-28T10:42:20.764Z</time></trkpt><trkpt lat="43.4165629" lon="13.5531385"><ele>129.0</ele><time>2026-04-28T10:42:21.764Z</time></trkpt><trkpt lat="43.4166195" lon="13.5532327"><ele>129.0</ele><time>2026-04-28T10:42:22.755Z</time></trkpt><trkpt lat="43.4166627" lon="13.5533163"><ele>129.0</ele><time>2026-04-28T10:42:23.764Z</time></trkpt><trkpt lat="43.4166972" lon="13.5533892"><ele>129.0</ele><time>2026-04-28T10:42:24.767Z</time></trkpt><trkpt lat="43.4167343" lon="13.5534638"><ele>129.0</ele><time>2026-04-28T10:42:26.748Z</time></trkpt><trkpt lat="43.4167702" lon="13.5535694"><ele>129.0</ele><time>2026-04-28T10:42:29.756Z</time></trkpt><trkpt lat="43.4168374" lon="13.5536998"><ele>129.0</ele><time>2026-04-28T10:42:31.746Z</time></trkpt><trkpt lat="43.4168999" lon="13.5537619"><ele>129.0</ele><time>2026-04-28T10:42:32.754Z</time></trkpt><trkpt lat="43.4169765" lon="13.553833"><ele>129.0</ele><time>2026-04-28T10:42:33.778Z</time></trkpt><trkpt lat="43.4170583" lon="13.5539214"><ele>127.2</ele><time>2026-04-28T10:42:34.753Z</time></trkpt><trkpt lat="43.4171339" lon="13.5540224"><ele>125.4</ele><time>2026-04-28T10:42:35.762Z</time></trkpt><trkpt lat="43.4172146" lon="13.5541288"><ele>123.6</ele><time>2026-04-28T10:42:36.737Z</time></trkpt><trkpt lat="43.4172914" lon="13.5542492"><ele>121.8</ele><time>2026-04-28T10:42:37.76Z</time></trkpt><trkpt lat="43.4173656" lon="13.5543694"><ele>120.0</ele><time>2026-04-28T10:42:38.775Z</time></trkpt><trkpt lat="43.4174197" lon="13.5544987"><ele>121.75</ele><time>2026-04-28T10:42:39.767Z</time></trkpt><trkpt lat="43.4174763" lon="13.5546397"><ele>123.5</ele><time>2026-04-28T10:42:40.772Z</time></trkpt><trkpt lat="43.4175364" lon="13.5547844"><ele>125.25</ele><time>2026-04-28T10:42:41.772Z</time></trkpt><trkpt lat="43.4175982" lon="13.5549277"><ele>127.0</ele><time>2026-04-28T10:42:42.771Z</time></trkpt><trkpt lat="43.4176598" lon="13.5550696"><ele>127.0</ele><time>2026-04-28T10:42:43.75Z</time></trkpt><trkpt lat="43.4177214" lon="13.555211"><ele>127.0</ele><time>2026-04-28T10:42:44.76Z</time></trkpt><trkpt lat="43.4177865" lon="13.5553488"><ele>127.0</ele><time>2026-04-28T10:42:45.753Z</time></trkpt><trkpt lat="43.4178509" lon="13.5554855"><ele>127.0</ele><time>2026-04-28T10:42:46.753Z</time></trkpt><trkpt lat="43.4179204" lon="13.5556228"><ele>122.75</ele><time>2026-04-28T10:42:47.772Z</time></trkpt><trkpt lat="43.4179921" lon="13.5557646"><ele>118.5</ele><time>2026-04-28T10:42:48.755Z</time></trkpt><trkpt lat="43.4180681" lon="13.5559108"><ele>114.25</ele><time>2026-04-28T10:42:49.764Z</time></trkpt><trkpt lat="43.4181528" lon="13.5560518"><ele>110.0</ele><time>2026-04-28T10:42:50.754Z</time></trkpt><trkpt lat="43.4182346" lon="13.5561891"><ele>111.5</ele><time>2026-04-28T10:42:51.763Z</time></trkpt><trkpt lat="43.4183168" lon="13.5563202"><ele>113.0</ele><time>2026-04-28T10:42:52.754Z</time></trkpt><trkpt lat="43.4183999" lon="13.5564471"><ele>114.5</ele><time>2026-04-28T10:42:53.755Z</time></trkpt><trkpt lat="43.4184776" lon="13.5565657"><ele>116.0</ele><time>2026-04-28T10:42:54.759Z</time></trkpt><trkpt lat="43.4185478" lon="13.5566681"><ele>116.0</ele><time>2026-04-28T10:42:55.76Z</time></trkpt><trkpt lat="43.4186256" lon="13.5567314"><ele>116.0</ele><time>2026-04-28T10:42:56.753Z</time></trkpt><trkpt lat="43.4187163" lon="13.5567274"><ele>116.0</ele><time>2026-04-28T10:42:57.77Z</time></trkpt><trkpt lat="43.4187952" lon="13.5566559"><ele>116.0</ele><time>2026-04-28T10:42:58.765Z</time></trkpt><trkpt lat="43.4188336" lon="13.5565234"><ele>116.0</ele><time>2026-04-28T10:42:59.752Z</time></trkpt><trkpt lat="43.4188375" lon="13.5563613"><ele>110.25</ele><time>2026-04-28T10:43:00.764Z</time></trkpt><trkpt lat="43.4188373" lon="13.5561781"><ele>104.5</ele><time>2026-04-28T10:43:01.752Z</time></trkpt><trkpt lat="43.418836" lon="13.5559885"><ele>98.75</ele><time>2026-04-28T10:43:02.778Z</time></trkpt><trkpt lat="43.4188291" lon="13.5558015"><ele>93.0</ele><time>2026-04-28T10:43:03.766Z</time></trkpt><trkpt lat="43.4188283" lon="13.5556156"><ele>93.0</ele><time>2026-04-28T10:43:04.759Z</time></trkpt><trkpt lat="43.4188263" lon="13.5554358"><ele>93.0</ele><time>2026-04-28T10:43:05.77Z</time></trkpt><trkpt lat="43.4188227" lon="13.5552663"><ele>93.0</ele><time>2026-04-28T10:43:06.748Z</time></trkpt><trkpt lat="43.4188221" lon="13.5550986"><ele>93.0</ele><time>2026-04-28T10:43:07.77Z</time></trkpt><trkpt lat="43.418816" lon="13.5549298"><ele>94.75</ele><time>2026-04-28T10:43:08.757Z</time></trkpt><trkpt lat="43.4188035" lon="13.5547577"><ele>96.5</ele><time>2026-04-28T10:43:09.78Z</time></trkpt><trkpt lat="43.4187898" lon="13.5545846"><ele>98.25</ele><time>2026-04-28T10:43:10.765Z</time></trkpt><trkpt lat="43.418785" lon="13.554413"><ele>100.0</ele><time>2026-04-28T10:43:11.768Z</time></trkpt><trkpt lat="43.4188035" lon="13.5542486"><ele>96.8</ele><time>2026-04-28T10:43:12.769Z</time></trkpt><trkpt lat="43.4188471" lon="13.554105"><ele>93.6</ele><time>2026-04-28T10:43:13.792Z</time></trkpt><trkpt lat="43.4189157" lon="13.5539879"><ele>90.4</ele><time>2026-04-28T10:43:14.766Z</time></trkpt><trkpt lat="43.4190078" lon="13.553918"><ele>87.2</ele><time>2026-04-28T10:43:15.767Z</time></trkpt><trkpt lat="43.419098" lon="13.5539334"><ele>84.0</ele><time>2026-04-28T10:43:16.771Z</time></trkpt><trkpt lat="43.419164" lon="13.5540077"><ele>84.0</ele><time>2026-04-28T10:43:17.77Z</time></trkpt><trkpt lat="43.4191863" lon="13.5541181"><ele>84.0</ele><time>2026-04-28T10:43:18.774Z</time></trkpt><trkpt lat="43.4192018" lon="13.5542405"><ele>84.0</ele><time>2026-04-28T10:43:19.769Z</time></trkpt><trkpt lat="43.4192199" lon="13.5543698"><ele>84.0</ele><time>2026-04-28T10:43:20.773Z</time></trkpt><trkpt lat="43.4192437" lon="13.5545017"><ele>84.0</ele><time>2026-04-28T10:43:21.771Z</time></trkpt><trkpt lat="43.4192646" lon="13.5546437"><ele>84.6</ele><time>2026-04-28T10:43:22.757Z</time></trkpt><trkpt lat="43.4192925" lon="13.5547794"><ele>85.2</ele><time>2026-04-28T10:43:23.776Z</time></trkpt><trkpt lat="43.4193219" lon="13.5549059"><ele>85.8</ele><time>2026-04-28T10:43:24.762Z</time></trkpt><trkpt lat="43.419362" lon="13.5550201"><ele>86.39999999999999</ele><time>2026-04-28T10:43:25.783Z</time></trkpt><trkpt lat="43.4194214" lon="13.5551162"><ele>87.0</ele><time>2026-04-28T10:43:26.755Z</time></trkpt><trkpt lat="43.4195005" lon="13.5551849"><ele>87.0</ele><time>2026-04-28T10:43:27.769Z</time></trkpt><trkpt lat="43.4195942" lon="13.5552103"><ele>87.0</ele><time>2026-04-28T10:43:28.758Z</time></trkpt><trkpt lat="43.4196884" lon="13.5551737"><ele>87.0</ele><time>2026-04-28T10:43:29.764Z</time></trkpt><trkpt lat="43.4197639" lon="13.5550893"><ele>87.0</ele><time>2026-04-28T10:43:30.773Z</time></trkpt><trkpt lat="43.4198129" lon="13.5549696"><ele>87.0</ele><time>2026-04-28T10:43:31.775Z</time></trkpt><trkpt lat="43.4198355" lon="13.5548272"><ele>84.5</ele><time>2026-04-28T10:43:32.767Z</time></trkpt><trkpt lat="43.41985" lon="13.5546668"><ele>82.0</ele><time>2026-04-28T10:43:33.767Z</time></trkpt><trkpt lat="43.4198632" lon="13.5545038"><ele>79.5</ele><time>2026-04-28T10:43:34.78Z</time></trkpt><trkpt lat="43.4198757" lon="13.554329"><ele>77.0</ele><time>2026-04-28T10:43:35.769Z</time></trkpt><trkpt lat="43.4198877" lon="13.5541351"><ele>75.33333333333334</ele><time>2026-04-28T10:43:36.759Z</time></trkpt><trkpt lat="43.4199033" lon="13.5539299"><ele>73.66666666666667</ele><time>2026-04-28T10:43:37.763Z</time></trkpt><trkpt lat="43.4199148" lon="13.5537247"><ele>72.0</ele><time>2026-04-28T10:43:38.77Z</time></trkpt><trkpt lat="43.4199253" lon="13.5535115"><ele>70.66666666666667</ele><time>2026-04-28T10:43:39.778Z</time></trkpt><trkpt lat="43.4199391" lon="13.5532885"><ele>69.33333333333334</ele><time>2026-04-28T10:43:40.773Z</time></trkpt><trkpt lat="43.419951" lon="13.55307"><ele>68.0</ele><time>2026-04-28T10:43:41.77Z</time></trkpt><trkpt lat="43.4199636" lon="13.5528561"><ele>67.25</ele><time>2026-04-28T10:43:42.773Z</time></trkpt><trkpt lat="43.4199747" lon="13.5526531"><ele>66.5</ele><time>2026-04-28T10:43:43.775Z</time></trkpt><trkpt lat="43.4199832" lon="13.5524469"><ele>65.75</ele><time>2026-04-28T10:43:44.763Z</time></trkpt><trkpt lat="43.4199942" lon="13.5522402"><ele>65.0</ele><time>2026-04-28T10:43:45.76Z</time></trkpt><trkpt lat="43.4200078" lon="13.5520253"><ele>63.333333333333336</ele><time>2026-04-28T10:43:46.764Z</time></trkpt><trkpt lat="43.4200221" lon="13.5518015"><ele>61.66666666666667</ele><time>2026-04-28T10:43:47.776Z</time></trkpt><trkpt lat="43.4200294" lon="13.5515733"><ele>60.0</ele><time>2026-04-28T10:43:48.768Z</time></trkpt><trkpt lat="43.4200241" lon="13.5513374"><ele>59.0</ele><time>2026-04-28T10:43:49.744Z</time></trkpt><trkpt lat="43.4200018" lon="13.5510997"><ele>58.0</ele><time>2026-04-28T10:43:50.76Z</time></trkpt><trkpt lat="43.4199684" lon="13.5508653"><ele>57.0</ele><time>2026-04-28T10:43:51.764Z</time></trkpt><trkpt lat="43.4199342" lon="13.5506423"><ele>57.0</ele><time>2026-04-28T10:43:52.759Z</time></trkpt><trkpt lat="43.4198948" lon="13.5504241"><ele>57.0</ele><time>2026-04-28T10:43:53.771Z</time></trkpt><trkpt lat="43.4198537" lon="13.5501989"><ele>57.0</ele><time>2026-04-28T10:43:54.759Z</time></trkpt><trkpt lat="43.4198157" lon="13.5499719"><ele>56.0</ele><time>2026-04-28T10:43:55.77Z</time></trkpt><trkpt lat="43.4197786" lon="13.5497405"><ele>55.0</ele><time>2026-04-28T10:43:56.765Z</time></trkpt><trkpt lat="43.4197554" lon="13.5494996"><ele>54.0</ele><time>2026-04-28T10:43:57.766Z</time></trkpt><trkpt lat="43.4197479" lon="13.5492472"><ele>53.33333333333333</ele><time>2026-04-28T10:43:58.752Z</time></trkpt><trkpt lat="43.4197543" lon="13.548985"><ele>52.666666666666664</ele><time>2026-04-28T10:43:59.764Z</time></trkpt><trkpt lat="43.419773" lon="13.5487238"><ele>52.0</ele><time>2026-04-28T10:44:00.759Z</time></trkpt><trkpt lat="43.4197922" lon="13.5484529"><ele>51.0</ele><time>2026-04-28T10:44:01.781Z</time></trkpt><trkpt lat="43.4198124" lon="13.5481794"><ele>50.0</ele><time>2026-04-28T10:44:02.757Z</time></trkpt><trkpt lat="43.4198314" lon="13.5479084"><ele>49.0</ele><time>2026-04-28T10:44:03.76Z</time></trkpt><trkpt lat="43.4198481" lon="13.5476356"><ele>49.0</ele><time>2026-04-28T10:44:04.762Z</time></trkpt><trkpt lat="43.4198644" lon="13.5473614"><ele>49.0</ele><time>2026-04-28T10:44:05.783Z</time></trkpt><trkpt lat="43.4198803" lon="13.5470945"><ele>49.0</ele><time>2026-04-28T10:44:06.755Z</time></trkpt><trkpt lat="43.4198995" lon="13.5468313"><ele>48.0</ele><time>2026-04-28T10:44:07.766Z</time></trkpt><trkpt lat="43.4199196" lon="13.5465762"><ele>47.0</ele><time>2026-04-28T10:44:08.767Z</time></trkpt><trkpt lat="43.4199402" lon="13.5463276"><ele>46.0</ele><time>2026-04-28T10:44:09.762Z</time></trkpt><trkpt lat="43.4199671" lon="13.5460838"><ele>45.333333333333336</ele><time>2026-04-28T10:44:10.755Z</time></trkpt><trkpt lat="43.4199955" lon="13.5458413"><ele>44.666666666666664</ele><time>2026-04-28T10:44:11.77Z</time></trkpt><trkpt lat="43.4200334" lon="13.545603"><ele>44.0</ele><time>2026-04-28T10:44:12.767Z</time></trkpt><trkpt lat="43.420095" lon="13.5453701"><ele>43.0</ele><time>2026-04-28T10:44:13.772Z</time></trkpt><trkpt lat="43.4201832" lon="13.5451489"><ele>42.0</ele><time>2026-04-28T10:44:14.763Z</time></trkpt><trkpt lat="43.4203112" lon="13.544964"><ele>41.0</ele><time>2026-04-28T10:44:15.782Z</time></trkpt><trkpt lat="43.4204565" lon="13.5447849"><ele>41.0</ele><time>2026-04-28T10:44:16.765Z</time></trkpt><trkpt lat="43.4206194" lon="13.5446198"><ele>41.0</ele><time>2026-04-28T10:44:17.76Z</time></trkpt><trkpt lat="43.4207891" lon="13.5444713"><ele>41.0</ele><time>2026-04-28T10:44:18.745Z</time></trkpt><trkpt lat="43.4209686" lon="13.5443303"><ele>41.0</ele><time>2026-04-28T10:44:19.777Z</time></trkpt><trkpt lat="43.4211449" lon="13.5441919"><ele>41.0</ele><time>2026-04-28T10:44:20.758Z</time></trkpt><trkpt lat="43.4213147" lon="13.5440339"><ele>41.0</ele><time>2026-04-28T10:44:21.761Z</time></trkpt><trkpt lat="43.4214757" lon="13.5438573"><ele>40.0</ele><time>2026-04-28T10:44:22.763Z</time></trkpt><trkpt lat="43.4216356" lon="13.5436644"><ele>39.0</ele><time>2026-04-28T10:44:23.77Z</time></trkpt><trkpt lat="43.4217869" lon="13.5434582"><ele>38.0</ele><time>2026-04-28T10:44:24.766Z</time></trkpt><trkpt lat="43.4219409" lon="13.5432595"><ele>38.0</ele><time>2026-04-28T10:44:25.782Z</time></trkpt><trkpt lat="43.4220952" lon="13.543057"><ele>38.0</ele><time>2026-04-28T10:44:26.781Z</time></trkpt><trkpt lat="43.4222504" lon="13.5428649"><ele>38.0</ele><time>2026-04-28T10:44:27.78Z</time></trkpt><trkpt lat="43.4224174" lon="13.5426915"><ele>37.33333333333333</ele><time>2026-04-28T10:44:28.76Z</time></trkpt><trkpt lat="43.4225964" lon="13.5425383"><ele>36.666666666666664</ele><time>2026-04-28T10:44:29.776Z</time></trkpt><trkpt lat="43.4227804" lon="13.5423806"><ele>36.0</ele><time>2026-04-28T10:44:30.767Z</time></trkpt><trkpt lat="43.4229714" lon="13.5422235"><ele>35.666666666666664</ele><time>2026-04-28T10:44:31.777Z</time></trkpt><trkpt lat="43.4231586" lon="13.5420642"><ele>35.33333333333333</ele><time>2026-04-28T10:44:32.76Z</time></trkpt><trkpt lat="43.4233466" lon="13.5419048"><ele>35.0</ele><time>2026-04-28T10:44:33.765Z</time></trkpt><trkpt lat="43.4235345" lon="13.5417454"><ele>35.0</ele><time>2026-04-28T10:44:34.761Z</time></trkpt><trkpt lat="43.4237206" lon="13.5415889"><ele>35.0</ele><time>2026-04-28T10:44:35.773Z</time></trkpt><trkpt lat="43.4239028" lon="13.5414307"><ele>35.0</ele><time>2026-04-28T10:44:36.766Z</time></trkpt><trkpt lat="43.4240783" lon="13.5412755"><ele>35.0</ele><time>2026-04-28T10:44:37.775Z</time></trkpt><trkpt lat="43.4242482" lon="13.5411149"><ele>35.0</ele><time>2026-04-28T10:44:38.767Z</time></trkpt><trkpt lat="43.4244108" lon="13.5409443"><ele>35.0</ele><time>2026-04-28T10:44:39.8Z</time></trkpt><trkpt lat="43.424572" lon="13.540763"><ele>33.666666666666664</ele><time>2026-04-28T10:44:40.772Z</time></trkpt><trkpt lat="43.4247294" lon="13.5405791"><ele>32.333333333333336</ele><time>2026-04-28T10:44:41.78Z</time></trkpt><trkpt lat="43.4248877" lon="13.5403889"><ele>31.0</ele><time>2026-04-28T10:44:42.763Z</time></trkpt><trkpt lat="43.4250477" lon="13.5402027"><ele>31.0</ele><time>2026-04-28T10:44:43.762Z</time></trkpt><trkpt lat="43.4252105" lon="13.5400162"><ele>31.0</ele><time>2026-04-28T10:44:44.76Z</time></trkpt><trkpt lat="43.4253777" lon="13.5398287"><ele>31.0</ele><time>2026-04-28T10:44:45.76Z</time></trkpt><trkpt lat="43.4255446" lon="13.5396374"><ele>31.0</ele><time>2026-04-28T10:44:46.777Z</time></trkpt><trkpt lat="43.4257107" lon="13.5394482"><ele>31.0</ele><time>2026-04-28T10:44:47.787Z</time></trkpt><trkpt lat="43.4258715" lon="13.5392572"><ele>31.0</ele><time>2026-04-28T10:44:48.761Z</time></trkpt><trkpt lat="43.4260372" lon="13.53907"><ele>31.0</ele><time>2026-04-28T10:44:49.769Z</time></trkpt><trkpt lat="43.4261983" lon="13.5388842"><ele>31.0</ele><time>2026-04-28T10:44:50.768Z</time></trkpt><trkpt lat="43.4263544" lon="13.5387041"><ele>31.0</ele><time>2026-04-28T10:44:51.773Z</time></trkpt><trkpt lat="43.4265095" lon="13.5385299"><ele>32.66666666666667</ele><time>2026-04-28T10:44:52.76Z</time></trkpt><trkpt lat="43.4266689" lon="13.5383698"><ele>34.333333333333336</ele><time>2026-04-28T10:44:53.778Z</time></trkpt><trkpt lat="43.4268393" lon="13.5382291"><ele>36.0</ele><time>2026-04-28T10:44:54.769Z</time></trkpt><trkpt lat="43.4270122" lon="13.5381033"><ele>35.666666666666664</ele><time>2026-04-28T10:44:55.771Z</time></trkpt><trkpt lat="43.4271842" lon="13.5379708"><ele>35.33333333333333</ele><time>2026-04-28T10:44:56.779Z</time></trkpt><trkpt lat="43.4273555" lon="13.5378377"><ele>35.0</ele><time>2026-04-28T10:44:57.773Z</time></trkpt><trkpt lat="43.4275252" lon="13.5377064"><ele>35.666666666666664</ele><time>2026-04-28T10:44:58.774Z</time></trkpt><trkpt lat="43.4276946" lon="13.5375725"><ele>36.333333333333336</ele><time>2026-04-28T10:44:59.773Z</time></trkpt><trkpt lat="43.4278639" lon="13.537433"><ele>37.0</ele><time>2026-04-28T10:45:00.767Z</time></trkpt><trkpt lat="43.4280339" lon="13.537296"><ele>37.0</ele><time>2026-04-28T10:45:01.769Z</time></trkpt><trkpt lat="43.4282002" lon="13.5371609"><ele>37.0</ele><time>2026-04-28T10:45:02.772Z</time></trkpt><trkpt lat="43.4283617" lon="13.5370336"><ele>37.0</ele><time>2026-04-28T10:45:03.766Z</time></trkpt><trkpt lat="43.4285227" lon="13.5369109"><ele>37.0</ele><time>2026-04-28T10:45:04.773Z</time></trkpt><trkpt lat="43.4286783" lon="13.5367897"><ele>37.0</ele><time>2026-04-28T10:45:05.759Z</time></trkpt><trkpt lat="43.4288252" lon="13.5366748"><ele>37.0</ele><time>2026-04-28T10:45:06.747Z</time></trkpt><trkpt lat="43.4289639" lon="13.5365625"><ele>37.0</ele><time>2026-04-28T10:45:07.748Z</time></trkpt><trkpt lat="43.4291003" lon="13.5364591"><ele>37.0</ele><time>2026-04-28T10:45:08.751Z</time></trkpt><trkpt lat="43.4292277" lon="13.536385"><ele>37.0</ele><time>2026-04-28T10:45:09.745Z</time></trkpt><trkpt lat="43.4293774" lon="13.5363469"><ele>37.0</ele><time>2026-04-28T10:45:10.75Z</time></trkpt><trkpt lat="43.429544" lon="13.5363296"><ele>38.0</ele><time>2026-04-28T10:45:11.755Z</time></trkpt><trkpt lat="43.4297045" lon="13.5363493"><ele>39.0</ele><time>2026-04-28T10:45:12.751Z</time></trkpt><trkpt lat="43.4298655" lon="13.5363741"><ele>40.0</ele><time>2026-04-28T10:45:13.755Z</time></trkpt><trkpt lat="43.4300219" lon="13.5363916"><ele>40.0</ele><time>2026-04-28T10:45:14.741Z</time></trkpt><trkpt lat="43.430157" lon="13.5364149"><ele>40.0</ele><time>2026-04-28T10:45:15.755Z</time></trkpt><trkpt lat="43.430272" lon="13.5364332"><ele>40.0</ele><time>2026-04-28T10:45:16.742Z</time></trkpt><trkpt lat="43.4303647" lon="13.5364493"><ele>40.0</ele><time>2026-04-28T10:45:17.774Z</time></trkpt><trkpt lat="43.4304375" lon="13.5364632"><ele>40.0</ele><time>2026-04-28T10:45:18.759Z</time></trkpt><trkpt lat="43.4305155" lon="13.5364717"><ele>40.6</ele><time>2026-04-28T10:45:21.764Z</time></trkpt><trkpt lat="43.4305841" lon="13.5364756"><ele>41.2</ele><time>2026-04-28T10:45:41.75Z</time></trkpt><trkpt lat="43.4307073" lon="13.5364834"><ele>41.8</ele><time>2026-04-28T10:45:43.756Z</time></trkpt><trkpt lat="43.4307812" lon="13.5364899"><ele>42.4</ele><time>2026-04-28T10:45:44.75Z</time></trkpt><trkpt lat="43.4308677" lon="13.5364944"><ele>43.0</ele><time>2026-04-28T10:45:45.755Z</time></trkpt><trkpt lat="43.4309651" lon="13.5364988"><ele>43.0</ele><time>2026-04-28T10:45:46.749Z</time></trkpt><trkpt lat="43.4310819" lon="13.5364903"><ele>43.0</ele><time>2026-04-28T10:45:47.76Z</time></trkpt><trkpt lat="43.4312124" lon="13.5364858"><ele>43.0</ele><time>2026-04-28T10:45:48.752Z</time></trkpt><trkpt lat="43.4313482" lon="13.5364795"><ele>43.0</ele><time>2026-04-28T10:45:49.763Z</time></trkpt><trkpt lat="43.4314939" lon="13.5364709"><ele>39.66666666666667</ele><time>2026-04-28T10:45:50.744Z</time></trkpt><trkpt lat="43.4316559" lon="13.5364619"><ele>36.333333333333336</ele><time>2026-04-28T10:45:51.751Z</time></trkpt><trkpt lat="43.4318091" lon="13.5364559"><ele>33.0</ele><time>2026-04-28T10:45:52.765Z</time></trkpt><trkpt lat="43.4319584" lon="13.5364518"><ele>33.0</ele><time>2026-04-28T10:45:53.752Z</time></trkpt><trkpt lat="43.4321137" lon="13.5364529"><ele>33.0</ele><time>2026-04-28T10:45:54.756Z</time></trkpt><trkpt lat="43.4322671" lon="13.5364533"><ele>33.0</ele><time>2026-04-28T10:45:55.749Z</time></trkpt><trkpt lat="43.4324221" lon="13.5364573"><ele>31.666666666666664</ele><time>2026-04-28T10:45:56.75Z</time></trkpt><trkpt lat="43.4325751" lon="13.5364772"><ele>30.333333333333332</ele><time>2026-04-28T10:45:57.752Z</time></trkpt><trkpt lat="43.4327216" lon="13.5365069"><ele>29.0</ele><time>2026-04-28T10:45:58.754Z</time></trkpt><trkpt lat="43.4328755" lon="13.536542"><ele>29.0</ele><time>2026-04-28T10:45:59.749Z</time></trkpt><trkpt lat="43.4330372" lon="13.5365868"><ele>29.0</ele><time>2026-04-28T10:46:00.747Z</time></trkpt><trkpt lat="43.4332014" lon="13.536635"><ele>29.0</ele><time>2026-04-28T10:46:01.755Z</time></trkpt><trkpt lat="43.433372" lon="13.5366771"><ele>29.0</ele><time>2026-04-28T10:46:02.749Z</time></trkpt><trkpt lat="43.4335346" lon="13.5367219"><ele>29.0</ele><time>2026-04-28T10:46:03.758Z</time></trkpt><trkpt lat="43.4336888" lon="13.536767"><ele>29.0</ele><time>2026-04-28T10:46:04.755Z</time></trkpt><trkpt lat="43.4338397" lon="13.5368087"><ele>28.666666666666664</ele><time>2026-04-28T10:46:05.759Z</time></trkpt><trkpt lat="43.433992" lon="13.5368555"><ele>28.333333333333336</ele><time>2026-04-28T10:46:06.76Z</time></trkpt><trkpt lat="43.4341501" lon="13.5369024"><ele>28.0</ele><time>2026-04-28T10:46:07.767Z</time></trkpt><trkpt lat="43.4343124" lon="13.536951"><ele>28.0</ele><time>2026-04-28T10:46:08.769Z</time></trkpt><trkpt lat="43.4344782" lon="13.536998"><ele>28.0</ele><time>2026-04-28T10:46:09.759Z</time></trkpt><trkpt lat="43.4346398" lon="13.537049"><ele>28.0</ele><time>2026-04-28T10:46:10.75Z</time></trkpt><trkpt lat="43.4348064" lon="13.5370965"><ele>28.333333333333336</ele><time>2026-04-28T10:46:11.748Z</time></trkpt><trkpt lat="43.4349723" lon="13.5371446"><ele>28.666666666666664</ele><time>2026-04-28T10:46:12.749Z</time></trkpt><trkpt lat="43.4351425" lon="13.5371879"><ele>29.0</ele><time>2026-04-28T10:46:13.754Z</time></trkpt><trkpt lat="43.4353094" lon="13.5372338"><ele>29.0</ele><time>2026-04-28T10:46:14.752Z</time></trkpt><trkpt lat="43.4354786" lon="13.5372789"><ele>29.0</ele><time>2026-04-28T10:46:15.757Z</time></trkpt><trkpt lat="43.4356443" lon="13.5373234"><ele>29.0</ele><time>2026-04-28T10:46:16.748Z</time></trkpt><trkpt lat="43.4358095" lon="13.5373689"><ele>29.0</ele><time>2026-04-28T10:46:17.754Z</time></trkpt><trkpt lat="43.4359757" lon="13.5374132"><ele>29.0</ele><time>2026-04-28T10:46:18.753Z</time></trkpt><trkpt lat="43.4361448" lon="13.5374577"><ele>29.0</ele><time>2026-04-28T10:46:19.766Z</time></trkpt><trkpt lat="43.4363128" lon="13.537504"><ele>28.333333333333332</ele><time>2026-04-28T10:46:20.746Z</time></trkpt><trkpt lat="43.4364847" lon="13.5375496"><ele>27.666666666666664</ele><time>2026-04-28T10:46:21.755Z</time></trkpt><trkpt lat="43.4366588" lon="13.5375975"><ele>27.0</ele><time>2026-04-28T10:46:22.759Z</time></trkpt><trkpt lat="43.4368357" lon="13.5376484"><ele>27.0</ele><time>2026-04-28T10:46:23.762Z</time></trkpt><trkpt lat="43.4370108" lon="13.5376986"><ele>27.0</ele><time>2026-04-28T10:46:24.745Z</time></trkpt><trkpt lat="43.4371838" lon="13.5377503"><ele>27.0</ele><time>2026-04-28T10:46:25.752Z</time></trkpt><trkpt lat="43.4373461" lon="13.5377981"><ele>27.666666666666664</ele><time>2026-04-28T10:46:26.751Z</time></trkpt><trkpt lat="43.4375036" lon="13.5378375"><ele>28.333333333333332</ele><time>2026-04-28T10:46:27.757Z</time></trkpt><trkpt lat="43.437659" lon="13.537881"><ele>29.0</ele><time>2026-04-28T10:46:28.749Z</time></trkpt><trkpt lat="43.4378161" lon="13.5379241"><ele>28.333333333333332</ele><time>2026-04-28T10:46:29.753Z</time></trkpt><trkpt lat="43.4379806" lon="13.5379701"><ele>27.666666666666664</ele><time>2026-04-28T10:46:30.75Z</time></trkpt><trkpt lat="43.4381393" lon="13.5380141"><ele>27.0</ele><time>2026-04-28T10:46:31.754Z</time></trkpt><trkpt lat="43.4382901" lon="13.5380489"><ele>27.0</ele><time>2026-04-28T10:46:32.748Z</time></trkpt><trkpt lat="43.4384375" lon="13.5380874"><ele>27.0</ele><time>2026-04-28T10:46:33.754Z</time></trkpt><trkpt lat="43.4385789" lon="13.5381265"><ele>27.0</ele><time>2026-04-28T10:46:34.748Z</time></trkpt><trkpt lat="43.4387154" lon="13.5381649"><ele>27.0</ele><time>2026-04-28T10:46:35.766Z</time></trkpt><trkpt lat="43.4388505" lon="13.5382041"><ele>27.75</ele><time>2026-04-28T10:46:36.75Z</time></trkpt><trkpt lat="43.4389882" lon="13.5382448"><ele>28.5</ele><time>2026-04-28T10:46:37.761Z</time></trkpt><trkpt lat="43.4391222" lon="13.5382858"><ele>29.25</ele><time>2026-04-28T10:46:38.752Z</time></trkpt><trkpt lat="43.4392578" lon="13.5383236"><ele>30.0</ele><time>2026-04-28T10:46:39.767Z</time></trkpt><trkpt lat="43.4393872" lon="13.538359"><ele>30.0</ele><time>2026-04-28T10:46:40.748Z</time></trkpt><trkpt lat="43.4395063" lon="13.5383885"><ele>30.0</ele><time>2026-04-28T10:46:41.753Z</time></trkpt><trkpt lat="43.4396203" lon="13.5383958"><ele>30.0</ele><time>2026-04-28T10:46:42.75Z</time></trkpt><trkpt lat="43.4397238" lon="13.5383304"><ele>30.0</ele><time>2026-04-28T10:46:43.756Z</time></trkpt><trkpt lat="43.4398042" lon="13.5382239"><ele>30.25</ele><time>2026-04-28T10:46:44.76Z</time></trkpt><trkpt lat="43.4398567" lon="13.5380825"><ele>30.5</ele><time>2026-04-28T10:46:45.743Z</time></trkpt><trkpt lat="43.4398781" lon="13.5379135"><ele>30.75</ele><time>2026-04-28T10:46:46.757Z</time></trkpt><trkpt lat="43.4398818" lon="13.5377241"><ele>31.0</ele><time>2026-04-28T10:46:47.75Z</time></trkpt><trkpt lat="43.4398895" lon="13.5375318"><ele>31.5</ele><time>2026-04-28T10:46:48.756Z</time></trkpt><trkpt lat="43.4398936" lon="13.5373298"><ele>32.0</ele><time>2026-04-28T10:46:49.76Z</time></trkpt><trkpt lat="43.4398963" lon="13.5371347"><ele>32.5</ele><time>2026-04-28T10:46:50.769Z</time></trkpt><trkpt lat="43.4398938" lon="13.5369459"><ele>33.0</ele><time>2026-04-28T10:46:51.755Z</time></trkpt><trkpt lat="43.4398957" lon="13.536759"><ele>33.0</ele><time>2026-04-28T10:46:52.754Z</time></trkpt><trkpt lat="43.4398987" lon="13.536573"><ele>33.0</ele><time>2026-04-28T10:46:53.755Z</time></trkpt><trkpt lat="43.4399008" lon="13.5363853"><ele>33.0</ele><time>2026-04-28T10:46:54.753Z</time></trkpt><trkpt lat="43.439904" lon="13.5361904"><ele>33.0</ele><time>2026-04-28T10:46:55.759Z</time></trkpt><trkpt lat="43.4399099" lon="13.5359965"><ele>32.5</ele><time>2026-04-28T10:46:56.746Z</time></trkpt><trkpt lat="43.4399157" lon="13.5358032"><ele>32.0</ele><time>2026-04-28T10:46:57.764Z</time></trkpt><trkpt lat="43.4399188" lon="13.5356051"><ele>31.5</ele><time>2026-04-28T10:46:58.752Z</time></trkpt><trkpt lat="43.439917" lon="13.5353963"><ele>31.0</ele><time>2026-04-28T10:46:59.757Z</time></trkpt><trkpt lat="43.4399176" lon="13.5351813"><ele>31.0</ele><time>2026-04-28T10:47:00.76Z</time></trkpt><trkpt lat="43.4399173" lon="13.5349599"><ele>31.0</ele><time>2026-04-28T10:47:01.757Z</time></trkpt><trkpt lat="43.4399184" lon="13.534736"><ele>31.0</ele><time>2026-04-28T10:47:02.757Z</time></trkpt><trkpt lat="43.439924" lon="13.5345118"><ele>30.5</ele><time>2026-04-28T10:47:03.761Z</time></trkpt><trkpt lat="43.4399289" lon="13.5343036"><ele>30.0</ele><time>2026-04-28T10:47:04.761Z</time></trkpt><trkpt lat="43.4399457" lon="13.5341021"><ele>29.5</ele><time>2026-04-28T10:47:05.754Z</time></trkpt><trkpt lat="43.4399837" lon="13.533908"><ele>29.0</ele><time>2026-04-28T10:47:06.746Z</time></trkpt><trkpt lat="43.4400546" lon="13.5337027"><ele>28.333333333333332</ele><time>2026-04-28T10:47:07.764Z</time></trkpt><trkpt lat="43.440148" lon="13.5335153"><ele>27.666666666666664</ele><time>2026-04-28T10:47:08.759Z</time></trkpt><trkpt lat="43.4402577" lon="13.5333417"><ele>27.0</ele><time>2026-04-28T10:47:09.765Z</time></trkpt><trkpt lat="43.4403719" lon="13.5331737"><ele>27.0</ele><time>2026-04-28T10:47:10.761Z</time></trkpt><trkpt lat="43.440486" lon="13.53303"><ele>27.0</ele><time>2026-04-28T10:47:11.761Z</time></trkpt><trkpt lat="43.4406071" lon="13.5329227"><ele>27.0</ele><time>2026-04-28T10:47:12.749Z</time></trkpt><trkpt lat="43.4407544" lon="13.5328659"><ele>27.0</ele><time>2026-04-28T10:47:13.755Z</time></trkpt><trkpt lat="43.4409121" lon="13.5328667"><ele>27.0</ele><time>2026-04-28T10:47:14.752Z</time></trkpt><trkpt lat="43.4410836" lon="13.5328828"><ele>27.0</ele><time>2026-04-28T10:47:15.748Z</time></trkpt><trkpt lat="43.4412543" lon="13.532916"><ele>28.333333333333336</ele><time>2026-04-28T10:47:16.78Z</time></trkpt><trkpt lat="43.441425" lon="13.5329448"><ele>29.666666666666668</ele><time>2026-04-28T10:47:17.768Z</time></trkpt><trkpt lat="43.4415986" lon="13.5329625"><ele>31.0</ele><time>2026-04-28T10:47:18.755Z</time></trkpt><trkpt lat="43.4417594" lon="13.5329724"><ele>31.0</ele><time>2026-04-28T10:47:19.75Z</time></trkpt><trkpt lat="43.4419205" lon="13.5329651"><ele>31.0</ele><time>2026-04-28T10:47:20.75Z</time></trkpt><trkpt lat="43.4420841" lon="13.5329359"><ele>31.0</ele><time>2026-04-28T10:47:21.757Z</time></trkpt><trkpt lat="43.442252" lon="13.5329003"><ele>30.666666666666668</ele><time>2026-04-28T10:47:22.754Z</time></trkpt><trkpt lat="43.4424168" lon="13.5328691"><ele>30.333333333333336</ele><time>2026-04-28T10:47:23.758Z</time></trkpt><trkpt lat="43.4425783" lon="13.532834"><ele>30.0</ele><time>2026-04-28T10:47:24.757Z</time></trkpt><trkpt lat="43.4427383" lon="13.5327939"><ele>30.0</ele><time>2026-04-28T10:47:25.767Z</time></trkpt><trkpt lat="43.4428951" lon="13.5327594"><ele>30.0</ele><time>2026-04-28T10:47:26.756Z</time></trkpt><trkpt lat="43.4430528" lon="13.5327308"><ele>30.0</ele><time>2026-04-28T10:47:27.748Z</time></trkpt><trkpt lat="43.4432144" lon="13.5327018"><ele>30.666666666666664</ele><time>2026-04-28T10:47:28.753Z</time></trkpt><trkpt lat="43.4433759" lon="13.5326795"><ele>31.333333333333332</ele><time>2026-04-28T10:47:29.752Z</time></trkpt><trkpt lat="43.4435362" lon="13.532669"><ele>32.0</ele><time>2026-04-28T10:47:30.752Z</time></trkpt><trkpt lat="43.4436958" lon="13.5326619"><ele>32.0</ele><time>2026-04-28T10:47:31.752Z</time></trkpt><trkpt lat="43.4438573" lon="13.5326517"><ele>32.0</ele><time>2026-04-28T10:47:32.754Z</time></trkpt><trkpt lat="43.4440211" lon="13.5326445"><ele>32.0</ele><time>2026-04-28T10:47:33.748Z</time></trkpt><trkpt lat="43.4441922" lon="13.5326373"><ele>32.0</ele><time>2026-04-28T10:47:34.755Z</time></trkpt><trkpt lat="43.4443678" lon="13.5326269"><ele>32.0</ele><time>2026-04-28T10:47:35.761Z</time></trkpt><trkpt lat="43.4445446" lon="13.5326093"><ele>32.0</ele><time>2026-04-28T10:47:36.753Z</time></trkpt><trkpt lat="43.4447258" lon="13.5325835"><ele>31.333333333333332</ele><time>2026-04-28T10:47:37.751Z</time></trkpt><trkpt lat="43.4449142" lon="13.5325453"><ele>30.666666666666664</ele><time>2026-04-28T10:47:38.748Z</time></trkpt><trkpt lat="43.4451106" lon="13.5325021"><ele>30.0</ele><time>2026-04-28T10:47:39.76Z</time></trkpt><trkpt lat="43.4453018" lon="13.5324648"><ele>30.0</ele><time>2026-04-28T10:47:40.755Z</time></trkpt><trkpt lat="43.4454808" lon="13.532432"><ele>30.0</ele><time>2026-04-28T10:47:41.756Z</time></trkpt><trkpt lat="43.4456478" lon="13.5324025"><ele>30.0</ele><time>2026-04-28T10:47:42.749Z</time></trkpt><trkpt lat="43.4458015" lon="13.5323865"><ele>30.0</ele><time>2026-04-28T10:47:43.758Z</time></trkpt><trkpt lat="43.4459594" lon="13.5324031"><ele>30.0</ele><time>2026-04-28T10:47:44.752Z</time></trkpt><trkpt lat="43.4461223" lon="13.5324669"><ele>30.0</ele><time>2026-04-28T10:47:45.76Z</time></trkpt><trkpt lat="43.4462801" lon="13.5325452"><ele>30.0</ele><time>2026-04-28T10:47:46.765Z</time></trkpt><trkpt lat="43.4464391" lon="13.5326417"><ele>30.0</ele><time>2026-04-28T10:47:47.759Z</time></trkpt><trkpt lat="43.4466034" lon="13.5327442"><ele>30.0</ele><time>2026-04-28T10:47:48.751Z</time></trkpt><trkpt lat="43.4467676" lon="13.5328487"><ele>30.0</ele><time>2026-04-28T10:47:49.754Z</time></trkpt><trkpt lat="43.4469318" lon="13.532953"><ele>30.0</ele><time>2026-04-28T10:47:50.752Z</time></trkpt><trkpt lat="43.4470987" lon="13.5330603"><ele>30.0</ele><time>2026-04-28T10:47:51.762Z</time></trkpt><trkpt lat="43.4472686" lon="13.5331671"><ele>30.0</ele><time>2026-04-28T10:47:52.747Z</time></trkpt><trkpt lat="43.4474405" lon="13.5332774"><ele>30.0</ele><time>2026-04-28T10:47:53.759Z</time></trkpt><trkpt lat="43.4476131" lon="13.5333882"><ele>30.0</ele><time>2026-04-28T10:47:54.758Z</time></trkpt><trkpt lat="43.4477878" lon="13.5335018"><ele>29.666666666666664</ele><time>2026-04-28T10:47:55.756Z</time></trkpt><trkpt lat="43.4479671" lon="13.533613"><ele>29.333333333333332</ele><time>2026-04-28T10:47:56.752Z</time></trkpt><trkpt lat="43.4481405" lon="13.5337209"><ele>29.0</ele><time>2026-04-28T10:47:57.758Z</time></trkpt><trkpt lat="43.4483021" lon="13.5338278"><ele>29.666666666666664</ele><time>2026-04-28T10:47:58.753Z</time></trkpt><trkpt lat="43.4484534" lon="13.5339234"><ele>30.333333333333336</ele><time>2026-04-28T10:47:59.755Z</time></trkpt><trkpt lat="43.4486101" lon="13.5340025"><ele>31.0</ele><time>2026-04-28T10:48:00.751Z</time></trkpt><trkpt lat="43.4487732" lon="13.5340666"><ele>30.666666666666668</ele><time>2026-04-28T10:48:01.762Z</time></trkpt><trkpt lat="43.4489434" lon="13.5341242"><ele>30.333333333333336</ele><time>2026-04-28T10:48:02.749Z</time></trkpt><trkpt lat="43.44911" lon="13.5341753"><ele>30.0</ele><time>2026-04-28T10:48:03.78Z</time></trkpt><trkpt lat="43.4492691" lon="13.534214"><ele>30.0</ele><time>2026-04-28T10:48:04.769Z</time></trkpt><trkpt lat="43.4494328" lon="13.5342432"><ele>30.0</ele><time>2026-04-28T10:48:05.765Z</time></trkpt><trkpt lat="43.4495941" lon="13.5342643"><ele>30.0</ele><time>2026-04-28T10:48:06.758Z</time></trkpt><trkpt lat="43.4497458" lon="13.5342797"><ele>29.75</ele><time>2026-04-28T10:48:07.777Z</time></trkpt><trkpt lat="43.449887" lon="13.5342886"><ele>29.5</ele><time>2026-04-28T10:48:08.77Z</time></trkpt><trkpt lat="43.4500163" lon="13.5342958"><ele>29.25</ele><time>2026-04-28T10:48:09.766Z</time></trkpt><trkpt lat="43.4501423" lon="13.5342968"><ele>29.0</ele><time>2026-04-28T10:48:10.769Z</time></trkpt><trkpt lat="43.450263" lon="13.5343012"><ele>29.0</ele><time>2026-04-28T10:48:11.76Z</time></trkpt><trkpt lat="43.4503757" lon="13.5343032"><ele>29.0</ele><time>2026-04-28T10:48:12.761Z</time></trkpt><trkpt lat="43.4504812" lon="13.5343055"><ele>29.0</ele><time>2026-04-28T10:48:13.769Z</time></trkpt><trkpt lat="43.4505709" lon="13.5343152"><ele>29.0</ele><time>2026-04-28T10:48:14.752Z</time></trkpt><trkpt lat="43.4506438" lon="13.5343297"><ele>29.0</ele><time>2026-04-28T10:48:15.771Z</time></trkpt><trkpt lat="43.450722" lon="13.5343456"><ele>29.333333333333332</ele><time>2026-04-28T10:48:17.761Z</time></trkpt><trkpt lat="43.4508001" lon="13.5343812"><ele>29.666666666666664</ele><time>2026-04-28T10:48:25.768Z</time></trkpt><trkpt lat="43.4509103" lon="13.5343694"><ele>30.0</ele><time>2026-04-28T10:48:27.759Z</time></trkpt><trkpt lat="43.4509498" lon="13.5343012"><ele>30.333333333333336</ele><time>2026-04-28T10:48:28.757Z</time></trkpt><trkpt lat="43.450972" lon="13.5341925"><ele>30.666666666666668</ele><time>2026-04-28T10:48:29.751Z</time></trkpt><trkpt lat="43.4509956" lon="13.5340808"><ele>31.0</ele><time>2026-04-28T10:48:30.761Z</time></trkpt><trkpt lat="43.4510434" lon="13.5339579"><ele>31.0</ele><time>2026-04-28T10:48:31.767Z</time></trkpt><trkpt lat="43.4510942" lon="13.5338321"><ele>31.0</ele><time>2026-04-28T10:48:32.749Z</time></trkpt><trkpt lat="43.451151" lon="13.5336974"><ele>31.0</ele><time>2026-04-28T10:48:33.759Z</time></trkpt><trkpt lat="43.4512093" lon="13.5335476"><ele>31.0</ele><time>2026-04-28T10:48:34.756Z</time></trkpt><trkpt lat="43.4512664" lon="13.5333838"><ele>31.666666666666668</ele><time>2026-04-28T10:48:35.75Z</time></trkpt><trkpt lat="43.4513277" lon="13.5332061"><ele>32.333333333333336</ele><time>2026-04-28T10:48:36.747Z</time></trkpt><trkpt lat="43.4513869" lon="13.5330143"><ele>33.0</ele><time>2026-04-28T10:48:37.757Z</time></trkpt><trkpt lat="43.4514389" lon="13.5328116"><ele>33.0</ele><time>2026-04-28T10:48:38.747Z</time></trkpt><trkpt lat="43.451492" lon="13.5326064"><ele>33.0</ele><time>2026-04-28T10:48:39.75Z</time></trkpt><trkpt lat="43.4515453" lon="13.532395"><ele>33.0</ele><time>2026-04-28T10:48:40.744Z</time></trkpt><trkpt lat="43.4516018" lon="13.5321722"><ele>32.666666666666664</ele><time>2026-04-28T10:48:41.759Z</time></trkpt><trkpt lat="43.4516573" lon="13.53194"><ele>32.33333333333333</ele><time>2026-04-28T10:48:42.752Z</time></trkpt><trkpt lat="43.4517151" lon="13.5317124"><ele>32.0</ele><time>2026-04-28T10:48:43.763Z</time></trkpt><trkpt lat="43.4517717" lon="13.531488"><ele>32.0</ele><time>2026-04-28T10:48:44.739Z</time></trkpt><trkpt lat="43.4518257" lon="13.531266"><ele>32.0</ele><time>2026-04-28T10:48:45.749Z</time></trkpt><trkpt lat="43.4518789" lon="13.5310445"><ele>32.0</ele><time>2026-04-28T10:48:46.744Z</time></trkpt><trkpt lat="43.4519391" lon="13.5308252"><ele>32.0</ele><time>2026-04-28T10:48:47.76Z</time></trkpt><trkpt lat="43.4519996" lon="13.5306019"><ele>32.0</ele><time>2026-04-28T10:48:48.744Z</time></trkpt><trkpt lat="43.452066" lon="13.530376"><ele>32.0</ele><time>2026-04-28T10:48:49.751Z</time></trkpt><trkpt lat="43.4521407" lon="13.5301507"><ele>32.0</ele><time>2026-04-28T10:48:50.746Z</time></trkpt><trkpt lat="43.4522264" lon="13.5299245"><ele>32.0</ele><time>2026-04-28T10:48:51.751Z</time></trkpt><trkpt lat="43.4523212" lon="13.5296944"><ele>32.0</ele><time>2026-04-28T10:48:52.755Z</time></trkpt><trkpt lat="43.4524211" lon="13.5294614"><ele>32.0</ele><time>2026-04-28T10:48:53.753Z</time></trkpt><trkpt lat="43.4525228" lon="13.5292244"><ele>32.0</ele><time>2026-04-28T10:48:54.743Z</time></trkpt><trkpt lat="43.4526262" lon="13.5289885"><ele>32.0</ele><time>2026-04-28T10:48:55.754Z</time></trkpt><trkpt lat="43.4527262" lon="13.5287539"><ele>32.0</ele><time>2026-04-28T10:48:56.755Z</time></trkpt><trkpt lat="43.4528246" lon="13.5285234"><ele>32.0</ele><time>2026-04-28T10:48:57.75Z</time></trkpt><trkpt lat="43.4529192" lon="13.5282946"><ele>32.0</ele><time>2026-04-28T10:48:58.764Z</time></trkpt><trkpt lat="43.4530164" lon="13.5280694"><ele>32.0</ele><time>2026-04-28T10:48:59.751Z</time></trkpt><trkpt lat="43.4531115" lon="13.5278463"><ele>32.0</ele><time>2026-04-28T10:49:00.757Z</time></trkpt><trkpt lat="43.4532058" lon="13.5276262"><ele>32.0</ele><time>2026-04-28T10:49:01.768Z</time></trkpt><trkpt lat="43.453297" lon="13.5274009"><ele>32.0</ele><time>2026-04-28T10:49:02.753Z</time></trkpt><trkpt lat="43.4533903" lon="13.527172"><ele>32.0</ele><time>2026-04-28T10:49:03.752Z</time></trkpt><trkpt lat="43.4534836" lon="13.5269393"><ele>32.0</ele><time>2026-04-28T10:49:04.747Z</time></trkpt><trkpt lat="43.4535759" lon="13.5267056"><ele>32.0</ele><time>2026-04-28T10:49:05.751Z</time></trkpt><trkpt lat="43.4536661" lon="13.5264713"><ele>32.0</ele><time>2026-04-28T10:49:06.75Z</time></trkpt><trkpt lat="43.4537572" lon="13.5262389"><ele>32.0</ele><time>2026-04-28T10:49:07.761Z</time></trkpt><trkpt lat="43.4538458" lon="13.5260092"><ele>32.666666666666664</ele><time>2026-04-28T10:49:08.756Z</time></trkpt><trkpt lat="43.4539352" lon="13.5257778"><ele>33.333333333333336</ele><time>2026-04-28T10:49:09.755Z</time></trkpt><trkpt lat="43.4540231" lon="13.5255456"><ele>34.0</ele><time>2026-04-28T10:49:10.755Z</time></trkpt><trkpt lat="43.4541083" lon="13.5253095"><ele>34.0</ele><time>2026-04-28T10:49:11.751Z</time></trkpt><trkpt lat="43.4541938" lon="13.5250673"><ele>34.0</ele><time>2026-04-28T10:49:12.747Z</time></trkpt><trkpt lat="43.4542798" lon="13.524822"><ele>34.0</ele><time>2026-04-28T10:49:13.763Z</time></trkpt><trkpt lat="43.4543652" lon="13.5245738"><ele>34.0</ele><time>2026-04-28T10:49:14.755Z</time></trkpt><trkpt lat="43.4544492" lon="13.524327"><ele>34.0</ele><time>2026-04-28T10:49:15.755Z</time></trkpt><trkpt lat="43.4545292" lon="13.5240856"><ele>34.0</ele><time>2026-04-28T10:49:16.743Z</time></trkpt><trkpt lat="43.4546049" lon="13.5238471"><ele>33.66666666666667</ele><time>2026-04-28T10:49:17.76Z</time></trkpt><trkpt lat="43.4546759" lon="13.5236062"><ele>33.333333333333336</ele><time>2026-04-28T10:49:18.759Z</time></trkpt><trkpt lat="43.4547448" lon="13.5233611"><ele>33.0</ele><time>2026-04-28T10:49:19.754Z</time></trkpt><trkpt lat="43.4548104" lon="13.5231103"><ele>33.333333333333336</ele><time>2026-04-28T10:49:20.765Z</time></trkpt><trkpt lat="43.4548643" lon="13.5228476"><ele>33.66666666666667</ele><time>2026-04-28T10:49:21.756Z</time></trkpt><trkpt lat="43.4549185" lon="13.5225841"><ele>34.0</ele><time>2026-04-28T10:49:22.755Z</time></trkpt><trkpt lat="43.454957" lon="13.5223182"><ele>34.333333333333336</ele><time>2026-04-28T10:49:23.752Z</time></trkpt><trkpt lat="43.454993" lon="13.5220466"><ele>34.666666666666664</ele><time>2026-04-28T10:49:24.757Z</time></trkpt><trkpt lat="43.4550233" lon="13.5217694"><ele>35.0</ele><time>2026-04-28T10:49:25.757Z</time></trkpt><trkpt lat="43.4550548" lon="13.521494"><ele>35.33333333333333</ele><time>2026-04-28T10:49:26.76Z</time></trkpt><trkpt lat="43.455089" lon="13.5212221"><ele>35.666666666666664</ele><time>2026-04-28T10:49:27.761Z</time></trkpt><trkpt lat="43.4551204" lon="13.5209462"><ele>36.0</ele><time>2026-04-28T10:49:28.751Z</time></trkpt><trkpt lat="43.4551524" lon="13.5206729"><ele>36.0</ele><time>2026-04-28T10:49:29.759Z</time></trkpt><trkpt lat="43.4551877" lon="13.5204016"><ele>36.0</ele><time>2026-04-28T10:49:30.754Z</time></trkpt><trkpt lat="43.4552355" lon="13.5201448"><ele>36.0</ele><time>2026-04-28T10:49:31.756Z</time></trkpt><trkpt lat="43.4552869" lon="13.5198918"><ele>35.333333333333336</ele><time>2026-04-28T10:49:32.74Z</time></trkpt><trkpt lat="43.4553407" lon="13.5196338"><ele>34.66666666666667</ele><time>2026-04-28T10:49:33.759Z</time></trkpt><trkpt lat="43.4553996" lon="13.5193768"><ele>34.0</ele><time>2026-04-28T10:49:34.757Z</time></trkpt><trkpt lat="43.4554609" lon="13.5191171"><ele>34.0</ele><time>2026-04-28T10:49:35.753Z</time></trkpt><trkpt lat="43.4555188" lon="13.5188529"><ele>34.0</ele><time>2026-04-28T10:49:36.751Z</time></trkpt><trkpt lat="43.4555793" lon="13.5185855"><ele>34.0</ele><time>2026-04-28T10:49:37.751Z</time></trkpt><trkpt lat="43.4556377" lon="13.5183175"><ele>34.333333333333336</ele><time>2026-04-28T10:49:38.754Z</time></trkpt><trkpt lat="43.4556909" lon="13.5180677"><ele>34.666666666666664</ele><time>2026-04-28T10:49:39.752Z</time></trkpt><trkpt lat="43.4557493" lon="13.5178319"><ele>35.0</ele><time>2026-04-28T10:49:40.741Z</time></trkpt><trkpt lat="43.4558191" lon="13.5176073"><ele>35.0</ele><time>2026-04-28T10:49:41.748Z</time></trkpt><trkpt lat="43.4559" lon="13.5173795"><ele>35.0</ele><time>2026-04-28T10:49:42.759Z</time></trkpt><trkpt lat="43.455989" lon="13.5171544"><ele>35.0</ele><time>2026-04-28T10:49:43.756Z</time></trkpt><trkpt lat="43.4560783" lon="13.5169166"><ele>35.0</ele><time>2026-04-28T10:49:44.755Z</time></trkpt><trkpt lat="43.4561698" lon="13.5166708"><ele>35.0</ele><time>2026-04-28T10:49:45.748Z</time></trkpt><trkpt lat="43.4562655" lon="13.5164254"><ele>35.0</ele><time>2026-04-28T10:49:46.743Z</time></trkpt><trkpt lat="43.4563608" lon="13.5161794"><ele>35.33333333333333</ele><time>2026-04-28T10:49:47.75Z</time></trkpt><trkpt lat="43.4564577" lon="13.5159303"><ele>35.666666666666664</ele><time>2026-04-28T10:49:48.751Z</time></trkpt><trkpt lat="43.4565532" lon="13.515682"><ele>36.0</ele><time>2026-04-28T10:49:49.755Z</time></trkpt><trkpt lat="43.4566467" lon="13.5154409"><ele>36.333333333333336</ele><time>2026-04-28T10:49:50.753Z</time></trkpt><trkpt lat="43.4567333" lon="13.5152044"><ele>36.66666666666667</ele><time>2026-04-28T10:49:51.751Z</time></trkpt><trkpt lat="43.4568145" lon="13.5149849"><ele>37.0</ele><time>2026-04-28T10:49:52.748Z</time></trkpt><trkpt lat="43.4568857" lon="13.5147653"><ele>37.0</ele><time>2026-04-28T10:49:53.751Z</time></trkpt><trkpt lat="43.4569477" lon="13.5145319"><ele>37.0</ele><time>2026-04-28T10:49:54.752Z</time></trkpt><trkpt lat="43.4569992" lon="13.514284"><ele>37.0</ele><time>2026-04-28T10:49:55.757Z</time></trkpt><trkpt lat="43.4570391" lon="13.5140349"><ele>37.0</ele><time>2026-04-28T10:49:56.753Z</time></trkpt><trkpt lat="43.4570768" lon="13.5137842"><ele>37.0</ele><time>2026-04-28T10:49:57.757Z</time></trkpt><trkpt lat="43.4571141" lon="13.5135315"><ele>37.0</ele><time>2026-04-28T10:49:58.751Z</time></trkpt><trkpt lat="43.4571537" lon="13.5132757"><ele>37.0</ele><time>2026-04-28T10:49:59.749Z</time></trkpt><trkpt lat="43.4571914" lon="13.5130204"><ele>37.0</ele><time>2026-04-28T10:50:00.751Z</time></trkpt><trkpt lat="43.4572284" lon="13.5127648"><ele>37.0</ele><time>2026-04-28T10:50:01.766Z</time></trkpt><trkpt lat="43.4572675" lon="13.5125091"><ele>37.333333333333336</ele><time>2026-04-28T10:50:02.745Z</time></trkpt><trkpt lat="43.4573074" lon="13.5122569"><ele>37.666666666666664</ele><time>2026-04-28T10:50:03.746Z</time></trkpt><trkpt lat="43.4573457" lon="13.5120052"><ele>38.0</ele><time>2026-04-28T10:50:04.742Z</time></trkpt><trkpt lat="43.4573872" lon="13.51176"><ele>38.0</ele><time>2026-04-28T10:50:05.756Z</time></trkpt><trkpt lat="43.4574261" lon="13.5115148"><ele>38.0</ele><time>2026-04-28T10:50:06.76Z</time></trkpt><trkpt lat="43.457462" lon="13.5112674"><ele>38.0</ele><time>2026-04-28T10:50:07.778Z</time></trkpt><trkpt lat="43.4574984" lon="13.511015"><ele>37.666666666666664</ele><time>2026-04-28T10:50:08.747Z</time></trkpt><trkpt lat="43.4575377" lon="13.5107574"><ele>37.333333333333336</ele><time>2026-04-28T10:50:09.754Z</time></trkpt><trkpt lat="43.4575827" lon="13.5104978"><ele>37.0</ele><time>2026-04-28T10:50:10.749Z</time></trkpt><trkpt lat="43.4576246" lon="13.5102389"><ele>37.0</ele><time>2026-04-28T10:50:11.763Z</time></trkpt><trkpt lat="43.4576654" lon="13.5099825"><ele>37.0</ele><time>2026-04-28T10:50:12.75Z</time></trkpt><trkpt lat="43.4577046" lon="13.5097333"><ele>37.0</ele><time>2026-04-28T10:50:13.755Z</time></trkpt><trkpt lat="43.4577398" lon="13.5094958"><ele>37.0</ele><time>2026-04-28T10:50:14.763Z</time></trkpt><trkpt lat="43.457775" lon="13.5092748"><ele>37.0</ele><time>2026-04-28T10:50:15.754Z</time></trkpt><trkpt lat="43.4578067" lon="13.5090672"><ele>37.0</ele><time>2026-04-28T10:50:16.775Z</time></trkpt><trkpt lat="43.4578414" lon="13.5088717"><ele>37.4</ele><time>2026-04-28T10:50:17.765Z</time></trkpt><trkpt lat="43.4578685" lon="13.5086841"><ele>37.800000000000004</ele><time>2026-04-28T10:50:18.763Z</time></trkpt><trkpt lat="43.4578904" lon="13.508522"><ele>38.2</ele><time>2026-04-28T10:50:19.764Z</time></trkpt><trkpt lat="43.4579128" lon="13.5083876"><ele>38.6</ele><time>2026-04-28T10:50:20.747Z</time></trkpt><trkpt lat="43.4579305" lon="13.5082912"><ele>39.0</ele><time>2026-04-28T10:50:21.764Z</time></trkpt><trkpt lat="43.4579504" lon="13.5081461"><ele>39.0</ele><time>2026-04-28T10:50:23.764Z</time></trkpt><trkpt lat="43.4579702" lon="13.5080552"><ele>39.0</ele><time>2026-04-28T10:50:24.749Z</time></trkpt><trkpt lat="43.4579834" lon="13.5079308"><ele>39.0</ele><time>2026-04-28T10:50:25.752Z</time></trkpt><trkpt lat="43.4580052" lon="13.5077865"><ele>39.0</ele><time>2026-04-28T10:50:26.759Z</time></trkpt><trkpt lat="43.4580366" lon="13.5076219"><ele>39.0</ele><time>2026-04-28T10:50:27.755Z</time></trkpt><trkpt lat="43.4580784" lon="13.5074413"><ele>39.333333333333336</ele><time>2026-04-28T10:50:28.75Z</time></trkpt><trkpt lat="43.4581291" lon="13.5072472"><ele>39.66666666666667</ele><time>2026-04-28T10:50:29.76Z</time></trkpt><trkpt lat="43.4581926" lon="13.5070384"><ele>40.0</ele><time>2026-04-28T10:50:30.749Z</time></trkpt><trkpt lat="43.4582625" lon="13.5068169"><ele>40.0</ele><time>2026-04-28T10:50:31.745Z</time></trkpt><trkpt lat="43.4583357" lon="13.5065818"><ele>40.0</ele><time>2026-04-28T10:50:32.762Z</time></trkpt><trkpt lat="43.4584077" lon="13.5063456"><ele>40.0</ele><time>2026-04-28T10:50:33.748Z</time></trkpt><trkpt lat="43.4584777" lon="13.5061119"><ele>40.0</ele><time>2026-04-28T10:50:34.752Z</time></trkpt><trkpt lat="43.4585512" lon="13.5058841"><ele>40.0</ele><time>2026-04-28T10:50:35.75Z</time></trkpt><trkpt lat="43.4586335" lon="13.5056607"><ele>40.0</ele><time>2026-04-28T10:50:36.761Z</time></trkpt><trkpt lat="43.4587312" lon="13.5054447"><ele>40.0</ele><time>2026-04-28T10:50:37.764Z</time></trkpt><trkpt lat="43.4588432" lon="13.5052317"><ele>40.0</ele><time>2026-04-28T10:50:38.764Z</time></trkpt><trkpt lat="43.458964" lon="13.5050283"><ele>40.0</ele><time>2026-04-28T10:50:39.757Z</time></trkpt><trkpt lat="43.459088" lon="13.5048262"><ele>40.0</ele><time>2026-04-28T10:50:40.761Z</time></trkpt><trkpt lat="43.459205" lon="13.5046205"><ele>40.0</ele><time>2026-04-28T10:50:41.743Z</time></trkpt><trkpt lat="43.4593202" lon="13.5044222"><ele>40.0</ele><time>2026-04-28T10:50:42.752Z</time></trkpt><trkpt lat="43.4594318" lon="13.5042203"><ele>40.0</ele><time>2026-04-28T10:50:43.751Z</time></trkpt><trkpt lat="43.459534" lon="13.5040109"><ele>40.0</ele><time>2026-04-28T10:50:44.76Z</time></trkpt><trkpt lat="43.4596321" lon="13.5037928"><ele>40.0</ele><time>2026-04-28T10:50:45.757Z</time></trkpt><trkpt lat="43.4597238" lon="13.5035763"><ele>40.333333333333336</ele><time>2026-04-28T10:50:46.755Z</time></trkpt><trkpt lat="43.4598107" lon="13.5033706"><ele>40.666666666666664</ele><time>2026-04-28T10:50:47.759Z</time></trkpt><trkpt lat="43.4598851" lon="13.5031727"><ele>41.0</ele><time>2026-04-28T10:50:48.747Z</time></trkpt><trkpt lat="43.4599403" lon="13.5029615"><ele>41.0</ele><time>2026-04-28T10:50:49.753Z</time></trkpt><trkpt lat="43.4599848" lon="13.5027344"><ele>41.0</ele><time>2026-04-28T10:50:50.767Z</time></trkpt><trkpt lat="43.4600126" lon="13.5025014"><ele>41.0</ele><time>2026-04-28T10:50:51.756Z</time></trkpt><trkpt lat="43.4600351" lon="13.5022702"><ele>41.0</ele><time>2026-04-28T10:50:52.752Z</time></trkpt><trkpt lat="43.4600576" lon="13.5020398"><ele>41.0</ele><time>2026-04-28T10:50:53.767Z</time></trkpt><trkpt lat="43.4600822" lon="13.5018187"><ele>41.0</ele><time>2026-04-28T10:50:54.759Z</time></trkpt><trkpt lat="43.4601078" lon="13.5016097"><ele>41.0</ele><time>2026-04-28T10:50:55.756Z</time></trkpt><trkpt lat="43.4601327" lon="13.5014149"><ele>41.0</ele><time>2026-04-28T10:50:56.754Z</time></trkpt><trkpt lat="43.4601505" lon="13.5012277"><ele>41.0</ele><time>2026-04-28T10:50:57.764Z</time></trkpt><trkpt lat="43.4601705" lon="13.5010522"><ele>41.0</ele><time>2026-04-28T10:50:58.761Z</time></trkpt><trkpt lat="43.4601928" lon="13.5008832"><ele>41.199999999999996</ele><time>2026-04-28T10:50:59.769Z</time></trkpt><trkpt lat="43.4601951" lon="13.5007205"><ele>41.4</ele><time>2026-04-28T10:51:00.758Z</time></trkpt><trkpt lat="43.46019" lon="13.5005716"><ele>41.6</ele><time>2026-04-28T10:51:01.742Z</time></trkpt><trkpt lat="43.4601785" lon="13.5004264"><ele>41.8</ele><time>2026-04-28T10:51:02.754Z</time></trkpt><trkpt lat="43.4601691" lon="13.5002974"><ele>42.0</ele><time>2026-04-28T10:51:03.762Z</time></trkpt><trkpt lat="43.460159" lon="13.5001756"><ele>42.0</ele><time>2026-04-28T10:51:04.748Z</time></trkpt><trkpt lat="43.4601501" lon="13.5000596"><ele>42.0</ele><time>2026-04-28T10:51:05.765Z</time></trkpt><trkpt lat="43.4601545" lon="13.4999592"><ele>42.0</ele><time>2026-04-28T10:51:06.744Z</time></trkpt><trkpt lat="43.4601643" lon="13.4998714"><ele>42.0</ele><time>2026-04-28T10:51:07.776Z</time></trkpt><trkpt lat="43.4601623" lon="13.499728"><ele>42.0</ele><time>2026-04-28T10:51:09.773Z</time></trkpt><trkpt lat="43.4601413" lon="13.4995543"><ele>42.0</ele><time>2026-04-28T10:51:11.759Z</time></trkpt><trkpt lat="43.4601345" lon="13.499449"><ele>42.0</ele><time>2026-04-28T10:51:12.762Z</time></trkpt><trkpt lat="43.4601259" lon="13.4993353"><ele>42.0</ele><time>2026-04-28T10:51:13.783Z</time></trkpt><trkpt lat="43.4601188" lon="13.4992268"><ele>42.0</ele><time>2026-04-28T10:51:14.767Z</time></trkpt><trkpt lat="43.4601083" lon="13.4991212"><ele>42.0</ele><time>2026-04-28T10:51:15.753Z</time></trkpt><trkpt lat="43.4601029" lon="13.4990143"><ele>42.0</ele><time>2026-04-28T10:51:16.757Z</time></trkpt><trkpt lat="43.460097" lon="13.4989124"><ele>42.0</ele><time>2026-04-28T10:51:17.768Z</time></trkpt><trkpt lat="43.4600964" lon="13.498811"><ele>42.0</ele><time>2026-04-28T10:51:18.747Z</time></trkpt><trkpt lat="43.4601115" lon="13.4987144"><ele>42.0</ele><time>2026-04-28T10:51:19.747Z</time></trkpt><trkpt lat="43.460142" lon="13.4986222"><ele>42.0</ele><time>2026-04-28T10:51:20.745Z</time></trkpt><trkpt lat="43.4601978" lon="13.4985556"><ele>42.0</ele><time>2026-04-28T10:51:21.754Z</time></trkpt><trkpt lat="43.4602713" lon="13.4985193"><ele>42.0</ele><time>2026-04-28T10:51:22.762Z</time></trkpt><trkpt lat="43.460355" lon="13.4984993"><ele>42.2</ele><time>2026-04-28T10:51:23.761Z</time></trkpt><trkpt lat="43.4604435" lon="13.4984656"><ele>42.400000000000006</ele><time>2026-04-28T10:51:24.749Z</time></trkpt><trkpt lat="43.4605386" lon="13.4984226"><ele>42.599999999999994</ele><time>2026-04-28T10:51:25.753Z</time></trkpt><trkpt lat="43.4606353" lon="13.4983641"><ele>42.8</ele><time>2026-04-28T10:51:26.747Z</time></trkpt><trkpt lat="43.460732" lon="13.4983021"><ele>43.0</ele><time>2026-04-28T10:51:27.755Z</time></trkpt><trkpt lat="43.460828" lon="13.4982307"><ele>43.2</ele><time>2026-04-28T10:51:28.743Z</time></trkpt><trkpt lat="43.4609201" lon="13.4981569"><ele>43.4</ele><time>2026-04-28T10:51:29.755Z</time></trkpt><trkpt lat="43.4610196" lon="13.4980887"><ele>43.6</ele><time>2026-04-28T10:51:30.752Z</time></trkpt><trkpt lat="43.4611177" lon="13.4980222"><ele>43.800000000000004</ele><time>2026-04-28T10:51:31.757Z</time></trkpt><trkpt lat="43.4612165" lon="13.4979556"><ele>44.0</ele><time>2026-04-28T10:51:32.744Z</time></trkpt><trkpt lat="43.4613162" lon="13.4978813"><ele>45.2</ele><time>2026-04-28T10:51:33.773Z</time></trkpt><trkpt lat="43.4614074" lon="13.4978088"><ele>46.400000000000006</ele><time>2026-04-28T10:51:34.761Z</time></trkpt><trkpt lat="43.4614858" lon="13.4977368"><ele>47.6</ele><time>2026-04-28T10:51:35.765Z</time></trkpt><trkpt lat="43.4615635" lon="13.4976728"><ele>48.8</ele><time>2026-04-28T10:51:36.76Z</time></trkpt><trkpt lat="43.4616263" lon="13.4975894"><ele>50.0</ele><time>2026-04-28T10:51:37.768Z</time></trkpt><trkpt lat="43.4616774" lon="13.4974911"><ele>50.0</ele><time>2026-04-28T10:51:38.76Z</time></trkpt><trkpt lat="43.4617159" lon="13.4973762"><ele>50.0</ele><time>2026-04-28T10:51:39.786Z</time></trkpt><trkpt lat="43.4617575" lon="13.4972583"><ele>50.0</ele><time>2026-04-28T10:51:40.771Z</time></trkpt><trkpt lat="43.4617875" lon="13.4971356"><ele>50.0</ele><time>2026-04-28T10:51:41.757Z</time></trkpt><trkpt lat="43.4618134" lon="13.4970049"><ele>50.0</ele><time>2026-04-28T10:51:42.775Z</time></trkpt><trkpt lat="43.461835" lon="13.4968699"><ele>49.8</ele><time>2026-04-28T10:51:43.764Z</time></trkpt><trkpt lat="43.4618589" lon="13.4967275"><ele>49.6</ele><time>2026-04-28T10:51:44.771Z</time></trkpt><trkpt lat="43.4618758" lon="13.496594"><ele>49.400000000000006</ele><time>2026-04-28T10:51:45.756Z</time></trkpt><trkpt lat="43.4618761" lon="13.496473"><ele>49.2</ele><time>2026-04-28T10:51:46.759Z</time></trkpt><trkpt lat="43.4618663" lon="13.4963621"><ele>49.0</ele><time>2026-04-28T10:51:47.763Z</time></trkpt><trkpt lat="43.4618478" lon="13.4962429"><ele>49.0</ele><time>2026-04-28T10:51:48.749Z</time></trkpt><trkpt lat="43.461827" lon="13.4961121"><ele>49.0</ele><time>2026-04-28T10:51:49.76Z</time></trkpt><trkpt lat="43.4618029" lon="13.4959709"><ele>49.0</ele><time>2026-04-28T10:51:50.761Z</time></trkpt><trkpt lat="43.4617748" lon="13.4958281"><ele>49.0</ele><time>2026-04-28T10:51:51.759Z</time></trkpt><trkpt lat="43.4617468" lon="13.4956774"><ele>49.0</ele><time>2026-04-28T10:51:52.765Z</time></trkpt><trkpt lat="43.461717" lon="13.4955454"><ele>48.83333333333333</ele><time>2026-04-28T10:51:53.761Z</time></trkpt><trkpt lat="43.4616907" lon="13.495416"><ele>48.666666666666664</ele><time>2026-04-28T10:51:54.756Z</time></trkpt><trkpt lat="43.4616679" lon="13.4952936"><ele>48.5</ele><time>2026-04-28T10:51:55.755Z</time></trkpt><trkpt lat="43.4616463" lon="13.4951804"><ele>48.33333333333333</ele><time>2026-04-28T10:51:56.755Z</time></trkpt><trkpt lat="43.4616321" lon="13.4950752"><ele>48.166666666666664</ele><time>2026-04-28T10:51:57.762Z</time></trkpt><trkpt lat="43.4616246" lon="13.4949796"><ele>48.0</ele><time>2026-04-28T10:51:58.765Z</time></trkpt><trkpt lat="43.4616378" lon="13.4948907"><ele>48.0</ele><time>2026-04-28T10:51:59.761Z</time></trkpt><trkpt lat="43.461715" lon="13.4947793"><ele>48.0</ele><time>2026-04-28T10:52:01.768Z</time></trkpt><trkpt lat="43.4617783" lon="13.4947372"><ele>48.0</ele><time>2026-04-28T10:52:02.758Z</time></trkpt><trkpt lat="43.4618556" lon="13.4946829"><ele>48.0</ele><time>2026-04-28T10:52:03.755Z</time></trkpt><trkpt lat="43.4619368" lon="13.4946235"><ele>48.0</ele><time>2026-04-28T10:52:04.751Z</time></trkpt><trkpt lat="43.4620285" lon="13.4945593"><ele>49.0</ele><time>2026-04-28T10:52:05.755Z</time></trkpt><trkpt lat="43.4621304" lon="13.494497"><ele>50.0</ele><time>2026-04-28T10:52:06.757Z</time></trkpt><trkpt lat="43.4622366" lon="13.4944348"><ele>51.0</ele><time>2026-04-28T10:52:07.757Z</time></trkpt><trkpt lat="43.4623428" lon="13.4943715"><ele>52.0</ele><time>2026-04-28T10:52:08.757Z</time></trkpt><trkpt lat="43.4624462" lon="13.4943099"><ele>52.0</ele><time>2026-04-28T10:52:09.753Z</time></trkpt><trkpt lat="43.4625409" lon="13.4942494"><ele>52.0</ele><time>2026-04-28T10:52:10.746Z</time></trkpt><trkpt lat="43.4626312" lon="13.4941886"><ele>52.0</ele><time>2026-04-28T10:52:11.747Z</time></trkpt><trkpt lat="43.4627075" lon="13.4941257"><ele>52.0</ele><time>2026-04-28T10:52:12.761Z</time></trkpt><trkpt lat="43.4627858" lon="13.4940744"><ele>52.0</ele><time>2026-04-28T10:52:13.752Z</time></trkpt><trkpt lat="43.4628784" lon="13.4940292"><ele>52.25</ele><time>2026-04-28T10:52:14.748Z</time></trkpt><trkpt lat="43.4629818" lon="13.4939835"><ele>52.5</ele><time>2026-04-28T10:52:15.77Z</time></trkpt><trkpt lat="43.4630984" lon="13.4939313"><ele>52.75</ele><time>2026-04-28T10:52:16.74Z</time></trkpt><trkpt lat="43.4632196" lon="13.4938648"><ele>53.0</ele><time>2026-04-28T10:52:17.763Z</time></trkpt><trkpt lat="43.4633432" lon="13.4937992"><ele>53.0</ele><time>2026-04-28T10:52:18.756Z</time></trkpt><trkpt lat="43.4634742" lon="13.4937235"><ele>53.0</ele><time>2026-04-28T10:52:19.759Z</time></trkpt><trkpt lat="43.463603" lon="13.4936369"><ele>53.0</ele><time>2026-04-28T10:52:20.742Z</time></trkpt><trkpt lat="43.4637256" lon="13.4935282"><ele>53.0</ele><time>2026-04-28T10:52:21.759Z</time></trkpt><trkpt lat="43.4638423" lon="13.4933952"><ele>53.0</ele><time>2026-04-28T10:52:22.751Z</time></trkpt><trkpt lat="43.4639553" lon="13.4932451"><ele>53.0</ele><time>2026-04-28T10:52:23.752Z</time></trkpt><trkpt lat="43.4640505" lon="13.4930853"><ele>53.0</ele><time>2026-04-28T10:52:24.743Z</time></trkpt><trkpt lat="43.4641475" lon="13.4929324"><ele>54.5</ele><time>2026-04-28T10:52:25.751Z</time></trkpt><trkpt lat="43.4642529" lon="13.4927965"><ele>56.0</ele><time>2026-04-28T10:52:26.759Z</time></trkpt><trkpt lat="43.4643669" lon="13.4926737"><ele>57.5</ele><time>2026-04-28T10:52:27.751Z</time></trkpt><trkpt lat="43.4644924" lon="13.4925651"><ele>59.0</ele><time>2026-04-28T10:52:28.745Z</time></trkpt><trkpt lat="43.464618" lon="13.4924577"><ele>59.66666666666667</ele><time>2026-04-28T10:52:29.743Z</time></trkpt><trkpt lat="43.4647494" lon="13.492352"><ele>60.33333333333333</ele><time>2026-04-28T10:52:30.749Z</time></trkpt><trkpt lat="43.4648879" lon="13.4922454"><ele>61.0</ele><time>2026-04-28T10:52:31.741Z</time></trkpt><trkpt lat="43.4650299" lon="13.492147"><ele>62.33333333333333</ele><time>2026-04-28T10:52:32.746Z</time></trkpt><trkpt lat="43.4651776" lon="13.4920459"><ele>63.66666666666667</ele><time>2026-04-28T10:52:33.757Z</time></trkpt><trkpt lat="43.4653278" lon="13.4919368"><ele>65.0</ele><time>2026-04-28T10:52:34.763Z</time></trkpt><trkpt lat="43.4654844" lon="13.4918178"><ele>65.66666666666667</ele><time>2026-04-28T10:52:35.747Z</time></trkpt><trkpt lat="43.4656421" lon="13.4916926"><ele>66.33333333333333</ele><time>2026-04-28T10:52:36.746Z</time></trkpt><trkpt lat="43.4658036" lon="13.4915709"><ele>67.0</ele><time>2026-04-28T10:52:37.753Z</time></trkpt><trkpt lat="43.4659624" lon="13.4914621"><ele>67.0</ele><time>2026-04-28T10:52:38.744Z</time></trkpt><trkpt lat="43.4661261" lon="13.4913728"><ele>67.0</ele><time>2026-04-28T10:52:39.761Z</time></trkpt><trkpt lat="43.4663029" lon="13.4913193"><ele>67.0</ele><time>2026-04-28T10:52:40.755Z</time></trkpt><trkpt lat="43.4664819" lon="13.4912956"><ele>68.0</ele><time>2026-04-28T10:52:41.756Z</time></trkpt><trkpt lat="43.4666709" lon="13.4913006"><ele>69.0</ele><time>2026-04-28T10:52:42.744Z</time></trkpt><trkpt lat="43.4668573" lon="13.491302"><ele>70.0</ele><time>2026-04-28T10:52:43.752Z</time></trkpt><trkpt lat="43.4670439" lon="13.4912957"><ele>70.33333333333333</ele><time>2026-04-28T10:52:44.739Z</time></trkpt><trkpt lat="43.4672329" lon="13.491282"><ele>70.66666666666667</ele><time>2026-04-28T10:52:45.765Z</time></trkpt><trkpt lat="43.4674149" lon="13.4912611"><ele>71.0</ele><time>2026-04-28T10:52:46.748Z</time></trkpt><trkpt lat="43.4675893" lon="13.4912383"><ele>71.33333333333334</ele><time>2026-04-28T10:52:47.751Z</time></trkpt><trkpt lat="43.4677555" lon="13.4912132"><ele>71.66666666666667</ele><time>2026-04-28T10:52:48.743Z</time></trkpt><trkpt lat="43.4679236" lon="13.4911925"><ele>72.0</ele><time>2026-04-28T10:52:49.756Z</time></trkpt><trkpt lat="43.4680898" lon="13.4911662"><ele>74.33333333333333</ele><time>2026-04-28T10:52:50.736Z</time></trkpt><trkpt lat="43.4682575" lon="13.4911355"><ele>76.66666666666666</ele><time>2026-04-28T10:52:51.749Z</time></trkpt><trkpt lat="43.4684271" lon="13.4911078"><ele>79.0</ele><time>2026-04-28T10:52:52.75Z</time></trkpt><trkpt lat="43.4685935" lon="13.4910822"><ele>79.0</ele><time>2026-04-28T10:52:53.752Z</time></trkpt><trkpt lat="43.4687601" lon="13.4910593"><ele>79.0</ele><time>2026-04-28T10:52:54.752Z</time></trkpt><trkpt lat="43.4689311" lon="13.4910396"><ele>79.0</ele><time>2026-04-28T10:52:55.753Z</time></trkpt><trkpt lat="43.4690986" lon="13.4910165"><ele>80.66666666666666</ele><time>2026-04-28T10:52:56.756Z</time></trkpt><trkpt lat="43.4692645" lon="13.4909961"><ele>82.33333333333333</ele><time>2026-04-28T10:52:57.747Z</time></trkpt><trkpt lat="43.4694268" lon="13.4909697"><ele>84.0</ele><time>2026-04-28T10:52:58.743Z</time></trkpt><trkpt lat="43.469591" lon="13.4909425"><ele>85.33333333333333</ele><time>2026-04-28T10:52:59.749Z</time></trkpt><trkpt lat="43.4697575" lon="13.4909146"><ele>86.66666666666666</ele><time>2026-04-28T10:53:00.752Z</time></trkpt><trkpt lat="43.4699158" lon="13.4908814"><ele>88.0</ele><time>2026-04-28T10:53:01.763Z</time></trkpt><trkpt lat="43.4700655" lon="13.4908502"><ele>88.0</ele><time>2026-04-28T10:53:02.751Z</time></trkpt><trkpt lat="43.4702181" lon="13.4908213"><ele>88.0</ele><time>2026-04-28T10:53:03.758Z</time></trkpt><trkpt lat="43.4703732" lon="13.4907821"><ele>88.0</ele><time>2026-04-28T10:53:04.75Z</time></trkpt><trkpt lat="43.4705317" lon="13.4907445"><ele>88.66666666666666</ele><time>2026-04-28T10:53:05.755Z</time></trkpt><trkpt lat="43.4706899" lon="13.4907068"><ele>89.33333333333333</ele><time>2026-04-28T10:53:06.763Z</time></trkpt><trkpt lat="43.4708472" lon="13.4906628"><ele>90.0</ele><time>2026-04-28T10:53:07.758Z</time></trkpt><trkpt lat="43.4709951" lon="13.4906141"><ele>90.0</ele><time>2026-04-28T10:53:08.763Z</time></trkpt><trkpt lat="43.4711387" lon="13.4905669"><ele>90.0</ele><time>2026-04-28T10:53:09.758Z</time></trkpt><trkpt lat="43.4712685" lon="13.4905235"><ele>90.0</ele><time>2026-04-28T10:53:10.763Z</time></trkpt><trkpt lat="43.4713968" lon="13.4904806"><ele>90.0</ele><time>2026-04-28T10:53:11.771Z</time></trkpt><trkpt lat="43.4715223" lon="13.4904436"><ele>91.2</ele><time>2026-04-28T10:53:12.758Z</time></trkpt><trkpt lat="43.4716434" lon="13.4904076"><ele>92.4</ele><time>2026-04-28T10:53:13.76Z</time></trkpt><trkpt lat="43.4717591" lon="13.4903877"><ele>93.6</ele><time>2026-04-28T10:53:14.754Z</time></trkpt><trkpt lat="43.4718615" lon="13.490368"><ele>94.8</ele><time>2026-04-28T10:53:15.769Z</time></trkpt><trkpt lat="43.4719612" lon="13.4903551"><ele>96.0</ele><time>2026-04-28T10:53:16.76Z</time></trkpt><trkpt lat="43.4720445" lon="13.4903492"><ele>95.8</ele><time>2026-04-28T10:53:17.761Z</time></trkpt><trkpt lat="43.4721252" lon="13.4903613"><ele>95.6</ele><time>2026-04-28T10:53:18.777Z</time></trkpt><trkpt lat="43.4722071" lon="13.4904074"><ele>95.4</ele><time>2026-04-28T10:53:19.752Z</time></trkpt><trkpt lat="43.4722948" lon="13.4904559"><ele>95.2</ele><time>2026-04-28T10:53:20.749Z</time></trkpt><trkpt lat="43.4723908" lon="13.4904617"><ele>95.0</ele><time>2026-04-28T10:53:21.764Z</time></trkpt><trkpt lat="43.4725069" lon="13.4904235"><ele>95.0</ele><time>2026-04-28T10:53:22.764Z</time></trkpt><trkpt lat="43.4726271" lon="13.4904019"><ele>95.0</ele><time>2026-04-28T10:53:23.763Z</time></trkpt><trkpt lat="43.4727652" lon="13.490393"><ele>95.0</ele><time>2026-04-28T10:53:24.76Z</time></trkpt><trkpt lat="43.4729001" lon="13.4904104"><ele>95.0</ele><time>2026-04-28T10:53:25.755Z</time></trkpt><trkpt lat="43.4730407" lon="13.4904272"><ele>96.0</ele><time>2026-04-28T10:53:26.753Z</time></trkpt><trkpt lat="43.4731746" lon="13.4904427"><ele>97.0</ele><time>2026-04-28T10:53:27.753Z</time></trkpt><trkpt lat="43.4733091" lon="13.4904547"><ele>98.0</ele><time>2026-04-28T10:53:28.742Z</time></trkpt><trkpt lat="43.4734459" lon="13.4904691"><ele>99.0</ele><time>2026-04-28T10:53:29.76Z</time></trkpt><trkpt lat="43.4735797" lon="13.4904816"><ele>99.0</ele><time>2026-04-28T10:53:30.754Z</time></trkpt><trkpt lat="43.4737146" lon="13.4904989"><ele>99.0</ele><time>2026-04-28T10:53:31.766Z</time></trkpt><trkpt lat="43.4738491" lon="13.4905154"><ele>99.0</ele><time>2026-04-28T10:53:32.751Z</time></trkpt><trkpt lat="43.473979" lon="13.4905251"><ele>99.0</ele><time>2026-04-28T10:53:33.751Z</time></trkpt><trkpt lat="43.4741044" lon="13.4905395"><ele>100.4</ele><time>2026-04-28T10:53:34.749Z</time></trkpt><trkpt lat="43.4742228" lon="13.4905532"><ele>101.80000000000001</ele><time>2026-04-28T10:53:35.765Z</time></trkpt><trkpt lat="43.4743247" lon="13.4905603"><ele>103.19999999999999</ele><time>2026-04-28T10:53:36.755Z</time></trkpt><trkpt lat="43.4744158" lon="13.49056"><ele>104.6</ele><time>2026-04-28T10:53:37.753Z</time></trkpt><trkpt lat="43.4745065" lon="13.4905619"><ele>106.0</ele><time>2026-04-28T10:53:38.757Z</time></trkpt><trkpt lat="43.4746049" lon="13.4905603"><ele>106.5</ele><time>2026-04-28T10:53:39.755Z</time></trkpt><trkpt lat="43.4747182" lon="13.490553"><ele>107.0</ele><time>2026-04-28T10:53:40.763Z</time></trkpt><trkpt lat="43.4748363" lon="13.4905405"><ele>107.5</ele><time>2026-04-28T10:53:41.75Z</time></trkpt><trkpt lat="43.4749616" lon="13.4905262"><ele>108.0</ele><time>2026-04-28T10:53:42.745Z</time></trkpt><trkpt lat="43.4750934" lon="13.4905097"><ele>108.0</ele><time>2026-04-28T10:53:43.756Z</time></trkpt><trkpt lat="43.4752386" lon="13.4904971"><ele>108.0</ele><time>2026-04-28T10:53:44.752Z</time></trkpt><trkpt lat="43.4753795" lon="13.4904861"><ele>108.0</ele><time>2026-04-28T10:53:45.755Z</time></trkpt><trkpt lat="43.475524" lon="13.4904737"><ele>108.0</ele><time>2026-04-28T10:53:46.761Z</time></trkpt><trkpt lat="43.4756651" lon="13.4904596"><ele>109.0</ele><time>2026-04-28T10:53:47.76Z</time></trkpt><trkpt lat="43.4758034" lon="13.4904486"><ele>110.0</ele><time>2026-04-28T10:53:48.755Z</time></trkpt><trkpt lat="43.4759429" lon="13.4904453"><ele>111.0</ele><time>2026-04-28T10:53:49.765Z</time></trkpt><trkpt lat="43.4760748" lon="13.4904558"><ele>112.0</ele><time>2026-04-28T10:53:50.76Z</time></trkpt><trkpt lat="43.4761978" lon="13.4904695"><ele>112.8</ele><time>2026-04-28T10:53:51.775Z</time></trkpt><trkpt lat="43.4763095" lon="13.4904849"><ele>113.6</ele><time>2026-04-28T10:53:52.764Z</time></trkpt><trkpt lat="43.4764141" lon="13.490502"><ele>114.39999999999999</ele><time>2026-04-28T10:53:53.765Z</time></trkpt><trkpt lat="43.476508" lon="13.4905283"><ele>115.19999999999999</ele><time>2026-04-28T10:53:54.754Z</time></trkpt><trkpt lat="43.4766109" lon="13.4905561"><ele>116.0</ele><time>2026-04-28T10:53:55.765Z</time></trkpt><trkpt lat="43.4767204" lon="13.4905979"><ele>116.0</ele><time>2026-04-28T10:53:56.745Z</time></trkpt><trkpt lat="43.4768373" lon="13.4906473"><ele>116.0</ele><time>2026-04-28T10:53:57.766Z</time></trkpt><trkpt lat="43.4769579" lon="13.490699"><ele>116.0</ele><time>2026-04-28T10:53:58.752Z</time></trkpt><trkpt lat="43.4770823" lon="13.4907554"><ele>116.0</ele><time>2026-04-28T10:53:59.761Z</time></trkpt><trkpt lat="43.4772078" lon="13.4908246"><ele>117.75</ele><time>2026-04-28T10:54:00.749Z</time></trkpt><trkpt lat="43.4773211" lon="13.4909231"><ele>119.5</ele><time>2026-04-28T10:54:01.752Z</time></trkpt><trkpt lat="43.4774297" lon="13.4910419"><ele>121.25</ele><time>2026-04-28T10:54:02.747Z</time></trkpt><trkpt lat="43.477532" lon="13.4911799"><ele>123.0</ele><time>2026-04-28T10:54:03.743Z</time></trkpt><trkpt lat="43.4776345" lon="13.4913269"><ele>123.0</ele><time>2026-04-28T10:54:04.741Z</time></trkpt><trkpt lat="43.477741" lon="13.4914621"><ele>123.0</ele><time>2026-04-28T10:54:05.757Z</time></trkpt><trkpt lat="43.4778422" lon="13.4915798"><ele>123.0</ele><time>2026-04-28T10:54:06.742Z</time></trkpt><trkpt lat="43.4779569" lon="13.4916703"><ele>123.0</ele><time>2026-04-28T10:54:07.759Z</time></trkpt><trkpt lat="43.4780794" lon="13.4917403"><ele>125.5</ele><time>2026-04-28T10:54:08.755Z</time></trkpt><trkpt lat="43.4782058" lon="13.4917988"><ele>128.0</ele><time>2026-04-28T10:54:09.754Z</time></trkpt><trkpt lat="43.4783384" lon="13.4918356"><ele>130.5</ele><time>2026-04-28T10:54:10.745Z</time></trkpt><trkpt lat="43.4784705" lon="13.4918555"><ele>133.0</ele><time>2026-04-28T10:54:11.759Z</time></trkpt><trkpt lat="43.4786173" lon="13.4918528"><ele>134.0</ele><time>2026-04-28T10:54:12.739Z</time></trkpt><trkpt lat="43.4787746" lon="13.4918292"><ele>135.0</ele><time>2026-04-28T10:54:13.755Z</time></trkpt><trkpt lat="43.4789376" lon="13.4918108"><ele>136.0</ele><time>2026-04-28T10:54:14.757Z</time></trkpt><trkpt lat="43.4791023" lon="13.4918039"><ele>136.0</ele><time>2026-04-28T10:54:15.736Z</time></trkpt><trkpt lat="43.4792589" lon="13.4918155"><ele>136.0</ele><time>2026-04-28T10:54:16.749Z</time></trkpt><trkpt lat="43.4794183" lon="13.491842"><ele>136.0</ele><time>2026-04-28T10:54:17.762Z</time></trkpt><trkpt lat="43.4795834" lon="13.491877"><ele>138.33333333333334</ele><time>2026-04-28T10:54:18.752Z</time></trkpt><trkpt lat="43.4797524" lon="13.4919123"><ele>140.66666666666666</ele><time>2026-04-28T10:54:19.76Z</time></trkpt><trkpt lat="43.4799277" lon="13.4919329"><ele>143.0</ele><time>2026-04-28T10:54:20.743Z</time></trkpt><trkpt lat="43.4801038" lon="13.4919345"><ele>143.0</ele><time>2026-04-28T10:54:21.752Z</time></trkpt><trkpt lat="43.4802775" lon="13.4919335"><ele>143.0</ele><time>2026-04-28T10:54:22.762Z</time></trkpt><trkpt lat="43.4804487" lon="13.4919308"><ele>143.0</ele><time>2026-04-28T10:54:23.759Z</time></trkpt><trkpt lat="43.4805999" lon="13.4919198"><ele>145.0</ele><time>2026-04-28T10:54:24.76Z</time></trkpt><trkpt lat="43.4807503" lon="13.4919113"><ele>147.0</ele><time>2026-04-28T10:54:25.768Z</time></trkpt><trkpt lat="43.4808937" lon="13.4918967"><ele>149.0</ele><time>2026-04-28T10:54:26.753Z</time></trkpt><trkpt lat="43.4810359" lon="13.4918677"><ele>151.0</ele><time>2026-04-28T10:54:27.752Z</time></trkpt><trkpt lat="43.4811776" lon="13.4918098"><ele>151.75</ele><time>2026-04-28T10:54:28.755Z</time></trkpt><trkpt lat="43.481317" lon="13.4917346"><ele>152.5</ele><time>2026-04-28T10:54:29.754Z</time></trkpt><trkpt lat="43.4814457" lon="13.491651"><ele>153.25</ele><time>2026-04-28T10:54:30.76Z</time></trkpt><trkpt lat="43.4815582" lon="13.4915655"><ele>154.0</ele><time>2026-04-28T10:54:31.761Z</time></trkpt><trkpt lat="43.481664" lon="13.4914866"><ele>154.0</ele><time>2026-04-28T10:54:32.755Z</time></trkpt><trkpt lat="43.4817659" lon="13.4914125"><ele>154.0</ele><time>2026-04-28T10:54:33.757Z</time></trkpt><trkpt lat="43.4818561" lon="13.4913511"><ele>154.0</ele><time>2026-04-28T10:54:34.77Z</time></trkpt><trkpt lat="43.4819352" lon="13.4913056"><ele>154.0</ele><time>2026-04-28T10:54:35.757Z</time></trkpt><trkpt lat="43.4819996" lon="13.4912602"><ele>154.0</ele><time>2026-04-28T10:54:36.753Z</time></trkpt><trkpt lat="43.4820669" lon="13.491215"><ele>154.0</ele><time>2026-04-28T10:54:37.758Z</time></trkpt><trkpt lat="43.4821438" lon="13.4911674"><ele>156.66666666666669</ele><time>2026-04-28T10:54:38.758Z</time></trkpt><trkpt lat="43.4822255" lon="13.4911093"><ele>159.33333333333334</ele><time>2026-04-28T10:54:39.759Z</time></trkpt><trkpt lat="43.4823021" lon="13.4910529"><ele>162.0</ele><time>2026-04-28T10:54:40.762Z</time></trkpt><trkpt lat="43.482377" lon="13.4909923"><ele>164.66666666666666</ele><time>2026-04-28T10:54:41.753Z</time></trkpt><trkpt lat="43.4824581" lon="13.4909309"><ele>167.33333333333331</ele><time>2026-04-28T10:54:42.769Z</time></trkpt><trkpt lat="43.4825282" lon="13.4908851"><ele>170.0</ele><time>2026-04-28T10:54:43.763Z</time></trkpt><trkpt lat="43.4825918" lon="13.4908752"><ele>170.0</ele><time>2026-04-28T10:54:44.76Z</time></trkpt><trkpt lat="43.4826529" lon="13.4909078"><ele>170.0</ele><time>2026-04-28T10:54:45.751Z</time></trkpt><trkpt lat="43.4826925" lon="13.4909764"><ele>170.0</ele><time>2026-04-28T10:54:46.76Z</time></trkpt><trkpt lat="43.4827301" lon="13.4911182"><ele>170.0</ele><time>2026-04-28T10:54:48.759Z</time></trkpt><trkpt lat="43.4827705" lon="13.491241"><ele>170.0</ele><time>2026-04-28T10:54:50.761Z</time></trkpt><trkpt lat="43.4828081" lon="13.4913108"><ele>170.0</ele><time>2026-04-28T10:54:54.769Z</time></trkpt><trkpt lat="43.4828144" lon="13.4914359"><ele>169.0</ele><time>2026-04-28T10:55:18.751Z</time></trkpt><trkpt lat="43.4828397" lon="13.4915653"><ele>168.0</ele><time>2026-04-28T10:55:20.756Z</time></trkpt><trkpt lat="43.4828802" lon="13.4916964"><ele>167.0</ele><time>2026-04-28T10:55:22.753Z</time></trkpt><trkpt lat="43.4829231" lon="13.4918263"><ele>166.0</ele><time>2026-04-28T10:55:24.748Z</time></trkpt><trkpt lat="43.4829598" lon="13.4919257"><ele>165.0</ele><time>2026-04-28T10:55:26.762Z</time></trkpt><trkpt lat="43.4829913" lon="13.4920208"><ele>166.0</ele><time>2026-04-28T10:55:29.761Z</time></trkpt><trkpt lat="43.4830455" lon="13.4921433"><ele>167.0</ele><time>2026-04-28T10:55:41.765Z</time></trkpt><trkpt lat="43.4830922" lon="13.4922519"><ele>168.0</ele><time>2026-04-28T10:55:43.754Z</time></trkpt><trkpt lat="43.483124" lon="13.4923396"><ele>169.0</ele><time>2026-04-28T10:55:47.762Z</time></trkpt><trkpt lat="43.4831632" lon="13.4924339"><ele>170.0</ele><time>2026-04-28T10:55:49.766Z</time></trkpt><trkpt lat="43.4832047" lon="13.4925407"><ele>171.0</ele><time>2026-04-28T10:55:51.769Z</time></trkpt><trkpt lat="43.4832719" lon="13.492715"><ele>171.0</ele><time>2026-04-28T10:55:53.758Z</time></trkpt><trkpt lat="43.4833196" lon="13.4928337"><ele>171.0</ele><time>2026-04-28T10:55:54.753Z</time></trkpt><trkpt lat="43.4833846" lon="13.4929719"><ele>171.0</ele><time>2026-04-28T10:55:55.756Z</time></trkpt><trkpt lat="43.4834654" lon="13.4931078"><ele>171.0</ele><time>2026-04-28T10:55:56.759Z</time></trkpt><trkpt lat="43.4835508" lon="13.4932283"><ele>170.8</ele><time>2026-04-28T10:55:57.754Z</time></trkpt><trkpt lat="43.4836402" lon="13.4933394"><ele>170.60000000000002</ele><time>2026-04-28T10:55:58.753Z</time></trkpt><trkpt lat="43.4837253" lon="13.4934458"><ele>170.4</ele><time>2026-04-28T10:55:59.76Z</time></trkpt><trkpt lat="43.4837962" lon="13.493554"><ele>170.2</ele><time>2026-04-28T10:56:00.777Z</time></trkpt><trkpt lat="43.4838596" lon="13.4936611"><ele>170.0</ele><time>2026-04-28T10:56:01.752Z</time></trkpt><trkpt lat="43.4839134" lon="13.4937512"><ele>170.0</ele><time>2026-04-28T10:56:02.75Z</time></trkpt><trkpt lat="43.4839507" lon="13.4938361"><ele>170.0</ele><time>2026-04-28T10:56:03.757Z</time></trkpt><trkpt lat="43.4840254" lon="13.4939472"><ele>170.0</ele><time>2026-04-28T10:56:05.77Z</time></trkpt><trkpt lat="43.4840944" lon="13.4939309"><ele>170.0</ele><time>2026-04-28T10:56:07.758Z</time></trkpt><trkpt lat="43.4840762" lon="13.4938124"><ele>170.0</ele><time>2026-04-28T10:56:10.757Z</time></trkpt><trkpt lat="43.4840271" lon="13.4937543"><ele>170.0</ele><time>2026-04-28T10:56:11.762Z</time></trkpt><trkpt lat="43.4839694" lon="13.4936984"><ele>170.0</ele><time>2026-04-28T10:56:12.748Z</time></trkpt><trkpt lat="43.4839084" lon="13.4936224"><ele>170.0</ele><time>2026-04-28T10:56:13.758Z</time></trkpt><trkpt lat="43.4838276" lon="13.4935286"><ele>170.0</ele><time>2026-04-28T10:56:14.758Z</time></trkpt><trkpt lat="43.48375" lon="13.4934365"><ele>170.0</ele><time>2026-04-28T10:56:15.753Z</time></trkpt><trkpt lat="43.4836706" lon="13.493342"><ele>170.0</ele><time>2026-04-28T10:56:16.748Z</time></trkpt><trkpt lat="43.4835899" lon="13.4932494"><ele>170.2</ele><time>2026-04-28T10:56:17.775Z</time></trkpt><trkpt lat="43.483507" lon="13.4931481"><ele>170.4</ele><time>2026-04-28T10:56:18.758Z</time></trkpt><trkpt lat="43.4834346" lon="13.4930394"><ele>170.60000000000002</ele><time>2026-04-28T10:56:19.747Z</time></trkpt><trkpt lat="43.4833729" lon="13.492925"><ele>170.8</ele><time>2026-04-28T10:56:20.761Z</time></trkpt><trkpt lat="43.4833139" lon="13.4928011"><ele>171.0</ele><time>2026-04-28T10:56:21.764Z</time></trkpt><trkpt lat="43.4832639" lon="13.4926687"><ele>171.0</ele><time>2026-04-28T10:56:22.764Z</time></trkpt><trkpt lat="43.4832141" lon="13.4925334"><ele>171.0</ele><time>2026-04-28T10:56:23.779Z</time></trkpt><trkpt lat="43.4831642" lon="13.4923936"><ele>171.0</ele><time>2026-04-28T10:56:24.76Z</time></trkpt><trkpt lat="43.4831134" lon="13.4922553"><ele>171.0</ele><time>2026-04-28T10:56:25.759Z</time></trkpt><trkpt lat="43.4830608" lon="13.4921123"><ele>169.8</ele><time>2026-04-28T10:56:26.75Z</time></trkpt><trkpt lat="43.4830071" lon="13.4919734"><ele>168.60000000000002</ele><time>2026-04-28T10:56:27.759Z</time></trkpt><trkpt lat="43.4829641" lon="13.4918371"><ele>167.4</ele><time>2026-04-28T10:56:28.758Z</time></trkpt><trkpt lat="43.4829239" lon="13.4917008"><ele>166.2</ele><time>2026-04-28T10:56:29.765Z</time></trkpt><trkpt lat="43.4828947" lon="13.491567"><ele>165.0</ele><time>2026-04-28T10:56:30.755Z</time></trkpt><trkpt lat="43.4828732" lon="13.491433"><ele>165.0</ele><time>2026-04-28T10:56:31.768Z</time></trkpt><trkpt lat="43.4828663" lon="13.4913057"><ele>165.0</ele><time>2026-04-28T10:56:32.767Z</time></trkpt><trkpt lat="43.4828642" lon="13.4911923"><ele>165.0</ele><time>2026-04-28T10:56:33.779Z</time></trkpt><trkpt lat="43.4828605" lon="13.4910946"><ele>165.0</ele><time>2026-04-28T10:56:34.76Z</time></trkpt><trkpt lat="43.4828537" lon="13.4909562"><ele>165.0</ele><time>2026-04-28T10:56:36.759Z</time></trkpt><trkpt lat="43.4828715" lon="13.4908582"><ele>165.0</ele><time>2026-04-28T10:56:39.773Z</time></trkpt><trkpt lat="43.4828656" lon="13.4907575"><ele>165.83333333333334</ele><time>2026-04-28T10:56:56.75Z</time></trkpt><trkpt lat="43.4828455" lon="13.4906514"><ele>166.66666666666666</ele><time>2026-04-28T10:56:58.758Z</time></trkpt><trkpt lat="43.482842" lon="13.4905011"><ele>167.5</ele><time>2026-04-28T10:57:00.774Z</time></trkpt><trkpt lat="43.4828475" lon="13.4904102"><ele>168.33333333333331</ele><time>2026-04-28T10:57:01.768Z</time></trkpt><trkpt lat="43.4828598" lon="13.490319"><ele>169.16666666666666</ele><time>2026-04-28T10:57:02.773Z</time></trkpt><trkpt lat="43.4829043" lon="13.4902028"><ele>170.0</ele><time>2026-04-28T10:57:04.772Z</time></trkpt><trkpt lat="43.4829478" lon="13.4901065"><ele>174.2</ele><time>2026-04-28T10:57:43.778Z</time></trkpt><trkpt lat="43.4830007" lon="13.489977"><ele>178.4</ele><time>2026-04-28T10:57:45.766Z</time></trkpt><trkpt lat="43.4830403" lon="13.4898794"><ele>182.60000000000002</ele><time>2026-04-28T10:57:46.764Z</time></trkpt><trkpt lat="43.4830849" lon="13.489771"><ele>186.8</ele><time>2026-04-28T10:57:47.758Z</time></trkpt><trkpt lat="43.4831166" lon="13.489648"><ele>191.0</ele><time>2026-04-28T10:57:48.773Z</time></trkpt><trkpt lat="43.483132" lon="13.4895173"><ele>191.4</ele><time>2026-04-28T10:57:49.759Z</time></trkpt><trkpt lat="43.4831301" lon="13.489383"><ele>191.8</ele><time>2026-04-28T10:57:50.748Z</time></trkpt><trkpt lat="43.4831132" lon="13.489235"><ele>192.20000000000002</ele><time>2026-04-28T10:57:51.767Z</time></trkpt><trkpt lat="43.4830873" lon="13.4890933"><ele>192.60000000000002</ele><time>2026-04-28T10:57:52.754Z</time></trkpt><trkpt lat="43.4830603" lon="13.4889606"><ele>193.0</ele><time>2026-04-28T10:57:53.768Z</time></trkpt><trkpt lat="43.4830352" lon="13.4888259"><ele>193.2</ele><time>2026-04-28T10:57:54.762Z</time></trkpt><trkpt lat="43.4830107" lon="13.4886871"><ele>193.4</ele><time>2026-04-28T10:57:55.757Z</time></trkpt><trkpt lat="43.4829918" lon="13.4885443"><ele>193.6</ele><time>2026-04-28T10:57:56.761Z</time></trkpt><trkpt lat="43.4829819" lon="13.4884058"><ele>193.79999999999998</ele><time>2026-04-28T10:57:57.773Z</time></trkpt><trkpt lat="43.4829911" lon="13.4882722"><ele>194.0</ele><time>2026-04-28T10:57:58.755Z</time></trkpt><trkpt lat="43.4830336" lon="13.4881546"><ele>194.0</ele><time>2026-04-28T10:57:59.761Z</time></trkpt><trkpt lat="43.4830958" lon="13.4880429"><ele>194.0</ele><time>2026-04-28T10:58:00.762Z</time></trkpt><trkpt lat="43.4831732" lon="13.4879503"><ele>194.0</ele><time>2026-04-28T10:58:01.757Z</time></trkpt><trkpt lat="43.4832631" lon="13.4878837"><ele>194.0</ele><time>2026-04-28T10:58:02.75Z</time></trkpt><trkpt lat="43.4833549" lon="13.487812"><ele>194.0</ele><time>2026-04-28T10:58:03.75Z</time></trkpt><trkpt lat="43.4834547" lon="13.4877356"><ele>192.6</ele><time>2026-04-28T10:58:04.754Z</time></trkpt><trkpt lat="43.4835417" lon="13.4876632"><ele>191.2</ele><time>2026-04-28T10:58:05.757Z</time></trkpt><trkpt lat="43.4836277" lon="13.4875946"><ele>189.79999999999998</ele><time>2026-04-28T10:58:06.756Z</time></trkpt><trkpt lat="43.4837142" lon="13.487519"><ele>188.39999999999998</ele><time>2026-04-28T10:58:07.767Z</time></trkpt><trkpt lat="43.4837888" lon="13.487418"><ele>187.0</ele><time>2026-04-28T10:58:08.768Z</time></trkpt><trkpt lat="43.4838386" lon="13.4873022"><ele>190.16666666666669</ele><time>2026-04-28T10:58:09.756Z</time></trkpt><trkpt lat="43.4838692" lon="13.487178"><ele>193.33333333333334</ele><time>2026-04-28T10:58:10.747Z</time></trkpt><trkpt lat="43.4838931" lon="13.4870492"><ele>196.5</ele><time>2026-04-28T10:58:11.761Z</time></trkpt><trkpt lat="43.4839127" lon="13.4869247"><ele>199.66666666666669</ele><time>2026-04-28T10:58:12.754Z</time></trkpt><trkpt lat="43.4839281" lon="13.4868129"><ele>202.83333333333334</ele><time>2026-04-28T10:58:13.768Z</time></trkpt><trkpt lat="43.4839365" lon="13.4867082"><ele>206.0</ele><time>2026-04-28T10:58:14.747Z</time></trkpt><trkpt lat="43.4839489" lon="13.4866145"><ele>206.00000000000003</ele><time>2026-04-28T10:58:15.751Z</time></trkpt><trkpt lat="43.483961" lon="13.486525"><ele>206.0</ele><time>2026-04-28T10:58:16.755Z</time></trkpt><trkpt lat="43.4839922" lon="13.4863804"><ele>206.0</ele><time>2026-04-28T10:58:18.754Z</time></trkpt><trkpt lat="43.4840466" lon="13.4862971"><ele>206.0</ele><time>2026-04-28T10:58:20.745Z</time></trkpt><trkpt lat="43.4841474" lon="13.4863462"><ele>206.00000000000003</ele><time>2026-04-28T10:58:22.74Z</time></trkpt><trkpt lat="43.4841872" lon="13.4864181"><ele>206.0</ele><time>2026-04-28T10:58:23.758Z</time></trkpt><trkpt lat="43.4841928" lon="13.4865204"><ele>206.00000000000003</ele><time>2026-04-28T10:58:24.748Z</time></trkpt><trkpt lat="43.4841779" lon="13.4866134"><ele>206.0</ele><time>2026-04-28T10:58:25.747Z</time></trkpt><trkpt lat="43.4841722" lon="13.4867179"><ele>206.0</ele><time>2026-04-28T10:58:26.754Z</time></trkpt><trkpt lat="43.4841646" lon="13.4868366"><ele>206.0</ele><time>2026-04-28T10:58:27.747Z</time></trkpt><trkpt lat="43.4841609" lon="13.4869626"><ele>206.00000000000003</ele><time>2026-04-28T10:58:28.746Z</time></trkpt><trkpt lat="43.4841513" lon="13.4871001"><ele>206.0</ele><time>2026-04-28T10:58:29.762Z</time></trkpt><trkpt lat="43.484141" lon="13.4872414"><ele>207.0</ele><time>2026-04-28T10:58:30.76Z</time></trkpt><trkpt lat="43.4841243" lon="13.4873913"><ele>208.0</ele><time>2026-04-28T10:58:31.746Z</time></trkpt><trkpt lat="43.4840986" lon="13.4875427"><ele>209.0</ele><time>2026-04-28T10:58:32.746Z</time></trkpt><trkpt lat="43.484069" lon="13.4876899"><ele>210.0</ele><time>2026-04-28T10:58:33.752Z</time></trkpt><trkpt lat="43.4840428" lon="13.4878457"><ele>211.0</ele><time>2026-04-28T10:58:34.749Z</time></trkpt><trkpt lat="43.4840174" lon="13.4879986"><ele>212.0</ele><time>2026-04-28T10:58:35.769Z</time></trkpt><trkpt lat="43.4839917" lon="13.4881356"><ele>213.0</ele><time>2026-04-28T10:58:36.746Z</time></trkpt><trkpt lat="43.4839773" lon="13.4882759"><ele>214.0</ele><time>2026-04-28T10:58:37.747Z</time></trkpt><trkpt lat="43.4839589" lon="13.4884115"><ele>215.0</ele><time>2026-04-28T10:58:38.746Z</time></trkpt><trkpt lat="43.4839518" lon="13.488536"><ele>215.0</ele><time>2026-04-28T10:58:39.754Z</time></trkpt><trkpt lat="43.4839495" lon="13.4886679"><ele>215.0</ele><time>2026-04-28T10:58:40.752Z</time></trkpt><trkpt lat="43.4839712" lon="13.4888031"><ele>215.0</ele><time>2026-04-28T10:58:41.75Z</time></trkpt><trkpt lat="43.4840181" lon="13.4889268"><ele>215.0</ele><time>2026-04-28T10:58:42.764Z</time></trkpt><trkpt lat="43.4840763" lon="13.4890451"><ele>215.0</ele><time>2026-04-28T10:58:43.743Z</time></trkpt><trkpt lat="43.484141" lon="13.4891611"><ele>214.75</ele><time>2026-04-28T10:58:44.767Z</time></trkpt><trkpt lat="43.4842181" lon="13.4892769"><ele>214.5</ele><time>2026-04-28T10:58:45.767Z</time></trkpt><trkpt lat="43.4842991" lon="13.4893928"><ele>214.25</ele><time>2026-04-28T10:58:46.763Z</time></trkpt><trkpt lat="43.4843776" lon="13.4895141"><ele>214.0</ele><time>2026-04-28T10:58:47.757Z</time></trkpt><trkpt lat="43.4844648" lon="13.4896295"><ele>212.79999999999998</ele><time>2026-04-28T10:58:48.744Z</time></trkpt><trkpt lat="43.4845411" lon="13.4897437"><ele>211.59999999999997</ele><time>2026-04-28T10:58:49.774Z</time></trkpt><trkpt lat="43.484623" lon="13.4898508"><ele>210.4</ele><time>2026-04-28T10:58:50.766Z</time></trkpt><trkpt lat="43.4847008" lon="13.4899563"><ele>209.2</ele><time>2026-04-28T10:58:51.759Z</time></trkpt><trkpt lat="43.4847674" lon="13.4900628"><ele>208.0</ele><time>2026-04-28T10:58:52.754Z</time></trkpt><trkpt lat="43.4848301" lon="13.4901559"><ele>208.4</ele><time>2026-04-28T10:58:53.757Z</time></trkpt><trkpt lat="43.4848843" lon="13.4902458"><ele>208.8</ele><time>2026-04-28T10:58:54.763Z</time></trkpt><trkpt lat="43.4849452" lon="13.4903287"><ele>209.2</ele><time>2026-04-28T10:58:55.767Z</time></trkpt><trkpt lat="43.4850246" lon="13.4903986"><ele>209.6</ele><time>2026-04-28T10:58:56.76Z</time></trkpt><trkpt lat="43.4851083" lon="13.4904717"><ele>210.0</ele><time>2026-04-28T10:58:57.775Z</time></trkpt><trkpt lat="43.4852016" lon="13.4905372"><ele>210.0</ele><time>2026-04-28T10:58:58.781Z</time></trkpt><trkpt lat="43.4853081" lon="13.4905931"><ele>210.0</ele><time>2026-04-28T10:58:59.772Z</time></trkpt><trkpt lat="43.4854281" lon="13.4906387"><ele>210.0</ele><time>2026-04-28T10:59:00.763Z</time></trkpt><trkpt lat="43.4855443" lon="13.4906883"><ele>210.0</ele><time>2026-04-28T10:59:01.765Z</time></trkpt><trkpt lat="43.4856601" lon="13.4907214"><ele>211.0</ele><time>2026-04-28T10:59:02.764Z</time></trkpt><trkpt lat="43.4857633" lon="13.4907361"><ele>212.0</ele><time>2026-04-28T10:59:03.771Z</time></trkpt><trkpt lat="43.4858552" lon="13.4907322"><ele>213.0</ele><time>2026-04-28T10:59:04.766Z</time></trkpt><trkpt lat="43.4859438" lon="13.4907225"><ele>214.0</ele><time>2026-04-28T10:59:05.755Z</time></trkpt><trkpt lat="43.4860125" lon="13.4907105"><ele>215.0</ele><time>2026-04-28T10:59:06.747Z</time></trkpt><trkpt lat="43.4861165" lon="13.4906753"><ele>215.00000000000003</ele><time>2026-04-28T10:59:08.769Z</time></trkpt><trkpt lat="43.4861721" lon="13.4905784"><ele>215.0</ele><time>2026-04-28T10:59:10.763Z</time></trkpt><trkpt lat="43.4861653" lon="13.4904253"><ele>215.0</ele><time>2026-04-28T10:59:12.759Z</time></trkpt><trkpt lat="43.4861534" lon="13.4903379"><ele>215.0</ele><time>2026-04-28T10:59:13.745Z</time></trkpt><trkpt lat="43.4861461" lon="13.4902463"><ele>215.00000000000003</ele><time>2026-04-28T10:59:14.768Z</time></trkpt><trkpt lat="43.4861517" lon="13.4901431"><ele>215.0</ele><time>2026-04-28T10:59:15.763Z</time></trkpt><trkpt lat="43.4861889" lon="13.4900538"><ele>216.33333333333334</ele><time>2026-04-28T10:59:16.75Z</time></trkpt><trkpt lat="43.4862639" lon="13.4900061"><ele>217.66666666666669</ele><time>2026-04-28T10:59:17.762Z</time></trkpt><trkpt lat="43.4863465" lon="13.4899579"><ele>219.0</ele><time>2026-04-28T10:59:18.755Z</time></trkpt><trkpt lat="43.4864256" lon="13.4899035"><ele>220.33333333333331</ele><time>2026-04-28T10:59:19.755Z</time></trkpt><trkpt lat="43.4864925" lon="13.4898232"><ele>221.66666666666666</ele><time>2026-04-28T10:59:20.749Z</time></trkpt><trkpt lat="43.486547" lon="13.4897222"><ele>223.0</ele><time>2026-04-28T10:59:21.763Z</time></trkpt><trkpt lat="43.4865939" lon="13.4896045"><ele>224.8</ele><time>2026-04-28T10:59:22.77Z</time></trkpt><trkpt lat="43.4866396" lon="13.4894776"><ele>226.60000000000002</ele><time>2026-04-28T10:59:23.793Z</time></trkpt><trkpt lat="43.4866848" lon="13.4893507"><ele>228.39999999999998</ele><time>2026-04-28T10:59:24.756Z</time></trkpt><trkpt lat="43.4867278" lon="13.4892233"><ele>230.2</ele><time>2026-04-28T10:59:25.762Z</time></trkpt><trkpt lat="43.486775" lon="13.4890982"><ele>232.0</ele><time>2026-04-28T10:59:26.776Z</time></trkpt><trkpt lat="43.4868181" lon="13.4889715"><ele>232.0</ele><time>2026-04-28T10:59:27.761Z</time></trkpt><trkpt lat="43.4868625" lon="13.4888442"><ele>232.0</ele><time>2026-04-28T10:59:28.751Z</time></trkpt><trkpt lat="43.4869055" lon="13.4887182"><ele>232.0</ele><time>2026-04-28T10:59:29.768Z</time></trkpt><trkpt lat="43.4869485" lon="13.4885979"><ele>232.0</ele><time>2026-04-28T10:59:30.751Z</time></trkpt><trkpt lat="43.4869849" lon="13.4884804"><ele>232.0</ele><time>2026-04-28T10:59:31.766Z</time></trkpt><trkpt lat="43.4870257" lon="13.4883639"><ele>230.8</ele><time>2026-04-28T10:59:32.773Z</time></trkpt><trkpt lat="43.4870672" lon="13.4882509"><ele>229.6</ele><time>2026-04-28T10:59:33.762Z</time></trkpt><trkpt lat="43.4871115" lon="13.4881361"><ele>228.40000000000003</ele><time>2026-04-28T10:59:34.752Z</time></trkpt><trkpt lat="43.4871557" lon="13.4880176"><ele>227.20000000000002</ele><time>2026-04-28T10:59:35.759Z</time></trkpt><trkpt lat="43.4872024" lon="13.4879082"><ele>226.0</ele><time>2026-04-28T10:59:36.754Z</time></trkpt><trkpt lat="43.4872527" lon="13.4877958"><ele>226.0</ele><time>2026-04-28T10:59:37.758Z</time></trkpt><trkpt lat="43.4872989" lon="13.4876829"><ele>226.00000000000003</ele><time>2026-04-28T10:59:38.743Z</time></trkpt><trkpt lat="43.4873447" lon="13.4875652"><ele>226.00000000000003</ele><time>2026-04-28T10:59:39.776Z</time></trkpt><trkpt lat="43.4873856" lon="13.4874304"><ele>226.0</ele><time>2026-04-28T10:59:40.771Z</time></trkpt><trkpt lat="43.4874218" lon="13.4872927"><ele>226.0</ele><time>2026-04-28T10:59:41.765Z</time></trkpt><trkpt lat="43.4874606" lon="13.4871607"><ele>228.0</ele><time>2026-04-28T10:59:42.756Z</time></trkpt><trkpt lat="43.4875022" lon="13.487015"><ele>230.00000000000003</ele><time>2026-04-28T10:59:43.755Z</time></trkpt><trkpt lat="43.4875402" lon="13.486871"><ele>232.00000000000003</ele><time>2026-04-28T10:59:44.771Z</time></trkpt><trkpt lat="43.4875794" lon="13.4867395"><ele>234.0</ele><time>2026-04-28T10:59:45.763Z</time></trkpt><trkpt lat="43.4876191" lon="13.486613"><ele>236.0</ele><time>2026-04-28T10:59:46.766Z</time></trkpt><trkpt lat="43.4876586" lon="13.4864949"><ele>236.0</ele><time>2026-04-28T10:59:47.776Z</time></trkpt><trkpt lat="43.4876991" lon="13.4863675"><ele>236.00000000000003</ele><time>2026-04-28T10:59:48.75Z</time></trkpt><trkpt lat="43.487724" lon="13.4862318"><ele>236.00000000000003</ele><time>2026-04-28T10:59:49.752Z</time></trkpt><trkpt lat="43.487733" lon="13.4861033"><ele>236.0</ele><time>2026-04-28T10:59:50.757Z</time></trkpt><trkpt lat="43.4877053" lon="13.4859724"><ele>236.0</ele><time>2026-04-28T10:59:51.747Z</time></trkpt><trkpt lat="43.4876513" lon="13.4858189"><ele>235.60000000000002</ele><time>2026-04-28T10:59:52.751Z</time></trkpt><trkpt lat="43.4875965" lon="13.4856768"><ele>235.20000000000002</ele><time>2026-04-28T10:59:53.753Z</time></trkpt><trkpt lat="43.4875435" lon="13.4855436"><ele>234.79999999999998</ele><time>2026-04-28T10:59:54.759Z</time></trkpt><trkpt lat="43.4875015" lon="13.4854133"><ele>234.39999999999998</ele><time>2026-04-28T10:59:55.746Z</time></trkpt><trkpt lat="43.487451" lon="13.4852843"><ele>234.0</ele><time>2026-04-28T10:59:56.742Z</time></trkpt><trkpt lat="43.4873969" lon="13.4851569"><ele>234.0</ele><time>2026-04-28T10:59:57.764Z</time></trkpt><trkpt lat="43.4873468" lon="13.4850372"><ele>233.99999999999997</ele><time>2026-04-28T10:59:58.737Z</time></trkpt><trkpt lat="43.4873001" lon="13.4849155"><ele>233.99999999999997</ele><time>2026-04-28T10:59:59.774Z</time></trkpt><trkpt lat="43.4872522" lon="13.4847817"><ele>234.0</ele><time>2026-04-28T11:00:00.749Z</time></trkpt><trkpt lat="43.4872001" lon="13.4846433"><ele>234.0</ele><time>2026-04-28T11:00:01.767Z</time></trkpt><trkpt lat="43.4871612" lon="13.4845052"><ele>232.2</ele><time>2026-04-28T11:00:02.751Z</time></trkpt><trkpt lat="43.4871391" lon="13.4843744"><ele>230.39999999999998</ele><time>2026-04-28T11:00:03.752Z</time></trkpt><trkpt lat="43.4871294" lon="13.4842536"><ele>228.6</ele><time>2026-04-28T11:00:04.765Z</time></trkpt><trkpt lat="43.4871271" lon="13.4841317"><ele>226.8</ele><time>2026-04-28T11:00:05.767Z</time></trkpt><trkpt lat="43.4871239" lon="13.4840057"><ele>225.0</ele><time>2026-04-28T11:00:06.755Z</time></trkpt><trkpt lat="43.4871143" lon="13.483867"><ele>224.8</ele><time>2026-04-28T11:00:07.76Z</time></trkpt><trkpt lat="43.4870963" lon="13.483729"><ele>224.6</ele><time>2026-04-28T11:00:08.77Z</time></trkpt><trkpt lat="43.487076" lon="13.4835832"><ele>224.39999999999998</ele><time>2026-04-28T11:00:09.756Z</time></trkpt><trkpt lat="43.4870628" lon="13.4834419"><ele>224.2</ele><time>2026-04-28T11:00:10.747Z</time></trkpt><trkpt lat="43.4870456" lon="13.4833035"><ele>224.0</ele><time>2026-04-28T11:00:11.748Z</time></trkpt><trkpt lat="43.4870258" lon="13.4831809"><ele>228.14285714285714</ele><time>2026-04-28T11:00:12.753Z</time></trkpt><trkpt lat="43.4870034" lon="13.4830726"><ele>232.28571428571428</ele><time>2026-04-28T11:00:13.76Z</time></trkpt><trkpt lat="43.4869864" lon="13.4829743"><ele>236.42857142857144</ele><time>2026-04-28T11:00:14.745Z</time></trkpt><trkpt lat="43.4869697" lon="13.4828818"><ele>240.57142857142858</ele><time>2026-04-28T11:00:15.754Z</time></trkpt><trkpt lat="43.4869547" lon="13.4827891"><ele>244.71428571428572</ele><time>2026-04-28T11:00:16.749Z</time></trkpt><trkpt lat="43.4869411" lon="13.4826906"><ele>248.8571428571429</ele><time>2026-04-28T11:00:17.756Z</time></trkpt><trkpt lat="43.4869214" lon="13.4825876"><ele>253.00000000000003</ele><time>2026-04-28T11:00:18.758Z</time></trkpt><trkpt lat="43.4869045" lon="13.4824798"><ele>252.99999999999997</ele><time>2026-04-28T11:00:19.759Z</time></trkpt><trkpt lat="43.4868839" lon="13.4823716"><ele>253.0</ele><time>2026-04-28T11:00:20.759Z</time></trkpt><trkpt lat="43.4868708" lon="13.4822471"><ele>253.0</ele><time>2026-04-28T11:00:21.763Z</time></trkpt><trkpt lat="43.4868606" lon="13.4821229"><ele>253.0</ele><time>2026-04-28T11:00:22.772Z</time></trkpt><trkpt lat="43.4868526" lon="13.4820082"><ele>252.99999999999997</ele><time>2026-04-28T11:00:23.76Z</time></trkpt><trkpt lat="43.4868466" lon="13.4819178"><ele>253.0</ele><time>2026-04-28T11:00:24.758Z</time></trkpt><trkpt lat="43.4868329" lon="13.4817897"><ele>252.66666666666666</ele><time>2026-04-28T11:00:26.755Z</time></trkpt><trkpt lat="43.4868281" lon="13.4816673"><ele>252.33333333333331</ele><time>2026-04-28T11:00:28.752Z</time></trkpt><trkpt lat="43.4868143" lon="13.481503"><ele>252.0</ele><time>2026-04-28T11:00:30.756Z</time></trkpt><trkpt lat="43.4868104" lon="13.4814038"><ele>251.66666666666669</ele><time>2026-04-28T11:00:31.774Z</time></trkpt><trkpt lat="43.4868068" lon="13.4812964"><ele>251.33333333333334</ele><time>2026-04-28T11:00:32.773Z</time></trkpt><trkpt lat="43.4868071" lon="13.4811882"><ele>251.0</ele><time>2026-04-28T11:00:33.767Z</time></trkpt><trkpt lat="43.4868072" lon="13.4810789"><ele>251.00000000000003</ele><time>2026-04-28T11:00:34.756Z</time></trkpt><trkpt lat="43.4868071" lon="13.4809688"><ele>251.0</ele><time>2026-04-28T11:00:35.757Z</time></trkpt><trkpt lat="43.4868078" lon="13.4808605"><ele>251.0</ele><time>2026-04-28T11:00:36.766Z</time></trkpt><trkpt lat="43.4868135" lon="13.4807575"><ele>251.0</ele><time>2026-04-28T11:00:37.776Z</time></trkpt><trkpt lat="43.4868273" lon="13.480669"><ele>251.00000000000003</ele><time>2026-04-28T11:00:38.757Z</time></trkpt><trkpt lat="43.486849" lon="13.4805834"><ele>251.0</ele><time>2026-04-28T11:00:39.779Z</time></trkpt><trkpt lat="43.4868986" lon="13.4804264"><ele>251.1428571428571</ele><time>2026-04-28T11:00:41.754Z</time></trkpt><trkpt lat="43.4869319" lon="13.48035"><ele>251.28571428571428</ele><time>2026-04-28T11:00:42.75Z</time></trkpt><trkpt lat="43.4869716" lon="13.480271"><ele>251.42857142857142</ele><time>2026-04-28T11:00:43.755Z</time></trkpt><trkpt lat="43.4870109" lon="13.4801909"><ele>251.57142857142856</ele><time>2026-04-28T11:00:44.752Z</time></trkpt><trkpt lat="43.4870532" lon="13.480111"><ele>251.71428571428572</ele><time>2026-04-28T11:00:45.753Z</time></trkpt><trkpt lat="43.4870943" lon="13.4800312"><ele>251.85714285714286</ele><time>2026-04-28T11:00:46.757Z</time></trkpt><trkpt lat="43.4871332" lon="13.4799481"><ele>252.0</ele><time>2026-04-28T11:00:47.771Z</time></trkpt><trkpt lat="43.4871749" lon="13.4798637"><ele>247.57142857142858</ele><time>2026-04-28T11:00:48.758Z</time></trkpt><trkpt lat="43.4872147" lon="13.4797799"><ele>243.14285714285714</ele><time>2026-04-28T11:00:49.767Z</time></trkpt><trkpt lat="43.4872584" lon="13.4797048"><ele>238.71428571428572</ele><time>2026-04-28T11:00:50.76Z</time></trkpt><trkpt lat="43.4873013" lon="13.4796334"><ele>234.28571428571428</ele><time>2026-04-28T11:00:51.762Z</time></trkpt><trkpt lat="43.4873414" lon="13.4795658"><ele>229.85714285714286</ele><time>2026-04-28T11:00:52.746Z</time></trkpt><trkpt lat="43.4873854" lon="13.4795018"><ele>225.42857142857144</ele><time>2026-04-28T11:00:53.757Z</time></trkpt><trkpt lat="43.4874295" lon="13.4794294"><ele>221.0</ele><time>2026-04-28T11:00:54.753Z</time></trkpt><trkpt lat="43.4874766" lon="13.4793557"><ele>221.00000000000003</ele><time>2026-04-28T11:00:55.775Z</time></trkpt><trkpt lat="43.4875182" lon="13.4792785"><ele>221.0</ele><time>2026-04-28T11:00:56.747Z</time></trkpt><trkpt lat="43.487555" lon="13.4792052"><ele>221.0</ele><time>2026-04-28T11:00:57.765Z</time></trkpt><trkpt lat="43.4875912" lon="13.4791319"><ele>221.0</ele><time>2026-04-28T11:00:58.774Z</time></trkpt><trkpt lat="43.4876534" lon="13.4790006"><ele>221.00000000000003</ele><time>2026-04-28T11:01:00.754Z</time></trkpt><trkpt lat="43.4877033" lon="13.4788936"><ele>221.0</ele><time>2026-04-28T11:01:02.766Z</time></trkpt><trkpt lat="43.4877533" lon="13.4788237"><ele>219.60000000000002</ele><time>2026-04-28T11:01:06.764Z</time></trkpt><trkpt lat="43.4878435" lon="13.4787408"><ele>218.20000000000002</ele><time>2026-04-28T11:01:09.798Z</time></trkpt><trkpt lat="43.4879224" lon="13.4786571"><ele>216.79999999999998</ele><time>2026-04-28T11:01:11.77Z</time></trkpt><trkpt lat="43.4880041" lon="13.4785607"><ele>215.39999999999998</ele><time>2026-04-28T11:01:13.764Z</time></trkpt><trkpt lat="43.4880723" lon="13.4784592"><ele>214.0</ele><time>2026-04-28T11:01:15.762Z</time></trkpt><trkpt lat="43.4881268" lon="13.4783552"><ele>213.16666666666666</ele><time>2026-04-28T11:01:17.753Z</time></trkpt><trkpt lat="43.4881593" lon="13.4782514"><ele>212.33333333333331</ele><time>2026-04-28T11:01:19.777Z</time></trkpt><trkpt lat="43.4881757" lon="13.4781602"><ele>211.5</ele><time>2026-04-28T11:01:24.752Z</time></trkpt><trkpt lat="43.4882101" lon="13.4780317"><ele>210.66666666666669</ele><time>2026-04-28T11:01:32.761Z</time></trkpt><trkpt lat="43.4882653" lon="13.477873"><ele>209.83333333333334</ele><time>2026-04-28T11:01:34.756Z</time></trkpt><trkpt lat="43.4882857" lon="13.4777865"><ele>209.0</ele><time>2026-04-28T11:01:35.762Z</time></trkpt><trkpt lat="43.4882997" lon="13.4776863"><ele>208.83333333333334</ele><time>2026-04-28T11:01:36.753Z</time></trkpt><trkpt lat="43.4883064" lon="13.4775734"><ele>208.66666666666669</ele><time>2026-04-28T11:01:37.755Z</time></trkpt><trkpt lat="43.488311" lon="13.4774542"><ele>208.5</ele><time>2026-04-28T11:01:38.752Z</time></trkpt><trkpt lat="43.4883145" lon="13.4773287"><ele>208.33333333333331</ele><time>2026-04-28T11:01:39.755Z</time></trkpt><trkpt lat="43.4883184" lon="13.4772033"><ele>208.16666666666666</ele><time>2026-04-28T11:01:40.746Z</time></trkpt><trkpt lat="43.4883222" lon="13.4770748"><ele>208.0</ele><time>2026-04-28T11:01:41.758Z</time></trkpt><trkpt lat="43.4883241" lon="13.476952"><ele>207.8</ele><time>2026-04-28T11:01:42.75Z</time></trkpt><trkpt lat="43.4883231" lon="13.4768335"><ele>207.60000000000002</ele><time>2026-04-28T11:01:43.752Z</time></trkpt><trkpt lat="43.4883234" lon="13.476719"><ele>207.39999999999998</ele><time>2026-04-28T11:01:44.763Z</time></trkpt><trkpt lat="43.4883238" lon="13.4765967"><ele>207.2</ele><time>2026-04-28T11:01:45.761Z</time></trkpt><trkpt lat="43.4883299" lon="13.476462"><ele>207.0</ele><time>2026-04-28T11:01:46.744Z</time></trkpt><trkpt lat="43.4883372" lon="13.4763218"><ele>207.0</ele><time>2026-04-28T11:01:47.746Z</time></trkpt><trkpt lat="43.4883403" lon="13.4761728"><ele>207.0</ele><time>2026-04-28T11:01:48.74Z</time></trkpt><trkpt lat="43.488341" lon="13.4760203"><ele>207.0</ele><time>2026-04-28T11:01:49.754Z</time></trkpt><trkpt lat="43.4883407" lon="13.4758643"><ele>207.0</ele><time>2026-04-28T11:01:50.759Z</time></trkpt><trkpt lat="43.4883399" lon="13.4757006"><ele>207.0</ele><time>2026-04-28T11:01:51.766Z</time></trkpt><trkpt lat="43.4883387" lon="13.4755379"><ele>207.0</ele><time>2026-04-28T11:01:52.748Z</time></trkpt><trkpt lat="43.4883361" lon="13.475381"><ele>207.0</ele><time>2026-04-28T11:01:53.773Z</time></trkpt><trkpt lat="43.4883348" lon="13.4752256"><ele>207.0</ele><time>2026-04-28T11:01:54.751Z</time></trkpt><trkpt lat="43.4883293" lon="13.4750763"><ele>206.0</ele><time>2026-04-28T11:01:55.755Z</time></trkpt><trkpt lat="43.4883273" lon="13.4749345"><ele>205.0</ele><time>2026-04-28T11:01:56.753Z</time></trkpt><trkpt lat="43.488322" lon="13.4747918"><ele>204.0</ele><time>2026-04-28T11:01:57.769Z</time></trkpt><trkpt lat="43.4883115" lon="13.4746426"><ele>203.0</ele><time>2026-04-28T11:01:58.777Z</time></trkpt><trkpt lat="43.4883036" lon="13.4744855"><ele>202.0</ele><time>2026-04-28T11:01:59.764Z</time></trkpt><trkpt lat="43.4882906" lon="13.4743195"><ele>201.75</ele><time>2026-04-28T11:02:00.772Z</time></trkpt><trkpt lat="43.4882599" lon="13.474145"><ele>201.5</ele><time>2026-04-28T11:02:01.751Z</time></trkpt><trkpt lat="43.4881966" lon="13.4739655"><ele>201.25</ele><time>2026-04-28T11:02:02.756Z</time></trkpt><trkpt lat="43.4881161" lon="13.4738068"><ele>201.0</ele><time>2026-04-28T11:02:03.761Z</time></trkpt><trkpt lat="43.4880344" lon="13.4736602"><ele>203.5</ele><time>2026-04-28T11:02:04.758Z</time></trkpt><trkpt lat="43.4879479" lon="13.4735137"><ele>206.0</ele><time>2026-04-28T11:02:05.755Z</time></trkpt><trkpt lat="43.4878569" lon="13.4733624"><ele>208.5</ele><time>2026-04-28T11:02:06.742Z</time></trkpt><trkpt lat="43.4877738" lon="13.473209"><ele>211.0</ele><time>2026-04-28T11:02:07.763Z</time></trkpt><trkpt lat="43.4876997" lon="13.4730587"><ele>207.25</ele><time>2026-04-28T11:02:08.759Z</time></trkpt><trkpt lat="43.487632" lon="13.4729018"><ele>203.5</ele><time>2026-04-28T11:02:09.779Z</time></trkpt><trkpt lat="43.4875632" lon="13.4727376"><ele>199.75</ele><time>2026-04-28T11:02:10.75Z</time></trkpt><trkpt lat="43.4875062" lon="13.4725552"><ele>196.0</ele><time>2026-04-28T11:02:11.755Z</time></trkpt><trkpt lat="43.4874681" lon="13.4723802"><ele>196.0</ele><time>2026-04-28T11:02:12.749Z</time></trkpt><trkpt lat="43.4874354" lon="13.4722013"><ele>196.0</ele><time>2026-04-28T11:02:13.758Z</time></trkpt><trkpt lat="43.4874103" lon="13.4720114"><ele>196.0</ele><time>2026-04-28T11:02:14.761Z</time></trkpt><trkpt lat="43.4873874" lon="13.4718268"><ele>196.0</ele><time>2026-04-28T11:02:15.739Z</time></trkpt><trkpt lat="43.4873675" lon="13.4716423"><ele>196.5</ele><time>2026-04-28T11:02:16.754Z</time></trkpt><trkpt lat="43.4873536" lon="13.4714623"><ele>197.0</ele><time>2026-04-28T11:02:17.754Z</time></trkpt><trkpt lat="43.4873507" lon="13.4712861"><ele>197.5</ele><time>2026-04-28T11:02:18.742Z</time></trkpt><trkpt lat="43.4873651" lon="13.4711184"><ele>198.0</ele><time>2026-04-28T11:02:19.764Z</time></trkpt><trkpt lat="43.4873927" lon="13.4709551"><ele>196.75</ele><time>2026-04-28T11:02:20.749Z</time></trkpt><trkpt lat="43.4874385" lon="13.4708059"><ele>195.5</ele><time>2026-04-28T11:02:21.766Z</time></trkpt><trkpt lat="43.4874976" lon="13.470663"><ele>194.25</ele><time>2026-04-28T11:02:22.755Z</time></trkpt><trkpt lat="43.4875716" lon="13.4705319"><ele>193.0</ele><time>2026-04-28T11:02:23.757Z</time></trkpt><trkpt lat="43.4876639" lon="13.4704241"><ele>191.75</ele><time>2026-04-28T11:02:24.756Z</time></trkpt><trkpt lat="43.4877771" lon="13.4703422"><ele>190.5</ele><time>2026-04-28T11:02:25.768Z</time></trkpt><trkpt lat="43.4878955" lon="13.4702734"><ele>189.25</ele><time>2026-04-28T11:02:26.749Z</time></trkpt><trkpt lat="43.4880168" lon="13.4702114"><ele>188.0</ele><time>2026-04-28T11:02:27.751Z</time></trkpt><trkpt lat="43.4881383" lon="13.4701546"><ele>188.0</ele><time>2026-04-28T11:02:28.759Z</time></trkpt><trkpt lat="43.488255" lon="13.4700954"><ele>188.0</ele><time>2026-04-28T11:02:29.753Z</time></trkpt><trkpt lat="43.4883696" lon="13.4700415"><ele>188.0</ele><time>2026-04-28T11:02:30.752Z</time></trkpt><trkpt lat="43.4884834" lon="13.4699875"><ele>188.0</ele><time>2026-04-28T11:02:31.748Z</time></trkpt><trkpt lat="43.4885888" lon="13.4699263"><ele>188.0</ele><time>2026-04-28T11:02:32.744Z</time></trkpt><trkpt lat="43.488691" lon="13.4698691"><ele>188.0</ele><time>2026-04-28T11:02:33.756Z</time></trkpt><trkpt lat="43.4887854" lon="13.4698218"><ele>188.0</ele><time>2026-04-28T11:02:34.741Z</time></trkpt><trkpt lat="43.4888719" lon="13.4697808"><ele>188.0</ele><time>2026-04-28T11:02:35.749Z</time></trkpt><trkpt lat="43.4889455" lon="13.4697485"><ele>188.0</ele><time>2026-04-28T11:02:36.748Z</time></trkpt><trkpt lat="43.4890081" lon="13.4697295"><ele>188.0</ele><time>2026-04-28T11:02:37.763Z</time></trkpt><trkpt lat="43.48909" lon="13.4697464"><ele>187.4</ele><time>2026-04-28T11:02:39.775Z</time></trkpt><trkpt lat="43.4891357" lon="13.4698491"><ele>186.8</ele><time>2026-04-28T11:02:41.756Z</time></trkpt><trkpt lat="43.4891572" lon="13.4700326"><ele>186.2</ele><time>2026-04-28T11:02:43.761Z</time></trkpt><trkpt lat="43.489174" lon="13.470144"><ele>185.6</ele><time>2026-04-28T11:02:44.744Z</time></trkpt><trkpt lat="43.4891915" lon="13.4702723"><ele>185.0</ele><time>2026-04-28T11:02:45.748Z</time></trkpt><trkpt lat="43.4892023" lon="13.4704128"><ele>187.4</ele><time>2026-04-28T11:02:46.758Z</time></trkpt><trkpt lat="43.4892193" lon="13.4705605"><ele>189.8</ele><time>2026-04-28T11:02:47.767Z</time></trkpt><trkpt lat="43.4892404" lon="13.4707117"><ele>192.2</ele><time>2026-04-28T11:02:48.749Z</time></trkpt><trkpt lat="43.4892581" lon="13.4708612"><ele>194.6</ele><time>2026-04-28T11:02:49.759Z</time></trkpt><trkpt lat="43.4892768" lon="13.4710091"><ele>197.0</ele><time>2026-04-28T11:02:50.752Z</time></trkpt><trkpt lat="43.4892902" lon="13.471153"><ele>198.0</ele><time>2026-04-28T11:02:51.771Z</time></trkpt><trkpt lat="43.4892879" lon="13.4712939"><ele>199.0</ele><time>2026-04-28T11:02:52.757Z</time></trkpt><trkpt lat="43.489272" lon="13.4714302"><ele>200.0</ele><time>2026-04-28T11:02:53.757Z</time></trkpt><trkpt lat="43.4892451" lon="13.4715646"><ele>201.0</ele><time>2026-04-28T11:02:54.756Z</time></trkpt><trkpt lat="43.4892173" lon="13.4717061"><ele>202.0</ele><time>2026-04-28T11:02:55.759Z</time></trkpt><trkpt lat="43.4891852" lon="13.4718387"><ele>202.0</ele><time>2026-04-28T11:02:56.763Z</time></trkpt><trkpt lat="43.4891511" lon="13.471972"><ele>202.0</ele><time>2026-04-28T11:02:57.754Z</time></trkpt><trkpt lat="43.4891158" lon="13.4721051"><ele>202.0</ele><time>2026-04-28T11:02:58.753Z</time></trkpt><trkpt lat="43.4890785" lon="13.4722368"><ele>202.0</ele><time>2026-04-28T11:02:59.77Z</time></trkpt><trkpt lat="43.4890428" lon="13.4723701"><ele>202.0</ele><time>2026-04-28T11:03:00.749Z</time></trkpt><trkpt lat="43.4890067" lon="13.4724998"><ele>202.2</ele><time>2026-04-28T11:03:01.794Z</time></trkpt><trkpt lat="43.4889696" lon="13.4726257"><ele>202.39999999999998</ele><time>2026-04-28T11:03:02.765Z</time></trkpt><trkpt lat="43.4889296" lon="13.472752"><ele>202.60000000000002</ele><time>2026-04-28T11:03:03.768Z</time></trkpt><trkpt lat="43.4888962" lon="13.4728743"><ele>202.8</ele><time>2026-04-28T11:03:04.747Z</time></trkpt><trkpt lat="43.4888617" lon="13.4729984"><ele>203.0</ele><time>2026-04-28T11:03:05.76Z</time></trkpt><trkpt lat="43.4888291" lon="13.4731189"><ele>203.00000000000003</ele><time>2026-04-28T11:03:06.756Z</time></trkpt><trkpt lat="43.4887957" lon="13.4732263"><ele>203.0</ele><time>2026-04-28T11:03:07.763Z</time></trkpt><trkpt lat="43.4887706" lon="13.4733225"><ele>203.0</ele><time>2026-04-28T11:03:08.769Z</time></trkpt><trkpt lat="43.4887504" lon="13.4734087"><ele>203.0</ele><time>2026-04-28T11:03:09.763Z</time></trkpt><trkpt lat="43.4887498" lon="13.4735379"><ele>203.00000000000003</ele><time>2026-04-28T11:03:11.765Z</time></trkpt><trkpt lat="43.4887557" lon="13.4736296"><ele>203.0</ele><time>2026-04-28T11:03:13.754Z</time></trkpt><trkpt lat="43.4887664" lon="13.4737264"><ele>203.0</ele><time>2026-04-28T11:04:21.762Z</time></trkpt><trkpt lat="43.4887648" lon="13.4738228"><ele>203.0</ele><time>2026-04-28T11:04:23.767Z</time></trkpt><trkpt lat="43.4887826" lon="13.4737095"><ele>203.0</ele><time>2026-04-28T11:04:29.766Z</time></trkpt><trkpt lat="43.4887673" lon="13.4735638"><ele>203.0</ele><time>2026-04-28T11:04:31.755Z</time></trkpt><trkpt lat="43.488768" lon="13.473418"><ele>203.0</ele><time>2026-04-28T11:04:33.763Z</time></trkpt><trkpt lat="43.4887876" lon="13.473295"><ele>203.00000000000003</ele><time>2026-04-28T11:04:35.761Z</time></trkpt><trkpt lat="43.4888224" lon="13.4731627"><ele>203.0</ele><time>2026-04-28T11:04:37.76Z</time></trkpt><trkpt lat="43.4888494" lon="13.4730763"><ele>203.0</ele><time>2026-04-28T11:04:38.773Z</time></trkpt><trkpt lat="43.488876" lon="13.4729929"><ele>203.0</ele><time>2026-04-28T11:04:39.77Z</time></trkpt><trkpt lat="43.4889022" lon="13.4729132"><ele>203.00000000000003</ele><time>2026-04-28T11:04:40.748Z</time></trkpt><trkpt lat="43.4889437" lon="13.472765"><ele>203.0</ele><time>2026-04-28T11:04:42.77Z</time></trkpt><trkpt lat="43.4889868" lon="13.4726118"><ele>203.16666666666669</ele><time>2026-04-28T11:04:44.77Z</time></trkpt><trkpt lat="43.4890335" lon="13.4724511"><ele>203.33333333333334</ele><time>2026-04-28T11:04:46.757Z</time></trkpt><trkpt lat="43.4890592" lon="13.4723573"><ele>203.5</ele><time>2026-04-28T11:04:47.781Z</time></trkpt><trkpt lat="43.489079" lon="13.4722562"><ele>203.66666666666669</ele><time>2026-04-28T11:04:48.743Z</time></trkpt><trkpt lat="43.4891079" lon="13.4721555"><ele>203.83333333333334</ele><time>2026-04-28T11:04:49.747Z</time></trkpt><trkpt lat="43.4891342" lon="13.4720403"><ele>204.0</ele><time>2026-04-28T11:04:50.751Z</time></trkpt><trkpt lat="43.4891678" lon="13.4719186"><ele>203.6</ele><time>2026-04-28T11:04:51.784Z</time></trkpt><trkpt lat="43.4892018" lon="13.4717973"><ele>203.2</ele><time>2026-04-28T11:04:52.765Z</time></trkpt><trkpt lat="43.4892322" lon="13.4716664"><ele>202.79999999999998</ele><time>2026-04-28T11:04:53.751Z</time></trkpt><trkpt lat="43.4892561" lon="13.4715365"><ele>202.39999999999998</ele><time>2026-04-28T11:04:54.753Z</time></trkpt><trkpt lat="43.4892773" lon="13.4714032"><ele>202.0</ele><time>2026-04-28T11:04:55.77Z</time></trkpt><trkpt lat="43.4892997" lon="13.4712657"><ele>201.0</ele><time>2026-04-28T11:04:56.747Z</time></trkpt><trkpt lat="43.489302" lon="13.4711276"><ele>200.0</ele><time>2026-04-28T11:04:57.76Z</time></trkpt><trkpt lat="43.4892902" lon="13.4709924"><ele>199.0</ele><time>2026-04-28T11:04:58.751Z</time></trkpt><trkpt lat="43.4892731" lon="13.4708623"><ele>198.0</ele><time>2026-04-28T11:04:59.76Z</time></trkpt><trkpt lat="43.4892513" lon="13.4707312"><ele>197.0</ele><time>2026-04-28T11:05:00.748Z</time></trkpt><trkpt lat="43.4892322" lon="13.4705971"><ele>197.0</ele><time>2026-04-28T11:05:01.753Z</time></trkpt><trkpt lat="43.4892137" lon="13.4704559"><ele>197.0</ele><time>2026-04-28T11:05:02.759Z</time></trkpt><trkpt lat="43.4891951" lon="13.4703105"><ele>197.0</ele><time>2026-04-28T11:05:03.753Z</time></trkpt><trkpt lat="43.4891749" lon="13.4701691"><ele>197.0</ele><time>2026-04-28T11:05:04.744Z</time></trkpt><trkpt lat="43.4891557" lon="13.4700339"><ele>197.0</ele><time>2026-04-28T11:05:05.774Z</time></trkpt><trkpt lat="43.4891417" lon="13.4699139"><ele>195.00000000000003</ele><time>2026-04-28T11:05:06.752Z</time></trkpt><trkpt lat="43.4891319" lon="13.4698176"><ele>193.0</ele><time>2026-04-28T11:05:07.756Z</time></trkpt><trkpt lat="43.4891185" lon="13.4697036"><ele>191.0</ele><time>2026-04-28T11:05:09.781Z</time></trkpt><trkpt lat="43.4890562" lon="13.4696592"><ele>189.0</ele><time>2026-04-28T11:05:12.748Z</time></trkpt><trkpt lat="43.4889522" lon="13.469694"><ele>187.0</ele><time>2026-04-28T11:05:14.761Z</time></trkpt><trkpt lat="43.488884" lon="13.4697388"><ele>185.0</ele><time>2026-04-28T11:05:15.754Z</time></trkpt><trkpt lat="43.4888016" lon="13.4697822"><ele>185.75</ele><time>2026-04-28T11:05:16.759Z</time></trkpt><trkpt lat="43.4887096" lon="13.4698329"><ele>186.5</ele><time>2026-04-28T11:05:17.757Z</time></trkpt><trkpt lat="43.4886065" lon="13.4698926"><ele>187.25</ele><time>2026-04-28T11:05:18.767Z</time></trkpt><trkpt lat="43.48849" lon="13.4699519"><ele>188.0</ele><time>2026-04-28T11:05:19.76Z</time></trkpt><trkpt lat="43.4883764" lon="13.4700177"><ele>188.0</ele><time>2026-04-28T11:05:20.754Z</time></trkpt><trkpt lat="43.4882566" lon="13.4700841"><ele>188.0</ele><time>2026-04-28T11:05:21.75Z</time></trkpt><trkpt lat="43.4881365" lon="13.470152"><ele>188.0</ele><time>2026-04-28T11:05:22.751Z</time></trkpt><trkpt lat="43.4880155" lon="13.4702133"><ele>188.0</ele><time>2026-04-28T11:05:23.75Z</time></trkpt><trkpt lat="43.4879007" lon="13.4702752"><ele>189.25</ele><time>2026-04-28T11:05:24.745Z</time></trkpt><trkpt lat="43.4877957" lon="13.4703426"><ele>190.5</ele><time>2026-04-28T11:05:25.758Z</time></trkpt><trkpt lat="43.487703" lon="13.4704174"><ele>191.75</ele><time>2026-04-28T11:05:26.751Z</time></trkpt><trkpt lat="43.48761" lon="13.470515"><ele>193.0</ele><time>2026-04-28T11:05:27.741Z</time></trkpt><trkpt lat="43.4875265" lon="13.4706285"><ele>193.0</ele><time>2026-04-28T11:05:28.759Z</time></trkpt><trkpt lat="43.4874523" lon="13.4707677"><ele>193.0</ele><time>2026-04-28T11:05:29.753Z</time></trkpt><trkpt lat="43.4873904" lon="13.4709191"><ele>193.0</ele><time>2026-04-28T11:05:30.759Z</time></trkpt><trkpt lat="43.4873441" lon="13.4710902"><ele>193.0</ele><time>2026-04-28T11:05:31.756Z</time></trkpt><trkpt lat="43.4873209" lon="13.471266"><ele>194.25</ele><time>2026-04-28T11:05:32.758Z</time></trkpt><trkpt lat="43.4873198" lon="13.4714506"><ele>195.5</ele><time>2026-04-28T11:05:33.759Z</time></trkpt><trkpt lat="43.4873343" lon="13.4716404"><ele>196.75</ele><time>2026-04-28T11:05:34.746Z</time></trkpt><trkpt lat="43.4873541" lon="13.471832"><ele>198.0</ele><time>2026-04-28T11:05:35.758Z</time></trkpt><trkpt lat="43.4873755" lon="13.4720259"><ele>197.5</ele><time>2026-04-28T11:05:36.745Z</time></trkpt><trkpt lat="43.4874028" lon="13.4722236"><ele>197.0</ele><time>2026-04-28T11:05:37.771Z</time></trkpt><trkpt lat="43.4874368" lon="13.4724147"><ele>196.5</ele><time>2026-04-28T11:05:38.757Z</time></trkpt><trkpt lat="43.4874811" lon="13.4726007"><ele>196.0</ele><time>2026-04-28T11:05:39.775Z</time></trkpt><trkpt lat="43.4875379" lon="13.4727775"><ele>194.0</ele><time>2026-04-28T11:05:40.749Z</time></trkpt><trkpt lat="43.4876011" lon="13.4729484"><ele>192.0</ele><time>2026-04-28T11:05:41.766Z</time></trkpt><trkpt lat="43.4876714" lon="13.4731062"><ele>190.0</ele><time>2026-04-28T11:05:42.769Z</time></trkpt><trkpt lat="43.4877505" lon="13.4732643"><ele>188.0</ele><time>2026-04-28T11:05:43.754Z</time></trkpt><trkpt lat="43.4878352" lon="13.4734182"><ele>188.0</ele><time>2026-04-28T11:05:44.758Z</time></trkpt><trkpt lat="43.4879216" lon="13.47357"><ele>188.0</ele><time>2026-04-28T11:05:45.749Z</time></trkpt><trkpt lat="43.4880111" lon="13.4737294"><ele>188.0</ele><time>2026-04-28T11:05:46.751Z</time></trkpt><trkpt lat="43.4880961" lon="13.4738893"><ele>188.0</ele><time>2026-04-28T11:05:47.767Z</time></trkpt><trkpt lat="43.4881662" lon="13.4740476"><ele>191.25</ele><time>2026-04-28T11:05:48.75Z</time></trkpt><trkpt lat="43.4882117" lon="13.4742103"><ele>194.5</ele><time>2026-04-28T11:05:49.77Z</time></trkpt><trkpt lat="43.488241" lon="13.4743757"><ele>197.75</ele><time>2026-04-28T11:05:50.761Z</time></trkpt><trkpt lat="43.4882612" lon="13.4745588"><ele>201.0</ele><time>2026-04-28T11:05:51.755Z</time></trkpt><trkpt lat="43.488278" lon="13.474747"><ele>201.25</ele><time>2026-04-28T11:05:52.753Z</time></trkpt><trkpt lat="43.4882848" lon="13.4749394"><ele>201.5</ele><time>2026-04-28T11:05:53.744Z</time></trkpt><trkpt lat="43.4882882" lon="13.4751301"><ele>201.75</ele><time>2026-04-28T11:05:54.744Z</time></trkpt><trkpt lat="43.4882912" lon="13.4753168"><ele>202.0</ele><time>2026-04-28T11:05:55.754Z</time></trkpt><trkpt lat="43.4882936" lon="13.4754955"><ele>203.0</ele><time>2026-04-28T11:05:56.76Z</time></trkpt><trkpt lat="43.4882984" lon="13.4756657"><ele>204.0</ele><time>2026-04-28T11:05:57.755Z</time></trkpt><trkpt lat="43.4883003" lon="13.4758173"><ele>205.0</ele><time>2026-04-28T11:05:58.768Z</time></trkpt><trkpt lat="43.4883066" lon="13.4759587"><ele>206.0</ele><time>2026-04-28T11:05:59.755Z</time></trkpt><trkpt lat="43.4883126" lon="13.4760856"><ele>207.0</ele><time>2026-04-28T11:06:00.747Z</time></trkpt><trkpt lat="43.4883126" lon="13.4761974"><ele>207.0</ele><time>2026-04-28T11:06:01.753Z</time></trkpt><trkpt lat="43.4883127" lon="13.4762934"><ele>207.0</ele><time>2026-04-28T11:06:02.755Z</time></trkpt><trkpt lat="43.4883083" lon="13.4764624"><ele>207.0</ele><time>2026-04-28T11:06:04.747Z</time></trkpt><trkpt lat="43.4883071" lon="13.4765967"><ele>207.0</ele><time>2026-04-28T11:06:06.744Z</time></trkpt><trkpt lat="43.4883122" lon="13.4767196"><ele>207.0</ele><time>2026-04-28T11:06:08.748Z</time></trkpt><trkpt lat="43.488322" lon="13.4768822"><ele>207.0</ele><time>2026-04-28T11:06:10.743Z</time></trkpt><trkpt lat="43.488324" lon="13.476972"><ele>207.0</ele><time>2026-04-28T11:06:11.752Z</time></trkpt><trkpt lat="43.4883249" lon="13.4770629"><ele>207.0</ele><time>2026-04-28T11:06:12.765Z</time></trkpt><trkpt lat="43.4883221" lon="13.4772016"><ele>207.0</ele><time>2026-04-28T11:06:14.733Z</time></trkpt><trkpt lat="43.4883163" lon="13.4773385"><ele>207.0</ele><time>2026-04-28T11:06:16.735Z</time></trkpt><trkpt lat="43.4883095" lon="13.4775002"><ele>207.0</ele><time>2026-04-28T11:06:18.768Z</time></trkpt><trkpt lat="43.4882832" lon="13.4776607"><ele>207.16666666666666</ele><time>2026-04-28T11:06:20.746Z</time></trkpt><trkpt lat="43.4882439" lon="13.4777779"><ele>207.33333333333331</ele><time>2026-04-28T11:06:22.747Z</time></trkpt><trkpt lat="43.4881912" lon="13.4778468"><ele>207.5</ele><time>2026-04-28T11:06:25.746Z</time></trkpt><trkpt lat="43.4881341" lon="13.4778914"><ele>207.66666666666666</ele><time>2026-04-28T11:06:28.742Z</time></trkpt><trkpt lat="43.4880982" lon="13.4780254"><ele>207.83333333333331</ele><time>2026-04-28T11:06:31.769Z</time></trkpt><trkpt lat="43.4881236" lon="13.4781549"><ele>208.0</ele><time>2026-04-28T11:06:33.751Z</time></trkpt><trkpt lat="43.4881448" lon="13.4783116"><ele>208.2</ele><time>2026-04-28T11:06:35.755Z</time></trkpt><trkpt lat="43.4880899" lon="13.4784342"><ele>208.4</ele><time>2026-04-28T11:06:37.751Z</time></trkpt><trkpt lat="43.4880072" lon="13.4785546"><ele>208.6</ele><time>2026-04-28T11:06:39.765Z</time></trkpt><trkpt lat="43.4879664" lon="13.4786211"><ele>208.79999999999998</ele><time>2026-04-28T11:06:40.752Z</time></trkpt><trkpt lat="43.4878836" lon="13.4787226"><ele>209.0</ele><time>2026-04-28T11:06:42.743Z</time></trkpt><trkpt lat="43.4878055" lon="13.4788052"><ele>208.50000000000003</ele><time>2026-04-28T11:06:44.75Z</time></trkpt><trkpt lat="43.487783" lon="13.4788922"><ele>208.0</ele><time>2026-04-28T11:06:46.765Z</time></trkpt><trkpt lat="43.4878121" lon="13.4789792"><ele>207.5</ele><time>2026-04-28T11:06:48.749Z</time></trkpt><trkpt lat="43.4878691" lon="13.4790967"><ele>207.0</ele><time>2026-04-28T11:06:50.786Z</time></trkpt><trkpt lat="43.4879181" lon="13.4792158"><ele>206.50000000000003</ele><time>2026-04-28T11:06:52.754Z</time></trkpt><trkpt lat="43.4879632" lon="13.4793201"><ele>206.0</ele><time>2026-04-28T11:06:54.754Z</time></trkpt><trkpt lat="43.4879997" lon="13.4793941"><ele>206.00000000000003</ele><time>2026-04-28T11:06:57.758Z</time></trkpt><trkpt lat="43.4879694" lon="13.4795127"><ele>206.0</ele><time>2026-04-28T11:08:38.773Z</time></trkpt><trkpt lat="43.4879117" lon="13.4796172"><ele>206.0</ele><time>2026-04-28T11:08:40.759Z</time></trkpt><trkpt lat="43.4878768" lon="13.4796946"><ele>206.0</ele><time>2026-04-28T11:08:41.752Z</time></trkpt><trkpt lat="43.487833" lon="13.4797685"><ele>206.00000000000003</ele><time>2026-04-28T11:08:42.749Z</time></trkpt><trkpt lat="43.4877755" lon="13.4798303"><ele>206.0</ele><time>2026-04-28T11:08:43.766Z</time></trkpt><trkpt lat="43.4877201" lon="13.4799041"><ele>208.33333333333334</ele><time>2026-04-28T11:08:44.768Z</time></trkpt><trkpt lat="43.4876676" lon="13.479979"><ele>210.66666666666669</ele><time>2026-04-28T11:08:45.756Z</time></trkpt><trkpt lat="43.4876114" lon="13.4800539"><ele>213.0</ele><time>2026-04-28T11:08:46.766Z</time></trkpt><trkpt lat="43.4875637" lon="13.4801301"><ele>215.33333333333331</ele><time>2026-04-28T11:08:47.77Z</time></trkpt><trkpt lat="43.487502" lon="13.4801941"><ele>217.66666666666666</ele><time>2026-04-28T11:08:48.76Z</time></trkpt><trkpt lat="43.48745" lon="13.4802505"><ele>220.0</ele><time>2026-04-28T11:08:49.774Z</time></trkpt><trkpt lat="43.4873651" lon="13.4803086"><ele>219.99999999999997</ele><time>2026-04-28T11:08:51.756Z</time></trkpt><trkpt lat="43.4872944" lon="13.4803629"><ele>220.0</ele><time>2026-04-28T11:08:53.752Z</time></trkpt><trkpt lat="43.4872244" lon="13.4803783"><ele>220.0</ele><time>2026-04-28T11:08:56.756Z</time></trkpt><trkpt lat="43.4871905" lon="13.4804533"><ele>220.0</ele><time>2026-04-28T11:08:59.75Z</time></trkpt><trkpt lat="43.4872226" lon="13.4803543"><ele>219.99999999999997</ele><time>2026-04-28T11:09:08.753Z</time></trkpt><trkpt lat="43.4872424" lon="13.4802456"><ele>220.0</ele><time>2026-04-28T11:09:10.761Z</time></trkpt><trkpt lat="43.487278" lon="13.480097"><ele>219.99999999999997</ele><time>2026-04-28T11:09:12.748Z</time></trkpt><trkpt lat="43.4873215" lon="13.4799375"><ele>220.0</ele><time>2026-04-28T11:09:14.757Z</time></trkpt><trkpt lat="43.4873639" lon="13.4798076"><ele>220.0</ele><time>2026-04-28T11:09:16.752Z</time></trkpt><trkpt lat="43.4873938" lon="13.4797055"><ele>220.0</ele><time>2026-04-28T11:09:19.769Z</time></trkpt><trkpt lat="43.4873868" lon="13.4796165"><ele>219.99999999999997</ele><time>2026-04-28T11:09:22.777Z</time></trkpt><trkpt lat="43.4874007" lon="13.4795219"><ele>220.0</ele><time>2026-04-28T11:10:03.767Z</time></trkpt><trkpt lat="43.4874562" lon="13.4794074"><ele>220.16666666666666</ele><time>2026-04-28T11:10:05.761Z</time></trkpt><trkpt lat="43.4875037" lon="13.4793325"><ele>220.33333333333331</ele><time>2026-04-28T11:10:06.772Z</time></trkpt><trkpt lat="43.4875508" lon="13.4792461"><ele>220.5</ele><time>2026-04-28T11:10:07.767Z</time></trkpt><trkpt lat="43.4875951" lon="13.4791605"><ele>220.66666666666669</ele><time>2026-04-28T11:10:08.767Z</time></trkpt><trkpt lat="43.4876355" lon="13.4790744"><ele>220.83333333333334</ele><time>2026-04-28T11:10:09.761Z</time></trkpt><trkpt lat="43.4876857" lon="13.4789496"><ele>221.0</ele><time>2026-04-28T11:10:11.767Z</time></trkpt><trkpt lat="43.4877145" lon="13.4788488"><ele>221.00000000000003</ele><time>2026-04-28T11:10:14.745Z</time></trkpt><trkpt lat="43.4876649" lon="13.4787688"><ele>221.0</ele><time>2026-04-28T11:10:21.752Z</time></trkpt><trkpt lat="43.4875932" lon="13.4787525"><ele>221.0</ele><time>2026-04-28T11:10:22.742Z</time></trkpt><trkpt lat="43.4875259" lon="13.4787549"><ele>221.0</ele><time>2026-04-28T11:10:23.745Z</time></trkpt><trkpt lat="43.487465" lon="13.4787292"><ele>221.0</ele><time>2026-04-28T11:10:24.77Z</time></trkpt><trkpt lat="43.4873924" lon="13.4786918"><ele>221.00000000000003</ele><time>2026-04-28T11:10:25.752Z</time></trkpt><trkpt lat="43.4873105" lon="13.4786538"><ele>221.0</ele><time>2026-04-28T11:10:26.75Z</time></trkpt><trkpt lat="43.4872288" lon="13.4786123"><ele>222.20000000000002</ele><time>2026-04-28T11:10:27.757Z</time></trkpt><trkpt lat="43.4871498" lon="13.4785667"><ele>223.40000000000003</ele><time>2026-04-28T11:10:28.757Z</time></trkpt><trkpt lat="43.4870637" lon="13.4785274"><ele>224.6</ele><time>2026-04-28T11:10:29.761Z</time></trkpt><trkpt lat="43.4869747" lon="13.4784855"><ele>225.8</ele><time>2026-04-28T11:10:30.737Z</time></trkpt><trkpt lat="43.4868811" lon="13.4784408"><ele>227.0</ele><time>2026-04-28T11:10:31.77Z</time></trkpt><trkpt lat="43.4867813" lon="13.4784033"><ele>227.0</ele><time>2026-04-28T11:10:32.755Z</time></trkpt><trkpt lat="43.4866837" lon="13.478369"><ele>227.0</ele><time>2026-04-28T11:10:33.779Z</time></trkpt><trkpt lat="43.4865844" lon="13.478326"><ele>227.0</ele><time>2026-04-28T11:10:34.766Z</time></trkpt><trkpt lat="43.486479" lon="13.4782807"><ele>227.0</ele><time>2026-04-28T11:10:35.759Z</time></trkpt><trkpt lat="43.486383" lon="13.4782333"><ele>227.0</ele><time>2026-04-28T11:10:36.761Z</time></trkpt><trkpt lat="43.4862835" lon="13.4781956"><ele>228.8</ele><time>2026-04-28T11:10:37.738Z</time></trkpt><trkpt lat="43.4861839" lon="13.4781767"><ele>230.6</ele><time>2026-04-28T11:10:38.766Z</time></trkpt><trkpt lat="43.4860824" lon="13.4781994"><ele>232.40000000000003</ele><time>2026-04-28T11:10:39.748Z</time></trkpt><trkpt lat="43.4859733" lon="13.4782308"><ele>234.20000000000002</ele><time>2026-04-28T11:10:40.759Z</time></trkpt><trkpt lat="43.4858628" lon="13.4782684"><ele>236.0</ele><time>2026-04-28T11:10:41.782Z</time></trkpt><trkpt lat="43.485747" lon="13.4782959"><ele>236.0</ele><time>2026-04-28T11:10:42.749Z</time></trkpt><trkpt lat="43.4856252" lon="13.4783263"><ele>236.0</ele><time>2026-04-28T11:10:43.766Z</time></trkpt><trkpt lat="43.4855046" lon="13.478357"><ele>236.0</ele><time>2026-04-28T11:10:44.764Z</time></trkpt><trkpt lat="43.4853867" lon="13.4783869"><ele>236.0</ele><time>2026-04-28T11:10:45.753Z</time></trkpt><trkpt lat="43.485266" lon="13.4784214"><ele>233.8</ele><time>2026-04-28T11:10:46.763Z</time></trkpt><trkpt lat="43.4851531" lon="13.4784613"><ele>231.60000000000002</ele><time>2026-04-28T11:10:47.764Z</time></trkpt><trkpt lat="43.4850536" lon="13.4784999"><ele>229.4</ele><time>2026-04-28T11:10:48.748Z</time></trkpt><trkpt lat="43.4849615" lon="13.4785578"><ele>227.2</ele><time>2026-04-28T11:10:49.741Z</time></trkpt><trkpt lat="43.484882" lon="13.4786383"><ele>225.0</ele><time>2026-04-28T11:10:50.741Z</time></trkpt><trkpt lat="43.4848082" lon="13.4787356"><ele>229.6</ele><time>2026-04-28T11:10:51.751Z</time></trkpt><trkpt lat="43.4847684" lon="13.478858"><ele>234.2</ele><time>2026-04-28T11:10:52.745Z</time></trkpt><trkpt lat="43.4847402" lon="13.4790034"><ele>238.8</ele><time>2026-04-28T11:10:53.756Z</time></trkpt><trkpt lat="43.4847271" lon="13.4791562"><ele>243.4</ele><time>2026-04-28T11:10:54.752Z</time></trkpt><trkpt lat="43.4847132" lon="13.4793147"><ele>248.0</ele><time>2026-04-28T11:10:55.748Z</time></trkpt><trkpt lat="43.4846957" lon="13.4794761"><ele>250.25</ele><time>2026-04-28T11:10:56.749Z</time></trkpt><trkpt lat="43.4846825" lon="13.4796345"><ele>252.5</ele><time>2026-04-28T11:10:57.79Z</time></trkpt><trkpt lat="43.4846641" lon="13.4797945"><ele>254.75</ele><time>2026-04-28T11:10:58.765Z</time></trkpt><trkpt lat="43.4846458" lon="13.4799539"><ele>257.0</ele><time>2026-04-28T11:10:59.764Z</time></trkpt><trkpt lat="43.484638" lon="13.4801097"><ele>257.0</ele><time>2026-04-28T11:11:00.755Z</time></trkpt><trkpt lat="43.4846374" lon="13.4802679"><ele>257.0</ele><time>2026-04-28T11:11:01.772Z</time></trkpt><trkpt lat="43.4846494" lon="13.4804233"><ele>257.0</ele><time>2026-04-28T11:11:02.758Z</time></trkpt><trkpt lat="43.4846721" lon="13.4805679"><ele>257.0</ele><time>2026-04-28T11:11:03.761Z</time></trkpt><trkpt lat="43.4846978" lon="13.4806924"><ele>257.0</ele><time>2026-04-28T11:11:04.763Z</time></trkpt><trkpt lat="43.4847197" lon="13.4808161"><ele>256.83333333333337</ele><time>2026-04-28T11:11:05.771Z</time></trkpt><trkpt lat="43.4847385" lon="13.4809277"><ele>256.6666666666667</ele><time>2026-04-28T11:11:06.765Z</time></trkpt><trkpt lat="43.48477" lon="13.4810204"><ele>256.5</ele><time>2026-04-28T11:11:07.767Z</time></trkpt><trkpt lat="43.4848277" lon="13.4810878"><ele>256.3333333333333</ele><time>2026-04-28T11:11:08.766Z</time></trkpt><trkpt lat="43.4849006" lon="13.4811172"><ele>256.16666666666663</ele><time>2026-04-28T11:11:09.764Z</time></trkpt><trkpt lat="43.4849792" lon="13.4811266"><ele>256.0</ele><time>2026-04-28T11:11:10.768Z</time></trkpt><trkpt lat="43.4850641" lon="13.4811335"><ele>255.99999999999997</ele><time>2026-04-28T11:11:11.767Z</time></trkpt><trkpt lat="43.4851419" lon="13.481141"><ele>256.0</ele><time>2026-04-28T11:11:12.744Z</time></trkpt><trkpt lat="43.4852182" lon="13.4811522"><ele>256.0</ele><time>2026-04-28T11:11:13.765Z</time></trkpt><trkpt lat="43.4852856" lon="13.4811594"><ele>256.0</ele><time>2026-04-28T11:11:14.737Z</time></trkpt><trkpt lat="43.485401" lon="13.481174"><ele>255.99999999999997</ele><time>2026-04-28T11:11:16.742Z</time></trkpt><trkpt lat="43.4854965" lon="13.4811863"><ele>256.0</ele><time>2026-04-28T11:11:18.756Z</time></trkpt><trkpt lat="43.4855943" lon="13.4812226"><ele>256.7142857142857</ele><time>2026-04-28T11:11:20.763Z</time></trkpt><trkpt lat="43.4856575" lon="13.4812507"><ele>257.4285714285714</ele><time>2026-04-28T11:11:21.777Z</time></trkpt><trkpt lat="43.4857271" lon="13.4812732"><ele>258.1428571428571</ele><time>2026-04-28T11:11:22.754Z</time></trkpt><trkpt lat="43.4857972" lon="13.4812951"><ele>258.85714285714283</ele><time>2026-04-28T11:11:23.756Z</time></trkpt><trkpt lat="43.4858672" lon="13.4813164"><ele>259.57142857142856</ele><time>2026-04-28T11:11:24.747Z</time></trkpt><trkpt lat="43.4859298" lon="13.4813476"><ele>260.2857142857143</ele><time>2026-04-28T11:11:25.756Z</time></trkpt><trkpt lat="43.4859703" lon="13.4814701"><ele>261.0</ele><time>2026-04-28T11:11:27.738Z</time></trkpt><trkpt lat="43.4859742" lon="13.4815623"><ele>261.0</ele><time>2026-04-28T11:11:28.737Z</time></trkpt><trkpt lat="43.4859708" lon="13.4816569"><ele>261.0</ele><time>2026-04-28T11:11:29.737Z</time></trkpt><trkpt lat="43.4859682" lon="13.4817704"><ele>261.0</ele><time>2026-04-28T11:11:30.739Z</time></trkpt><trkpt lat="43.4859715" lon="13.4818872"><ele>261.0</ele><time>2026-04-28T11:11:31.743Z</time></trkpt><trkpt lat="43.4859786" lon="13.4820148"><ele>261.0</ele><time>2026-04-28T11:11:32.745Z</time></trkpt><trkpt lat="43.4859818" lon="13.4821359"><ele>261.0</ele><time>2026-04-28T11:11:33.752Z</time></trkpt><trkpt lat="43.4859787" lon="13.4822431"><ele>260.0</ele><time>2026-04-28T11:11:34.767Z</time></trkpt><trkpt lat="43.485955" lon="13.4823344"><ele>259.0</ele><time>2026-04-28T11:11:35.755Z</time></trkpt><trkpt lat="43.4858927" lon="13.4823867"><ele>258.0</ele><time>2026-04-28T11:11:36.732Z</time></trkpt><trkpt lat="43.4858146" lon="13.4824008"><ele>257.0</ele><time>2026-04-28T11:11:37.753Z</time></trkpt><trkpt lat="43.485752" lon="13.4823893"><ele>256.0</ele><time>2026-04-28T11:11:38.747Z</time></trkpt><trkpt lat="43.4856905" lon="13.4824663"><ele>255.0</ele><time>2026-04-28T11:11:40.732Z</time></trkpt><trkpt lat="43.4856718" lon="13.4825902"><ele>255.0</ele><time>2026-04-28T11:11:42.744Z</time></trkpt><trkpt lat="43.4856661" lon="13.4827467"><ele>255.0</ele><time>2026-04-28T11:11:44.732Z</time></trkpt><trkpt lat="43.4856655" lon="13.4828467"><ele>255.0</ele><time>2026-04-28T11:11:45.743Z</time></trkpt><trkpt lat="43.4856602" lon="13.4829673"><ele>255.0</ele><time>2026-04-28T11:11:46.737Z</time></trkpt><trkpt lat="43.4856345" lon="13.4831034"><ele>255.0</ele><time>2026-04-28T11:11:47.744Z</time></trkpt><trkpt lat="43.4856094" lon="13.4832092"><ele>254.83333333333334</ele><time>2026-04-28T11:11:48.749Z</time></trkpt><trkpt lat="43.4855914" lon="13.4833206"><ele>254.66666666666669</ele><time>2026-04-28T11:11:49.743Z</time></trkpt><trkpt lat="43.4855688" lon="13.4834306"><ele>254.5</ele><time>2026-04-28T11:11:50.744Z</time></trkpt><trkpt lat="43.4855536" lon="13.4835392"><ele>254.33333333333334</ele><time>2026-04-28T11:11:51.754Z</time></trkpt><trkpt lat="43.4855277" lon="13.4836412"><ele>254.16666666666669</ele><time>2026-04-28T11:11:52.742Z</time></trkpt><trkpt lat="43.4855087" lon="13.4837349"><ele>254.0</ele><time>2026-04-28T11:11:53.76Z</time></trkpt><trkpt lat="43.4854885" lon="13.4838334"><ele>254.0</ele><time>2026-04-28T11:11:54.754Z</time></trkpt><trkpt lat="43.4854579" lon="13.4839437"><ele>253.99999999999997</ele><time>2026-04-28T11:11:55.753Z</time></trkpt><trkpt lat="43.4854256" lon="13.4840756"><ele>253.99999999999997</ele><time>2026-04-28T11:11:56.734Z</time></trkpt><trkpt lat="43.4853961" lon="13.4842097"><ele>254.0</ele><time>2026-04-28T11:11:57.746Z</time></trkpt><trkpt lat="43.4853706" lon="13.4843467"><ele>254.0</ele><time>2026-04-28T11:11:58.746Z</time></trkpt><trkpt lat="43.4853482" lon="13.4844685"><ele>248.39999999999998</ele><time>2026-04-28T11:11:59.745Z</time></trkpt><trkpt lat="43.4853272" lon="13.4845907"><ele>242.79999999999998</ele><time>2026-04-28T11:12:00.743Z</time></trkpt><trkpt lat="43.4853018" lon="13.4847158"><ele>237.20000000000002</ele><time>2026-04-28T11:12:01.744Z</time></trkpt><trkpt lat="43.4852804" lon="13.4848462"><ele>231.60000000000002</ele><time>2026-04-28T11:12:02.76Z</time></trkpt><trkpt lat="43.4852531" lon="13.4849808"><ele>226.0</ele><time>2026-04-28T11:12:03.733Z</time></trkpt><trkpt lat="43.485226" lon="13.4851173"><ele>226.0</ele><time>2026-04-28T11:12:04.765Z</time></trkpt><trkpt lat="43.4852052" lon="13.4852535"><ele>226.00000000000003</ele><time>2026-04-28T11:12:05.761Z</time></trkpt><trkpt lat="43.4851876" lon="13.4854038"><ele>226.00000000000003</ele><time>2026-04-28T11:12:06.747Z</time></trkpt><trkpt lat="43.4851769" lon="13.485567"><ele>226.0</ele><time>2026-04-28T11:12:07.751Z</time></trkpt><trkpt lat="43.4851655" lon="13.4857304"><ele>226.0</ele><time>2026-04-28T11:12:08.739Z</time></trkpt><trkpt lat="43.485148" lon="13.4858895"><ele>227.8</ele><time>2026-04-28T11:12:09.747Z</time></trkpt><trkpt lat="43.4851313" lon="13.4860442"><ele>229.60000000000002</ele><time>2026-04-28T11:12:10.743Z</time></trkpt><trkpt lat="43.4851129" lon="13.4861911"><ele>231.4</ele><time>2026-04-28T11:12:11.76Z</time></trkpt><trkpt lat="43.485095" lon="13.4863379"><ele>233.2</ele><time>2026-04-28T11:12:12.744Z</time></trkpt><trkpt lat="43.4850761" lon="13.4864724"><ele>235.0</ele><time>2026-04-28T11:12:13.764Z</time></trkpt><trkpt lat="43.4850617" lon="13.4866114"><ele>235.6</ele><time>2026-04-28T11:12:14.747Z</time></trkpt><trkpt lat="43.4850449" lon="13.4867487"><ele>236.2</ele><time>2026-04-28T11:12:15.762Z</time></trkpt><trkpt lat="43.485031" lon="13.486893"><ele>236.8</ele><time>2026-04-28T11:12:16.753Z</time></trkpt><trkpt lat="43.4850156" lon="13.4870404"><ele>237.4</ele><time>2026-04-28T11:12:17.754Z</time></trkpt><trkpt lat="43.4849975" lon="13.487198"><ele>238.0</ele><time>2026-04-28T11:12:18.742Z</time></trkpt><trkpt lat="43.4849782" lon="13.4873626"><ele>238.0</ele><time>2026-04-28T11:12:19.739Z</time></trkpt><trkpt lat="43.4849581" lon="13.4875327"><ele>238.0</ele><time>2026-04-28T11:12:20.763Z</time></trkpt><trkpt lat="43.4849394" lon="13.4877046"><ele>238.0</ele><time>2026-04-28T11:12:21.766Z</time></trkpt><trkpt lat="43.4849204" lon="13.4878625"><ele>238.0</ele><time>2026-04-28T11:12:22.735Z</time></trkpt><trkpt lat="43.4849064" lon="13.4880074"><ele>238.0</ele><time>2026-04-28T11:12:23.757Z</time></trkpt><trkpt lat="43.4848881" lon="13.4881482"><ele>238.0</ele><time>2026-04-28T11:12:24.745Z</time></trkpt><trkpt lat="43.4848668" lon="13.4882788"><ele>238.0</ele><time>2026-04-28T11:12:25.757Z</time></trkpt><trkpt lat="43.4848441" lon="13.4884023"><ele>238.0</ele><time>2026-04-28T11:12:26.748Z</time></trkpt><trkpt lat="43.4848205" lon="13.488521"><ele>238.0</ele><time>2026-04-28T11:12:27.762Z</time></trkpt><trkpt lat="43.4848019" lon="13.4886457"><ele>237.0</ele><time>2026-04-28T11:12:28.753Z</time></trkpt><trkpt lat="43.4847896" lon="13.4887696"><ele>236.0</ele><time>2026-04-28T11:12:29.774Z</time></trkpt><trkpt lat="43.4847931" lon="13.4888992"><ele>235.0</ele><time>2026-04-28T11:12:30.746Z</time></trkpt><trkpt lat="43.4848269" lon="13.4890191"><ele>234.0</ele><time>2026-04-28T11:12:31.741Z</time></trkpt><trkpt lat="43.4848857" lon="13.4891451"><ele>233.0</ele><time>2026-04-28T11:12:32.732Z</time></trkpt><trkpt lat="43.4849597" lon="13.4892543"><ele>233.0</ele><time>2026-04-28T11:12:33.738Z</time></trkpt><trkpt lat="43.4850306" lon="13.4893712"><ele>233.0</ele><time>2026-04-28T11:12:34.741Z</time></trkpt><trkpt lat="43.4851031" lon="13.4894867"><ele>233.0</ele><time>2026-04-28T11:12:35.759Z</time></trkpt><trkpt lat="43.4851687" lon="13.4895993"><ele>233.0</ele><time>2026-04-28T11:12:36.756Z</time></trkpt><trkpt lat="43.4852287" lon="13.4897031"><ele>233.0</ele><time>2026-04-28T11:12:37.751Z</time></trkpt><trkpt lat="43.4852981" lon="13.4897963"><ele>232.60000000000002</ele><time>2026-04-28T11:12:38.763Z</time></trkpt><trkpt lat="43.4853771" lon="13.4898746"><ele>232.20000000000002</ele><time>2026-04-28T11:12:39.754Z</time></trkpt><trkpt lat="43.4854696" lon="13.4899464"><ele>231.8</ele><time>2026-04-28T11:12:40.751Z</time></trkpt><trkpt lat="43.4855677" lon="13.4900024"><ele>231.4</ele><time>2026-04-28T11:12:41.741Z</time></trkpt><trkpt lat="43.4856678" lon="13.4900429"><ele>231.0</ele><time>2026-04-28T11:12:42.749Z</time></trkpt><trkpt lat="43.4857628" lon="13.490078"><ele>231.0</ele><time>2026-04-28T11:12:43.756Z</time></trkpt><trkpt lat="43.4858491" lon="13.4901068"><ele>231.0</ele><time>2026-04-28T11:12:44.735Z</time></trkpt><trkpt lat="43.4859269" lon="13.490144"><ele>231.0</ele><time>2026-04-28T11:12:45.757Z</time></trkpt><trkpt lat="43.485995" lon="13.4901896"><ele>231.0</ele><time>2026-04-28T11:12:46.744Z</time></trkpt><trkpt lat="43.4860573" lon="13.4902387"><ele>231.0</ele><time>2026-04-28T11:12:47.773Z</time></trkpt><trkpt lat="43.4861091" lon="13.49036"><ele>231.0</ele><time>2026-04-28T11:12:49.748Z</time></trkpt><trkpt lat="43.4861148" lon="13.4904712"><ele>227.8</ele><time>2026-04-28T11:12:52.759Z</time></trkpt><trkpt lat="43.4860919" lon="13.4905773"><ele>224.60000000000002</ele><time>2026-04-28T11:12:54.74Z</time></trkpt><trkpt lat="43.4861256" lon="13.4906665"><ele>221.4</ele><time>2026-04-28T11:12:56.753Z</time></trkpt><trkpt lat="43.4862437" lon="13.4906554"><ele>218.2</ele><time>2026-04-28T11:12:58.761Z</time></trkpt><trkpt lat="43.4863312" lon="13.4906355"><ele>215.0</ele><time>2026-04-28T11:12:59.745Z</time></trkpt><trkpt lat="43.4864338" lon="13.4906193"><ele>214.6</ele><time>2026-04-28T11:13:00.752Z</time></trkpt><trkpt lat="43.4865486" lon="13.4906091"><ele>214.2</ele><time>2026-04-28T11:13:01.756Z</time></trkpt><trkpt lat="43.4866604" lon="13.490602"><ele>213.8</ele><time>2026-04-28T11:13:02.749Z</time></trkpt><trkpt lat="43.4867738" lon="13.4906054"><ele>213.4</ele><time>2026-04-28T11:13:03.752Z</time></trkpt><trkpt lat="43.4868791" lon="13.4905975"><ele>213.0</ele><time>2026-04-28T11:13:04.75Z</time></trkpt><trkpt lat="43.4869859" lon="13.4905699"><ele>213.0</ele><time>2026-04-28T11:13:05.749Z</time></trkpt><trkpt lat="43.4870841" lon="13.4904897"><ele>213.0</ele><time>2026-04-28T11:13:06.741Z</time></trkpt><trkpt lat="43.487172" lon="13.4903663"><ele>213.0</ele><time>2026-04-28T11:13:07.741Z</time></trkpt><trkpt lat="43.4872524" lon="13.4902216"><ele>213.0</ele><time>2026-04-28T11:13:08.751Z</time></trkpt><trkpt lat="43.4873259" lon="13.4900752"><ele>211.75</ele><time>2026-04-28T11:13:09.754Z</time></trkpt><trkpt lat="43.4873947" lon="13.4899239"><ele>210.5</ele><time>2026-04-28T11:13:10.741Z</time></trkpt><trkpt lat="43.4874605" lon="13.4897806"><ele>209.25</ele><time>2026-04-28T11:13:11.748Z</time></trkpt><trkpt lat="43.4875271" lon="13.4896282"><ele>208.0</ele><time>2026-04-28T11:13:12.754Z</time></trkpt><trkpt lat="43.4875927" lon="13.4894762"><ele>208.0</ele><time>2026-04-28T11:13:13.745Z</time></trkpt><trkpt lat="43.4876559" lon="13.4893212"><ele>208.0</ele><time>2026-04-28T11:13:14.752Z</time></trkpt><trkpt lat="43.4877221" lon="13.4891777"><ele>208.0</ele><time>2026-04-28T11:13:15.743Z</time></trkpt><trkpt lat="43.4878028" lon="13.4890488"><ele>208.0</ele><time>2026-04-28T11:13:16.743Z</time></trkpt><trkpt lat="43.4879014" lon="13.4889513"><ele>204.75</ele><time>2026-04-28T11:13:17.762Z</time></trkpt><trkpt lat="43.4880201" lon="13.4888785"><ele>201.5</ele><time>2026-04-28T11:13:18.731Z</time></trkpt><trkpt lat="43.4881491" lon="13.4888603"><ele>198.25</ele><time>2026-04-28T11:13:19.744Z</time></trkpt><trkpt lat="43.4882663" lon="13.4889026"><ele>195.0</ele><time>2026-04-28T11:13:20.745Z</time></trkpt><trkpt lat="43.4883596" lon="13.4889958"><ele>195.0</ele><time>2026-04-28T11:13:21.753Z</time></trkpt><trkpt lat="43.4884463" lon="13.4891204"><ele>195.0</ele><time>2026-04-28T11:13:22.754Z</time></trkpt><trkpt lat="43.4885026" lon="13.4892787"><ele>195.0</ele><time>2026-04-28T11:13:23.739Z</time></trkpt><trkpt lat="43.488567" lon="13.4894324"><ele>195.0</ele><time>2026-04-28T11:13:24.758Z</time></trkpt><trkpt lat="43.4886336" lon="13.4895879"><ele>193.75</ele><time>2026-04-28T11:13:25.75Z</time></trkpt><trkpt lat="43.4887008" lon="13.4897474"><ele>192.5</ele><time>2026-04-28T11:13:26.754Z</time></trkpt><trkpt lat="43.4887651" lon="13.4899003"><ele>191.25</ele><time>2026-04-28T11:13:27.733Z</time></trkpt><trkpt lat="43.4888376" lon="13.4900498"><ele>190.0</ele><time>2026-04-28T11:13:28.735Z</time></trkpt><trkpt lat="43.4889039" lon="13.4901993"><ele>189.0</ele><time>2026-04-28T11:13:29.735Z</time></trkpt><trkpt lat="43.4889681" lon="13.4903492"><ele>188.0</ele><time>2026-04-28T11:13:30.763Z</time></trkpt><trkpt lat="43.4890258" lon="13.4904998"><ele>187.0</ele><time>2026-04-28T11:13:31.751Z</time></trkpt><trkpt lat="43.4890827" lon="13.4906563"><ele>186.0</ele><time>2026-04-28T11:13:32.735Z</time></trkpt><trkpt lat="43.4891481" lon="13.4908089"><ele>185.75</ele><time>2026-04-28T11:13:33.738Z</time></trkpt><trkpt lat="43.4892104" lon="13.4909698"><ele>185.5</ele><time>2026-04-28T11:13:34.742Z</time></trkpt><trkpt lat="43.4892795" lon="13.4911264"><ele>185.25</ele><time>2026-04-28T11:13:35.756Z</time></trkpt><trkpt lat="43.4893485" lon="13.491283"><ele>185.0</ele><time>2026-04-28T11:13:36.74Z</time></trkpt><trkpt lat="43.4894152" lon="13.4914359"><ele>185.25</ele><time>2026-04-28T11:13:37.753Z</time></trkpt><trkpt lat="43.4894791" lon="13.4915838"><ele>185.5</ele><time>2026-04-28T11:13:38.76Z</time></trkpt><trkpt lat="43.4895427" lon="13.491736"><ele>185.75</ele><time>2026-04-28T11:13:39.757Z</time></trkpt><trkpt lat="43.4896083" lon="13.4918705"><ele>186.0</ele><time>2026-04-28T11:13:40.738Z</time></trkpt><trkpt lat="43.4896591" lon="13.4919726"><ele>186.0</ele><time>2026-04-28T11:13:41.728Z</time></trkpt><trkpt lat="43.4897023" lon="13.4920551"><ele>186.0</ele><time>2026-04-28T11:13:42.731Z</time></trkpt><trkpt lat="43.4897625" lon="13.4921705"><ele>186.0</ele><time>2026-04-28T11:13:44.738Z</time></trkpt><trkpt lat="43.4898224" lon="13.4922768"><ele>186.0</ele><time>2026-04-28T11:13:46.747Z</time></trkpt><trkpt lat="43.4898895" lon="13.4924149"><ele>186.0</ele><time>2026-04-28T11:13:48.735Z</time></trkpt><trkpt lat="43.4899405" lon="13.4925083"><ele>184.20000000000002</ele><time>2026-04-28T11:13:49.749Z</time></trkpt><trkpt lat="43.4900003" lon="13.4926059"><ele>182.4</ele><time>2026-04-28T11:13:50.739Z</time></trkpt><trkpt lat="43.4900625" lon="13.4927141"><ele>180.6</ele><time>2026-04-28T11:13:51.74Z</time></trkpt><trkpt lat="43.4901265" lon="13.4928316"><ele>178.8</ele><time>2026-04-28T11:13:52.754Z</time></trkpt><trkpt lat="43.4901898" lon="13.4929513"><ele>177.0</ele><time>2026-04-28T11:13:53.741Z</time></trkpt><trkpt lat="43.4902506" lon="13.4930736"><ele>175.25</ele><time>2026-04-28T11:13:54.733Z</time></trkpt><trkpt lat="43.4903022" lon="13.4932008"><ele>173.5</ele><time>2026-04-28T11:13:55.742Z</time></trkpt><trkpt lat="43.4903467" lon="13.4933353"><ele>171.75</ele><time>2026-04-28T11:13:56.733Z</time></trkpt><trkpt lat="43.4903839" lon="13.4934917"><ele>170.0</ele><time>2026-04-28T11:13:57.746Z</time></trkpt><trkpt lat="43.4904204" lon="13.4936455"><ele>170.5</ele><time>2026-04-28T11:13:58.741Z</time></trkpt><trkpt lat="43.490461" lon="13.4937975"><ele>171.0</ele><time>2026-04-28T11:13:59.753Z</time></trkpt><trkpt lat="43.490499" lon="13.4939568"><ele>171.5</ele><time>2026-04-28T11:14:00.762Z</time></trkpt><trkpt lat="43.4905436" lon="13.4941248"><ele>172.0</ele><time>2026-04-28T11:14:01.75Z</time></trkpt><trkpt lat="43.4905836" lon="13.4942992"><ele>172.0</ele><time>2026-04-28T11:14:02.738Z</time></trkpt><trkpt lat="43.4906232" lon="13.4944694"><ele>172.0</ele><time>2026-04-28T11:14:03.749Z</time></trkpt><trkpt lat="43.4906592" lon="13.4946414"><ele>172.0</ele><time>2026-04-28T11:14:04.745Z</time></trkpt><trkpt lat="43.4906926" lon="13.4948131"><ele>172.0</ele><time>2026-04-28T11:14:05.741Z</time></trkpt><trkpt lat="43.4907295" lon="13.4949841"><ele>169.75</ele><time>2026-04-28T11:14:06.752Z</time></trkpt><trkpt lat="43.4907665" lon="13.4951529"><ele>167.5</ele><time>2026-04-28T11:14:07.744Z</time></trkpt><trkpt lat="43.4908022" lon="13.4953198"><ele>165.25</ele><time>2026-04-28T11:14:08.743Z</time></trkpt><trkpt lat="43.4908399" lon="13.4954815"><ele>163.0</ele><time>2026-04-28T11:14:09.76Z</time></trkpt><trkpt lat="43.4908774" lon="13.4956434"><ele>161.0</ele><time>2026-04-28T11:14:10.757Z</time></trkpt><trkpt lat="43.4909202" lon="13.4958036"><ele>159.0</ele><time>2026-04-28T11:14:11.744Z</time></trkpt><trkpt lat="43.4909582" lon="13.495959"><ele>157.0</ele><time>2026-04-28T11:14:12.729Z</time></trkpt><trkpt lat="43.4909944" lon="13.4961167"><ele>155.0</ele><time>2026-04-28T11:14:13.764Z</time></trkpt><trkpt lat="43.4910276" lon="13.4962779"><ele>153.8</ele><time>2026-04-28T11:14:14.75Z</time></trkpt><trkpt lat="43.4910645" lon="13.4964333"><ele>152.6</ele><time>2026-04-28T11:14:15.753Z</time></trkpt><trkpt lat="43.4910975" lon="13.4965837"><ele>151.4</ele><time>2026-04-28T11:14:16.747Z</time></trkpt><trkpt lat="43.491126" lon="13.4967256"><ele>150.2</ele><time>2026-04-28T11:14:17.737Z</time></trkpt><trkpt lat="43.4911455" lon="13.4968595"><ele>149.0</ele><time>2026-04-28T11:14:18.768Z</time></trkpt><trkpt lat="43.4911549" lon="13.4969938"><ele>148.0</ele><time>2026-04-28T11:14:19.757Z</time></trkpt><trkpt lat="43.4911459" lon="13.497124"><ele>147.0</ele><time>2026-04-28T11:14:20.758Z</time></trkpt><trkpt lat="43.4911245" lon="13.4972593"><ele>146.0</ele><time>2026-04-28T11:14:21.748Z</time></trkpt><trkpt lat="43.4910939" lon="13.4973843"><ele>145.0</ele><time>2026-04-28T11:14:22.738Z</time></trkpt><trkpt lat="43.4910517" lon="13.4975085"><ele>144.0</ele><time>2026-04-28T11:14:23.745Z</time></trkpt><trkpt lat="43.4910094" lon="13.4976347"><ele>144.0</ele><time>2026-04-28T11:14:24.736Z</time></trkpt><trkpt lat="43.4909649" lon="13.497765"><ele>144.0</ele><time>2026-04-28T11:14:25.756Z</time></trkpt><trkpt lat="43.4909186" lon="13.4978954"><ele>144.0</ele><time>2026-04-28T11:14:26.745Z</time></trkpt><trkpt lat="43.4908736" lon="13.498017"><ele>144.0</ele><time>2026-04-28T11:14:27.755Z</time></trkpt><trkpt lat="43.4908306" lon="13.4981124"><ele>144.0</ele><time>2026-04-28T11:14:28.745Z</time></trkpt><trkpt lat="43.4907896" lon="13.4981924"><ele>143.16666666666666</ele><time>2026-04-28T11:14:29.764Z</time></trkpt><trkpt lat="43.4907374" lon="13.498247"><ele>142.33333333333334</ele><time>2026-04-28T11:14:30.758Z</time></trkpt><trkpt lat="43.4906927" lon="13.4983105"><ele>141.5</ele><time>2026-04-28T11:14:31.75Z</time></trkpt><trkpt lat="43.4906853" lon="13.4984669"><ele>140.66666666666669</ele><time>2026-04-28T11:14:33.755Z</time></trkpt><trkpt lat="43.4907039" lon="13.4985629"><ele>139.83333333333334</ele><time>2026-04-28T11:14:34.762Z</time></trkpt><trkpt lat="43.4907225" lon="13.4986775"><ele>139.0</ele><time>2026-04-28T11:14:35.754Z</time></trkpt><trkpt lat="43.4907418" lon="13.498803"><ele>137.75</ele><time>2026-04-28T11:14:36.753Z</time></trkpt><trkpt lat="43.4907649" lon="13.4989454"><ele>136.5</ele><time>2026-04-28T11:14:37.755Z</time></trkpt><trkpt lat="43.4907897" lon="13.4991033"><ele>135.25</ele><time>2026-04-28T11:14:38.732Z</time></trkpt><trkpt lat="43.4908204" lon="13.499276"><ele>134.0</ele><time>2026-04-28T11:14:39.747Z</time></trkpt><trkpt lat="43.490861" lon="13.4994519"><ele>133.5</ele><time>2026-04-28T11:14:40.76Z</time></trkpt><trkpt lat="43.4909122" lon="13.4996303"><ele>133.0</ele><time>2026-04-28T11:14:41.75Z</time></trkpt><trkpt lat="43.4909738" lon="13.4998069"><ele>132.5</ele><time>2026-04-28T11:14:42.758Z</time></trkpt><trkpt lat="43.4910417" lon="13.4999917"><ele>132.0</ele><time>2026-04-28T11:14:43.771Z</time></trkpt><trkpt lat="43.4911105" lon="13.5001755"><ele>132.0</ele><time>2026-04-28T11:14:44.769Z</time></trkpt><trkpt lat="43.4911731" lon="13.5003496"><ele>132.0</ele><time>2026-04-28T11:14:45.751Z</time></trkpt><trkpt lat="43.4912345" lon="13.5005161"><ele>132.0</ele><time>2026-04-28T11:14:46.768Z</time></trkpt><trkpt lat="43.4912989" lon="13.5006732"><ele>132.0</ele><time>2026-04-28T11:14:47.755Z</time></trkpt><trkpt lat="43.491355" lon="13.5008322"><ele>132.25</ele><time>2026-04-28T11:14:48.765Z</time></trkpt><trkpt lat="43.4914091" lon="13.5009839"><ele>132.5</ele><time>2026-04-28T11:14:49.762Z</time></trkpt><trkpt lat="43.4914621" lon="13.5011382"><ele>132.75</ele><time>2026-04-28T11:14:50.764Z</time></trkpt><trkpt lat="43.4915148" lon="13.5013012"><ele>133.0</ele><time>2026-04-28T11:14:51.763Z</time></trkpt><trkpt lat="43.4915657" lon="13.5014616"><ele>132.20000000000002</ele><time>2026-04-28T11:14:52.755Z</time></trkpt><trkpt lat="43.4916112" lon="13.5016146"><ele>131.4</ele><time>2026-04-28T11:14:53.736Z</time></trkpt><trkpt lat="43.4916463" lon="13.5017633"><ele>130.60000000000002</ele><time>2026-04-28T11:14:54.756Z</time></trkpt><trkpt lat="43.4916878" lon="13.501894"><ele>129.8</ele><time>2026-04-28T11:14:55.769Z</time></trkpt><trkpt lat="43.4917304" lon="13.5019992"><ele>129.0</ele><time>2026-04-28T11:14:56.751Z</time></trkpt><trkpt lat="43.4917822" lon="13.5020701"><ele>129.0</ele><time>2026-04-28T11:14:57.772Z</time></trkpt><trkpt lat="43.491843" lon="13.5021051"><ele>129.0</ele><time>2026-04-28T11:14:58.766Z</time></trkpt><trkpt lat="43.4919651" lon="13.5020571"><ele>129.0</ele><time>2026-04-28T11:15:00.752Z</time></trkpt><trkpt lat="43.4920221" lon="13.5019825"><ele>129.0</ele><time>2026-04-28T11:15:01.752Z</time></trkpt><trkpt lat="43.4920814" lon="13.5018986"><ele>129.0</ele><time>2026-04-28T11:15:02.759Z</time></trkpt><trkpt lat="43.4921733" lon="13.50182"><ele>129.0</ele><time>2026-04-28T11:15:03.752Z</time></trkpt><trkpt lat="43.4922766" lon="13.5017576"><ele>129.0</ele><time>2026-04-28T11:15:04.753Z</time></trkpt><trkpt lat="43.4923964" lon="13.5016925"><ele>129.0</ele><time>2026-04-28T11:15:05.76Z</time></trkpt><trkpt lat="43.4925265" lon="13.5016256"><ele>129.0</ele><time>2026-04-28T11:15:06.751Z</time></trkpt><trkpt lat="43.4926586" lon="13.5015551"><ele>129.0</ele><time>2026-04-28T11:15:07.737Z</time></trkpt><trkpt lat="43.4927924" lon="13.5014847"><ele>129.0</ele><time>2026-04-28T11:15:08.757Z</time></trkpt><trkpt lat="43.492924" lon="13.5014118"><ele>129.0</ele><time>2026-04-28T11:15:09.774Z</time></trkpt><trkpt lat="43.4930613" lon="13.5013447"><ele>129.0</ele><time>2026-04-28T11:15:10.764Z</time></trkpt><trkpt lat="43.4931911" lon="13.5012738"><ele>127.0</ele><time>2026-04-28T11:15:11.766Z</time></trkpt><trkpt lat="43.4933159" lon="13.5012113"><ele>125.0</ele><time>2026-04-28T11:15:12.762Z</time></trkpt><trkpt lat="43.4934368" lon="13.5011573"><ele>123.0</ele><time>2026-04-28T11:15:13.761Z</time></trkpt><trkpt lat="43.4935529" lon="13.5011124"><ele>121.0</ele><time>2026-04-28T11:15:14.765Z</time></trkpt><trkpt lat="43.4936738" lon="13.5010829"><ele>120.25</ele><time>2026-04-28T11:15:15.76Z</time></trkpt><trkpt lat="43.4937918" lon="13.5010665"><ele>119.5</ele><time>2026-04-28T11:15:16.758Z</time></trkpt><trkpt lat="43.4939082" lon="13.5010538"><ele>118.75</ele><time>2026-04-28T11:15:17.75Z</time></trkpt><trkpt lat="43.4940258" lon="13.5010386"><ele>118.0</ele><time>2026-04-28T11:15:18.74Z</time></trkpt><trkpt lat="43.4941355" lon="13.5010139"><ele>118.0</ele><time>2026-04-28T11:15:19.743Z</time></trkpt><trkpt lat="43.4942444" lon="13.5009705"><ele>118.0</ele><time>2026-04-28T11:15:20.749Z</time></trkpt><trkpt lat="43.4943518" lon="13.500894"><ele>118.0</ele><time>2026-04-28T11:15:21.742Z</time></trkpt><trkpt lat="43.4944456" lon="13.5007871"><ele>118.0</ele><time>2026-04-28T11:15:22.741Z</time></trkpt><trkpt lat="43.4945306" lon="13.500651"><ele>117.25</ele><time>2026-04-28T11:15:23.757Z</time></trkpt><trkpt lat="43.4946004" lon="13.5004958"><ele>116.5</ele><time>2026-04-28T11:15:24.755Z</time></trkpt><trkpt lat="43.4946485" lon="13.5003293"><ele>115.75</ele><time>2026-04-28T11:15:25.763Z</time></trkpt><trkpt lat="43.4946793" lon="13.5001494"><ele>115.0</ele><time>2026-04-28T11:15:26.742Z</time></trkpt><trkpt lat="43.4947" lon="13.499957"><ele>115.0</ele><time>2026-04-28T11:15:27.756Z</time></trkpt><trkpt lat="43.494709" lon="13.4997612"><ele>115.0</ele><time>2026-04-28T11:15:28.753Z</time></trkpt><trkpt lat="43.4947037" lon="13.4995557"><ele>115.0</ele><time>2026-04-28T11:15:29.763Z</time></trkpt><trkpt lat="43.4946958" lon="13.4993535"><ele>115.0</ele><time>2026-04-28T11:15:30.746Z</time></trkpt><trkpt lat="43.4946861" lon="13.4991551"><ele>111.75</ele><time>2026-04-28T11:15:31.759Z</time></trkpt><trkpt lat="43.4946766" lon="13.4989607"><ele>108.5</ele><time>2026-04-28T11:15:32.743Z</time></trkpt><trkpt lat="43.4946672" lon="13.49878"><ele>105.25</ele><time>2026-04-28T11:15:33.748Z</time></trkpt><trkpt lat="43.4946661" lon="13.4986122"><ele>102.0</ele><time>2026-04-28T11:15:34.761Z</time></trkpt><trkpt lat="43.4946633" lon="13.4984442"><ele>99.5</ele><time>2026-04-28T11:15:35.757Z</time></trkpt><trkpt lat="43.4946694" lon="13.4982823"><ele>97.0</ele><time>2026-04-28T11:15:36.732Z</time></trkpt><trkpt lat="43.4946857" lon="13.4981229"><ele>94.5</ele><time>2026-04-28T11:15:37.742Z</time></trkpt><trkpt lat="43.4947186" lon="13.4979709"><ele>92.0</ele><time>2026-04-28T11:15:38.747Z</time></trkpt><trkpt lat="43.4947686" lon="13.4978246"><ele>91.25</ele><time>2026-04-28T11:15:39.765Z</time></trkpt><trkpt lat="43.4948469" lon="13.4976954"><ele>90.5</ele><time>2026-04-28T11:15:40.754Z</time></trkpt><trkpt lat="43.4949401" lon="13.4975949"><ele>89.75</ele><time>2026-04-28T11:15:41.761Z</time></trkpt><trkpt lat="43.4950436" lon="13.4974991"><ele>89.0</ele><time>2026-04-28T11:15:42.758Z</time></trkpt><trkpt lat="43.4951557" lon="13.4973957"><ele>89.0</ele><time>2026-04-28T11:15:43.76Z</time></trkpt><trkpt lat="43.4952736" lon="13.4972871"><ele>89.0</ele><time>2026-04-28T11:15:44.761Z</time></trkpt><trkpt lat="43.4953951" lon="13.4971766"><ele>89.0</ele><time>2026-04-28T11:15:45.751Z</time></trkpt><trkpt lat="43.4955172" lon="13.4970642"><ele>89.0</ele><time>2026-04-28T11:15:46.752Z</time></trkpt><trkpt lat="43.495645" lon="13.4969494"><ele>86.66666666666667</ele><time>2026-04-28T11:15:47.75Z</time></trkpt><trkpt lat="43.4957739" lon="13.4968304"><ele>84.33333333333333</ele><time>2026-04-28T11:15:48.76Z</time></trkpt><trkpt lat="43.4959027" lon="13.4967146"><ele>82.0</ele><time>2026-04-28T11:15:49.767Z</time></trkpt><trkpt lat="43.4960258" lon="13.4966047"><ele>82.0</ele><time>2026-04-28T11:15:50.739Z</time></trkpt><trkpt lat="43.4961464" lon="13.4964954"><ele>82.0</ele><time>2026-04-28T11:15:51.764Z</time></trkpt><trkpt lat="43.496264" lon="13.4963829"><ele>82.0</ele><time>2026-04-28T11:15:52.735Z</time></trkpt><trkpt lat="43.4963854" lon="13.4962677"><ele>82.0</ele><time>2026-04-28T11:15:53.756Z</time></trkpt><trkpt lat="43.4965081" lon="13.4961632"><ele>80.0</ele><time>2026-04-28T11:15:54.742Z</time></trkpt><trkpt lat="43.4966317" lon="13.4960779"><ele>78.0</ele><time>2026-04-28T11:15:55.757Z</time></trkpt><trkpt lat="43.4967614" lon="13.496032"><ele>76.0</ele><time>2026-04-28T11:15:56.757Z</time></trkpt><trkpt lat="43.4968947" lon="13.4960377"><ele>74.0</ele><time>2026-04-28T11:15:57.744Z</time></trkpt><trkpt lat="43.4970213" lon="13.4961001"><ele>73.0</ele><time>2026-04-28T11:15:58.762Z</time></trkpt><trkpt lat="43.497154" lon="13.4961851"><ele>72.0</ele><time>2026-04-28T11:15:59.766Z</time></trkpt><trkpt lat="43.497292" lon="13.4962664"><ele>71.0</ele><time>2026-04-28T11:16:00.745Z</time></trkpt><trkpt lat="43.4974411" lon="13.4963308"><ele>71.0</ele><time>2026-04-28T11:16:01.761Z</time></trkpt><trkpt lat="43.4975998" lon="13.4963754"><ele>71.0</ele><time>2026-04-28T11:16:02.758Z</time></trkpt><trkpt lat="43.4977565" lon="13.4964101"><ele>71.0</ele><time>2026-04-28T11:16:03.739Z</time></trkpt><trkpt lat="43.4979142" lon="13.4964415"><ele>69.0</ele><time>2026-04-28T11:16:04.743Z</time></trkpt><trkpt lat="43.4980622" lon="13.4964745"><ele>67.0</ele><time>2026-04-28T11:16:05.765Z</time></trkpt><trkpt lat="43.4982097" lon="13.4965021"><ele>65.0</ele><time>2026-04-28T11:16:06.757Z</time></trkpt><trkpt lat="43.498352" lon="13.4965289"><ele>63.0</ele><time>2026-04-28T11:16:07.763Z</time></trkpt><trkpt lat="43.4984928" lon="13.4965598"><ele>63.0</ele><time>2026-04-28T11:16:08.749Z</time></trkpt><trkpt lat="43.4986335" lon="13.4965901"><ele>63.0</ele><time>2026-04-28T11:16:09.75Z</time></trkpt><trkpt lat="43.4987876" lon="13.4966233"><ele>63.0</ele><time>2026-04-28T11:16:10.759Z</time></trkpt><trkpt lat="43.4989515" lon="13.4966528"><ele>60.66666666666667</ele><time>2026-04-28T11:16:11.756Z</time></trkpt><trkpt lat="43.4991155" lon="13.4966861"><ele>58.333333333333336</ele><time>2026-04-28T11:16:12.76Z</time></trkpt><trkpt lat="43.4992734" lon="13.496721"><ele>56.0</ele><time>2026-04-28T11:16:13.765Z</time></trkpt><trkpt lat="43.4994305" lon="13.4967542"><ele>55.333333333333336</ele><time>2026-04-28T11:16:14.75Z</time></trkpt><trkpt lat="43.4995904" lon="13.4967875"><ele>54.66666666666667</ele><time>2026-04-28T11:16:15.773Z</time></trkpt><trkpt lat="43.4997506" lon="13.4968188"><ele>54.0</ele><time>2026-04-28T11:16:16.743Z</time></trkpt><trkpt lat="43.4999016" lon="13.4968491"><ele>54.0</ele><time>2026-04-28T11:16:17.749Z</time></trkpt><trkpt lat="43.5000499" lon="13.4968789"><ele>54.0</ele><time>2026-04-28T11:16:18.732Z</time></trkpt><trkpt lat="43.5002001" lon="13.4969048"><ele>54.0</ele><time>2026-04-28T11:16:19.756Z</time></trkpt><trkpt lat="43.5003377" lon="13.4969333"><ele>54.0</ele><time>2026-04-28T11:16:20.739Z</time></trkpt><trkpt lat="43.5004662" lon="13.4969769"><ele>53.0</ele><time>2026-04-28T11:16:21.755Z</time></trkpt><trkpt lat="43.5005953" lon="13.4970383"><ele>52.0</ele><time>2026-04-28T11:16:22.75Z</time></trkpt><trkpt lat="43.5007292" lon="13.4971185"><ele>51.0</ele><time>2026-04-28T11:16:23.739Z</time></trkpt><trkpt lat="43.5008687" lon="13.4972059"><ele>50.0</ele><time>2026-04-28T11:16:24.744Z</time></trkpt><trkpt lat="43.5010091" lon="13.4973042"><ele>50.0</ele><time>2026-04-28T11:16:25.743Z</time></trkpt><trkpt lat="43.5011471" lon="13.4974024"><ele>50.0</ele><time>2026-04-28T11:16:26.737Z</time></trkpt><trkpt lat="43.5012899" lon="13.4975"><ele>50.0</ele><time>2026-04-28T11:16:27.732Z</time></trkpt><trkpt lat="43.5014315" lon="13.4975977"><ele>48.66666666666667</ele><time>2026-04-28T11:16:28.745Z</time></trkpt><trkpt lat="43.5015758" lon="13.4976921"><ele>47.333333333333336</ele><time>2026-04-28T11:16:29.746Z</time></trkpt><trkpt lat="43.5017185" lon="13.4977882"><ele>46.0</ele><time>2026-04-28T11:16:30.75Z</time></trkpt><trkpt lat="43.5018665" lon="13.4978932"><ele>46.0</ele><time>2026-04-28T11:16:31.752Z</time></trkpt><trkpt lat="43.5020089" lon="13.4979968"><ele>46.0</ele><time>2026-04-28T11:16:32.736Z</time></trkpt><trkpt lat="43.502148" lon="13.4980942"><ele>46.0</ele><time>2026-04-28T11:16:33.741Z</time></trkpt><trkpt lat="43.5022765" lon="13.4981832"><ele>45.25</ele><time>2026-04-28T11:16:34.755Z</time></trkpt><trkpt lat="43.5024004" lon="13.4982677"><ele>44.5</ele><time>2026-04-28T11:16:35.741Z</time></trkpt><trkpt lat="43.5025209" lon="13.4983476"><ele>43.75</ele><time>2026-04-28T11:16:36.741Z</time></trkpt><trkpt lat="43.5026457" lon="13.4984321"><ele>43.0</ele><time>2026-04-28T11:16:37.749Z</time></trkpt><trkpt lat="43.5027726" lon="13.4985179"><ele>43.0</ele><time>2026-04-28T11:16:38.741Z</time></trkpt><trkpt lat="43.5029019" lon="13.4986089"><ele>43.0</ele><time>2026-04-28T11:16:39.76Z</time></trkpt><trkpt lat="43.5030338" lon="13.4986992"><ele>43.0</ele><time>2026-04-28T11:16:40.769Z</time></trkpt><trkpt lat="43.5031675" lon="13.4987932"><ele>43.0</ele><time>2026-04-28T11:16:41.744Z</time></trkpt><trkpt lat="43.5033059" lon="13.4988876"><ele>42.66666666666667</ele><time>2026-04-28T11:16:42.732Z</time></trkpt><trkpt lat="43.5034411" lon="13.4989812"><ele>42.333333333333336</ele><time>2026-04-28T11:16:43.747Z</time></trkpt><trkpt lat="43.5035767" lon="13.4990767"><ele>42.0</ele><time>2026-04-28T11:16:44.743Z</time></trkpt><trkpt lat="43.5037122" lon="13.4991723"><ele>42.0</ele><time>2026-04-28T11:16:45.748Z</time></trkpt><trkpt lat="43.5038454" lon="13.4992656"><ele>42.0</ele><time>2026-04-28T11:16:46.749Z</time></trkpt><trkpt lat="43.5039816" lon="13.4993581"><ele>42.0</ele><time>2026-04-28T11:16:47.754Z</time></trkpt><trkpt lat="43.5041176" lon="13.4994512"><ele>42.0</ele><time>2026-04-28T11:16:48.741Z</time></trkpt><trkpt lat="43.5042508" lon="13.4995424"><ele>42.0</ele><time>2026-04-28T11:16:49.75Z</time></trkpt><trkpt lat="43.5043723" lon="13.4996194"><ele>42.0</ele><time>2026-04-28T11:16:50.76Z</time></trkpt><trkpt lat="43.5044893" lon="13.4996971"><ele>42.0</ele><time>2026-04-28T11:16:51.74Z</time></trkpt><trkpt lat="43.5045969" lon="13.4997665"><ele>42.166666666666664</ele><time>2026-04-28T11:16:52.742Z</time></trkpt><trkpt lat="43.5046962" lon="13.4998218"><ele>42.333333333333336</ele><time>2026-04-28T11:16:53.759Z</time></trkpt><trkpt lat="43.5047876" lon="13.4998596"><ele>42.5</ele><time>2026-04-28T11:16:54.761Z</time></trkpt><trkpt lat="43.5048688" lon="13.4998787"><ele>42.66666666666667</ele><time>2026-04-28T11:16:55.744Z</time></trkpt><trkpt lat="43.5049329" lon="13.4998844"><ele>42.833333333333336</ele><time>2026-04-28T11:16:56.755Z</time></trkpt><trkpt lat="43.5050224" lon="13.4998627"><ele>43.0</ele><time>2026-04-28T11:16:58.74Z</time></trkpt><trkpt lat="43.5050784" lon="13.4997282"><ele>43.0</ele><time>2026-04-28T11:17:00.733Z</time></trkpt><trkpt lat="43.5050869" lon="13.4996305"><ele>43.0</ele><time>2026-04-28T11:17:01.73Z</time></trkpt><trkpt lat="43.505109" lon="13.4995212"><ele>43.0</ele><time>2026-04-28T11:17:02.729Z</time></trkpt><trkpt lat="43.5051364" lon="13.4993997"><ele>43.0</ele><time>2026-04-28T11:17:03.747Z</time></trkpt><trkpt lat="43.5051639" lon="13.4992689"><ele>43.0</ele><time>2026-04-28T11:17:04.728Z</time></trkpt><trkpt lat="43.5051898" lon="13.4991197"><ele>43.75</ele><time>2026-04-28T11:17:05.728Z</time></trkpt><trkpt lat="43.5052104" lon="13.4989659"><ele>44.5</ele><time>2026-04-28T11:17:06.748Z</time></trkpt><trkpt lat="43.5052438" lon="13.498793"><ele>45.25</ele><time>2026-04-28T11:17:07.75Z</time></trkpt><trkpt lat="43.5052734" lon="13.4986165"><ele>46.0</ele><time>2026-04-28T11:17:08.739Z</time></trkpt><trkpt lat="43.5053056" lon="13.4984323"><ele>46.75</ele><time>2026-04-28T11:17:09.749Z</time></trkpt><trkpt lat="43.5053368" lon="13.4982416"><ele>47.5</ele><time>2026-04-28T11:17:10.738Z</time></trkpt><trkpt lat="43.5053677" lon="13.4980446"><ele>48.25</ele><time>2026-04-28T11:17:11.742Z</time></trkpt><trkpt lat="43.5054052" lon="13.4978378"><ele>49.0</ele><time>2026-04-28T11:17:12.73Z</time></trkpt><trkpt lat="43.5054413" lon="13.4976284"><ele>50.5</ele><time>2026-04-28T11:17:13.745Z</time></trkpt><trkpt lat="43.5054826" lon="13.4974235"><ele>52.0</ele><time>2026-04-28T11:17:14.758Z</time></trkpt><trkpt lat="43.5055182" lon="13.4972272"><ele>53.5</ele><time>2026-04-28T11:17:15.74Z</time></trkpt><trkpt lat="43.5055541" lon="13.4970314"><ele>55.0</ele><time>2026-04-28T11:17:16.751Z</time></trkpt><trkpt lat="43.5055828" lon="13.4968313"><ele>56.0</ele><time>2026-04-28T11:17:17.732Z</time></trkpt><trkpt lat="43.5056007" lon="13.4966313"><ele>57.0</ele><time>2026-04-28T11:17:18.748Z</time></trkpt><trkpt lat="43.5056084" lon="13.496423"><ele>58.0</ele><time>2026-04-28T11:17:19.746Z</time></trkpt><trkpt lat="43.5056097" lon="13.4962133"><ele>59.0</ele><time>2026-04-28T11:17:20.755Z</time></trkpt><trkpt lat="43.5056107" lon="13.4960097"><ele>60.0</ele><time>2026-04-28T11:17:21.745Z</time></trkpt><trkpt lat="43.5056256" lon="13.4958161"><ele>61.0</ele><time>2026-04-28T11:17:22.737Z</time></trkpt><trkpt lat="43.5056614" lon="13.495629"><ele>62.0</ele><time>2026-04-28T11:17:23.771Z</time></trkpt><trkpt lat="43.5057167" lon="13.4954397"><ele>61.66666666666667</ele><time>2026-04-28T11:17:24.749Z</time></trkpt><trkpt lat="43.5057771" lon="13.4952369"><ele>61.33333333333333</ele><time>2026-04-28T11:17:25.751Z</time></trkpt><trkpt lat="43.5058328" lon="13.4950253"><ele>61.0</ele><time>2026-04-28T11:17:26.755Z</time></trkpt><trkpt lat="43.5058811" lon="13.4948032"><ele>61.33333333333333</ele><time>2026-04-28T11:17:27.749Z</time></trkpt><trkpt lat="43.505925" lon="13.4945738"><ele>61.66666666666667</ele><time>2026-04-28T11:17:28.73Z</time></trkpt><trkpt lat="43.505962" lon="13.4943373"><ele>62.0</ele><time>2026-04-28T11:17:29.752Z</time></trkpt><trkpt lat="43.5059893" lon="13.4941097"><ele>62.0</ele><time>2026-04-28T11:17:30.75Z</time></trkpt><trkpt lat="43.5060195" lon="13.4938952"><ele>62.0</ele><time>2026-04-28T11:17:31.752Z</time></trkpt><trkpt lat="43.506043" lon="13.4936841"><ele>62.0</ele><time>2026-04-28T11:17:32.756Z</time></trkpt><trkpt lat="43.5060615" lon="13.4934738"><ele>62.75</ele><time>2026-04-28T11:17:33.75Z</time></trkpt><trkpt lat="43.5060692" lon="13.4932582"><ele>63.5</ele><time>2026-04-28T11:17:34.754Z</time></trkpt><trkpt lat="43.5060622" lon="13.4930481"><ele>64.25</ele><time>2026-04-28T11:17:35.753Z</time></trkpt><trkpt lat="43.5060504" lon="13.4928604"><ele>65.0</ele><time>2026-04-28T11:17:36.729Z</time></trkpt><trkpt lat="43.5060296" lon="13.4926798"><ele>65.0</ele><time>2026-04-28T11:17:37.751Z</time></trkpt><trkpt lat="43.5060115" lon="13.4925152"><ele>65.0</ele><time>2026-04-28T11:17:38.732Z</time></trkpt><trkpt lat="43.5059945" lon="13.4923534"><ele>65.0</ele><time>2026-04-28T11:17:39.762Z</time></trkpt><trkpt lat="43.5059792" lon="13.492198"><ele>65.0</ele><time>2026-04-28T11:17:40.741Z</time></trkpt><trkpt lat="43.5059676" lon="13.4920502"><ele>65.4</ele><time>2026-04-28T11:17:41.745Z</time></trkpt><trkpt lat="43.5059659" lon="13.4919039"><ele>65.8</ele><time>2026-04-28T11:17:42.737Z</time></trkpt><trkpt lat="43.5059815" lon="13.4917626"><ele>66.2</ele><time>2026-04-28T11:17:43.742Z</time></trkpt><trkpt lat="43.5060102" lon="13.4916113"><ele>66.6</ele><time>2026-04-28T11:17:44.733Z</time></trkpt><trkpt lat="43.5060505" lon="13.4914478"><ele>67.0</ele><time>2026-04-28T11:17:45.747Z</time></trkpt><trkpt lat="43.5060966" lon="13.4912763"><ele>67.0</ele><time>2026-04-28T11:17:46.749Z</time></trkpt><trkpt lat="43.5061429" lon="13.4910966"><ele>67.0</ele><time>2026-04-28T11:17:47.74Z</time></trkpt><trkpt lat="43.5061856" lon="13.4909022"><ele>67.0</ele><time>2026-04-28T11:17:48.741Z</time></trkpt><trkpt lat="43.506224" lon="13.4907069"><ele>67.0</ele><time>2026-04-28T11:17:49.755Z</time></trkpt><trkpt lat="43.5062667" lon="13.490511"><ele>69.0</ele><time>2026-04-28T11:17:50.747Z</time></trkpt><trkpt lat="43.5063098" lon="13.4903111"><ele>71.0</ele><time>2026-04-28T11:17:51.76Z</time></trkpt><trkpt lat="43.5063581" lon="13.4901147"><ele>73.0</ele><time>2026-04-28T11:17:52.744Z</time></trkpt><trkpt lat="43.5063975" lon="13.4899221"><ele>75.0</ele><time>2026-04-28T11:17:53.742Z</time></trkpt><trkpt lat="43.5064345" lon="13.4897335"><ele>76.25</ele><time>2026-04-28T11:17:54.73Z</time></trkpt><trkpt lat="43.5064621" lon="13.4895533"><ele>77.5</ele><time>2026-04-28T11:17:55.74Z</time></trkpt><trkpt lat="43.5064889" lon="13.4893963"><ele>78.75</ele><time>2026-04-28T11:17:56.754Z</time></trkpt><trkpt lat="43.506501" lon="13.4892463"><ele>80.0</ele><time>2026-04-28T11:17:57.754Z</time></trkpt><trkpt lat="43.5065132" lon="13.4891081"><ele>80.0</ele><time>2026-04-28T11:17:58.754Z</time></trkpt><trkpt lat="43.5065206" lon="13.4889674"><ele>80.0</ele><time>2026-04-28T11:17:59.743Z</time></trkpt><trkpt lat="43.506528" lon="13.4888277"><ele>80.0</ele><time>2026-04-28T11:18:00.745Z</time></trkpt><trkpt lat="43.5065311" lon="13.4886778"><ele>80.0</ele><time>2026-04-28T11:18:01.763Z</time></trkpt><trkpt lat="43.5065338" lon="13.4885252"><ele>80.0</ele><time>2026-04-28T11:18:02.74Z</time></trkpt><trkpt lat="43.5065326" lon="13.4883621"><ele>80.5</ele><time>2026-04-28T11:18:03.75Z</time></trkpt><trkpt lat="43.5065353" lon="13.4881966"><ele>81.0</ele><time>2026-04-28T11:18:04.736Z</time></trkpt><trkpt lat="43.5065363" lon="13.4880208"><ele>81.5</ele><time>2026-04-28T11:18:05.755Z</time></trkpt><trkpt lat="43.5065327" lon="13.4878407"><ele>82.0</ele><time>2026-04-28T11:18:06.755Z</time></trkpt><trkpt lat="43.5065148" lon="13.4876638"><ele>82.5</ele><time>2026-04-28T11:18:07.757Z</time></trkpt><trkpt lat="43.5064908" lon="13.4874898"><ele>83.0</ele><time>2026-04-28T11:18:08.762Z</time></trkpt><trkpt lat="43.5064565" lon="13.4873122"><ele>83.5</ele><time>2026-04-28T11:18:09.771Z</time></trkpt><trkpt lat="43.5064179" lon="13.4871305"><ele>84.0</ele><time>2026-04-28T11:18:10.744Z</time></trkpt><trkpt lat="43.5063775" lon="13.4869456"><ele>84.25</ele><time>2026-04-28T11:18:11.763Z</time></trkpt><trkpt lat="43.5063348" lon="13.4867577"><ele>84.5</ele><time>2026-04-28T11:18:12.726Z</time></trkpt><trkpt lat="43.506292" lon="13.4865604"><ele>84.75</ele><time>2026-04-28T11:18:13.753Z</time></trkpt><trkpt lat="43.506247" lon="13.4863584"><ele>85.0</ele><time>2026-04-28T11:18:14.759Z</time></trkpt><trkpt lat="43.5062028" lon="13.4861557"><ele>87.33333333333333</ele><time>2026-04-28T11:18:15.756Z</time></trkpt><trkpt lat="43.5061594" lon="13.4859506"><ele>89.66666666666667</ele><time>2026-04-28T11:18:16.763Z</time></trkpt><trkpt lat="43.5061159" lon="13.4857448"><ele>92.0</ele><time>2026-04-28T11:18:17.757Z</time></trkpt><trkpt lat="43.5060711" lon="13.4855422"><ele>93.33333333333334</ele><time>2026-04-28T11:18:18.732Z</time></trkpt><trkpt lat="43.5060294" lon="13.4853422"><ele>94.66666666666667</ele><time>2026-04-28T11:18:19.74Z</time></trkpt><trkpt lat="43.5059927" lon="13.4851333"><ele>96.0</ele><time>2026-04-28T11:18:20.74Z</time></trkpt><trkpt lat="43.5059591" lon="13.4849248"><ele>96.0</ele><time>2026-04-28T11:18:21.763Z</time></trkpt><trkpt lat="43.5059406" lon="13.4847136"><ele>96.0</ele><time>2026-04-28T11:18:22.75Z</time></trkpt><trkpt lat="43.5059333" lon="13.4845041"><ele>96.0</ele><time>2026-04-28T11:18:23.762Z</time></trkpt><trkpt lat="43.505935" lon="13.4843019"><ele>97.25</ele><time>2026-04-28T11:18:24.74Z</time></trkpt><trkpt lat="43.5059497" lon="13.4841088"><ele>98.5</ele><time>2026-04-28T11:18:25.743Z</time></trkpt><trkpt lat="43.5059585" lon="13.4839036"><ele>99.75</ele><time>2026-04-28T11:18:26.746Z</time></trkpt><trkpt lat="43.5059684" lon="13.4836958"><ele>101.0</ele><time>2026-04-28T11:18:27.758Z</time></trkpt><trkpt lat="43.5059774" lon="13.483491"><ele>102.5</ele><time>2026-04-28T11:18:28.75Z</time></trkpt><trkpt lat="43.5059828" lon="13.4832839"><ele>104.0</ele><time>2026-04-28T11:18:29.755Z</time></trkpt><trkpt lat="43.5059807" lon="13.483082"><ele>105.5</ele><time>2026-04-28T11:18:30.761Z</time></trkpt><trkpt lat="43.5059789" lon="13.4828821"><ele>107.0</ele><time>2026-04-28T11:18:31.737Z</time></trkpt><trkpt lat="43.5059766" lon="13.4826828"><ele>108.25</ele><time>2026-04-28T11:18:32.75Z</time></trkpt><trkpt lat="43.5059727" lon="13.4824847"><ele>109.5</ele><time>2026-04-28T11:18:33.742Z</time></trkpt><trkpt lat="43.5059753" lon="13.482284"><ele>110.75</ele><time>2026-04-28T11:18:34.767Z</time></trkpt><trkpt lat="43.5059858" lon="13.4820856"><ele>112.0</ele><time>2026-04-28T11:18:35.736Z</time></trkpt><trkpt lat="43.5060062" lon="13.4818994"><ele>113.5</ele><time>2026-04-28T11:18:36.737Z</time></trkpt><trkpt lat="43.506029" lon="13.4817073"><ele>115.0</ele><time>2026-04-28T11:18:37.744Z</time></trkpt><trkpt lat="43.5060545" lon="13.4815161"><ele>116.5</ele><time>2026-04-28T11:18:38.752Z</time></trkpt><trkpt lat="43.506077" lon="13.4813365"><ele>118.0</ele><time>2026-04-28T11:18:39.75Z</time></trkpt><trkpt lat="43.5060961" lon="13.4811765"><ele>120.0</ele><time>2026-04-28T11:18:40.75Z</time></trkpt><trkpt lat="43.5061121" lon="13.4810366"><ele>120.0</ele><time>2026-04-28T11:18:41.756Z</time></trkpt><trkpt lat="43.5061276" lon="13.4809312"><ele>120.0</ele><time>2026-04-28T11:18:42.762Z</time></trkpt><trkpt lat="43.5061595" lon="13.4807912"><ele>120.0</ele><time>2026-04-28T11:18:44.761Z</time></trkpt></trkseg></trk></gpx>